<?xml version="1.0" encoding="UTF-8" standalone="no" ?>
<gpx xmlns="http://www.topografix.com/GPX/1/1" xmlns:xsi="http://www.w3.org/2001/XMLSchema-instance" xsi:schemaLocation="http://www.topografix.com/GPX/1/1 http://www.topografix.com/GPX/1/1/gpx.xsd" version="1.1" creator="VisuGPX - https://www.visugpx.com">
  <metadata>
    <name>Balade hivernale</name>
    <desc><![CDATA[Balade effectuée du 9 décembre 2022 au 7 janvier 2023.]]></desc>
  </metadata>
  <trk>
    <name><![CDATA[Quilly - Redon]]></name>
    <extensions>
      <line xmlns="http://www.topografix.com/GPX/gpx_style/0/2">
        <color>ff0000</color>
        <width>4</width>
      </line>
    </extensions>
    <trkseg>
      <trkpt lat="47.89098" lon="-2.46675">
        <ele>104.876244</ele>
        <time>2022-12-14T11:53:43.288Z</time>
      </trkpt>
      <trkpt lat="47.89096" lon="-2.46689">
        <ele>104.876244</ele>
        <time>2022-12-14T11:56:10.259Z</time>
      </trkpt>
      <trkpt lat="47.89092" lon="-2.46703">
        <ele>104.876244</ele>
        <time>2022-12-14T11:56:19.280Z</time>
      </trkpt>
      <trkpt lat="47.89094" lon="-2.46717">
        <ele>104.876244</ele>
        <time>2022-12-14T11:56:30.266Z</time>
      </trkpt>
      <trkpt lat="47.89107" lon="-2.46695">
        <ele>104.876244</ele>
        <time>2022-12-14T11:56:59.279Z</time>
      </trkpt>
      <trkpt lat="47.89114" lon="-2.46682">
        <ele>104.876244</ele>
        <time>2022-12-14T11:57:03.279Z</time>
      </trkpt>
      <trkpt lat="47.89121" lon="-2.46669">
        <ele>104.876244</ele>
        <time>2022-12-14T11:57:07.279Z</time>
      </trkpt>
      <trkpt lat="47.8913" lon="-2.46657">
        <ele>104.876244</ele>
        <time>2022-12-14T11:57:11.282Z</time>
      </trkpt>
      <trkpt lat="47.89138" lon="-2.46649">
        <ele>104.591307</ele>
        <time>2022-12-14T11:57:14.281Z</time>
      </trkpt>
      <trkpt lat="47.89147" lon="-2.46642">
        <ele>103.899216</ele>
        <time>2022-12-14T11:57:17.280Z</time>
      </trkpt>
      <trkpt lat="47.89157" lon="-2.46636">
        <ele>103.046453</ele>
        <time>2022-12-14T11:57:21.280Z</time>
      </trkpt>
      <trkpt lat="47.89168" lon="-2.46634">
        <ele>102.266806</ele>
        <time>2022-12-14T11:57:24.283Z</time>
      </trkpt>
      <trkpt lat="47.89178" lon="-2.46634">
        <ele>101.496094</ele>
        <time>2022-12-14T11:57:27.259Z</time>
      </trkpt>
      <trkpt lat="47.89189" lon="-2.46635">
        <ele>100.685813</ele>
        <time>2022-12-14T11:57:30.276Z</time>
      </trkpt>
      <trkpt lat="47.892" lon="-2.46638">
        <ele>99.886727</ele>
        <time>2022-12-14T11:57:33.282Z</time>
      </trkpt>
      <trkpt lat="47.89211" lon="-2.46644">
        <ele>99.056321</ele>
        <time>2022-12-14T11:57:36.283Z</time>
      </trkpt>
      <trkpt lat="47.89221" lon="-2.46652">
        <ele>98.182152</ele>
        <time>2022-12-14T11:57:39.277Z</time>
      </trkpt>
      <trkpt lat="47.8923" lon="-2.46662">
        <ele>97.413976</ele>
        <time>2022-12-14T11:57:42.281Z</time>
      </trkpt>
      <trkpt lat="47.89237" lon="-2.46675">
        <ele>96.536972</ele>
        <time>2022-12-14T11:57:46.282Z</time>
      </trkpt>
      <trkpt lat="47.89244" lon="-2.46689">
        <ele>95.698941</ele>
        <time>2022-12-14T11:57:49.285Z</time>
      </trkpt>
      <trkpt lat="47.89248" lon="-2.46705">
        <ele>94.897206</ele>
        <time>2022-12-14T11:57:52.285Z</time>
      </trkpt>
      <trkpt lat="47.89251" lon="-2.46718">
        <ele>94.220144</ele>
        <time>2022-12-14T11:57:55.280Z</time>
      </trkpt>
      <trkpt lat="47.89252" lon="-2.46736">
        <ele>93.325042</ele>
        <time>2022-12-14T11:57:59.281Z</time>
      </trkpt>
      <trkpt lat="47.89252" lon="-2.46751">
        <ele>92.571508</ele>
        <time>2022-12-14T11:58:02.283Z</time>
      </trkpt>
      <trkpt lat="47.89252" lon="-2.46767">
        <ele>91.78379</ele>
        <time>2022-12-14T11:58:05.274Z</time>
      </trkpt>
      <trkpt lat="47.89252" lon="-2.46783">
        <ele>91.193761</ele>
        <time>2022-12-14T11:58:08.281Z</time>
      </trkpt>
      <trkpt lat="47.89253" lon="-2.468">
        <ele>90.606597</ele>
        <time>2022-12-14T11:58:11.283Z</time>
      </trkpt>
      <trkpt lat="47.89254" lon="-2.46816">
        <ele>90.043154</ele>
        <time>2022-12-14T11:58:14.283Z</time>
      </trkpt>
      <trkpt lat="47.89258" lon="-2.46829">
        <ele>89.542666</ele>
        <time>2022-12-14T11:58:17.278Z</time>
      </trkpt>
      <trkpt lat="47.89266" lon="-2.4684">
        <ele>88.966742</ele>
        <time>2022-12-14T11:58:20.262Z</time>
      </trkpt>
      <trkpt lat="47.89275" lon="-2.46845">
        <ele>88.472665</ele>
        <time>2022-12-14T11:58:23.278Z</time>
      </trkpt>
      <trkpt lat="47.89285" lon="-2.46837">
        <ele>87.868202</ele>
        <time>2022-12-14T11:58:27.281Z</time>
      </trkpt>
      <trkpt lat="47.89292" lon="-2.46823">
        <ele>87.282643</ele>
        <time>2022-12-14T11:58:30.277Z</time>
      </trkpt>
      <trkpt lat="47.89297" lon="-2.46808">
        <ele>86.707372</ele>
        <time>2022-12-14T11:58:33.282Z</time>
      </trkpt>
      <trkpt lat="47.893" lon="-2.46794">
        <ele>86.172426</ele>
        <time>2022-12-14T11:58:36.283Z</time>
      </trkpt>
      <trkpt lat="47.89305" lon="-2.4678">
        <ele>85.615749</ele>
        <time>2022-12-14T11:58:39.281Z</time>
      </trkpt>
      <trkpt lat="47.8931" lon="-2.46763">
        <ele>84.978364</ele>
        <time>2022-12-14T11:58:42.284Z</time>
      </trkpt>
      <trkpt lat="47.89312" lon="-2.4675">
        <ele>84.509721</ele>
        <time>2022-12-14T11:58:44.263Z</time>
      </trkpt>
      <trkpt lat="47.89314" lon="-2.46734">
        <ele>83.936275</ele>
        <time>2022-12-14T11:58:46.281Z</time>
      </trkpt>
      <trkpt lat="47.89315" lon="-2.46717">
        <ele>83.336739</ele>
        <time>2022-12-14T11:58:48.283Z</time>
      </trkpt>
      <trkpt lat="47.89317" lon="-2.46701">
        <ele>82.788271</ele>
        <time>2022-12-14T11:58:50.283Z</time>
      </trkpt>
      <trkpt lat="47.89321" lon="-2.46684">
        <ele>82.230513</ele>
        <time>2022-12-14T11:58:52.280Z</time>
      </trkpt>
      <trkpt lat="47.89323" lon="-2.46668">
        <ele>81.879512</ele>
        <time>2022-12-14T11:58:54.281Z</time>
      </trkpt>
      <trkpt lat="47.89326" lon="-2.46651">
        <ele>81.510578</ele>
        <time>2022-12-14T11:58:56.272Z</time>
      </trkpt>
      <trkpt lat="47.8933" lon="-2.46634">
        <ele>81.128185</ele>
        <time>2022-12-14T11:58:58.274Z</time>
      </trkpt>
      <trkpt lat="47.89333" lon="-2.46618">
        <ele>80.784992</ele>
        <time>2022-12-14T11:59:00.283Z</time>
      </trkpt>
      <trkpt lat="47.89335" lon="-2.46604">
        <ele>80.468794</ele>
        <time>2022-12-14T11:59:02.282Z</time>
      </trkpt>
      <trkpt lat="47.89339" lon="-2.46588">
        <ele>80.105881</ele>
        <time>2022-12-14T11:59:04.269Z</time>
      </trkpt>
      <trkpt lat="47.89344" lon="-2.46572">
        <ele>79.740354</ele>
        <time>2022-12-14T11:59:06.264Z</time>
      </trkpt>
      <trkpt lat="47.89347" lon="-2.46557">
        <ele>79.413391</ele>
        <time>2022-12-14T11:59:08.267Z</time>
      </trkpt>
      <trkpt lat="47.89348" lon="-2.46542">
        <ele>79.093937</ele>
        <time>2022-12-14T11:59:10.279Z</time>
      </trkpt>
      <trkpt lat="47.89351" lon="-2.46527">
        <ele>78.770399</ele>
        <time>2022-12-14T11:59:12.280Z</time>
      </trkpt>
      <trkpt lat="47.89353" lon="-2.46514">
        <ele>78.475845</ele>
        <time>2022-12-14T11:59:14.278Z</time>
      </trkpt>
      <trkpt lat="47.89358" lon="-2.46496">
        <ele>78.069327</ele>
        <time>2022-12-14T11:59:17.279Z</time>
      </trkpt>
      <trkpt lat="47.89363" lon="-2.46478">
        <ele>77.649098</ele>
        <time>2022-12-14T11:59:20.274Z</time>
      </trkpt>
      <trkpt lat="47.89369" lon="-2.46461">
        <ele>77.24573</ele>
        <time>2022-12-14T11:59:23.282Z</time>
      </trkpt>
      <trkpt lat="47.89375" lon="-2.46449">
        <ele>76.917085</ele>
        <time>2022-12-14T11:59:25.268Z</time>
      </trkpt>
      <trkpt lat="47.89382" lon="-2.46438">
        <ele>76.631282</ele>
        <time>2022-12-14T11:59:27.283Z</time>
      </trkpt>
      <trkpt lat="47.8939" lon="-2.4643">
        <ele>76.480266</ele>
        <time>2022-12-14T11:59:29.285Z</time>
      </trkpt>
      <trkpt lat="47.89399" lon="-2.46424">
        <ele>76.333363</ele>
        <time>2022-12-14T11:59:31.278Z</time>
      </trkpt>
      <trkpt lat="47.89412" lon="-2.46416">
        <ele>76.113283</ele>
        <time>2022-12-14T11:59:34.276Z</time>
      </trkpt>
      <trkpt lat="47.89422" lon="-2.46411">
        <ele>75.945255</ele>
        <time>2022-12-14T11:59:36.282Z</time>
      </trkpt>
      <trkpt lat="47.89435" lon="-2.46404">
        <ele>75.737793</ele>
        <time>2022-12-14T11:59:39.280Z</time>
      </trkpt>
      <trkpt lat="47.89446" lon="-2.46398">
        <ele>75.552776</ele>
        <time>2022-12-14T11:59:42.287Z</time>
      </trkpt>
      <trkpt lat="47.89455" lon="-2.46393">
        <ele>75.39917</ele>
        <time>2022-12-14T11:59:45.283Z</time>
      </trkpt>
      <trkpt lat="47.89464" lon="-2.46387">
        <ele>75.25366</ele>
        <time>2022-12-14T11:59:48.280Z</time>
      </trkpt>
      <trkpt lat="47.89473" lon="-2.46381">
        <ele>75.100764</ele>
        <time>2022-12-14T11:59:51.280Z</time>
      </trkpt>
      <trkpt lat="47.89485" lon="-2.46374">
        <ele>74.901998</ele>
        <time>2022-12-14T11:59:54.272Z</time>
      </trkpt>
      <trkpt lat="47.89496" lon="-2.46368">
        <ele>74.719096</ele>
        <time>2022-12-14T11:59:57.281Z</time>
      </trkpt>
      <trkpt lat="47.89507" lon="-2.46361">
        <ele>74.53914</ele>
        <time>2022-12-14T12:00:00.259Z</time>
      </trkpt>
      <trkpt lat="47.89516" lon="-2.46356">
        <ele>74.386245</ele>
        <time>2022-12-14T12:00:03.282Z</time>
      </trkpt>
      <trkpt lat="47.89527" lon="-2.46349">
        <ele>74.208652</ele>
        <time>2022-12-14T12:00:06.273Z</time>
      </trkpt>
      <trkpt lat="47.89538" lon="-2.46342">
        <ele>74.017857</ele>
        <time>2022-12-14T12:00:09.284Z</time>
      </trkpt>
      <trkpt lat="47.89549" lon="-2.46335">
        <ele>73.866378</ele>
        <time>2022-12-14T12:00:12.283Z</time>
      </trkpt>
      <trkpt lat="47.8956" lon="-2.46329">
        <ele>73.869359</ele>
        <time>2022-12-14T12:00:15.278Z</time>
      </trkpt>
      <trkpt lat="47.89572" lon="-2.46322">
        <ele>73.87242</ele>
        <time>2022-12-14T12:00:18.282Z</time>
      </trkpt>
      <trkpt lat="47.89583" lon="-2.46314">
        <ele>73.875441</ele>
        <time>2022-12-14T12:00:21.282Z</time>
      </trkpt>
      <trkpt lat="47.89592" lon="-2.46308">
        <ele>73.87798</ele>
        <time>2022-12-14T12:00:24.282Z</time>
      </trkpt>
      <trkpt lat="47.89602" lon="-2.46303">
        <ele>73.880442</ele>
        <time>2022-12-14T12:00:27.275Z</time>
      </trkpt>
      <trkpt lat="47.89611" lon="-2.46297">
        <ele>73.88301</ele>
        <time>2022-12-14T12:00:30.284Z</time>
      </trkpt>
      <trkpt lat="47.89622" lon="-2.46289">
        <ele>73.88592</ele>
        <time>2022-12-14T12:00:33.282Z</time>
      </trkpt>
      <trkpt lat="47.89634" lon="-2.46283">
        <ele>73.889132</ele>
        <time>2022-12-14T12:00:36.284Z</time>
      </trkpt>
      <trkpt lat="47.89645" lon="-2.46276">
        <ele>73.891997</ele>
        <time>2022-12-14T12:00:39.257Z</time>
      </trkpt>
      <trkpt lat="47.89655" lon="-2.46271">
        <ele>73.894638</ele>
        <time>2022-12-14T12:00:42.280Z</time>
      </trkpt>
      <trkpt lat="47.89666" lon="-2.46264">
        <ele>73.897501</ele>
        <time>2022-12-14T12:00:46.274Z</time>
      </trkpt>
      <trkpt lat="47.89676" lon="-2.46259">
        <ele>73.900224</ele>
        <time>2022-12-14T12:00:49.279Z</time>
      </trkpt>
      <trkpt lat="47.89687" lon="-2.46252">
        <ele>73.903074</ele>
        <time>2022-12-14T12:00:52.283Z</time>
      </trkpt>
      <trkpt lat="47.89699" lon="-2.46245">
        <ele>73.906263</ele>
        <time>2022-12-14T12:00:55.275Z</time>
      </trkpt>
      <trkpt lat="47.89711" lon="-2.46238">
        <ele>73.909453</ele>
        <time>2022-12-14T12:00:58.283Z</time>
      </trkpt>
      <trkpt lat="47.89723" lon="-2.4623">
        <ele>73.812639</ele>
        <time>2022-12-14T12:01:01.283Z</time>
      </trkpt>
      <trkpt lat="47.89735" lon="-2.46223">
        <ele>73.675366</ele>
        <time>2022-12-14T12:01:04.283Z</time>
      </trkpt>
      <trkpt lat="47.89744" lon="-2.46218">
        <ele>73.579396</ele>
        <time>2022-12-14T12:01:06.284Z</time>
      </trkpt>
      <trkpt lat="47.89752" lon="-2.46212">
        <ele>73.486674</ele>
        <time>2022-12-14T12:01:08.285Z</time>
      </trkpt>
      <trkpt lat="47.89761" lon="-2.46207">
        <ele>73.390957</ele>
        <time>2022-12-14T12:01:10.262Z</time>
      </trkpt>
      <trkpt lat="47.89773" lon="-2.462">
        <ele>73.254892</ele>
        <time>2022-12-14T12:01:13.282Z</time>
      </trkpt>
      <trkpt lat="47.89786" lon="-2.46193">
        <ele>73.117215</ele>
        <time>2022-12-14T12:01:16.281Z</time>
      </trkpt>
      <trkpt lat="47.89796" lon="-2.46186">
        <ele>72.99872</ele>
        <time>2022-12-14T12:01:19.281Z</time>
      </trkpt>
      <trkpt lat="47.89809" lon="-2.4618">
        <ele>72.859817</ele>
        <time>2022-12-14T12:01:22.275Z</time>
      </trkpt>
      <trkpt lat="47.89818" lon="-2.46175">
        <ele>72.766183</ele>
        <time>2022-12-14T12:01:24.276Z</time>
      </trkpt>
      <trkpt lat="47.89831" lon="-2.46169">
        <ele>72.62782</ele>
        <time>2022-12-14T12:01:27.265Z</time>
      </trkpt>
      <trkpt lat="47.89843" lon="-2.46166">
        <ele>72.49733</ele>
        <time>2022-12-14T12:01:30.258Z</time>
      </trkpt>
      <trkpt lat="47.89856" lon="-2.46164">
        <ele>72.370844</ele>
        <time>2022-12-14T12:01:33.281Z</time>
      </trkpt>
      <trkpt lat="47.89868" lon="-2.46164">
        <ele>72.243844</ele>
        <time>2022-12-14T12:01:36.276Z</time>
      </trkpt>
      <trkpt lat="47.89881" lon="-2.46165">
        <ele>72.111405</ele>
        <time>2022-12-14T12:01:39.282Z</time>
      </trkpt>
      <trkpt lat="47.89894" lon="-2.46168">
        <ele>71.957576</ele>
        <time>2022-12-14T12:01:42.283Z</time>
      </trkpt>
      <trkpt lat="47.89907" lon="-2.46172">
        <ele>71.796985</ele>
        <time>2022-12-14T12:01:45.286Z</time>
      </trkpt>
      <trkpt lat="47.89919" lon="-2.46177">
        <ele>71.644586</ele>
        <time>2022-12-14T12:01:48.282Z</time>
      </trkpt>
      <trkpt lat="47.8993" lon="-2.4618">
        <ele>71.510389</ele>
        <time>2022-12-14T12:01:51.281Z</time>
      </trkpt>
      <trkpt lat="47.89941" lon="-2.46184">
        <ele>71.36692</ele>
        <time>2022-12-14T12:01:54.281Z</time>
      </trkpt>
      <trkpt lat="47.89952" lon="-2.46188">
        <ele>71.229803</ele>
        <time>2022-12-14T12:01:57.282Z</time>
      </trkpt>
      <trkpt lat="47.89962" lon="-2.46192">
        <ele>71.09945</ele>
        <time>2022-12-14T12:02:00.281Z</time>
      </trkpt>
      <trkpt lat="47.89972" lon="-2.46195">
        <ele>70.980336</ele>
        <time>2022-12-14T12:02:03.275Z</time>
      </trkpt>
      <trkpt lat="47.89982" lon="-2.462">
        <ele>70.845133</ele>
        <time>2022-12-14T12:02:07.276Z</time>
      </trkpt>
      <trkpt lat="47.89991" lon="-2.46205">
        <ele>70.726734</ele>
        <time>2022-12-14T12:02:11.278Z</time>
      </trkpt>
      <trkpt lat="47.90001" lon="-2.46204">
        <ele>70.601009</ele>
        <time>2022-12-14T12:02:16.282Z</time>
      </trkpt>
      <trkpt lat="47.90008" lon="-2.46186">
        <ele>70.431918</ele>
        <time>2022-12-14T12:02:19.276Z</time>
      </trkpt>
      <trkpt lat="47.90013" lon="-2.4617">
        <ele>70.295007</ele>
        <time>2022-12-14T12:02:21.277Z</time>
      </trkpt>
      <trkpt lat="47.90016" lon="-2.46154">
        <ele>70.153484</ele>
        <time>2022-12-14T12:02:23.262Z</time>
      </trkpt>
      <trkpt lat="47.9002" lon="-2.46138">
        <ele>70.009967</ele>
        <time>2022-12-14T12:02:25.281Z</time>
      </trkpt>
      <trkpt lat="47.90024" lon="-2.46125">
        <ele>69.899031</ele>
        <time>2022-12-14T12:02:27.279Z</time>
      </trkpt>
      <trkpt lat="47.90027" lon="-2.46109">
        <ele>69.852202</ele>
        <time>2022-12-14T12:02:31.281Z</time>
      </trkpt>
      <trkpt lat="47.90027" lon="-2.46093">
        <ele>69.838733</ele>
        <time>2022-12-14T12:02:35.270Z</time>
      </trkpt>
      <trkpt lat="47.90029" lon="-2.46079">
        <ele>69.827722</ele>
        <time>2022-12-14T12:02:38.280Z</time>
      </trkpt>
      <trkpt lat="47.90031" lon="-2.4606">
        <ele>69.812266</ele>
        <time>2022-12-14T12:02:42.282Z</time>
      </trkpt>
      <trkpt lat="47.90033" lon="-2.46046">
        <ele>69.800505</ele>
        <time>2022-12-14T12:02:46.282Z</time>
      </trkpt>
      <trkpt lat="47.90031" lon="-2.46019">
        <ele>69.778178</ele>
        <time>2022-12-14T12:03:23.275Z</time>
      </trkpt>
      <trkpt lat="47.90031" lon="-2.46003">
        <ele>69.765431</ele>
        <time>2022-12-14T12:03:27.280Z</time>
      </trkpt>
      <trkpt lat="47.90032" lon="-2.45988">
        <ele>69.753177</ele>
        <time>2022-12-14T12:03:30.283Z</time>
      </trkpt>
      <trkpt lat="47.90032" lon="-2.45973">
        <ele>69.741017</ele>
        <time>2022-12-14T12:03:33.281Z</time>
      </trkpt>
      <trkpt lat="47.90032" lon="-2.45957">
        <ele>69.728291</ele>
        <time>2022-12-14T12:03:36.274Z</time>
      </trkpt>
      <trkpt lat="47.90032" lon="-2.45942">
        <ele>69.716366</ele>
        <time>2022-12-14T12:03:39.282Z</time>
      </trkpt>
      <trkpt lat="47.90032" lon="-2.45927">
        <ele>69.703884</ele>
        <time>2022-12-14T12:03:42.283Z</time>
      </trkpt>
      <trkpt lat="47.90031" lon="-2.45912">
        <ele>69.691591</ele>
        <time>2022-12-14T12:03:45.277Z</time>
      </trkpt>
      <trkpt lat="47.9003" lon="-2.45898">
        <ele>69.680283</ele>
        <time>2022-12-14T12:03:51.282Z</time>
      </trkpt>
      <trkpt lat="47.90027" lon="-2.45883">
        <ele>69.66706</ele>
        <time>2022-12-14T12:03:58.259Z</time>
      </trkpt>
      <trkpt lat="47.90023" lon="-2.45867">
        <ele>69.653869</ele>
        <time>2022-12-14T12:04:03.345Z</time>
      </trkpt>
      <trkpt lat="47.90018" lon="-2.45855">
        <ele>69.631996</ele>
        <time>2022-12-14T12:04:06.264Z</time>
      </trkpt>
      <trkpt lat="47.90011" lon="-2.45841">
        <ele>69.555153</ele>
        <time>2022-12-14T12:04:09.281Z</time>
      </trkpt>
      <trkpt lat="47.90002" lon="-2.45829">
        <ele>69.473298</ele>
        <time>2022-12-14T12:04:12.282Z</time>
      </trkpt>
      <trkpt lat="47.89994" lon="-2.45817">
        <ele>69.393473</ele>
        <time>2022-12-14T12:04:15.282Z</time>
      </trkpt>
      <trkpt lat="47.89985" lon="-2.45806">
        <ele>69.317808</ele>
        <time>2022-12-14T12:04:18.281Z</time>
      </trkpt>
      <trkpt lat="47.89975" lon="-2.45796">
        <ele>69.237657</ele>
        <time>2022-12-14T12:04:21.267Z</time>
      </trkpt>
      <trkpt lat="47.89964" lon="-2.45787">
        <ele>69.154292</ele>
        <time>2022-12-14T12:04:24.271Z</time>
      </trkpt>
      <trkpt lat="47.89953" lon="-2.45778">
        <ele>69.073462</ele>
        <time>2022-12-14T12:04:27.281Z</time>
      </trkpt>
      <trkpt lat="47.89945" lon="-2.4577">
        <ele>69.008017</ele>
        <time>2022-12-14T12:04:30.294Z</time>
      </trkpt>
      <trkpt lat="47.89935" lon="-2.45762">
        <ele>68.93216</ele>
        <time>2022-12-14T12:04:33.283Z</time>
      </trkpt>
      <trkpt lat="47.89926" lon="-2.45755">
        <ele>68.86222</ele>
        <time>2022-12-14T12:04:36.281Z</time>
      </trkpt>
      <trkpt lat="47.89916" lon="-2.45745">
        <ele>68.782964</ele>
        <time>2022-12-14T12:04:39.285Z</time>
      </trkpt>
      <trkpt lat="47.89905" lon="-2.45737">
        <ele>68.7023</ele>
        <time>2022-12-14T12:04:42.282Z</time>
      </trkpt>
      <trkpt lat="47.89894" lon="-2.45728">
        <ele>68.616099</ele>
        <time>2022-12-14T12:04:45.289Z</time>
      </trkpt>
      <trkpt lat="47.89883" lon="-2.45721">
        <ele>68.537066</ele>
        <time>2022-12-14T12:04:48.281Z</time>
      </trkpt>
      <trkpt lat="47.89873" lon="-2.45714">
        <ele>68.464235</ele>
        <time>2022-12-14T12:04:51.283Z</time>
      </trkpt>
      <trkpt lat="47.89862" lon="-2.45708">
        <ele>68.535497</ele>
        <time>2022-12-14T12:04:54.283Z</time>
      </trkpt>
      <trkpt lat="47.89853" lon="-2.45703">
        <ele>68.63943</ele>
        <time>2022-12-14T12:04:57.283Z</time>
      </trkpt>
      <trkpt lat="47.89844" lon="-2.45698">
        <ele>68.739601</ele>
        <time>2022-12-14T12:05:00.285Z</time>
      </trkpt>
      <trkpt lat="47.89835" lon="-2.45694">
        <ele>68.835578</ele>
        <time>2022-12-14T12:05:03.284Z</time>
      </trkpt>
      <trkpt lat="47.89826" lon="-2.45688">
        <ele>68.943291</ele>
        <time>2022-12-14T12:05:06.280Z</time>
      </trkpt>
      <trkpt lat="47.89816" lon="-2.45682">
        <ele>69.055195</ele>
        <time>2022-12-14T12:05:09.281Z</time>
      </trkpt>
      <trkpt lat="47.89805" lon="-2.45674">
        <ele>69.1861</ele>
        <time>2022-12-14T12:05:12.357Z</time>
      </trkpt>
      <trkpt lat="47.89793" lon="-2.45668">
        <ele>69.326298</ele>
        <time>2022-12-14T12:05:15.282Z</time>
      </trkpt>
      <trkpt lat="47.8978" lon="-2.4566">
        <ele>69.468009</ele>
        <time>2022-12-14T12:05:18.359Z</time>
      </trkpt>
      <trkpt lat="47.89772" lon="-2.45655">
        <ele>69.56611</ele>
        <time>2022-12-14T12:05:20.280Z</time>
      </trkpt>
      <trkpt lat="47.89763" lon="-2.45648">
        <ele>69.668608</ele>
        <time>2022-12-14T12:05:22.262Z</time>
      </trkpt>
      <trkpt lat="47.89755" lon="-2.45642">
        <ele>69.768573</ele>
        <time>2022-12-14T12:05:24.329Z</time>
      </trkpt>
      <trkpt lat="47.89743" lon="-2.45634">
        <ele>69.909453</ele>
        <time>2022-12-14T12:05:27.282Z</time>
      </trkpt>
      <trkpt lat="47.89731" lon="-2.45623">
        <ele>70.049699</ele>
        <time>2022-12-14T12:05:30.328Z</time>
      </trkpt>
      <trkpt lat="47.8972" lon="-2.45613">
        <ele>70.189739</ele>
        <time>2022-12-14T12:05:33.285Z</time>
      </trkpt>
      <trkpt lat="47.89713" lon="-2.45605">
        <ele>70.286458</ele>
        <time>2022-12-14T12:05:35.286Z</time>
      </trkpt>
      <trkpt lat="47.89703" lon="-2.45594">
        <ele>70.298259</ele>
        <time>2022-12-14T12:05:38.290Z</time>
      </trkpt>
      <trkpt lat="47.89692" lon="-2.45583">
        <ele>70.182975</ele>
        <time>2022-12-14T12:05:41.283Z</time>
      </trkpt>
      <trkpt lat="47.89681" lon="-2.45572">
        <ele>70.061813</ele>
        <time>2022-12-14T12:05:44.270Z</time>
      </trkpt>
      <trkpt lat="47.89671" lon="-2.4556">
        <ele>69.943662</ele>
        <time>2022-12-14T12:05:47.281Z</time>
      </trkpt>
      <trkpt lat="47.89661" lon="-2.4555">
        <ele>69.833715</ele>
        <time>2022-12-14T12:05:50.281Z</time>
      </trkpt>
      <trkpt lat="47.89652" lon="-2.4554">
        <ele>69.727605</ele>
        <time>2022-12-14T12:05:53.330Z</time>
      </trkpt>
      <trkpt lat="47.89642" lon="-2.45529">
        <ele>69.616702</ele>
        <time>2022-12-14T12:05:56.281Z</time>
      </trkpt>
      <trkpt lat="47.89631" lon="-2.45519">
        <ele>69.500285</ele>
        <time>2022-12-14T12:05:59.343Z</time>
      </trkpt>
      <trkpt lat="47.89623" lon="-2.45513">
        <ele>69.418825</ele>
        <time>2022-12-14T12:06:01.280Z</time>
      </trkpt>
      <trkpt lat="47.89611" lon="-2.45504">
        <ele>69.299019</ele>
        <time>2022-12-14T12:06:04.284Z</time>
      </trkpt>
      <trkpt lat="47.89599" lon="-2.45497">
        <ele>69.179207</ele>
        <time>2022-12-14T12:06:07.283Z</time>
      </trkpt>
      <trkpt lat="47.89586" lon="-2.4549">
        <ele>69.057256</ele>
        <time>2022-12-14T12:06:10.257Z</time>
      </trkpt>
      <trkpt lat="47.89574" lon="-2.45485">
        <ele>68.942318</ele>
        <time>2022-12-14T12:06:13.283Z</time>
      </trkpt>
      <trkpt lat="47.89563" lon="-2.45481">
        <ele>68.833515</ele>
        <time>2022-12-14T12:06:16.285Z</time>
      </trkpt>
      <trkpt lat="47.89551" lon="-2.45476">
        <ele>68.726835</ele>
        <time>2022-12-14T12:06:19.282Z</time>
      </trkpt>
      <trkpt lat="47.89539" lon="-2.45472">
        <ele>68.58807</ele>
        <time>2022-12-14T12:06:22.331Z</time>
      </trkpt>
      <trkpt lat="47.89527" lon="-2.45467">
        <ele>68.448599</ele>
        <time>2022-12-14T12:06:25.283Z</time>
      </trkpt>
      <trkpt lat="47.89516" lon="-2.45462">
        <ele>68.312837</ele>
        <time>2022-12-14T12:06:28.333Z</time>
      </trkpt>
      <trkpt lat="47.89505" lon="-2.45455">
        <ele>68.184547</ele>
        <time>2022-12-14T12:06:31.263Z</time>
      </trkpt>
      <trkpt lat="47.89495" lon="-2.45445">
        <ele>68.050824</ele>
        <time>2022-12-14T12:06:34.361Z</time>
      </trkpt>
      <trkpt lat="47.89487" lon="-2.45433">
        <ele>67.913744</ele>
        <time>2022-12-14T12:06:37.283Z</time>
      </trkpt>
      <trkpt lat="47.89478" lon="-2.45419">
        <ele>67.775383</ele>
        <time>2022-12-14T12:06:40.357Z</time>
      </trkpt>
      <trkpt lat="47.8947" lon="-2.45407">
        <ele>67.646651</ele>
        <time>2022-12-14T12:06:43.283Z</time>
      </trkpt>
      <trkpt lat="47.89462" lon="-2.45398">
        <ele>67.526194</ele>
        <time>2022-12-14T12:06:46.339Z</time>
      </trkpt>
      <trkpt lat="47.89454" lon="-2.4539">
        <ele>67.423755</ele>
        <time>2022-12-14T12:06:49.282Z</time>
      </trkpt>
      <trkpt lat="47.89446" lon="-2.45383">
        <ele>67.316253</ele>
        <time>2022-12-14T12:06:52.337Z</time>
      </trkpt>
      <trkpt lat="47.89436" lon="-2.45376">
        <ele>67.195164</ele>
        <time>2022-12-14T12:06:55.288Z</time>
      </trkpt>
      <trkpt lat="47.89427" lon="-2.4537">
        <ele>67.081819</ele>
        <time>2022-12-14T12:06:58.333Z</time>
      </trkpt>
      <trkpt lat="47.89417" lon="-2.45365">
        <ele>66.958601</ele>
        <time>2022-12-14T12:07:01.284Z</time>
      </trkpt>
      <trkpt lat="47.89405" lon="-2.45363">
        <ele>66.829542</ele>
        <time>2022-12-14T12:07:04.354Z</time>
      </trkpt>
      <trkpt lat="47.89394" lon="-2.45361">
        <ele>66.699055</ele>
        <time>2022-12-14T12:07:07.284Z</time>
      </trkpt>
      <trkpt lat="47.89384" lon="-2.45359">
        <ele>66.751692</ele>
        <time>2022-12-14T12:07:10.333Z</time>
      </trkpt>
      <trkpt lat="47.89372" lon="-2.45357">
        <ele>66.835206</ele>
        <time>2022-12-14T12:07:13.281Z</time>
      </trkpt>
      <trkpt lat="47.8936" lon="-2.45353">
        <ele>66.918985</ele>
        <time>2022-12-14T12:07:16.358Z</time>
      </trkpt>
      <trkpt lat="47.89348" lon="-2.45349">
        <ele>67.009719</ele>
        <time>2022-12-14T12:07:19.283Z</time>
      </trkpt>
      <trkpt lat="47.89335" lon="-2.45345">
        <ele>67.097711</ele>
        <time>2022-12-14T12:07:22.343Z</time>
      </trkpt>
      <trkpt lat="47.89324" lon="-2.45339">
        <ele>67.18206</ele>
        <time>2022-12-14T12:07:25.286Z</time>
      </trkpt>
      <trkpt lat="47.89311" lon="-2.45335">
        <ele>67.273796</ele>
        <time>2022-12-14T12:07:28.272Z</time>
      </trkpt>
      <trkpt lat="47.89298" lon="-2.4533">
        <ele>67.368649</ele>
        <time>2022-12-14T12:07:31.295Z</time>
      </trkpt>
      <trkpt lat="47.89289" lon="-2.45328">
        <ele>67.435233</ele>
        <time>2022-12-14T12:07:33.337Z</time>
      </trkpt>
      <trkpt lat="47.89276" lon="-2.45324">
        <ele>67.525056</ele>
        <time>2022-12-14T12:07:36.282Z</time>
      </trkpt>
      <trkpt lat="47.89263" lon="-2.45321">
        <ele>67.61618</ele>
        <time>2022-12-14T12:07:39.286Z</time>
      </trkpt>
      <trkpt lat="47.89251" lon="-2.45317">
        <ele>67.703846</ele>
        <time>2022-12-14T12:07:42.284Z</time>
      </trkpt>
      <trkpt lat="47.8924" lon="-2.45315">
        <ele>67.781497</ele>
        <time>2022-12-14T12:07:45.341Z</time>
      </trkpt>
      <trkpt lat="47.89229" lon="-2.45311">
        <ele>67.865854</ele>
        <time>2022-12-14T12:07:48.284Z</time>
      </trkpt>
      <trkpt lat="47.8922" lon="-2.45308">
        <ele>67.9295</ele>
        <time>2022-12-14T12:07:50.279Z</time>
      </trkpt>
      <trkpt lat="47.89207" lon="-2.45303">
        <ele>67.927015</ele>
        <time>2022-12-14T12:07:53.283Z</time>
      </trkpt>
      <trkpt lat="47.89194" lon="-2.45297">
        <ele>67.89775</ele>
        <time>2022-12-14T12:07:56.283Z</time>
      </trkpt>
      <trkpt lat="47.89181" lon="-2.45291">
        <ele>67.86747</ele>
        <time>2022-12-14T12:07:59.285Z</time>
      </trkpt>
      <trkpt lat="47.89168" lon="-2.45286">
        <ele>67.83785</ele>
        <time>2022-12-14T12:08:02.284Z</time>
      </trkpt>
      <trkpt lat="47.89157" lon="-2.45281">
        <ele>67.81085</ele>
        <time>2022-12-14T12:08:05.286Z</time>
      </trkpt>
      <trkpt lat="47.89145" lon="-2.45276">
        <ele>67.78338</ele>
        <time>2022-12-14T12:08:08.284Z</time>
      </trkpt>
      <trkpt lat="47.89133" lon="-2.45272">
        <ele>67.75552</ele>
        <time>2022-12-14T12:08:11.264Z</time>
      </trkpt>
      <trkpt lat="47.8912" lon="-2.45267">
        <ele>67.726938</ele>
        <time>2022-12-14T12:08:14.282Z</time>
      </trkpt>
      <trkpt lat="47.89111" lon="-2.45264">
        <ele>67.706748</ele>
        <time>2022-12-14T12:08:16.283Z</time>
      </trkpt>
      <trkpt lat="47.89102" lon="-2.45261">
        <ele>67.686291</ele>
        <time>2022-12-14T12:08:18.265Z</time>
      </trkpt>
      <trkpt lat="47.89089" lon="-2.45256">
        <ele>67.655695</ele>
        <time>2022-12-14T12:08:21.285Z</time>
      </trkpt>
      <trkpt lat="47.89077" lon="-2.45252">
        <ele>67.627263</ele>
        <time>2022-12-14T12:08:24.269Z</time>
      </trkpt>
      <trkpt lat="47.89064" lon="-2.45247">
        <ele>67.597783</ele>
        <time>2022-12-14T12:08:27.285Z</time>
      </trkpt>
      <trkpt lat="47.89051" lon="-2.45242">
        <ele>67.567437</ele>
        <time>2022-12-14T12:08:30.283Z</time>
      </trkpt>
      <trkpt lat="47.89042" lon="-2.4524">
        <ele>67.543603</ele>
        <time>2022-12-14T12:08:32.337Z</time>
      </trkpt>
      <trkpt lat="47.89029" lon="-2.45237">
        <ele>67.477114</ele>
        <time>2022-12-14T12:08:35.284Z</time>
      </trkpt>
      <trkpt lat="47.89019" lon="-2.45236">
        <ele>67.430083</ele>
        <time>2022-12-14T12:08:37.284Z</time>
      </trkpt>
      <trkpt lat="47.89006" lon="-2.45234">
        <ele>67.361623</ele>
        <time>2022-12-14T12:08:40.282Z</time>
      </trkpt>
      <trkpt lat="47.88997" lon="-2.45234">
        <ele>67.314769</ele>
        <time>2022-12-14T12:08:42.281Z</time>
      </trkpt>
      <trkpt lat="47.88984" lon="-2.45235">
        <ele>67.246995</ele>
        <time>2022-12-14T12:08:45.284Z</time>
      </trkpt>
      <trkpt lat="47.88971" lon="-2.45238">
        <ele>67.184352</ele>
        <time>2022-12-14T12:08:48.284Z</time>
      </trkpt>
      <trkpt lat="47.8896" lon="-2.45243">
        <ele>67.124699</ele>
        <time>2022-12-14T12:08:51.285Z</time>
      </trkpt>
      <trkpt lat="47.88948" lon="-2.45249">
        <ele>67.060871</ele>
        <time>2022-12-14T12:08:54.285Z</time>
      </trkpt>
      <trkpt lat="47.88936" lon="-2.45257">
        <ele>66.992466</ele>
        <time>2022-12-14T12:08:57.283Z</time>
      </trkpt>
      <trkpt lat="47.88928" lon="-2.45262">
        <ele>66.946148</ele>
        <time>2022-12-14T12:08:59.285Z</time>
      </trkpt>
      <trkpt lat="47.88916" lon="-2.4527">
        <ele>66.880277</ele>
        <time>2022-12-14T12:09:02.339Z</time>
      </trkpt>
      <trkpt lat="47.88905" lon="-2.45277">
        <ele>66.820354</ele>
        <time>2022-12-14T12:09:05.285Z</time>
      </trkpt>
      <trkpt lat="47.88894" lon="-2.45282">
        <ele>66.760787</ele>
        <time>2022-12-14T12:09:08.335Z</time>
      </trkpt>
      <trkpt lat="47.88884" lon="-2.45287">
        <ele>66.706712</ele>
        <time>2022-12-14T12:09:11.283Z</time>
      </trkpt>
      <trkpt lat="47.88874" lon="-2.45289">
        <ele>66.658448</ele>
        <time>2022-12-14T12:09:14.358Z</time>
      </trkpt>
      <trkpt lat="47.88864" lon="-2.45287">
        <ele>66.537485</ele>
        <time>2022-12-14T12:09:17.284Z</time>
      </trkpt>
      <trkpt lat="47.88852" lon="-2.45282">
        <ele>66.335337</ele>
        <time>2022-12-14T12:09:20.338Z</time>
      </trkpt>
      <trkpt lat="47.88841" lon="-2.45272">
        <ele>66.12701</ele>
        <time>2022-12-14T12:09:23.283Z</time>
      </trkpt>
      <trkpt lat="47.88832" lon="-2.45259">
        <ele>65.907924</ele>
        <time>2022-12-14T12:09:26.271Z</time>
      </trkpt>
      <trkpt lat="47.88825" lon="-2.45249">
        <ele>65.752443</ele>
        <time>2022-12-14T12:09:28.282Z</time>
      </trkpt>
      <trkpt lat="47.88819" lon="-2.4524">
        <ele>65.600918</ele>
        <time>2022-12-14T12:09:30.283Z</time>
      </trkpt>
      <trkpt lat="47.88809" lon="-2.45225">
        <ele>65.37583</ele>
        <time>2022-12-14T12:09:33.283Z</time>
      </trkpt>
      <trkpt lat="47.88803" lon="-2.45215">
        <ele>65.22382</ele>
        <time>2022-12-14T12:09:35.284Z</time>
      </trkpt>
      <trkpt lat="47.88795" lon="-2.452">
        <ele>65.015317</ele>
        <time>2022-12-14T12:09:38.281Z</time>
      </trkpt>
      <trkpt lat="47.88788" lon="-2.45187">
        <ele>64.820697</ele>
        <time>2022-12-14T12:09:41.283Z</time>
      </trkpt>
      <trkpt lat="47.8878" lon="-2.45174">
        <ele>64.630282</ele>
        <time>2022-12-14T12:09:44.284Z</time>
      </trkpt>
      <trkpt lat="47.88772" lon="-2.45161">
        <ele>64.423697</ele>
        <time>2022-12-14T12:09:47.285Z</time>
      </trkpt>
      <trkpt lat="47.88762" lon="-2.45148">
        <ele>64.21669</ele>
        <time>2022-12-14T12:09:50.282Z</time>
      </trkpt>
      <trkpt lat="47.88754" lon="-2.45137">
        <ele>64.031701</ele>
        <time>2022-12-14T12:09:53.337Z</time>
      </trkpt>
      <trkpt lat="47.88747" lon="-2.45126">
        <ele>63.861653</ele>
        <time>2022-12-14T12:09:56.281Z</time>
      </trkpt>
      <trkpt lat="47.8874" lon="-2.45114">
        <ele>63.679861</ele>
        <time>2022-12-14T12:10:00.284Z</time>
      </trkpt>
      <trkpt lat="47.88733" lon="-2.45103">
        <ele>63.635395</ele>
        <time>2022-12-14T12:10:04.282Z</time>
      </trkpt>
      <trkpt lat="47.88727" lon="-2.45092">
        <ele>63.621753</ele>
        <time>2022-12-14T12:10:08.283Z</time>
      </trkpt>
      <trkpt lat="47.88719" lon="-2.4508">
        <ele>63.606325</ele>
        <time>2022-12-14T12:10:12.268Z</time>
      </trkpt>
      <trkpt lat="47.88711" lon="-2.4507">
        <ele>63.591924</ele>
        <time>2022-12-14T12:10:15.284Z</time>
      </trkpt>
      <trkpt lat="47.88704" lon="-2.45058">
        <ele>63.575963</ele>
        <time>2022-12-14T12:10:18.270Z</time>
      </trkpt>
      <trkpt lat="47.88695" lon="-2.45044">
        <ele>63.55846</ele>
        <time>2022-12-14T12:10:21.283Z</time>
      </trkpt>
      <trkpt lat="47.88687" lon="-2.45029">
        <ele>63.540007</ele>
        <time>2022-12-14T12:10:24.283Z</time>
      </trkpt>
      <trkpt lat="47.8868" lon="-2.45013">
        <ele>63.521605</ele>
        <time>2022-12-14T12:10:27.282Z</time>
      </trkpt>
      <trkpt lat="47.88673" lon="-2.44996">
        <ele>63.503166</ele>
        <time>2022-12-14T12:10:30.284Z</time>
      </trkpt>
      <trkpt lat="47.88668" lon="-2.44978">
        <ele>63.484427</ele>
        <time>2022-12-14T12:10:33.283Z</time>
      </trkpt>
      <trkpt lat="47.88665" lon="-2.44964">
        <ele>63.471313</ele>
        <time>2022-12-14T12:10:35.325Z</time>
      </trkpt>
      <trkpt lat="47.88664" lon="-2.44951">
        <ele>63.458399</ele>
        <time>2022-12-14T12:10:37.282Z</time>
      </trkpt>
      <trkpt lat="47.88661" lon="-2.44932">
        <ele>63.440027</ele>
        <time>2022-12-14T12:10:40.283Z</time>
      </trkpt>
      <trkpt lat="47.88658" lon="-2.44915">
        <ele>63.423179</ele>
        <time>2022-12-14T12:10:43.296Z</time>
      </trkpt>
      <trkpt lat="47.88655" lon="-2.44897">
        <ele>63.406524</ele>
        <time>2022-12-14T12:10:46.286Z</time>
      </trkpt>
      <trkpt lat="47.88653" lon="-2.44878">
        <ele>63.441004</ele>
        <time>2022-12-14T12:10:49.287Z</time>
      </trkpt>
      <trkpt lat="47.88651" lon="-2.44865">
        <ele>63.552786</ele>
        <time>2022-12-14T12:10:51.285Z</time>
      </trkpt>
      <trkpt lat="47.88649" lon="-2.44845">
        <ele>63.715311</ele>
        <time>2022-12-14T12:10:54.289Z</time>
      </trkpt>
      <trkpt lat="47.88647" lon="-2.44831">
        <ele>63.830082</ele>
        <time>2022-12-14T12:10:56.284Z</time>
      </trkpt>
      <trkpt lat="47.88646" lon="-2.44817">
        <ele>63.946882</ele>
        <time>2022-12-14T12:10:58.287Z</time>
      </trkpt>
      <trkpt lat="47.88645" lon="-2.44803">
        <ele>64.05929</ele>
        <time>2022-12-14T12:11:00.293Z</time>
      </trkpt>
      <trkpt lat="47.88645" lon="-2.44783">
        <ele>64.224508</ele>
        <time>2022-12-14T12:11:03.280Z</time>
      </trkpt>
      <trkpt lat="47.88647" lon="-2.44769">
        <ele>64.335676</ele>
        <time>2022-12-14T12:11:05.282Z</time>
      </trkpt>
      <trkpt lat="47.88649" lon="-2.4475">
        <ele>64.493616</ele>
        <time>2022-12-14T12:11:08.287Z</time>
      </trkpt>
      <trkpt lat="47.88652" lon="-2.44733">
        <ele>64.638733</ele>
        <time>2022-12-14T12:11:11.286Z</time>
      </trkpt>
      <trkpt lat="47.88655" lon="-2.44717">
        <ele>64.776864</ele>
        <time>2022-12-14T12:11:14.285Z</time>
      </trkpt>
      <trkpt lat="47.88659" lon="-2.44701">
        <ele>64.911522</ele>
        <time>2022-12-14T12:11:17.284Z</time>
      </trkpt>
      <trkpt lat="47.88662" lon="-2.44684">
        <ele>65.056938</ele>
        <time>2022-12-14T12:11:20.286Z</time>
      </trkpt>
      <trkpt lat="47.88666" lon="-2.44665">
        <ele>65.215529</ele>
        <time>2022-12-14T12:11:23.285Z</time>
      </trkpt>
      <trkpt lat="47.8867" lon="-2.44647">
        <ele>65.367919</ele>
        <time>2022-12-14T12:11:26.282Z</time>
      </trkpt>
      <trkpt lat="47.88675" lon="-2.44631">
        <ele>65.515337</ele>
        <time>2022-12-14T12:11:29.281Z</time>
      </trkpt>
      <trkpt lat="47.8868" lon="-2.44613">
        <ele>65.579572</ele>
        <time>2022-12-14T12:11:32.283Z</time>
      </trkpt>
      <trkpt lat="47.88683" lon="-2.44595">
        <ele>65.584435</ele>
        <time>2022-12-14T12:11:35.286Z</time>
      </trkpt>
      <trkpt lat="47.88686" lon="-2.44579">
        <ele>65.588921</ele>
        <time>2022-12-14T12:11:38.288Z</time>
      </trkpt>
      <trkpt lat="47.88689" lon="-2.44562">
        <ele>65.593765</ele>
        <time>2022-12-14T12:11:41.289Z</time>
      </trkpt>
      <trkpt lat="47.88692" lon="-2.44545">
        <ele>65.598444</ele>
        <time>2022-12-14T12:11:44.327Z</time>
      </trkpt>
      <trkpt lat="47.88694" lon="-2.44528">
        <ele>65.603102</ele>
        <time>2022-12-14T12:11:47.284Z</time>
      </trkpt>
      <trkpt lat="47.88697" lon="-2.44511">
        <ele>65.607659</ele>
        <time>2022-12-14T12:11:50.342Z</time>
      </trkpt>
      <trkpt lat="47.887" lon="-2.44493">
        <ele>65.612617</ele>
        <time>2022-12-14T12:11:53.287Z</time>
      </trkpt>
      <trkpt lat="47.88702" lon="-2.44475">
        <ele>65.617579</ele>
        <time>2022-12-14T12:11:56.345Z</time>
      </trkpt>
      <trkpt lat="47.88704" lon="-2.44457">
        <ele>65.622528</ele>
        <time>2022-12-14T12:11:59.283Z</time>
      </trkpt>
      <trkpt lat="47.88706" lon="-2.44438">
        <ele>65.627594</ele>
        <time>2022-12-14T12:12:02.333Z</time>
      </trkpt>
      <trkpt lat="47.88706" lon="-2.4442">
        <ele>65.632567</ele>
        <time>2022-12-14T12:12:05.285Z</time>
      </trkpt>
      <trkpt lat="47.88707" lon="-2.44401">
        <ele>65.637654</ele>
        <time>2022-12-14T12:12:08.283Z</time>
      </trkpt>
      <trkpt lat="47.88708" lon="-2.44384">
        <ele>65.642343</ele>
        <time>2022-12-14T12:12:11.264Z</time>
      </trkpt>
      <trkpt lat="47.88709" lon="-2.44368">
        <ele>65.6466</ele>
        <time>2022-12-14T12:12:14.283Z</time>
      </trkpt>
      <trkpt lat="47.88711" lon="-2.44349">
        <ele>65.649797</ele>
        <time>2022-12-14T12:12:17.284Z</time>
      </trkpt>
      <trkpt lat="47.88712" lon="-2.44335">
        <ele>65.651335</ele>
        <time>2022-12-14T12:12:19.330Z</time>
      </trkpt>
      <trkpt lat="47.88714" lon="-2.44315">
        <ele>65.653675</ele>
        <time>2022-12-14T12:12:22.287Z</time>
      </trkpt>
      <trkpt lat="47.88715" lon="-2.44301">
        <ele>65.655239</ele>
        <time>2022-12-14T12:12:24.287Z</time>
      </trkpt>
      <trkpt lat="47.88716" lon="-2.44287">
        <ele>65.656827</ele>
        <time>2022-12-14T12:12:26.284Z</time>
      </trkpt>
      <trkpt lat="47.88718" lon="-2.44269">
        <ele>65.658895</ele>
        <time>2022-12-14T12:12:29.285Z</time>
      </trkpt>
      <trkpt lat="47.8872" lon="-2.4425">
        <ele>65.660978</ele>
        <time>2022-12-14T12:12:32.285Z</time>
      </trkpt>
      <trkpt lat="47.88722" lon="-2.44234">
        <ele>65.662836</ele>
        <time>2022-12-14T12:12:35.284Z</time>
      </trkpt>
      <trkpt lat="47.88724" lon="-2.44216">
        <ele>65.664849</ele>
        <time>2022-12-14T12:12:38.283Z</time>
      </trkpt>
      <trkpt lat="47.88725" lon="-2.44199">
        <ele>65.666774</ele>
        <time>2022-12-14T12:12:41.283Z</time>
      </trkpt>
      <trkpt lat="47.88728" lon="-2.44183">
        <ele>65.668649</ele>
        <time>2022-12-14T12:12:44.273Z</time>
      </trkpt>
      <trkpt lat="47.8873" lon="-2.44166">
        <ele>65.670603</ele>
        <time>2022-12-14T12:12:47.283Z</time>
      </trkpt>
      <trkpt lat="47.88733" lon="-2.44148">
        <ele>65.672627</ele>
        <time>2022-12-14T12:12:50.288Z</time>
      </trkpt>
      <trkpt lat="47.88734" lon="-2.4413">
        <ele>65.674682</ele>
        <time>2022-12-14T12:12:53.283Z</time>
      </trkpt>
      <trkpt lat="47.88734" lon="-2.44113">
        <ele>65.676648</ele>
        <time>2022-12-14T12:12:56.284Z</time>
      </trkpt>
      <trkpt lat="47.88734" lon="-2.44095">
        <ele>65.690083</ele>
        <time>2022-12-14T12:12:59.283Z</time>
      </trkpt>
      <trkpt lat="47.88734" lon="-2.44075">
        <ele>65.839583</ele>
        <time>2022-12-14T12:13:02.282Z</time>
      </trkpt>
      <trkpt lat="47.88733" lon="-2.44059">
        <ele>65.955224</ele>
        <time>2022-12-14T12:13:04.284Z</time>
      </trkpt>
      <trkpt lat="47.88732" lon="-2.44046">
        <ele>66.056267</ele>
        <time>2022-12-14T12:13:06.333Z</time>
      </trkpt>
      <trkpt lat="47.88731" lon="-2.44032">
        <ele>66.161707</ele>
        <time>2022-12-14T12:13:08.282Z</time>
      </trkpt>
      <trkpt lat="47.88731" lon="-2.44018">
        <ele>66.263362</ele>
        <time>2022-12-14T12:13:10.285Z</time>
      </trkpt>
      <trkpt lat="47.88732" lon="-2.43998">
        <ele>66.411388</ele>
        <time>2022-12-14T12:13:13.269Z</time>
      </trkpt>
      <trkpt lat="47.88733" lon="-2.4398">
        <ele>66.547331</ele>
        <time>2022-12-14T12:13:16.295Z</time>
      </trkpt>
      <trkpt lat="47.88734" lon="-2.43963">
        <ele>66.67771</ele>
        <time>2022-12-14T12:13:19.283Z</time>
      </trkpt>
      <trkpt lat="47.88738" lon="-2.43944">
        <ele>66.822959</ele>
        <time>2022-12-14T12:13:22.287Z</time>
      </trkpt>
      <trkpt lat="47.88742" lon="-2.43925">
        <ele>66.970376</ele>
        <time>2022-12-14T12:13:25.283Z</time>
      </trkpt>
      <trkpt lat="47.88747" lon="-2.43907">
        <ele>67.120304</ele>
        <time>2022-12-14T12:13:28.284Z</time>
      </trkpt>
      <trkpt lat="47.88752" lon="-2.43889">
        <ele>67.267734</ele>
        <time>2022-12-14T12:13:31.286Z</time>
      </trkpt>
      <trkpt lat="47.88757" lon="-2.43872">
        <ele>67.405795</ele>
        <time>2022-12-14T12:13:34.284Z</time>
      </trkpt>
      <trkpt lat="47.88764" lon="-2.43856">
        <ele>67.544924</ele>
        <time>2022-12-14T12:13:37.272Z</time>
      </trkpt>
      <trkpt lat="47.88767" lon="-2.43844">
        <ele>67.64742</ele>
        <time>2022-12-14T12:13:39.285Z</time>
      </trkpt>
      <trkpt lat="47.88773" lon="-2.43828">
        <ele>67.397523</ele>
        <time>2022-12-14T12:13:42.283Z</time>
      </trkpt>
      <trkpt lat="47.88778" lon="-2.43814">
        <ele>67.041159</ele>
        <time>2022-12-14T12:13:45.284Z</time>
      </trkpt>
      <trkpt lat="47.88782" lon="-2.43799">
        <ele>66.69964</ele>
        <time>2022-12-14T12:13:48.282Z</time>
      </trkpt>
      <trkpt lat="47.88784" lon="-2.43785">
        <ele>66.373287</ele>
        <time>2022-12-14T12:13:51.283Z</time>
      </trkpt>
      <trkpt lat="47.88787" lon="-2.43771">
        <ele>66.060792</ele>
        <time>2022-12-14T12:13:54.280Z</time>
      </trkpt>
      <trkpt lat="47.8879" lon="-2.43755">
        <ele>65.67215</ele>
        <time>2022-12-14T12:13:57.264Z</time>
      </trkpt>
      <trkpt lat="47.88794" lon="-2.4374">
        <ele>65.328533</ele>
        <time>2022-12-14T12:14:00.285Z</time>
      </trkpt>
      <trkpt lat="47.88796" lon="-2.43724">
        <ele>64.958025</ele>
        <time>2022-12-14T12:14:03.270Z</time>
      </trkpt>
      <trkpt lat="47.88797" lon="-2.43709">
        <ele>64.625521</ele>
        <time>2022-12-14T12:14:06.284Z</time>
      </trkpt>
      <trkpt lat="47.88799" lon="-2.43693">
        <ele>64.26853</ele>
        <time>2022-12-14T12:14:09.284Z</time>
      </trkpt>
      <trkpt lat="47.88801" lon="-2.43676">
        <ele>63.896413</ele>
        <time>2022-12-14T12:14:13.275Z</time>
      </trkpt>
      <trkpt lat="47.88802" lon="-2.43661">
        <ele>63.567847</ele>
        <time>2022-12-14T12:14:17.284Z</time>
      </trkpt>
      <trkpt lat="47.88804" lon="-2.43646">
        <ele>63.220244</ele>
        <time>2022-12-14T12:14:21.331Z</time>
      </trkpt>
      <trkpt lat="47.88803" lon="-2.43629">
        <ele>62.850856</ele>
        <time>2022-12-14T12:14:26.283Z</time>
      </trkpt>
      <trkpt lat="47.88797" lon="-2.43616">
        <ele>62.48923</ele>
        <time>2022-12-14T12:14:29.287Z</time>
      </trkpt>
      <trkpt lat="47.88791" lon="-2.436">
        <ele>62.073504</ele>
        <time>2022-12-14T12:14:32.282Z</time>
      </trkpt>
      <trkpt lat="47.88785" lon="-2.43586">
        <ele>61.796967</ele>
        <time>2022-12-14T12:14:35.284Z</time>
      </trkpt>
      <trkpt lat="47.88779" lon="-2.43575">
        <ele>62.06748</ele>
        <time>2022-12-14T12:14:38.294Z</time>
      </trkpt>
      <trkpt lat="47.88773" lon="-2.4356">
        <ele>62.392419</ele>
        <time>2022-12-14T12:14:41.283Z</time>
      </trkpt>
      <trkpt lat="47.88768" lon="-2.43543">
        <ele>62.75472</ele>
        <time>2022-12-14T12:14:44.280Z</time>
      </trkpt>
      <trkpt lat="47.88764" lon="-2.43524">
        <ele>63.143296</ele>
        <time>2022-12-14T12:14:47.285Z</time>
      </trkpt>
      <trkpt lat="47.88762" lon="-2.43511">
        <ele>63.407789</ele>
        <time>2022-12-14T12:14:49.286Z</time>
      </trkpt>
      <trkpt lat="47.88758" lon="-2.43492">
        <ele>63.788215</ele>
        <time>2022-12-14T12:14:52.271Z</time>
      </trkpt>
      <trkpt lat="47.88756" lon="-2.43479">
        <ele>64.054802</ele>
        <time>2022-12-14T12:14:54.281Z</time>
      </trkpt>
      <trkpt lat="47.88754" lon="-2.43465">
        <ele>64.331654</ele>
        <time>2022-12-14T12:14:56.281Z</time>
      </trkpt>
      <trkpt lat="47.8875" lon="-2.43446">
        <ele>64.722548</ele>
        <time>2022-12-14T12:14:59.285Z</time>
      </trkpt>
      <trkpt lat="47.88747" lon="-2.43429">
        <ele>65.065436</ele>
        <time>2022-12-14T12:15:02.287Z</time>
      </trkpt>
      <trkpt lat="47.88744" lon="-2.43412">
        <ele>65.393677</ele>
        <time>2022-12-14T12:15:05.288Z</time>
      </trkpt>
      <trkpt lat="47.88742" lon="-2.43395">
        <ele>65.740502</ele>
        <time>2022-12-14T12:15:08.284Z</time>
      </trkpt>
      <trkpt lat="47.88738" lon="-2.43376">
        <ele>66.116462</ele>
        <time>2022-12-14T12:15:11.288Z</time>
      </trkpt>
      <trkpt lat="47.88735" lon="-2.43357">
        <ele>66.496195</ele>
        <time>2022-12-14T12:15:14.287Z</time>
      </trkpt>
      <trkpt lat="47.88734" lon="-2.43343">
        <ele>66.773432</ele>
        <time>2022-12-14T12:15:16.282Z</time>
      </trkpt>
      <trkpt lat="47.88731" lon="-2.43324">
        <ele>66.840589</ele>
        <time>2022-12-14T12:15:19.283Z</time>
      </trkpt>
      <trkpt lat="47.88729" lon="-2.43307">
        <ele>66.61418</ele>
        <time>2022-12-14T12:15:22.282Z</time>
      </trkpt>
      <trkpt lat="47.88725" lon="-2.43292">
        <ele>66.400477</ele>
        <time>2022-12-14T12:15:25.287Z</time>
      </trkpt>
      <trkpt lat="47.8872" lon="-2.43276">
        <ele>66.171463</ele>
        <time>2022-12-14T12:15:28.285Z</time>
      </trkpt>
      <trkpt lat="47.88716" lon="-2.43261">
        <ele>65.949661</ele>
        <time>2022-12-14T12:15:31.283Z</time>
      </trkpt>
      <trkpt lat="47.8871" lon="-2.43244">
        <ele>65.699704</ele>
        <time>2022-12-14T12:15:34.283Z</time>
      </trkpt>
      <trkpt lat="47.88703" lon="-2.43229">
        <ele>65.459968</ele>
        <time>2022-12-14T12:15:37.282Z</time>
      </trkpt>
      <trkpt lat="47.88697" lon="-2.43216">
        <ele>65.24803</ele>
        <time>2022-12-14T12:15:40.281Z</time>
      </trkpt>
      <trkpt lat="47.8869" lon="-2.43204">
        <ele>65.035889</ele>
        <time>2022-12-14T12:15:43.281Z</time>
      </trkpt>
      <trkpt lat="47.88683" lon="-2.43192">
        <ele>64.827565</ele>
        <time>2022-12-14T12:15:46.291Z</time>
      </trkpt>
      <trkpt lat="47.88675" lon="-2.43179">
        <ele>64.603825</ele>
        <time>2022-12-14T12:15:49.286Z</time>
      </trkpt>
      <trkpt lat="47.88668" lon="-2.43165">
        <ele>64.366626</ele>
        <time>2022-12-14T12:15:52.270Z</time>
      </trkpt>
      <trkpt lat="47.8866" lon="-2.43151">
        <ele>64.13185</ele>
        <time>2022-12-14T12:15:55.290Z</time>
      </trkpt>
      <trkpt lat="47.88653" lon="-2.43136">
        <ele>63.889109</ele>
        <time>2022-12-14T12:15:58.265Z</time>
      </trkpt>
      <trkpt lat="47.88647" lon="-2.43125">
        <ele>63.691694</ele>
        <time>2022-12-14T12:16:01.282Z</time>
      </trkpt>
      <trkpt lat="47.8864" lon="-2.4311">
        <ele>63.455061</ele>
        <time>2022-12-14T12:16:05.286Z</time>
      </trkpt>
      <trkpt lat="47.88632" lon="-2.43096">
        <ele>63.530212</ele>
        <time>2022-12-14T12:16:08.332Z</time>
      </trkpt>
      <trkpt lat="47.88625" lon="-2.43081">
        <ele>63.652487</ele>
        <time>2022-12-14T12:16:11.271Z</time>
      </trkpt>
      <trkpt lat="47.88618" lon="-2.43064">
        <ele>63.776467</ele>
        <time>2022-12-14T12:16:14.336Z</time>
      </trkpt>
      <trkpt lat="47.88613" lon="-2.43052">
        <ele>63.864737</ele>
        <time>2022-12-14T12:16:16.282Z</time>
      </trkpt>
      <trkpt lat="47.88609" lon="-2.4304">
        <ele>63.952717</ele>
        <time>2022-12-14T12:16:18.280Z</time>
      </trkpt>
      <trkpt lat="47.88602" lon="-2.43023">
        <ele>64.077471</ele>
        <time>2022-12-14T12:16:21.283Z</time>
      </trkpt>
      <trkpt lat="47.88597" lon="-2.43008">
        <ele>64.190381</ele>
        <time>2022-12-14T12:16:24.283Z</time>
      </trkpt>
      <trkpt lat="47.88591" lon="-2.42992">
        <ele>64.301019</ele>
        <time>2022-12-14T12:16:27.283Z</time>
      </trkpt>
      <trkpt lat="47.88585" lon="-2.42977">
        <ele>64.419197</ele>
        <time>2022-12-14T12:16:30.287Z</time>
      </trkpt>
      <trkpt lat="47.88579" lon="-2.42964">
        <ele>64.517521</ele>
        <time>2022-12-14T12:16:33.286Z</time>
      </trkpt>
      <trkpt lat="47.88572" lon="-2.42949">
        <ele>64.636883</ele>
        <time>2022-12-14T12:16:36.283Z</time>
      </trkpt>
      <trkpt lat="47.88563" lon="-2.42934">
        <ele>64.761575</ele>
        <time>2022-12-14T12:16:39.287Z</time>
      </trkpt>
      <trkpt lat="47.88554" lon="-2.42919">
        <ele>64.8907</ele>
        <time>2022-12-14T12:16:42.284Z</time>
      </trkpt>
      <trkpt lat="47.88545" lon="-2.42906">
        <ele>65.011609</ele>
        <time>2022-12-14T12:16:45.286Z</time>
      </trkpt>
      <trkpt lat="47.88537" lon="-2.42894">
        <ele>65.121991</ele>
        <time>2022-12-14T12:16:48.285Z</time>
      </trkpt>
      <trkpt lat="47.88528" lon="-2.4288">
        <ele>64.980293</ele>
        <time>2022-12-14T12:16:51.287Z</time>
      </trkpt>
      <trkpt lat="47.88519" lon="-2.42867">
        <ele>64.781977</ele>
        <time>2022-12-14T12:16:54.285Z</time>
      </trkpt>
      <trkpt lat="47.88512" lon="-2.42856">
        <ele>64.616913</ele>
        <time>2022-12-14T12:16:57.335Z</time>
      </trkpt>
      <trkpt lat="47.88504" lon="-2.42844">
        <ele>64.431044</ele>
        <time>2022-12-14T12:17:00.285Z</time>
      </trkpt>
      <trkpt lat="47.88496" lon="-2.42831">
        <ele>64.241468</ele>
        <time>2022-12-14T12:17:03.332Z</time>
      </trkpt>
      <trkpt lat="47.88488" lon="-2.42819">
        <ele>64.068933</ele>
        <time>2022-12-14T12:17:06.284Z</time>
      </trkpt>
      <trkpt lat="47.88482" lon="-2.42806">
        <ele>63.895923</ele>
        <time>2022-12-14T12:17:09.265Z</time>
      </trkpt>
      <trkpt lat="47.88475" lon="-2.42795">
        <ele>63.738254</ele>
        <time>2022-12-14T12:17:12.269Z</time>
      </trkpt>
      <trkpt lat="47.88469" lon="-2.42784">
        <ele>63.580893</ele>
        <time>2022-12-14T12:17:15.270Z</time>
      </trkpt>
      <trkpt lat="47.88461" lon="-2.42771">
        <ele>63.400369</ele>
        <time>2022-12-14T12:17:18.284Z</time>
      </trkpt>
      <trkpt lat="47.88456" lon="-2.42761">
        <ele>63.254932</ele>
        <time>2022-12-14T12:17:20.350Z</time>
      </trkpt>
      <trkpt lat="47.8845" lon="-2.42747">
        <ele>63.078722</ele>
        <time>2022-12-14T12:17:23.285Z</time>
      </trkpt>
      <trkpt lat="47.88443" lon="-2.42734">
        <ele>62.905989</ele>
        <time>2022-12-14T12:17:26.362Z</time>
      </trkpt>
      <trkpt lat="47.88436" lon="-2.4272">
        <ele>62.723982</ele>
        <time>2022-12-14T12:17:30.290Z</time>
      </trkpt>
      <trkpt lat="47.8843" lon="-2.42707">
        <ele>62.546829</ele>
        <time>2022-12-14T12:17:34.293Z</time>
      </trkpt>
      <trkpt lat="47.88424" lon="-2.42696">
        <ele>62.401393</ele>
        <time>2022-12-14T12:17:37.289Z</time>
      </trkpt>
      <trkpt lat="47.88418" lon="-2.42683">
        <ele>62.261656</ele>
        <time>2022-12-14T12:17:40.285Z</time>
      </trkpt>
      <trkpt lat="47.88412" lon="-2.42671">
        <ele>62.223893</ele>
        <time>2022-12-14T12:17:43.281Z</time>
      </trkpt>
      <trkpt lat="47.88405" lon="-2.42658">
        <ele>62.18313</ele>
        <time>2022-12-14T12:17:46.286Z</time>
      </trkpt>
      <trkpt lat="47.884" lon="-2.42647">
        <ele>62.149419</ele>
        <time>2022-12-14T12:17:48.285Z</time>
      </trkpt>
      <trkpt lat="47.88393" lon="-2.42636">
        <ele>62.112358</ele>
        <time>2022-12-14T12:17:50.328Z</time>
      </trkpt>
      <trkpt lat="47.88386" lon="-2.42626">
        <ele>62.076149</ele>
        <time>2022-12-14T12:17:52.283Z</time>
      </trkpt>
      <trkpt lat="47.8838" lon="-2.42617">
        <ele>62.042888</ele>
        <time>2022-12-14T12:17:54.282Z</time>
      </trkpt>
      <trkpt lat="47.88372" lon="-2.42607">
        <ele>62.005684</ele>
        <time>2022-12-14T12:17:56.331Z</time>
      </trkpt>
      <trkpt lat="47.88364" lon="-2.42599">
        <ele>61.970435</ele>
        <time>2022-12-14T12:17:58.284Z</time>
      </trkpt>
      <trkpt lat="47.88356" lon="-2.42591">
        <ele>61.934861</ele>
        <time>2022-12-14T12:18:00.283Z</time>
      </trkpt>
      <trkpt lat="47.88348" lon="-2.42583">
        <ele>61.897731</ele>
        <time>2022-12-14T12:18:02.344Z</time>
      </trkpt>
      <trkpt lat="47.8834" lon="-2.42576">
        <ele>61.86409</ele>
        <time>2022-12-14T12:18:04.271Z</time>
      </trkpt>
      <trkpt lat="47.8833" lon="-2.42567">
        <ele>61.820886</ele>
        <time>2022-12-14T12:18:07.284Z</time>
      </trkpt>
      <trkpt lat="47.88319" lon="-2.42559">
        <ele>61.77385</ele>
        <time>2022-12-14T12:18:10.291Z</time>
      </trkpt>
      <trkpt lat="47.88307" lon="-2.4255">
        <ele>61.724787</ele>
        <time>2022-12-14T12:18:13.286Z</time>
      </trkpt>
      <trkpt lat="47.88295" lon="-2.42541">
        <ele>61.67508</ele>
        <time>2022-12-14T12:18:16.282Z</time>
      </trkpt>
      <trkpt lat="47.88284" lon="-2.42533">
        <ele>61.626452</ele>
        <time>2022-12-14T12:18:19.296Z</time>
      </trkpt>
      <trkpt lat="47.88272" lon="-2.42525">
        <ele>61.546342</ele>
        <time>2022-12-14T12:18:22.284Z</time>
      </trkpt>
      <trkpt lat="47.88261" lon="-2.42516">
        <ele>61.424926</ele>
        <time>2022-12-14T12:18:25.276Z</time>
      </trkpt>
      <trkpt lat="47.8825" lon="-2.42508">
        <ele>61.313886</ele>
        <time>2022-12-14T12:18:28.285Z</time>
      </trkpt>
      <trkpt lat="47.88239" lon="-2.42501">
        <ele>61.197176</ele>
        <time>2022-12-14T12:18:31.295Z</time>
      </trkpt>
      <trkpt lat="47.88227" lon="-2.42493">
        <ele>61.075146</ele>
        <time>2022-12-14T12:18:34.281Z</time>
      </trkpt>
      <trkpt lat="47.88216" lon="-2.42484">
        <ele>60.962381</ele>
        <time>2022-12-14T12:18:37.285Z</time>
      </trkpt>
      <trkpt lat="47.88207" lon="-2.42475">
        <ele>60.857969</ele>
        <time>2022-12-14T12:18:40.288Z</time>
      </trkpt>
      <trkpt lat="47.88199" lon="-2.42466">
        <ele>60.758906</ele>
        <time>2022-12-14T12:18:43.286Z</time>
      </trkpt>
      <trkpt lat="47.8819" lon="-2.42455">
        <ele>60.649256</ele>
        <time>2022-12-14T12:18:46.282Z</time>
      </trkpt>
      <trkpt lat="47.88181" lon="-2.42444">
        <ele>60.542556</ele>
        <time>2022-12-14T12:18:49.284Z</time>
      </trkpt>
      <trkpt lat="47.88173" lon="-2.42434">
        <ele>60.446421</ele>
        <time>2022-12-14T12:18:52.284Z</time>
      </trkpt>
      <trkpt lat="47.88165" lon="-2.42424">
        <ele>60.342455</ele>
        <time>2022-12-14T12:18:55.283Z</time>
      </trkpt>
      <trkpt lat="47.88155" lon="-2.42411">
        <ele>60.226378</ele>
        <time>2022-12-14T12:18:58.268Z</time>
      </trkpt>
      <trkpt lat="47.88146" lon="-2.42399">
        <ele>60.107773</ele>
        <time>2022-12-14T12:19:01.285Z</time>
      </trkpt>
      <trkpt lat="47.88138" lon="-2.42385">
        <ele>59.994276</ele>
        <time>2022-12-14T12:19:04.287Z</time>
      </trkpt>
      <trkpt lat="47.88129" lon="-2.42376">
        <ele>59.927304</ele>
        <time>2022-12-14T12:19:07.340Z</time>
      </trkpt>
      <trkpt lat="47.88121" lon="-2.42366">
        <ele>60.008669</ele>
        <time>2022-12-14T12:19:10.283Z</time>
      </trkpt>
      <trkpt lat="47.88111" lon="-2.42356">
        <ele>60.096617</ele>
        <time>2022-12-14T12:19:13.362Z</time>
      </trkpt>
      <trkpt lat="47.88101" lon="-2.42346">
        <ele>60.183641</ele>
        <time>2022-12-14T12:19:16.284Z</time>
      </trkpt>
      <trkpt lat="47.88092" lon="-2.42336">
        <ele>60.269514</ele>
        <time>2022-12-14T12:19:19.275Z</time>
      </trkpt>
      <trkpt lat="47.88082" lon="-2.4233">
        <ele>60.348365</ele>
        <time>2022-12-14T12:19:22.288Z</time>
      </trkpt>
      <trkpt lat="47.88073" lon="-2.42328">
        <ele>60.416275</ele>
        <time>2022-12-14T12:19:25.287Z</time>
      </trkpt>
      <trkpt lat="47.88063" lon="-2.4233">
        <ele>60.49464</ele>
        <time>2022-12-14T12:19:28.284Z</time>
      </trkpt>
      <trkpt lat="47.88051" lon="-2.42331">
        <ele>60.578017</ele>
        <time>2022-12-14T12:19:31.287Z</time>
      </trkpt>
      <trkpt lat="47.8804" lon="-2.42333">
        <ele>60.664881</ele>
        <time>2022-12-14T12:19:34.282Z</time>
      </trkpt>
      <trkpt lat="47.88029" lon="-2.42334">
        <ele>60.748233</ele>
        <time>2022-12-14T12:19:37.284Z</time>
      </trkpt>
      <trkpt lat="47.88019" lon="-2.42335">
        <ele>60.821518</ele>
        <time>2022-12-14T12:19:40.286Z</time>
      </trkpt>
      <trkpt lat="47.8801" lon="-2.42337">
        <ele>60.890315</ele>
        <time>2022-12-14T12:19:43.282Z</time>
      </trkpt>
      <trkpt lat="47.88" lon="-2.42338">
        <ele>60.960447</ele>
        <time>2022-12-14T12:19:46.285Z</time>
      </trkpt>
      <trkpt lat="47.8799" lon="-2.42338">
        <ele>61.035568</ele>
        <time>2022-12-14T12:19:49.266Z</time>
      </trkpt>
      <trkpt lat="47.87978" lon="-2.4234">
        <ele>61.125914</ele>
        <time>2022-12-14T12:19:52.286Z</time>
      </trkpt>
      <trkpt lat="47.87966" lon="-2.42342">
        <ele>61.216214</ele>
        <time>2022-12-14T12:19:55.280Z</time>
      </trkpt>
      <trkpt lat="47.87953" lon="-2.42344">
        <ele>61.4543</ele>
        <time>2022-12-14T12:19:58.281Z</time>
      </trkpt>
      <trkpt lat="47.87941" lon="-2.42346">
        <ele>61.779871</ele>
        <time>2022-12-14T12:20:01.284Z</time>
      </trkpt>
      <trkpt lat="47.87927" lon="-2.42348">
        <ele>62.128446</ele>
        <time>2022-12-14T12:20:04.283Z</time>
      </trkpt>
      <trkpt lat="47.87914" lon="-2.42352">
        <ele>62.472021</ele>
        <time>2022-12-14T12:20:07.265Z</time>
      </trkpt>
      <trkpt lat="47.87902" lon="-2.42357">
        <ele>62.79959</ele>
        <time>2022-12-14T12:20:10.291Z</time>
      </trkpt>
      <trkpt lat="47.87891" lon="-2.42362">
        <ele>63.082801</ele>
        <time>2022-12-14T12:20:13.288Z</time>
      </trkpt>
      <trkpt lat="47.87881" lon="-2.42367">
        <ele>63.367945</ele>
        <time>2022-12-14T12:20:16.284Z</time>
      </trkpt>
      <trkpt lat="47.87872" lon="-2.42372">
        <ele>63.622622</ele>
        <time>2022-12-14T12:20:19.286Z</time>
      </trkpt>
      <trkpt lat="47.87861" lon="-2.42378">
        <ele>63.90732</ele>
        <time>2022-12-14T12:20:22.332Z</time>
      </trkpt>
      <trkpt lat="47.8785" lon="-2.42383">
        <ele>64.209237</ele>
        <time>2022-12-14T12:20:25.285Z</time>
      </trkpt>
      <trkpt lat="47.87839" lon="-2.4239">
        <ele>64.503727</ele>
        <time>2022-12-14T12:20:28.291Z</time>
      </trkpt>
      <trkpt lat="47.8783" lon="-2.42396">
        <ele>64.775241</ele>
        <time>2022-12-14T12:20:31.291Z</time>
      </trkpt>
      <trkpt lat="47.87821" lon="-2.42404">
        <ele>65.036079</ele>
        <time>2022-12-14T12:20:34.286Z</time>
      </trkpt>
      <trkpt lat="47.87811" lon="-2.42415">
        <ele>65.35852</ele>
        <time>2022-12-14T12:20:37.283Z</time>
      </trkpt>
      <trkpt lat="47.87802" lon="-2.42426">
        <ele>65.66555</ele>
        <time>2022-12-14T12:20:40.284Z</time>
      </trkpt>
      <trkpt lat="47.87792" lon="-2.42437">
        <ele>65.76988</ele>
        <time>2022-12-14T12:20:43.283Z</time>
      </trkpt>
      <trkpt lat="47.87783" lon="-2.42447">
        <ele>65.485344</ele>
        <time>2022-12-14T12:20:46.285Z</time>
      </trkpt>
      <trkpt lat="47.87775" lon="-2.42455">
        <ele>65.231519</ele>
        <time>2022-12-14T12:20:49.286Z</time>
      </trkpt>
      <trkpt lat="47.87767" lon="-2.42464">
        <ele>64.957244</ele>
        <time>2022-12-14T12:20:52.285Z</time>
      </trkpt>
      <trkpt lat="47.87758" lon="-2.42474">
        <ele>64.667463</ele>
        <time>2022-12-14T12:20:55.285Z</time>
      </trkpt>
      <trkpt lat="47.8775" lon="-2.42484">
        <ele>64.40326</ele>
        <time>2022-12-14T12:20:58.288Z</time>
      </trkpt>
      <trkpt lat="47.8774" lon="-2.42496">
        <ele>64.073127</ele>
        <time>2022-12-14T12:21:01.293Z</time>
      </trkpt>
      <trkpt lat="47.8773" lon="-2.42509">
        <ele>63.739336</ele>
        <time>2022-12-14T12:21:04.281Z</time>
      </trkpt>
      <trkpt lat="47.87724" lon="-2.42518">
        <ele>63.505307</ele>
        <time>2022-12-14T12:21:06.281Z</time>
      </trkpt>
      <trkpt lat="47.87714" lon="-2.42531">
        <ele>63.167843</ele>
        <time>2022-12-14T12:21:09.281Z</time>
      </trkpt>
      <trkpt lat="47.87705" lon="-2.42543">
        <ele>62.859672</ele>
        <time>2022-12-14T12:21:12.285Z</time>
      </trkpt>
      <trkpt lat="47.87697" lon="-2.42554">
        <ele>62.575466</ele>
        <time>2022-12-14T12:21:15.284Z</time>
      </trkpt>
      <trkpt lat="47.87688" lon="-2.42567">
        <ele>62.24287</ele>
        <time>2022-12-14T12:21:18.288Z</time>
      </trkpt>
      <trkpt lat="47.87679" lon="-2.42581">
        <ele>61.902247</ele>
        <time>2022-12-14T12:21:21.288Z</time>
      </trkpt>
      <trkpt lat="47.8767" lon="-2.42596">
        <ele>61.562765</ele>
        <time>2022-12-14T12:21:24.282Z</time>
      </trkpt>
      <trkpt lat="47.87664" lon="-2.42608">
        <ele>61.297133</ele>
        <time>2022-12-14T12:21:26.287Z</time>
      </trkpt>
      <trkpt lat="47.87658" lon="-2.42619">
        <ele>61.140379</ele>
        <time>2022-12-14T12:21:28.286Z</time>
      </trkpt>
      <trkpt lat="47.87653" lon="-2.42632">
        <ele>61.022049</ele>
        <time>2022-12-14T12:21:30.288Z</time>
      </trkpt>
      <trkpt lat="47.87647" lon="-2.42645">
        <ele>60.898538</ele>
        <time>2022-12-14T12:21:33.293Z</time>
      </trkpt>
      <trkpt lat="47.8764" lon="-2.42658">
        <ele>60.773634</ele>
        <time>2022-12-14T12:21:36.332Z</time>
      </trkpt>
      <trkpt lat="47.87634" lon="-2.42672">
        <ele>60.639016</ele>
        <time>2022-12-14T12:21:39.281Z</time>
      </trkpt>
      <trkpt lat="47.87626" lon="-2.42687">
        <ele>60.490049</ele>
        <time>2022-12-14T12:21:42.348Z</time>
      </trkpt>
      <trkpt lat="47.8762" lon="-2.42698">
        <ele>60.377959</ele>
        <time>2022-12-14T12:21:44.290Z</time>
      </trkpt>
      <trkpt lat="47.87612" lon="-2.42713">
        <ele>60.231736</ele>
        <time>2022-12-14T12:21:47.283Z</time>
      </trkpt>
      <trkpt lat="47.87604" lon="-2.42724">
        <ele>60.100037</ele>
        <time>2022-12-14T12:21:50.289Z</time>
      </trkpt>
      <trkpt lat="47.87595" lon="-2.42736">
        <ele>59.959426</ele>
        <time>2022-12-14T12:21:53.286Z</time>
      </trkpt>
      <trkpt lat="47.87588" lon="-2.42744">
        <ele>59.853163</ele>
        <time>2022-12-14T12:21:55.284Z</time>
      </trkpt>
      <trkpt lat="47.8758" lon="-2.42752">
        <ele>59.748807</ele>
        <time>2022-12-14T12:21:57.287Z</time>
      </trkpt>
      <trkpt lat="47.87573" lon="-2.4276">
        <ele>59.642091</ele>
        <time>2022-12-14T12:21:59.285Z</time>
      </trkpt>
      <trkpt lat="47.87565" lon="-2.42767">
        <ele>59.527829</ele>
        <time>2022-12-14T12:22:01.284Z</time>
      </trkpt>
      <trkpt lat="47.87556" lon="-2.42774">
        <ele>59.414958</ele>
        <time>2022-12-14T12:22:03.285Z</time>
      </trkpt>
      <trkpt lat="47.87547" lon="-2.42779">
        <ele>59.306823</ele>
        <time>2022-12-14T12:22:05.271Z</time>
      </trkpt>
      <trkpt lat="47.87538" lon="-2.42784">
        <ele>59.195831</ele>
        <time>2022-12-14T12:22:07.272Z</time>
      </trkpt>
      <trkpt lat="47.87526" lon="-2.42791">
        <ele>59.184918</ele>
        <time>2022-12-14T12:22:10.266Z</time>
      </trkpt>
      <trkpt lat="47.87514" lon="-2.42797">
        <ele>59.336775</ele>
        <time>2022-12-14T12:22:13.285Z</time>
      </trkpt>
      <trkpt lat="47.87502" lon="-2.42801">
        <ele>59.484023</ele>
        <time>2022-12-14T12:22:16.284Z</time>
      </trkpt>
      <trkpt lat="47.87488" lon="-2.42803">
        <ele>59.641153</ele>
        <time>2022-12-14T12:22:19.286Z</time>
      </trkpt>
      <trkpt lat="47.87475" lon="-2.42804">
        <ele>59.800596</ele>
        <time>2022-12-14T12:22:22.292Z</time>
      </trkpt>
      <trkpt lat="47.87466" lon="-2.42803">
        <ele>59.906913</ele>
        <time>2022-12-14T12:22:24.290Z</time>
      </trkpt>
      <trkpt lat="47.87456" lon="-2.42803">
        <ele>60.02025</ele>
        <time>2022-12-14T12:22:26.286Z</time>
      </trkpt>
      <trkpt lat="47.87447" lon="-2.42802">
        <ele>60.129308</ele>
        <time>2022-12-14T12:22:28.282Z</time>
      </trkpt>
      <trkpt lat="47.87435" lon="-2.42801">
        <ele>60.278259</ele>
        <time>2022-12-14T12:22:31.286Z</time>
      </trkpt>
      <trkpt lat="47.87423" lon="-2.42801">
        <ele>60.416343</ele>
        <time>2022-12-14T12:22:34.287Z</time>
      </trkpt>
      <trkpt lat="47.8741" lon="-2.428">
        <ele>60.562732</ele>
        <time>2022-12-14T12:22:37.295Z</time>
      </trkpt>
      <trkpt lat="47.87397" lon="-2.42799">
        <ele>60.720137</ele>
        <time>2022-12-14T12:22:40.290Z</time>
      </trkpt>
      <trkpt lat="47.87388" lon="-2.42797">
        <ele>60.828368</ele>
        <time>2022-12-14T12:22:42.280Z</time>
      </trkpt>
      <trkpt lat="47.87379" lon="-2.42795">
        <ele>60.934834</ele>
        <time>2022-12-14T12:22:44.287Z</time>
      </trkpt>
      <trkpt lat="47.8737" lon="-2.42792">
        <ele>61.046499</ele>
        <time>2022-12-14T12:22:46.296Z</time>
      </trkpt>
      <trkpt lat="47.87361" lon="-2.42789">
        <ele>61.154923</ele>
        <time>2022-12-14T12:22:48.285Z</time>
      </trkpt>
      <trkpt lat="47.87349" lon="-2.42784">
        <ele>61.123589</ele>
        <time>2022-12-14T12:22:51.309Z</time>
      </trkpt>
      <trkpt lat="47.87338" lon="-2.4278">
        <ele>60.9168</ele>
        <time>2022-12-14T12:22:54.289Z</time>
      </trkpt>
      <trkpt lat="47.87326" lon="-2.42775">
        <ele>60.687394</ele>
        <time>2022-12-14T12:22:57.331Z</time>
      </trkpt>
      <trkpt lat="47.87313" lon="-2.42771">
        <ele>60.441399</ele>
        <time>2022-12-14T12:23:00.285Z</time>
      </trkpt>
      <trkpt lat="47.87304" lon="-2.42767">
        <ele>60.273565</ele>
        <time>2022-12-14T12:23:02.283Z</time>
      </trkpt>
      <trkpt lat="47.87296" lon="-2.42764">
        <ele>60.1026</ele>
        <time>2022-12-14T12:23:04.283Z</time>
      </trkpt>
      <trkpt lat="47.87287" lon="-2.42758">
        <ele>59.92769</ele>
        <time>2022-12-14T12:23:06.284Z</time>
      </trkpt>
      <trkpt lat="47.87279" lon="-2.42752">
        <ele>59.758267</ele>
        <time>2022-12-14T12:23:08.284Z</time>
      </trkpt>
      <trkpt lat="47.87269" lon="-2.42743">
        <ele>59.541836</ele>
        <time>2022-12-14T12:23:11.283Z</time>
      </trkpt>
      <trkpt lat="47.87259" lon="-2.42736">
        <ele>59.332297</ele>
        <time>2022-12-14T12:23:14.338Z</time>
      </trkpt>
      <trkpt lat="47.87248" lon="-2.42728">
        <ele>59.111573</ele>
        <time>2022-12-14T12:23:17.283Z</time>
      </trkpt>
      <trkpt lat="47.87238" lon="-2.42719">
        <ele>58.888785</ele>
        <time>2022-12-14T12:23:20.330Z</time>
      </trkpt>
      <trkpt lat="47.87229" lon="-2.42713">
        <ele>58.705993</ele>
        <time>2022-12-14T12:23:23.287Z</time>
      </trkpt>
      <trkpt lat="47.87217" lon="-2.42709">
        <ele>58.484629</ele>
        <time>2022-12-14T12:23:27.291Z</time>
      </trkpt>
      <trkpt lat="47.87205" lon="-2.42712">
        <ele>58.260708</ele>
        <time>2022-12-14T12:23:31.286Z</time>
      </trkpt>
      <trkpt lat="47.87196" lon="-2.42715">
        <ele>58.082892</ele>
        <time>2022-12-14T12:23:34.290Z</time>
      </trkpt>
      <trkpt lat="47.87188" lon="-2.42722">
        <ele>57.901683</ele>
        <time>2022-12-14T12:23:37.287Z</time>
      </trkpt>
      <trkpt lat="47.87178" lon="-2.42731">
        <ele>58.229321</ele>
        <time>2022-12-14T12:23:40.290Z</time>
      </trkpt>
      <trkpt lat="47.87168" lon="-2.42742">
        <ele>58.638967</ele>
        <time>2022-12-14T12:23:43.258Z</time>
      </trkpt>
      <trkpt lat="47.8716" lon="-2.42751">
        <ele>58.988147</ele>
        <time>2022-12-14T12:23:46.270Z</time>
      </trkpt>
      <trkpt lat="47.87153" lon="-2.42762">
        <ele>59.353842</ele>
        <time>2022-12-14T12:23:49.260Z</time>
      </trkpt>
      <trkpt lat="47.87145" lon="-2.42775">
        <ele>59.765919</ele>
        <time>2022-12-14T12:23:52.280Z</time>
      </trkpt>
      <trkpt lat="47.87138" lon="-2.42786">
        <ele>60.108308</ele>
        <time>2022-12-14T12:23:55.271Z</time>
      </trkpt>
      <trkpt lat="47.8713" lon="-2.42801">
        <ele>60.555184</ele>
        <time>2022-12-14T12:23:58.281Z</time>
      </trkpt>
      <trkpt lat="47.87123" lon="-2.42817">
        <ele>60.988807</ele>
        <time>2022-12-14T12:24:01.283Z</time>
      </trkpt>
      <trkpt lat="47.87116" lon="-2.42833">
        <ele>61.407465</ele>
        <time>2022-12-14T12:24:04.264Z</time>
      </trkpt>
      <trkpt lat="47.87111" lon="-2.42848">
        <ele>61.801068</ele>
        <time>2022-12-14T12:24:07.280Z</time>
      </trkpt>
      <trkpt lat="47.87106" lon="-2.42862">
        <ele>62.175062</ele>
        <time>2022-12-14T12:24:10.282Z</time>
      </trkpt>
      <trkpt lat="47.87101" lon="-2.42878">
        <ele>62.580322</ele>
        <time>2022-12-14T12:24:13.269Z</time>
      </trkpt>
      <trkpt lat="47.87097" lon="-2.42897">
        <ele>63.03068</ele>
        <time>2022-12-14T12:24:16.280Z</time>
      </trkpt>
      <trkpt lat="47.87094" lon="-2.4291">
        <ele>63.339266</ele>
        <time>2022-12-14T12:24:18.283Z</time>
      </trkpt>
      <trkpt lat="47.87091" lon="-2.42923">
        <ele>63.655519</ele>
        <time>2022-12-14T12:24:20.285Z</time>
      </trkpt>
      <trkpt lat="47.87087" lon="-2.42941">
        <ele>64.057503</ele>
        <time>2022-12-14T12:24:23.327Z</time>
      </trkpt>
      <trkpt lat="47.87084" lon="-2.42957">
        <ele>64.128934</ele>
        <time>2022-12-14T12:24:26.287Z</time>
      </trkpt>
      <trkpt lat="47.87081" lon="-2.42972">
        <ele>64.192561</ele>
        <time>2022-12-14T12:24:29.340Z</time>
      </trkpt>
      <trkpt lat="47.87077" lon="-2.42989">
        <ele>64.269013</ele>
        <time>2022-12-14T12:24:32.289Z</time>
      </trkpt>
      <trkpt lat="47.87072" lon="-2.43006">
        <ele>64.347699</ele>
        <time>2022-12-14T12:24:35.356Z</time>
      </trkpt>
      <trkpt lat="47.87065" lon="-2.43021">
        <ele>64.423612</ele>
        <time>2022-12-14T12:24:38.287Z</time>
      </trkpt>
      <trkpt lat="47.87058" lon="-2.43035">
        <ele>64.499618</ele>
        <time>2022-12-14T12:24:41.336Z</time>
      </trkpt>
      <trkpt lat="47.87051" lon="-2.43048">
        <ele>64.570439</ele>
        <time>2022-12-14T12:24:44.258Z</time>
      </trkpt>
      <trkpt lat="47.87044" lon="-2.43062">
        <ele>64.642875</ele>
        <time>2022-12-14T12:24:47.331Z</time>
      </trkpt>
      <trkpt lat="47.87037" lon="-2.43075">
        <ele>64.714148</ele>
        <time>2022-12-14T12:24:50.286Z</time>
      </trkpt>
      <trkpt lat="47.8703" lon="-2.4309">
        <ele>64.791519</ele>
        <time>2022-12-14T12:24:53.296Z</time>
      </trkpt>
      <trkpt lat="47.87023" lon="-2.43105">
        <ele>64.86673</ele>
        <time>2022-12-14T12:24:56.287Z</time>
      </trkpt>
      <trkpt lat="47.87017" lon="-2.43119">
        <ele>64.940895</ele>
        <time>2022-12-14T12:24:59.325Z</time>
      </trkpt>
      <trkpt lat="47.8701" lon="-2.43134">
        <ele>65.015408</ele>
        <time>2022-12-14T12:25:02.284Z</time>
      </trkpt>
      <trkpt lat="47.87004" lon="-2.4315">
        <ele>65.095209</ele>
        <time>2022-12-14T12:25:05.328Z</time>
      </trkpt>
      <trkpt lat="47.86999" lon="-2.43168">
        <ele>65.175378</ele>
        <time>2022-12-14T12:25:08.283Z</time>
      </trkpt>
      <trkpt lat="47.86996" lon="-2.43181">
        <ele>65.294113</ele>
        <time>2022-12-14T12:25:10.286Z</time>
      </trkpt>
      <trkpt lat="47.86993" lon="-2.43196">
        <ele>65.426007</ele>
        <time>2022-12-14T12:25:12.284Z</time>
      </trkpt>
      <trkpt lat="47.8699" lon="-2.43209">
        <ele>65.543297</ele>
        <time>2022-12-14T12:25:14.288Z</time>
      </trkpt>
      <trkpt lat="47.86987" lon="-2.43223">
        <ele>65.677141</ele>
        <time>2022-12-14T12:25:16.287Z</time>
      </trkpt>
      <trkpt lat="47.86983" lon="-2.43238">
        <ele>65.812749</ele>
        <time>2022-12-14T12:25:18.294Z</time>
      </trkpt>
      <trkpt lat="47.8698" lon="-2.43252">
        <ele>65.943336</ele>
        <time>2022-12-14T12:25:20.285Z</time>
      </trkpt>
      <trkpt lat="47.86978" lon="-2.43265">
        <ele>66.062262</ele>
        <time>2022-12-14T12:25:22.288Z</time>
      </trkpt>
      <trkpt lat="47.86975" lon="-2.43279">
        <ele>66.189068</ele>
        <time>2022-12-14T12:25:24.284Z</time>
      </trkpt>
      <trkpt lat="47.86971" lon="-2.43291">
        <ele>66.308554</ele>
        <time>2022-12-14T12:25:26.289Z</time>
      </trkpt>
      <trkpt lat="47.86965" lon="-2.43306">
        <ele>66.463067</ele>
        <time>2022-12-14T12:25:29.333Z</time>
      </trkpt>
      <trkpt lat="47.86959" lon="-2.4332">
        <ele>66.605354</ele>
        <time>2022-12-14T12:25:32.286Z</time>
      </trkpt>
      <trkpt lat="47.86952" lon="-2.43334">
        <ele>66.752851</ele>
        <time>2022-12-14T12:25:35.328Z</time>
      </trkpt>
      <trkpt lat="47.86944" lon="-2.43347">
        <ele>66.91228</ele>
        <time>2022-12-14T12:25:38.289Z</time>
      </trkpt>
      <trkpt lat="47.86935" lon="-2.43359">
        <ele>67.063283</ele>
        <time>2022-12-14T12:25:41.330Z</time>
      </trkpt>
      <trkpt lat="47.86926" lon="-2.43372">
        <ele>67.228466</ele>
        <time>2022-12-14T12:25:44.290Z</time>
      </trkpt>
      <trkpt lat="47.86916" lon="-2.43384">
        <ele>67.398874</ele>
        <time>2022-12-14T12:25:47.301Z</time>
      </trkpt>
      <trkpt lat="47.86908" lon="-2.43393">
        <ele>67.531708</ele>
        <time>2022-12-14T12:25:49.289Z</time>
      </trkpt>
      <trkpt lat="47.86899" lon="-2.43401">
        <ele>67.616528</ele>
        <time>2022-12-14T12:25:51.287Z</time>
      </trkpt>
      <trkpt lat="47.86891" lon="-2.43411">
        <ele>67.713022</ele>
        <time>2022-12-14T12:25:53.295Z</time>
      </trkpt>
      <trkpt lat="47.86883" lon="-2.4342">
        <ele>67.800039</ele>
        <time>2022-12-14T12:25:55.291Z</time>
      </trkpt>
      <trkpt lat="47.86871" lon="-2.4343">
        <ele>67.917105</ele>
        <time>2022-12-14T12:25:58.338Z</time>
      </trkpt>
      <trkpt lat="47.86864" lon="-2.43437">
        <ele>67.995737</ele>
        <time>2022-12-14T12:26:00.287Z</time>
      </trkpt>
      <trkpt lat="47.86856" lon="-2.43445">
        <ele>68.079402</ele>
        <time>2022-12-14T12:26:02.290Z</time>
      </trkpt>
      <trkpt lat="47.86848" lon="-2.43454">
        <ele>68.162217</ele>
        <time>2022-12-14T12:26:04.278Z</time>
      </trkpt>
      <trkpt lat="47.8684" lon="-2.43461">
        <ele>68.242354</ele>
        <time>2022-12-14T12:26:06.289Z</time>
      </trkpt>
      <trkpt lat="47.8683" lon="-2.43472">
        <ele>68.35325</ele>
        <time>2022-12-14T12:26:09.359Z</time>
      </trkpt>
      <trkpt lat="47.86821" lon="-2.43483">
        <ele>68.45721</ele>
        <time>2022-12-14T12:26:12.286Z</time>
      </trkpt>
      <trkpt lat="47.86813" lon="-2.43492">
        <ele>68.539697</ele>
        <time>2022-12-14T12:26:15.332Z</time>
      </trkpt>
      <trkpt lat="47.86805" lon="-2.43503">
        <ele>68.63926</ele>
        <time>2022-12-14T12:26:18.292Z</time>
      </trkpt>
      <trkpt lat="47.86798" lon="-2.43516">
        <ele>68.736392</ele>
        <time>2022-12-14T12:26:21.331Z</time>
      </trkpt>
      <trkpt lat="47.86791" lon="-2.43531">
        <ele>68.843699</ele>
        <time>2022-12-14T12:26:24.284Z</time>
      </trkpt>
      <trkpt lat="47.86785" lon="-2.43548">
        <ele>68.956377</ele>
        <time>2022-12-14T12:26:27.336Z</time>
      </trkpt>
      <trkpt lat="47.86779" lon="-2.43565">
        <ele>69.071952</ele>
        <time>2022-12-14T12:26:30.288Z</time>
      </trkpt>
      <trkpt lat="47.86774" lon="-2.43577">
        <ele>69.078725</ele>
        <time>2022-12-14T12:26:32.277Z</time>
      </trkpt>
      <trkpt lat="47.86769" lon="-2.43589">
        <ele>69.046156</ele>
        <time>2022-12-14T12:26:34.296Z</time>
      </trkpt>
      <trkpt lat="47.86762" lon="-2.43606">
        <ele>69.000921</ele>
        <time>2022-12-14T12:26:37.288Z</time>
      </trkpt>
      <trkpt lat="47.86756" lon="-2.43623">
        <ele>68.957501</ele>
        <time>2022-12-14T12:26:40.289Z</time>
      </trkpt>
      <trkpt lat="47.86749" lon="-2.4364">
        <ele>68.913121</ele>
        <time>2022-12-14T12:26:43.277Z</time>
      </trkpt>
      <trkpt lat="47.86744" lon="-2.43652">
        <ele>68.880309</ele>
        <time>2022-12-14T12:26:45.288Z</time>
      </trkpt>
      <trkpt lat="47.86739" lon="-2.43665">
        <ele>68.847349</ele>
        <time>2022-12-14T12:26:47.289Z</time>
      </trkpt>
      <trkpt lat="47.86732" lon="-2.43681">
        <ele>68.803457</ele>
        <time>2022-12-14T12:26:50.360Z</time>
      </trkpt>
      <trkpt lat="47.86727" lon="-2.43692">
        <ele>68.772584</ele>
        <time>2022-12-14T12:26:52.274Z</time>
      </trkpt>
      <trkpt lat="47.86723" lon="-2.43706">
        <ele>68.736865</ele>
        <time>2022-12-14T12:26:55.288Z</time>
      </trkpt>
      <trkpt lat="47.86718" lon="-2.43722">
        <ele>68.697471</ele>
        <time>2022-12-14T12:26:58.286Z</time>
      </trkpt>
      <trkpt lat="47.86715" lon="-2.43738">
        <ele>68.659886</ele>
        <time>2022-12-14T12:27:01.291Z</time>
      </trkpt>
      <trkpt lat="47.86711" lon="-2.43756">
        <ele>68.617552</ele>
        <time>2022-12-14T12:27:04.287Z</time>
      </trkpt>
      <trkpt lat="47.86706" lon="-2.43774">
        <ele>68.572271</ele>
        <time>2022-12-14T12:27:07.285Z</time>
      </trkpt>
      <trkpt lat="47.86703" lon="-2.4379">
        <ele>68.534041</ele>
        <time>2022-12-14T12:27:10.283Z</time>
      </trkpt>
      <trkpt lat="47.86699" lon="-2.43805">
        <ele>68.497747</ele>
        <time>2022-12-14T12:27:13.285Z</time>
      </trkpt>
      <trkpt lat="47.86696" lon="-2.43818">
        <ele>68.362712</ele>
        <time>2022-12-14T12:27:15.287Z</time>
      </trkpt>
      <trkpt lat="47.86692" lon="-2.4383">
        <ele>68.187629</ele>
        <time>2022-12-14T12:27:18.288Z</time>
      </trkpt>
      <trkpt lat="47.86688" lon="-2.43846">
        <ele>67.980449</ele>
        <time>2022-12-14T12:27:21.287Z</time>
      </trkpt>
      <trkpt lat="47.86685" lon="-2.43863">
        <ele>67.751619</ele>
        <time>2022-12-14T12:27:24.297Z</time>
      </trkpt>
      <trkpt lat="47.86681" lon="-2.4388">
        <ele>67.528858</ele>
        <time>2022-12-14T12:27:27.287Z</time>
      </trkpt>
      <trkpt lat="47.86677" lon="-2.43896">
        <ele>67.312655</ele>
        <time>2022-12-14T12:27:30.290Z</time>
      </trkpt>
      <trkpt lat="47.86674" lon="-2.43913">
        <ele>67.080562</ele>
        <time>2022-12-14T12:27:33.292Z</time>
      </trkpt>
      <trkpt lat="47.86671" lon="-2.43932">
        <ele>66.837442</ele>
        <time>2022-12-14T12:27:36.295Z</time>
      </trkpt>
      <trkpt lat="47.86668" lon="-2.43951">
        <ele>66.592013</ele>
        <time>2022-12-14T12:27:39.291Z</time>
      </trkpt>
      <trkpt lat="47.86665" lon="-2.43968">
        <ele>66.371228</ele>
        <time>2022-12-14T12:27:42.287Z</time>
      </trkpt>
      <trkpt lat="47.86663" lon="-2.43985">
        <ele>66.147305</ele>
        <time>2022-12-14T12:27:45.283Z</time>
      </trkpt>
      <trkpt lat="47.8666" lon="-2.44004">
        <ele>65.904253</ele>
        <time>2022-12-14T12:27:48.287Z</time>
      </trkpt>
      <trkpt lat="47.86658" lon="-2.44022">
        <ele>65.659256</ele>
        <time>2022-12-14T12:27:51.293Z</time>
      </trkpt>
      <trkpt lat="47.86655" lon="-2.4404">
        <ele>65.436982</ele>
        <time>2022-12-14T12:27:54.286Z</time>
      </trkpt>
      <trkpt lat="47.86653" lon="-2.44055">
        <ele>65.232415</ele>
        <time>2022-12-14T12:27:57.293Z</time>
      </trkpt>
      <trkpt lat="47.86651" lon="-2.44072">
        <ele>65.038336</ele>
        <time>2022-12-14T12:28:01.348Z</time>
      </trkpt>
      <trkpt lat="47.8665" lon="-2.44073">
        <ele>65.017897</ele>
        <time>2022-12-14T12:30:39.474Z</time>
      </trkpt>
      <trkpt lat="47.86653" lon="-2.44084">
        <ele>64.903763</ele>
        <time>2022-12-14T12:34:38.265Z</time>
      </trkpt>
      <trkpt lat="47.8665" lon="-2.441">
        <ele>64.739957</ele>
        <time>2022-12-14T12:36:16.318Z</time>
      </trkpt>
      <trkpt lat="47.86649" lon="-2.44115">
        <ele>64.593372</ele>
        <time>2022-12-14T12:36:20.277Z</time>
      </trkpt>
      <trkpt lat="47.86648" lon="-2.44129">
        <ele>64.455754</ele>
        <time>2022-12-14T12:36:23.289Z</time>
      </trkpt>
      <trkpt lat="47.86647" lon="-2.44144">
        <ele>64.308718</ele>
        <time>2022-12-14T12:36:26.268Z</time>
      </trkpt>
      <trkpt lat="47.86646" lon="-2.4416">
        <ele>64.151465</ele>
        <time>2022-12-14T12:36:29.272Z</time>
      </trkpt>
      <trkpt lat="47.86645" lon="-2.44177">
        <ele>63.984511</ele>
        <time>2022-12-14T12:36:32.280Z</time>
      </trkpt>
      <trkpt lat="47.86644" lon="-2.44194">
        <ele>63.814751</ele>
        <time>2022-12-14T12:36:35.285Z</time>
      </trkpt>
      <trkpt lat="47.86644" lon="-2.44211">
        <ele>63.649053</ele>
        <time>2022-12-14T12:36:38.288Z</time>
      </trkpt>
      <trkpt lat="47.86643" lon="-2.44226">
        <ele>63.502986</ele>
        <time>2022-12-14T12:36:41.285Z</time>
      </trkpt>
      <trkpt lat="47.86642" lon="-2.44241">
        <ele>63.36095</ele>
        <time>2022-12-14T12:36:44.287Z</time>
      </trkpt>
      <trkpt lat="47.86641" lon="-2.44257">
        <ele>63.203698</ele>
        <time>2022-12-14T12:36:47.286Z</time>
      </trkpt>
      <trkpt lat="47.8664" lon="-2.44274">
        <ele>63.037822</ele>
        <time>2022-12-14T12:36:50.267Z</time>
      </trkpt>
      <trkpt lat="47.8664" lon="-2.44292">
        <ele>62.860191</ele>
        <time>2022-12-14T12:36:53.285Z</time>
      </trkpt>
      <trkpt lat="47.86638" lon="-2.44311">
        <ele>62.677477</ele>
        <time>2022-12-14T12:36:56.286Z</time>
      </trkpt>
      <trkpt lat="47.86637" lon="-2.44329">
        <ele>62.496823</ele>
        <time>2022-12-14T12:36:59.294Z</time>
      </trkpt>
      <trkpt lat="47.86637" lon="-2.44346">
        <ele>62.654584</ele>
        <time>2022-12-14T12:37:02.285Z</time>
      </trkpt>
      <trkpt lat="47.86636" lon="-2.44364">
        <ele>62.886389</ele>
        <time>2022-12-14T12:37:06.285Z</time>
      </trkpt>
      <trkpt lat="47.86635" lon="-2.4438">
        <ele>63.091846</ele>
        <time>2022-12-14T12:37:09.268Z</time>
      </trkpt>
      <trkpt lat="47.86635" lon="-2.44396">
        <ele>63.29546</ele>
        <time>2022-12-14T12:37:12.287Z</time>
      </trkpt>
      <trkpt lat="47.86634" lon="-2.44411">
        <ele>63.487397</ele>
        <time>2022-12-14T12:37:15.291Z</time>
      </trkpt>
      <trkpt lat="47.86633" lon="-2.44425">
        <ele>63.670236</ele>
        <time>2022-12-14T12:37:18.282Z</time>
      </trkpt>
      <trkpt lat="47.86629" lon="-2.44437">
        <ele>63.845701</ele>
        <time>2022-12-14T12:37:21.286Z</time>
      </trkpt>
      <trkpt lat="47.8662" lon="-2.44448">
        <ele>64.064242</ele>
        <time>2022-12-14T12:37:24.289Z</time>
      </trkpt>
      <trkpt lat="47.86608" lon="-2.4445">
        <ele>64.290731</ele>
        <time>2022-12-14T12:37:27.284Z</time>
      </trkpt>
      <trkpt lat="47.86597" lon="-2.44449">
        <ele>64.506279</ele>
        <time>2022-12-14T12:37:30.286Z</time>
      </trkpt>
      <trkpt lat="47.86587" lon="-2.44448">
        <ele>64.695931</ele>
        <time>2022-12-14T12:37:33.277Z</time>
      </trkpt>
      <trkpt lat="47.86577" lon="-2.44447">
        <ele>64.886946</ele>
        <time>2022-12-14T12:37:36.285Z</time>
      </trkpt>
      <trkpt lat="47.86567" lon="-2.44445">
        <ele>65.066026</ele>
        <time>2022-12-14T12:37:39.287Z</time>
      </trkpt>
      <trkpt lat="47.86557" lon="-2.44443">
        <ele>65.273287</ele>
        <time>2022-12-14T12:37:43.292Z</time>
      </trkpt>
      <trkpt lat="47.86547" lon="-2.4444">
        <ele>65.464447</ele>
        <time>2022-12-14T12:37:47.287Z</time>
      </trkpt>
      <trkpt lat="47.86537" lon="-2.44437">
        <ele>65.652802</ele>
        <time>2022-12-14T12:37:52.289Z</time>
      </trkpt>
      <trkpt lat="47.86527" lon="-2.44435">
        <ele>65.851938</ele>
        <time>2022-12-14T12:37:57.285Z</time>
      </trkpt>
      <trkpt lat="47.8652" lon="-2.44446">
        <ele>65.971134</ele>
        <time>2022-12-14T12:38:02.287Z</time>
      </trkpt>
      <trkpt lat="47.86517" lon="-2.44459">
        <ele>66.05918</ele>
        <time>2022-12-14T12:38:14.286Z</time>
      </trkpt>
      <trkpt lat="47.86514" lon="-2.44472">
        <ele>66.145203</ele>
        <time>2022-12-14T12:38:40.287Z</time>
      </trkpt>
      <trkpt lat="47.86512" lon="-2.44488">
        <ele>66.248225</ele>
        <time>2022-12-14T12:38:46.284Z</time>
      </trkpt>
      <trkpt lat="47.86511" lon="-2.44502">
        <ele>66.337986</ele>
        <time>2022-12-14T12:38:50.282Z</time>
      </trkpt>
      <trkpt lat="47.8651" lon="-2.44515">
        <ele>66.424899</ele>
        <time>2022-12-14T12:38:54.307Z</time>
      </trkpt>
      <trkpt lat="47.8651" lon="-2.4453">
        <ele>66.515451</ele>
        <time>2022-12-14T12:38:58.287Z</time>
      </trkpt>
      <trkpt lat="47.86509" lon="-2.44544">
        <ele>66.606574</ele>
        <time>2022-12-14T12:39:02.270Z</time>
      </trkpt>
      <trkpt lat="47.86507" lon="-2.44557">
        <ele>66.692056</ele>
        <time>2022-12-14T12:39:06.268Z</time>
      </trkpt>
      <trkpt lat="47.86506" lon="-2.44573">
        <ele>66.791634</ele>
        <time>2022-12-14T12:39:11.286Z</time>
      </trkpt>
      <trkpt lat="47.86506" lon="-2.44586">
        <ele>66.878211</ele>
        <time>2022-12-14T12:39:15.284Z</time>
      </trkpt>
      <trkpt lat="47.86504" lon="-2.446">
        <ele>66.967619</ele>
        <time>2022-12-14T12:39:19.283Z</time>
      </trkpt>
      <trkpt lat="47.86502" lon="-2.44614">
        <ele>67.055779</ele>
        <time>2022-12-14T12:39:24.268Z</time>
      </trkpt>
      <trkpt lat="47.86495" lon="-2.44624">
        <ele>67.150199</ele>
        <time>2022-12-14T12:39:29.290Z</time>
      </trkpt>
      <trkpt lat="47.86484" lon="-2.44622">
        <ele>67.260634</ele>
        <time>2022-12-14T12:39:34.272Z</time>
      </trkpt>
      <trkpt lat="47.86472" lon="-2.44618">
        <ele>67.373949</ele>
        <time>2022-12-14T12:39:38.283Z</time>
      </trkpt>
      <trkpt lat="47.86463" lon="-2.44615">
        <ele>67.462717</ele>
        <time>2022-12-14T12:39:41.285Z</time>
      </trkpt>
      <trkpt lat="47.86453" lon="-2.44613">
        <ele>67.553466</ele>
        <time>2022-12-14T12:39:44.274Z</time>
      </trkpt>
      <trkpt lat="47.86443" lon="-2.44609">
        <ele>67.479631</ele>
        <time>2022-12-14T12:39:47.285Z</time>
      </trkpt>
      <trkpt lat="47.86432" lon="-2.44605">
        <ele>67.188224</ele>
        <time>2022-12-14T12:39:50.288Z</time>
      </trkpt>
      <trkpt lat="47.86421" lon="-2.44601">
        <ele>66.913953</ele>
        <time>2022-12-14T12:39:53.287Z</time>
      </trkpt>
      <trkpt lat="47.86412" lon="-2.44597">
        <ele>66.671066</ele>
        <time>2022-12-14T12:39:56.292Z</time>
      </trkpt>
      <trkpt lat="47.86403" lon="-2.44593">
        <ele>66.444649</ele>
        <time>2022-12-14T12:39:59.264Z</time>
      </trkpt>
      <trkpt lat="47.86394" lon="-2.4459">
        <ele>66.205494</ele>
        <time>2022-12-14T12:40:02.286Z</time>
      </trkpt>
      <trkpt lat="47.86384" lon="-2.44587">
        <ele>65.94426</ele>
        <time>2022-12-14T12:40:05.267Z</time>
      </trkpt>
      <trkpt lat="47.86374" lon="-2.44584">
        <ele>65.703854</ele>
        <time>2022-12-14T12:40:08.268Z</time>
      </trkpt>
      <trkpt lat="47.86364" lon="-2.44581">
        <ele>65.430511</ele>
        <time>2022-12-14T12:40:12.286Z</time>
      </trkpt>
      <trkpt lat="47.86343" lon="-2.44576">
        <ele>64.909783</ele>
        <time>2022-12-14T12:40:38.276Z</time>
      </trkpt>
      <trkpt lat="47.86332" lon="-2.44575">
        <ele>64.616197</ele>
        <time>2022-12-14T12:40:42.289Z</time>
      </trkpt>
      <trkpt lat="47.86322" lon="-2.44572">
        <ele>64.364327</ele>
        <time>2022-12-14T12:40:45.287Z</time>
      </trkpt>
      <trkpt lat="47.86313" lon="-2.44571">
        <ele>64.131029</ele>
        <time>2022-12-14T12:40:48.285Z</time>
      </trkpt>
      <trkpt lat="47.86302" lon="-2.4457">
        <ele>63.868419</ele>
        <time>2022-12-14T12:40:51.266Z</time>
      </trkpt>
      <trkpt lat="47.86291" lon="-2.44568">
        <ele>63.584094</ele>
        <time>2022-12-14T12:40:54.283Z</time>
      </trkpt>
      <trkpt lat="47.86279" lon="-2.44566">
        <ele>63.284964</ele>
        <time>2022-12-14T12:40:57.286Z</time>
      </trkpt>
      <trkpt lat="47.86267" lon="-2.44563">
        <ele>63.081268</ele>
        <time>2022-12-14T12:41:00.287Z</time>
      </trkpt>
      <trkpt lat="47.86254" lon="-2.44561">
        <ele>63.094678</ele>
        <time>2022-12-14T12:41:03.285Z</time>
      </trkpt>
      <trkpt lat="47.86241" lon="-2.44559">
        <ele>63.108416</ele>
        <time>2022-12-14T12:41:06.269Z</time>
      </trkpt>
      <trkpt lat="47.86229" lon="-2.44557">
        <ele>63.121728</ele>
        <time>2022-12-14T12:41:09.277Z</time>
      </trkpt>
      <trkpt lat="47.86216" lon="-2.44556">
        <ele>63.134775</ele>
        <time>2022-12-14T12:41:12.284Z</time>
      </trkpt>
      <trkpt lat="47.86205" lon="-2.44557">
        <ele>63.14665</ele>
        <time>2022-12-14T12:41:15.287Z</time>
      </trkpt>
      <trkpt lat="47.86194" lon="-2.44557">
        <ele>63.158417</ele>
        <time>2022-12-14T12:41:18.286Z</time>
      </trkpt>
      <trkpt lat="47.86181" lon="-2.44556">
        <ele>63.171868</ele>
        <time>2022-12-14T12:41:21.297Z</time>
      </trkpt>
      <trkpt lat="47.86168" lon="-2.44557">
        <ele>63.185842</ele>
        <time>2022-12-14T12:41:24.283Z</time>
      </trkpt>
      <trkpt lat="47.86154" lon="-2.44556">
        <ele>63.200031</ele>
        <time>2022-12-14T12:41:27.294Z</time>
      </trkpt>
      <trkpt lat="47.86145" lon="-2.44557">
        <ele>63.209613</ele>
        <time>2022-12-14T12:41:29.293Z</time>
      </trkpt>
      <trkpt lat="47.86136" lon="-2.44558">
        <ele>63.219304</ele>
        <time>2022-12-14T12:41:31.288Z</time>
      </trkpt>
      <trkpt lat="47.86127" lon="-2.44559">
        <ele>63.228881</ele>
        <time>2022-12-14T12:41:33.281Z</time>
      </trkpt>
      <trkpt lat="47.86114" lon="-2.44561">
        <ele>63.242747</ele>
        <time>2022-12-14T12:41:36.293Z</time>
      </trkpt>
      <trkpt lat="47.86102" lon="-2.44565">
        <ele>63.2558</ele>
        <time>2022-12-14T12:41:39.286Z</time>
      </trkpt>
      <trkpt lat="47.8609" lon="-2.44569">
        <ele>63.263677</ele>
        <time>2022-12-14T12:41:42.287Z</time>
      </trkpt>
      <trkpt lat="47.8608" lon="-2.44571">
        <ele>63.251198</ele>
        <time>2022-12-14T12:41:45.293Z</time>
      </trkpt>
      <trkpt lat="47.8607" lon="-2.44576">
        <ele>63.2383</ele>
        <time>2022-12-14T12:41:48.288Z</time>
      </trkpt>
      <trkpt lat="47.8606" lon="-2.44581">
        <ele>63.224809</ele>
        <time>2022-12-14T12:41:51.288Z</time>
      </trkpt>
      <trkpt lat="47.86049" lon="-2.44588">
        <ele>63.210123</ele>
        <time>2022-12-14T12:41:54.287Z</time>
      </trkpt>
      <trkpt lat="47.86037" lon="-2.44596">
        <ele>63.194469</ele>
        <time>2022-12-14T12:41:57.286Z</time>
      </trkpt>
      <trkpt lat="47.86025" lon="-2.44605">
        <ele>63.178044</ele>
        <time>2022-12-14T12:42:00.286Z</time>
      </trkpt>
      <trkpt lat="47.86017" lon="-2.44612">
        <ele>63.166104</ele>
        <time>2022-12-14T12:42:02.284Z</time>
      </trkpt>
      <trkpt lat="47.86009" lon="-2.4462">
        <ele>63.153922</ele>
        <time>2022-12-14T12:42:04.272Z</time>
      </trkpt>
      <trkpt lat="47.86001" lon="-2.44628">
        <ele>63.142342</ele>
        <time>2022-12-14T12:42:06.289Z</time>
      </trkpt>
      <trkpt lat="47.85993" lon="-2.44634">
        <ele>63.131232</ele>
        <time>2022-12-14T12:42:08.272Z</time>
      </trkpt>
      <trkpt lat="47.85982" lon="-2.44643">
        <ele>63.116315</ele>
        <time>2022-12-14T12:42:11.276Z</time>
      </trkpt>
      <trkpt lat="47.85972" lon="-2.44652">
        <ele>63.101612</ele>
        <time>2022-12-14T12:42:14.275Z</time>
      </trkpt>
      <trkpt lat="47.85961" lon="-2.4466">
        <ele>63.086545</ele>
        <time>2022-12-14T12:42:17.289Z</time>
      </trkpt>
      <trkpt lat="47.85949" lon="-2.44667">
        <ele>63.070781</ele>
        <time>2022-12-14T12:42:20.285Z</time>
      </trkpt>
      <trkpt lat="47.85936" lon="-2.44672">
        <ele>63.055169</ele>
        <time>2022-12-14T12:42:23.288Z</time>
      </trkpt>
      <trkpt lat="47.85924" lon="-2.44676">
        <ele>63.028934</ele>
        <time>2022-12-14T12:42:26.269Z</time>
      </trkpt>
      <trkpt lat="47.85912" lon="-2.44679">
        <ele>62.986086</ele>
        <time>2022-12-14T12:42:29.272Z</time>
      </trkpt>
      <trkpt lat="47.859" lon="-2.44681">
        <ele>62.939133</ele>
        <time>2022-12-14T12:42:32.287Z</time>
      </trkpt>
      <trkpt lat="47.85886" lon="-2.44683">
        <ele>62.890763</ele>
        <time>2022-12-14T12:42:35.270Z</time>
      </trkpt>
      <trkpt lat="47.85877" lon="-2.44685">
        <ele>62.857643</ele>
        <time>2022-12-14T12:42:37.286Z</time>
      </trkpt>
      <trkpt lat="47.85865" lon="-2.44687">
        <ele>62.812239</ele>
        <time>2022-12-14T12:42:40.285Z</time>
      </trkpt>
      <trkpt lat="47.85854" lon="-2.44689">
        <ele>62.771843</ele>
        <time>2022-12-14T12:42:43.287Z</time>
      </trkpt>
      <trkpt lat="47.85843" lon="-2.44691">
        <ele>62.731875</ele>
        <time>2022-12-14T12:42:46.281Z</time>
      </trkpt>
      <trkpt lat="47.8583" lon="-2.44691">
        <ele>62.687292</ele>
        <time>2022-12-14T12:42:49.294Z</time>
      </trkpt>
      <trkpt lat="47.85821" lon="-2.44692">
        <ele>62.652452</ele>
        <time>2022-12-14T12:42:51.266Z</time>
      </trkpt>
      <trkpt lat="47.85807" lon="-2.44692">
        <ele>62.603195</ele>
        <time>2022-12-14T12:42:54.281Z</time>
      </trkpt>
      <trkpt lat="47.85794" lon="-2.44691">
        <ele>62.554668</ele>
        <time>2022-12-14T12:42:57.285Z</time>
      </trkpt>
      <trkpt lat="47.85781" lon="-2.44689">
        <ele>62.507739</ele>
        <time>2022-12-14T12:43:00.287Z</time>
      </trkpt>
      <trkpt lat="47.85769" lon="-2.44686">
        <ele>62.462577</ele>
        <time>2022-12-14T12:43:03.297Z</time>
      </trkpt>
      <trkpt lat="47.85759" lon="-2.44682">
        <ele>62.428089</ele>
        <time>2022-12-14T12:43:05.271Z</time>
      </trkpt>
      <trkpt lat="47.8575" lon="-2.44678">
        <ele>62.393743</ele>
        <time>2022-12-14T12:43:07.286Z</time>
      </trkpt>
      <trkpt lat="47.85741" lon="-2.44673">
        <ele>62.392229</ele>
        <time>2022-12-14T12:43:09.275Z</time>
      </trkpt>
      <trkpt lat="47.85729" lon="-2.44666">
        <ele>62.390014</ele>
        <time>2022-12-14T12:43:12.280Z</time>
      </trkpt>
      <trkpt lat="47.85721" lon="-2.44661">
        <ele>62.388479</ele>
        <time>2022-12-14T12:43:14.294Z</time>
      </trkpt>
      <trkpt lat="47.8571" lon="-2.44654">
        <ele>62.386547</ele>
        <time>2022-12-14T12:43:17.286Z</time>
      </trkpt>
      <trkpt lat="47.857" lon="-2.44648">
        <ele>62.384686</ele>
        <time>2022-12-14T12:43:20.275Z</time>
      </trkpt>
      <trkpt lat="47.85687" lon="-2.44643">
        <ele>62.382522</ele>
        <time>2022-12-14T12:43:23.286Z</time>
      </trkpt>
      <trkpt lat="47.85677" lon="-2.44638">
        <ele>62.38078</ele>
        <time>2022-12-14T12:43:25.287Z</time>
      </trkpt>
      <trkpt lat="47.85664" lon="-2.44634">
        <ele>62.378521</ele>
        <time>2022-12-14T12:43:28.286Z</time>
      </trkpt>
      <trkpt lat="47.85652" lon="-2.4463">
        <ele>62.37635</ele>
        <time>2022-12-14T12:43:31.277Z</time>
      </trkpt>
      <trkpt lat="47.8564" lon="-2.44626">
        <ele>62.374349</ele>
        <time>2022-12-14T12:43:34.270Z</time>
      </trkpt>
      <trkpt lat="47.85627" lon="-2.44623">
        <ele>62.372194</ele>
        <time>2022-12-14T12:43:37.283Z</time>
      </trkpt>
      <trkpt lat="47.85617" lon="-2.44622">
        <ele>62.370517</ele>
        <time>2022-12-14T12:43:39.276Z</time>
      </trkpt>
      <trkpt lat="47.85604" lon="-2.4462">
        <ele>62.368249</ele>
        <time>2022-12-14T12:43:42.293Z</time>
      </trkpt>
      <trkpt lat="47.85591" lon="-2.44619">
        <ele>62.366043</ele>
        <time>2022-12-14T12:43:45.285Z</time>
      </trkpt>
      <trkpt lat="47.8558" lon="-2.44619">
        <ele>62.364243</ele>
        <time>2022-12-14T12:43:48.287Z</time>
      </trkpt>
      <trkpt lat="47.85569" lon="-2.44619">
        <ele>62.379001</ele>
        <time>2022-12-14T12:43:51.287Z</time>
      </trkpt>
      <trkpt lat="47.85555" lon="-2.4462">
        <ele>62.40575</ele>
        <time>2022-12-14T12:43:54.295Z</time>
      </trkpt>
      <trkpt lat="47.85546" lon="-2.44619">
        <ele>62.424263</ele>
        <time>2022-12-14T12:43:56.283Z</time>
      </trkpt>
      <trkpt lat="47.85533" lon="-2.44619">
        <ele>62.449016</ele>
        <time>2022-12-14T12:43:59.284Z</time>
      </trkpt>
      <trkpt lat="47.8552" lon="-2.44621">
        <ele>62.474064</ele>
        <time>2022-12-14T12:44:02.284Z</time>
      </trkpt>
      <trkpt lat="47.85509" lon="-2.44622">
        <ele>62.496702</ele>
        <time>2022-12-14T12:44:05.276Z</time>
      </trkpt>
      <trkpt lat="47.85497" lon="-2.44625">
        <ele>62.520153</ele>
        <time>2022-12-14T12:44:08.282Z</time>
      </trkpt>
      <trkpt lat="47.85484" lon="-2.44629">
        <ele>62.545985</ele>
        <time>2022-12-14T12:44:11.280Z</time>
      </trkpt>
      <trkpt lat="47.85475" lon="-2.44632">
        <ele>62.56448</ele>
        <time>2022-12-14T12:44:13.280Z</time>
      </trkpt>
      <trkpt lat="47.85466" lon="-2.44637">
        <ele>62.583771</ele>
        <time>2022-12-14T12:44:15.285Z</time>
      </trkpt>
      <trkpt lat="47.85452" lon="-2.44639">
        <ele>62.610449</ele>
        <time>2022-12-14T12:44:18.277Z</time>
      </trkpt>
      <trkpt lat="47.85443" lon="-2.4464">
        <ele>62.628615</ele>
        <time>2022-12-14T12:44:20.277Z</time>
      </trkpt>
      <trkpt lat="47.85431" lon="-2.44643">
        <ele>62.653196</ele>
        <time>2022-12-14T12:44:23.282Z</time>
      </trkpt>
      <trkpt lat="47.85418" lon="-2.44645">
        <ele>62.679016</ele>
        <time>2022-12-14T12:44:26.285Z</time>
      </trkpt>
      <trkpt lat="47.85406" lon="-2.44644">
        <ele>62.701804</ele>
        <time>2022-12-14T12:44:29.269Z</time>
      </trkpt>
      <trkpt lat="47.85395" lon="-2.44644">
        <ele>62.665184</ele>
        <time>2022-12-14T12:44:32.293Z</time>
      </trkpt>
      <trkpt lat="47.85383" lon="-2.44644">
        <ele>62.491431</ele>
        <time>2022-12-14T12:44:35.272Z</time>
      </trkpt>
      <trkpt lat="47.85371" lon="-2.44643">
        <ele>62.300225</ele>
        <time>2022-12-14T12:44:38.279Z</time>
      </trkpt>
      <trkpt lat="47.85357" lon="-2.44641">
        <ele>62.087966</ele>
        <time>2022-12-14T12:44:41.272Z</time>
      </trkpt>
      <trkpt lat="47.85347" lon="-2.44642">
        <ele>61.938554</ele>
        <time>2022-12-14T12:44:43.286Z</time>
      </trkpt>
      <trkpt lat="47.85338" lon="-2.44641">
        <ele>61.792157</ele>
        <time>2022-12-14T12:44:45.270Z</time>
      </trkpt>
      <trkpt lat="47.85327" lon="-2.44641">
        <ele>61.636583</ele>
        <time>2022-12-14T12:44:47.289Z</time>
      </trkpt>
      <trkpt lat="47.85317" lon="-2.4464">
        <ele>61.482601</ele>
        <time>2022-12-14T12:44:49.297Z</time>
      </trkpt>
      <trkpt lat="47.85307" lon="-2.44639">
        <ele>61.331222</ele>
        <time>2022-12-14T12:44:51.271Z</time>
      </trkpt>
      <trkpt lat="47.85294" lon="-2.44637">
        <ele>61.129012</ele>
        <time>2022-12-14T12:44:54.291Z</time>
      </trkpt>
      <trkpt lat="47.85285" lon="-2.44635">
        <ele>60.985166</ele>
        <time>2022-12-14T12:44:56.295Z</time>
      </trkpt>
      <trkpt lat="47.85276" lon="-2.44632">
        <ele>60.848238</ele>
        <time>2022-12-14T12:44:58.291Z</time>
      </trkpt>
      <trkpt lat="47.85263" lon="-2.44629">
        <ele>60.646087</ele>
        <time>2022-12-14T12:45:01.285Z</time>
      </trkpt>
      <trkpt lat="47.8525" lon="-2.44625">
        <ele>60.45056</ele>
        <time>2022-12-14T12:45:04.272Z</time>
      </trkpt>
      <trkpt lat="47.85238" lon="-2.44622">
        <ele>60.257435</ele>
        <time>2022-12-14T12:45:07.289Z</time>
      </trkpt>
      <trkpt lat="47.85226" lon="-2.44617">
        <ele>60.064324</ele>
        <time>2022-12-14T12:45:10.285Z</time>
      </trkpt>
      <trkpt lat="47.85216" lon="-2.44613">
        <ele>59.97063</ele>
        <time>2022-12-14T12:45:12.291Z</time>
      </trkpt>
      <trkpt lat="47.85207" lon="-2.44609">
        <ele>59.958283</ele>
        <time>2022-12-14T12:45:14.295Z</time>
      </trkpt>
      <trkpt lat="47.85194" lon="-2.44605">
        <ele>59.940211</ele>
        <time>2022-12-14T12:45:17.273Z</time>
      </trkpt>
      <trkpt lat="47.85185" lon="-2.44601">
        <ele>59.928186</ele>
        <time>2022-12-14T12:45:19.276Z</time>
      </trkpt>
      <trkpt lat="47.85173" lon="-2.44598">
        <ele>59.911746</ele>
        <time>2022-12-14T12:45:22.286Z</time>
      </trkpt>
      <trkpt lat="47.85161" lon="-2.44593">
        <ele>59.896465</ele>
        <time>2022-12-14T12:45:25.287Z</time>
      </trkpt>
      <trkpt lat="47.85151" lon="-2.4459">
        <ele>59.883359</ele>
        <time>2022-12-14T12:45:28.296Z</time>
      </trkpt>
      <trkpt lat="47.85141" lon="-2.44588">
        <ele>59.869506</ele>
        <time>2022-12-14T12:45:32.270Z</time>
      </trkpt>
      <trkpt lat="47.85131" lon="-2.44584">
        <ele>59.856299</ele>
        <time>2022-12-14T12:45:36.284Z</time>
      </trkpt>
      <trkpt lat="47.85123" lon="-2.44577">
        <ele>59.843811</ele>
        <time>2022-12-14T12:45:40.287Z</time>
      </trkpt>
      <trkpt lat="47.85113" lon="-2.44574">
        <ele>59.831194</ele>
        <time>2022-12-14T12:45:43.293Z</time>
      </trkpt>
      <trkpt lat="47.85102" lon="-2.44569">
        <ele>59.815644</ele>
        <time>2022-12-14T12:45:46.268Z</time>
      </trkpt>
      <trkpt lat="47.8509" lon="-2.44565">
        <ele>59.799306</ele>
        <time>2022-12-14T12:45:49.270Z</time>
      </trkpt>
      <trkpt lat="47.85078" lon="-2.4456">
        <ele>59.783245</ele>
        <time>2022-12-14T12:45:52.283Z</time>
      </trkpt>
      <trkpt lat="47.85066" lon="-2.44555">
        <ele>59.766818</ele>
        <time>2022-12-14T12:45:55.291Z</time>
      </trkpt>
      <trkpt lat="47.85057" lon="-2.44551">
        <ele>59.755048</ele>
        <time>2022-12-14T12:45:57.295Z</time>
      </trkpt>
      <trkpt lat="47.85048" lon="-2.44548">
        <ele>59.743149</ele>
        <time>2022-12-14T12:45:59.270Z</time>
      </trkpt>
      <trkpt lat="47.85039" lon="-2.44545">
        <ele>59.762308</ele>
        <time>2022-12-14T12:46:01.291Z</time>
      </trkpt>
      <trkpt lat="47.85031" lon="-2.4454">
        <ele>59.788975</ele>
        <time>2022-12-14T12:46:03.286Z</time>
      </trkpt>
      <trkpt lat="47.8502" lon="-2.44536">
        <ele>59.819182</ele>
        <time>2022-12-14T12:46:05.286Z</time>
      </trkpt>
      <trkpt lat="47.8501" lon="-2.44533">
        <ele>59.848217</ele>
        <time>2022-12-14T12:46:07.269Z</time>
      </trkpt>
      <trkpt lat="47.85001" lon="-2.44529">
        <ele>59.877301</ele>
        <time>2022-12-14T12:46:09.285Z</time>
      </trkpt>
      <trkpt lat="47.8499" lon="-2.44525">
        <ele>59.908328</ele>
        <time>2022-12-14T12:46:11.272Z</time>
      </trkpt>
      <trkpt lat="47.84981" lon="-2.44521">
        <ele>59.935784</ele>
        <time>2022-12-14T12:46:13.292Z</time>
      </trkpt>
      <trkpt lat="47.84971" lon="-2.44518">
        <ele>59.964871</ele>
        <time>2022-12-14T12:46:15.271Z</time>
      </trkpt>
      <trkpt lat="47.84958" lon="-2.44513">
        <ele>60.003366</ele>
        <time>2022-12-14T12:46:18.295Z</time>
      </trkpt>
      <trkpt lat="47.84949" lon="-2.44509">
        <ele>60.029587</ele>
        <time>2022-12-14T12:46:20.290Z</time>
      </trkpt>
      <trkpt lat="47.84941" lon="-2.44504">
        <ele>60.055987</ele>
        <time>2022-12-14T12:46:22.286Z</time>
      </trkpt>
      <trkpt lat="47.84932" lon="-2.44498">
        <ele>60.083499</ele>
        <time>2022-12-14T12:46:24.288Z</time>
      </trkpt>
      <trkpt lat="47.84923" lon="-2.44493">
        <ele>60.1097</ele>
        <time>2022-12-14T12:46:26.268Z</time>
      </trkpt>
      <trkpt lat="47.84915" lon="-2.44487">
        <ele>60.137368</ele>
        <time>2022-12-14T12:46:28.267Z</time>
      </trkpt>
      <trkpt lat="47.84907" lon="-2.4448">
        <ele>60.164435</ele>
        <time>2022-12-14T12:46:30.269Z</time>
      </trkpt>
      <trkpt lat="47.84898" lon="-2.44474">
        <ele>60.190742</ele>
        <time>2022-12-14T12:46:32.295Z</time>
      </trkpt>
      <trkpt lat="47.84887" lon="-2.44466">
        <ele>60.227391</ele>
        <time>2022-12-14T12:46:35.274Z</time>
      </trkpt>
      <trkpt lat="47.84876" lon="-2.44457">
        <ele>60.250694</ele>
        <time>2022-12-14T12:46:38.279Z</time>
      </trkpt>
      <trkpt lat="47.84864" lon="-2.44448">
        <ele>60.211449</ele>
        <time>2022-12-14T12:46:41.286Z</time>
      </trkpt>
      <trkpt lat="47.84853" lon="-2.44437">
        <ele>60.172018</ele>
        <time>2022-12-14T12:46:44.290Z</time>
      </trkpt>
      <trkpt lat="47.84845" lon="-2.44429">
        <ele>60.144377</ele>
        <time>2022-12-14T12:46:46.299Z</time>
      </trkpt>
      <trkpt lat="47.84836" lon="-2.44421">
        <ele>60.116067</ele>
        <time>2022-12-14T12:46:48.289Z</time>
      </trkpt>
      <trkpt lat="47.84828" lon="-2.44413">
        <ele>60.086776</ele>
        <time>2022-12-14T12:46:50.298Z</time>
      </trkpt>
      <trkpt lat="47.8482" lon="-2.44404">
        <ele>60.058795</ele>
        <time>2022-12-14T12:46:52.271Z</time>
      </trkpt>
      <trkpt lat="47.8481" lon="-2.44393">
        <ele>60.022457</ele>
        <time>2022-12-14T12:46:55.270Z</time>
      </trkpt>
      <trkpt lat="47.848" lon="-2.44382">
        <ele>59.985642</ele>
        <time>2022-12-14T12:46:58.285Z</time>
      </trkpt>
      <trkpt lat="47.84791" lon="-2.44371">
        <ele>59.952198</ele>
        <time>2022-12-14T12:47:01.343Z</time>
      </trkpt>
      <trkpt lat="47.84782" lon="-2.4436">
        <ele>59.918652</ele>
        <time>2022-12-14T12:47:04.292Z</time>
      </trkpt>
      <trkpt lat="47.84773" lon="-2.44346">
        <ele>59.881806</ele>
        <time>2022-12-14T12:47:07.287Z</time>
      </trkpt>
      <trkpt lat="47.84763" lon="-2.44334">
        <ele>59.843342</ele>
        <time>2022-12-14T12:47:10.319Z</time>
      </trkpt>
      <trkpt lat="47.84756" lon="-2.44325">
        <ele>59.816917</ele>
        <time>2022-12-14T12:47:12.270Z</time>
      </trkpt>
      <trkpt lat="47.84746" lon="-2.44311">
        <ele>59.777285</ele>
        <time>2022-12-14T12:47:15.290Z</time>
      </trkpt>
      <trkpt lat="47.84739" lon="-2.44302">
        <ele>59.75</ele>
        <time>2022-12-14T12:47:17.295Z</time>
      </trkpt>
      <trkpt lat="47.84729" lon="-2.44289">
        <ele>59.764432</ele>
        <time>2022-12-14T12:47:20.283Z</time>
      </trkpt>
      <trkpt lat="47.84719" lon="-2.44276">
        <ele>59.811437</ele>
        <time>2022-12-14T12:47:23.274Z</time>
      </trkpt>
      <trkpt lat="47.84711" lon="-2.44268">
        <ele>59.845863</ele>
        <time>2022-12-14T12:47:25.285Z</time>
      </trkpt>
      <trkpt lat="47.84702" lon="-2.4426">
        <ele>59.879932</ele>
        <time>2022-12-14T12:47:27.274Z</time>
      </trkpt>
      <trkpt lat="47.84694" lon="-2.44253">
        <ele>59.913284</ele>
        <time>2022-12-14T12:47:29.286Z</time>
      </trkpt>
      <trkpt lat="47.84682" lon="-2.44247">
        <ele>59.957943</ele>
        <time>2022-12-14T12:47:32.275Z</time>
      </trkpt>
      <trkpt lat="47.84673" lon="-2.44243">
        <ele>59.991572</ele>
        <time>2022-12-14T12:47:34.299Z</time>
      </trkpt>
      <trkpt lat="47.84663" lon="-2.4424">
        <ele>60.024895</ele>
        <time>2022-12-14T12:47:36.285Z</time>
      </trkpt>
      <trkpt lat="47.84654" lon="-2.44237">
        <ele>60.058375</ele>
        <time>2022-12-14T12:47:38.296Z</time>
      </trkpt>
      <trkpt lat="47.84645" lon="-2.44234">
        <ele>60.089937</ele>
        <time>2022-12-14T12:47:40.272Z</time>
      </trkpt>
      <trkpt lat="47.84636" lon="-2.44231">
        <ele>60.123462</ele>
        <time>2022-12-14T12:47:42.285Z</time>
      </trkpt>
      <trkpt lat="47.84626" lon="-2.44228">
        <ele>60.157178</ele>
        <time>2022-12-14T12:47:44.288Z</time>
      </trkpt>
      <trkpt lat="47.84616" lon="-2.44225">
        <ele>60.193781</ele>
        <time>2022-12-14T12:47:46.284Z</time>
      </trkpt>
      <trkpt lat="47.84607" lon="-2.44222">
        <ele>60.226322</ele>
        <time>2022-12-14T12:47:48.288Z</time>
      </trkpt>
      <trkpt lat="47.84598" lon="-2.44219">
        <ele>60.259939</ele>
        <time>2022-12-14T12:47:50.288Z</time>
      </trkpt>
      <trkpt lat="47.84589" lon="-2.44217">
        <ele>60.291747</ele>
        <time>2022-12-14T12:47:52.273Z</time>
      </trkpt>
      <trkpt lat="47.84576" lon="-2.44212">
        <ele>60.337305</ele>
        <time>2022-12-14T12:47:55.273Z</time>
      </trkpt>
      <trkpt lat="47.84564" lon="-2.44209">
        <ele>60.388869</ele>
        <time>2022-12-14T12:47:58.286Z</time>
      </trkpt>
      <trkpt lat="47.84551" lon="-2.44205">
        <ele>60.45935</ele>
        <time>2022-12-14T12:48:01.284Z</time>
      </trkpt>
      <trkpt lat="47.84542" lon="-2.44203">
        <ele>60.512472</ele>
        <time>2022-12-14T12:48:03.279Z</time>
      </trkpt>
      <trkpt lat="47.84528" lon="-2.442">
        <ele>60.588148</ele>
        <time>2022-12-14T12:48:06.289Z</time>
      </trkpt>
      <trkpt lat="47.84518" lon="-2.44198">
        <ele>60.640997</ele>
        <time>2022-12-14T12:48:08.273Z</time>
      </trkpt>
      <trkpt lat="47.84505" lon="-2.44196">
        <ele>60.714526</ele>
        <time>2022-12-14T12:48:11.284Z</time>
      </trkpt>
      <trkpt lat="47.84496" lon="-2.44193">
        <ele>60.76592</ele>
        <time>2022-12-14T12:48:13.296Z</time>
      </trkpt>
      <trkpt lat="47.84486" lon="-2.44189">
        <ele>60.819072</ele>
        <time>2022-12-14T12:48:15.287Z</time>
      </trkpt>
      <trkpt lat="47.84474" lon="-2.44184">
        <ele>60.888368</ele>
        <time>2022-12-14T12:48:18.287Z</time>
      </trkpt>
      <trkpt lat="47.84461" lon="-2.44179">
        <ele>60.960769</ele>
        <time>2022-12-14T12:48:21.285Z</time>
      </trkpt>
      <trkpt lat="47.84449" lon="-2.44172">
        <ele>61.03275</ele>
        <time>2022-12-14T12:48:24.280Z</time>
      </trkpt>
      <trkpt lat="47.84437" lon="-2.44164">
        <ele>61.102699</ele>
        <time>2022-12-14T12:48:27.291Z</time>
      </trkpt>
      <trkpt lat="47.84425" lon="-2.44154">
        <ele>61.17733</ele>
        <time>2022-12-14T12:48:30.289Z</time>
      </trkpt>
      <trkpt lat="47.84418" lon="-2.44145">
        <ele>61.229271</ele>
        <time>2022-12-14T12:48:32.274Z</time>
      </trkpt>
      <trkpt lat="47.84409" lon="-2.4413">
        <ele>61.301143</ele>
        <time>2022-12-14T12:48:35.264Z</time>
      </trkpt>
      <trkpt lat="47.84402" lon="-2.44115">
        <ele>61.327523</ele>
        <time>2022-12-14T12:48:38.270Z</time>
      </trkpt>
      <trkpt lat="47.84396" lon="-2.441">
        <ele>61.272335</ele>
        <time>2022-12-14T12:48:41.289Z</time>
      </trkpt>
      <trkpt lat="47.8439" lon="-2.44085">
        <ele>61.217248</ele>
        <time>2022-12-14T12:48:44.287Z</time>
      </trkpt>
      <trkpt lat="47.84384" lon="-2.44068">
        <ele>61.158223</ele>
        <time>2022-12-14T12:48:47.287Z</time>
      </trkpt>
      <trkpt lat="47.84377" lon="-2.44052">
        <ele>61.096774</ele>
        <time>2022-12-14T12:48:50.289Z</time>
      </trkpt>
      <trkpt lat="47.84369" lon="-2.44035">
        <ele>61.032733</ele>
        <time>2022-12-14T12:48:53.293Z</time>
      </trkpt>
      <trkpt lat="47.84364" lon="-2.44025">
        <ele>60.990267</ele>
        <time>2022-12-14T12:48:55.291Z</time>
      </trkpt>
      <trkpt lat="47.84356" lon="-2.44009">
        <ele>60.928817</ele>
        <time>2022-12-14T12:48:58.284Z</time>
      </trkpt>
      <trkpt lat="47.84349" lon="-2.43995">
        <ele>60.871837</ele>
        <time>2022-12-14T12:49:01.286Z</time>
      </trkpt>
      <trkpt lat="47.8434" lon="-2.43981">
        <ele>60.813033</ele>
        <time>2022-12-14T12:49:04.271Z</time>
      </trkpt>
      <trkpt lat="47.84331" lon="-2.43965">
        <ele>60.749534</ele>
        <time>2022-12-14T12:49:07.290Z</time>
      </trkpt>
      <trkpt lat="47.84323" lon="-2.4395">
        <ele>60.68719</ele>
        <time>2022-12-14T12:49:10.294Z</time>
      </trkpt>
      <trkpt lat="47.84314" lon="-2.43935">
        <ele>60.624366</ele>
        <time>2022-12-14T12:49:13.300Z</time>
      </trkpt>
      <trkpt lat="47.84308" lon="-2.43926">
        <ele>60.581879</ele>
        <time>2022-12-14T12:49:15.284Z</time>
      </trkpt>
      <trkpt lat="47.84299" lon="-2.43913">
        <ele>60.522746</ele>
        <time>2022-12-14T12:49:18.289Z</time>
      </trkpt>
      <trkpt lat="47.84291" lon="-2.43901">
        <ele>60.489441</ele>
        <time>2022-12-14T12:49:21.293Z</time>
      </trkpt>
      <trkpt lat="47.84283" lon="-2.4389">
        <ele>60.465347</ele>
        <time>2022-12-14T12:49:24.292Z</time>
      </trkpt>
      <trkpt lat="47.84275" lon="-2.43877">
        <ele>60.43917</ele>
        <time>2022-12-14T12:49:27.299Z</time>
      </trkpt>
      <trkpt lat="47.84266" lon="-2.43862">
        <ele>60.411626</ele>
        <time>2022-12-14T12:49:30.285Z</time>
      </trkpt>
      <trkpt lat="47.8426" lon="-2.43853">
        <ele>60.392018</ele>
        <time>2022-12-14T12:49:32.296Z</time>
      </trkpt>
      <trkpt lat="47.84253" lon="-2.43843">
        <ele>60.372001</ele>
        <time>2022-12-14T12:49:34.278Z</time>
      </trkpt>
      <trkpt lat="47.84245" lon="-2.43829">
        <ele>60.344742</ele>
        <time>2022-12-14T12:49:37.274Z</time>
      </trkpt>
      <trkpt lat="47.84236" lon="-2.43817">
        <ele>60.31942</ele>
        <time>2022-12-14T12:49:40.273Z</time>
      </trkpt>
      <trkpt lat="47.84227" lon="-2.43803">
        <ele>60.291103</ele>
        <time>2022-12-14T12:49:43.294Z</time>
      </trkpt>
      <trkpt lat="47.84221" lon="-2.43793">
        <ele>60.271132</ele>
        <time>2022-12-14T12:49:45.296Z</time>
      </trkpt>
      <trkpt lat="47.84211" lon="-2.43779">
        <ele>60.242916</ele>
        <time>2022-12-14T12:49:48.289Z</time>
      </trkpt>
      <trkpt lat="47.84203" lon="-2.43768">
        <ele>60.217775</ele>
        <time>2022-12-14T12:49:51.288Z</time>
      </trkpt>
      <trkpt lat="47.84193" lon="-2.43755">
        <ele>60.190929</ele>
        <time>2022-12-14T12:49:54.299Z</time>
      </trkpt>
      <trkpt lat="47.84183" lon="-2.43743">
        <ele>60.162445</ele>
        <time>2022-12-14T12:49:57.296Z</time>
      </trkpt>
      <trkpt lat="47.84176" lon="-2.43734">
        <ele>60.142628</ele>
        <time>2022-12-14T12:49:59.286Z</time>
      </trkpt>
      <trkpt lat="47.84165" lon="-2.43721">
        <ele>60.115199</ele>
        <time>2022-12-14T12:50:02.287Z</time>
      </trkpt>
      <trkpt lat="47.84158" lon="-2.43713">
        <ele>60.108633</ele>
        <time>2022-12-14T12:50:04.288Z</time>
      </trkpt>
      <trkpt lat="47.84148" lon="-2.43701">
        <ele>60.099137</ele>
        <time>2022-12-14T12:50:07.291Z</time>
      </trkpt>
      <trkpt lat="47.8414" lon="-2.43694">
        <ele>60.092603</ele>
        <time>2022-12-14T12:50:09.282Z</time>
      </trkpt>
      <trkpt lat="47.84133" lon="-2.43686">
        <ele>60.08599</ele>
        <time>2022-12-14T12:50:11.294Z</time>
      </trkpt>
      <trkpt lat="47.84122" lon="-2.43674">
        <ele>60.07595</ele>
        <time>2022-12-14T12:50:14.296Z</time>
      </trkpt>
      <trkpt lat="47.84112" lon="-2.43663">
        <ele>60.066921</ele>
        <time>2022-12-14T12:50:17.299Z</time>
      </trkpt>
      <trkpt lat="47.84102" lon="-2.43653">
        <ele>60.058387</ele>
        <time>2022-12-14T12:50:20.294Z</time>
      </trkpt>
      <trkpt lat="47.84092" lon="-2.43642">
        <ele>60.049647</ele>
        <time>2022-12-14T12:50:23.283Z</time>
      </trkpt>
      <trkpt lat="47.84082" lon="-2.43631">
        <ele>60.040239</ele>
        <time>2022-12-14T12:50:26.275Z</time>
      </trkpt>
      <trkpt lat="47.84072" lon="-2.43618">
        <ele>60.030615</ele>
        <time>2022-12-14T12:50:29.285Z</time>
      </trkpt>
      <trkpt lat="47.84062" lon="-2.43605">
        <ele>60.021029</ele>
        <time>2022-12-14T12:50:32.295Z</time>
      </trkpt>
      <trkpt lat="47.84055" lon="-2.43596">
        <ele>60.014381</ele>
        <time>2022-12-14T12:50:34.287Z</time>
      </trkpt>
      <trkpt lat="47.84049" lon="-2.43585">
        <ele>60.007599</ele>
        <time>2022-12-14T12:50:36.290Z</time>
      </trkpt>
      <trkpt lat="47.84043" lon="-2.43574">
        <ele>60.000779</ele>
        <time>2022-12-14T12:50:38.292Z</time>
      </trkpt>
      <trkpt lat="47.84037" lon="-2.43564">
        <ele>59.994093</ele>
        <time>2022-12-14T12:50:40.287Z</time>
      </trkpt>
      <trkpt lat="47.8403" lon="-2.4355">
        <ele>59.985225</ele>
        <time>2022-12-14T12:50:43.283Z</time>
      </trkpt>
      <trkpt lat="47.84023" lon="-2.43534">
        <ele>59.966461</ele>
        <time>2022-12-14T12:50:46.298Z</time>
      </trkpt>
      <trkpt lat="47.84017" lon="-2.43517">
        <ele>59.947101</ele>
        <time>2022-12-14T12:50:49.291Z</time>
      </trkpt>
      <trkpt lat="47.84012" lon="-2.43506">
        <ele>59.933403</ele>
        <time>2022-12-14T12:50:51.274Z</time>
      </trkpt>
      <trkpt lat="47.84005" lon="-2.4349">
        <ele>59.91431</ele>
        <time>2022-12-14T12:50:54.289Z</time>
      </trkpt>
      <trkpt lat="47.83998" lon="-2.43473">
        <ele>59.895511</ele>
        <time>2022-12-14T12:50:57.291Z</time>
      </trkpt>
      <trkpt lat="47.83994" lon="-2.43461">
        <ele>59.881738</ele>
        <time>2022-12-14T12:50:59.290Z</time>
      </trkpt>
      <trkpt lat="47.8399" lon="-2.43449">
        <ele>59.867961</ele>
        <time>2022-12-14T12:51:01.293Z</time>
      </trkpt>
      <trkpt lat="47.83984" lon="-2.43431">
        <ele>59.848392</ele>
        <time>2022-12-14T12:51:04.299Z</time>
      </trkpt>
      <trkpt lat="47.83978" lon="-2.43415">
        <ele>59.829864</ele>
        <time>2022-12-14T12:51:07.285Z</time>
      </trkpt>
      <trkpt lat="47.83974" lon="-2.43402">
        <ele>59.816058</ele>
        <time>2022-12-14T12:51:09.292Z</time>
      </trkpt>
      <trkpt lat="47.8397" lon="-2.43384">
        <ele>59.7961</ele>
        <time>2022-12-14T12:51:12.274Z</time>
      </trkpt>
      <trkpt lat="47.83966" lon="-2.43365">
        <ele>59.776579</ele>
        <time>2022-12-14T12:51:15.287Z</time>
      </trkpt>
      <trkpt lat="47.83962" lon="-2.43348">
        <ele>59.759136</ele>
        <time>2022-12-14T12:51:18.298Z</time>
      </trkpt>
      <trkpt lat="47.8396" lon="-2.43332">
        <ele>59.741807</ele>
        <time>2022-12-14T12:51:21.273Z</time>
      </trkpt>
      <trkpt lat="47.83958" lon="-2.43313">
        <ele>59.72356</ele>
        <time>2022-12-14T12:51:24.298Z</time>
      </trkpt>
      <trkpt lat="47.83956" lon="-2.43295">
        <ele>59.680545</ele>
        <time>2022-12-14T12:51:27.298Z</time>
      </trkpt>
      <trkpt lat="47.83955" lon="-2.43276">
        <ele>59.62703</ele>
        <time>2022-12-14T12:51:30.290Z</time>
      </trkpt>
      <trkpt lat="47.83954" lon="-2.43257">
        <ele>59.572614</ele>
        <time>2022-12-14T12:51:33.292Z</time>
      </trkpt>
      <trkpt lat="47.83954" lon="-2.43239">
        <ele>59.523476</ele>
        <time>2022-12-14T12:51:36.292Z</time>
      </trkpt>
      <trkpt lat="47.83955" lon="-2.43223">
        <ele>59.47623</ele>
        <time>2022-12-14T12:51:39.285Z</time>
      </trkpt>
      <trkpt lat="47.83959" lon="-2.43205">
        <ele>59.425621</ele>
        <time>2022-12-14T12:51:42.294Z</time>
      </trkpt>
      <trkpt lat="47.83963" lon="-2.43188">
        <ele>59.373906</ele>
        <time>2022-12-14T12:51:45.286Z</time>
      </trkpt>
      <trkpt lat="47.83969" lon="-2.43173">
        <ele>59.322848</ele>
        <time>2022-12-14T12:51:48.296Z</time>
      </trkpt>
      <trkpt lat="47.83975" lon="-2.43159">
        <ele>59.277346</ele>
        <time>2022-12-14T12:51:51.285Z</time>
      </trkpt>
      <trkpt lat="47.83982" lon="-2.43147">
        <ele>59.230419</ele>
        <time>2022-12-14T12:51:54.287Z</time>
      </trkpt>
      <trkpt lat="47.8399" lon="-2.43133">
        <ele>59.179688</ele>
        <time>2022-12-14T12:51:58.285Z</time>
      </trkpt>
      <trkpt lat="47.83997" lon="-2.4312">
        <ele>59.133433</ele>
        <time>2022-12-14T12:52:01.291Z</time>
      </trkpt>
      <trkpt lat="47.84002" lon="-2.43103">
        <ele>59.080501</ele>
        <time>2022-12-14T12:52:04.285Z</time>
      </trkpt>
      <trkpt lat="47.84001" lon="-2.43084">
        <ele>59.025895</ele>
        <time>2022-12-14T12:52:07.283Z</time>
      </trkpt>
      <trkpt lat="47.83996" lon="-2.43066">
        <ele>58.971937</ele>
        <time>2022-12-14T12:52:10.283Z</time>
      </trkpt>
      <trkpt lat="47.83989" lon="-2.43051">
        <ele>58.955015</ele>
        <time>2022-12-14T12:52:13.285Z</time>
      </trkpt>
      <trkpt lat="47.83982" lon="-2.43036">
        <ele>58.947034</ele>
        <time>2022-12-14T12:52:16.299Z</time>
      </trkpt>
      <trkpt lat="47.83975" lon="-2.43021">
        <ele>58.93913</ele>
        <time>2022-12-14T12:52:19.297Z</time>
      </trkpt>
      <trkpt lat="47.83968" lon="-2.43004">
        <ele>58.93083</ele>
        <time>2022-12-14T12:52:22.290Z</time>
      </trkpt>
      <trkpt lat="47.83961" lon="-2.42988">
        <ele>58.9225</ele>
        <time>2022-12-14T12:52:25.286Z</time>
      </trkpt>
      <trkpt lat="47.83957" lon="-2.42976">
        <ele>58.916698</ele>
        <time>2022-12-14T12:52:27.292Z</time>
      </trkpt>
      <trkpt lat="47.83952" lon="-2.42964">
        <ele>58.910767</ele>
        <time>2022-12-14T12:52:29.289Z</time>
      </trkpt>
      <trkpt lat="47.83949" lon="-2.42952">
        <ele>58.905032</ele>
        <time>2022-12-14T12:52:31.277Z</time>
      </trkpt>
      <trkpt lat="47.83943" lon="-2.42936">
        <ele>58.897325</ele>
        <time>2022-12-14T12:52:34.294Z</time>
      </trkpt>
      <trkpt lat="47.83938" lon="-2.4292">
        <ele>58.889454</ele>
        <time>2022-12-14T12:52:37.293Z</time>
      </trkpt>
      <trkpt lat="47.83932" lon="-2.42903">
        <ele>58.88119</ele>
        <time>2022-12-14T12:52:40.301Z</time>
      </trkpt>
      <trkpt lat="47.83926" lon="-2.42886">
        <ele>58.873213</ele>
        <time>2022-12-14T12:52:43.286Z</time>
      </trkpt>
      <trkpt lat="47.83919" lon="-2.42869">
        <ele>58.864661</ele>
        <time>2022-12-14T12:52:46.287Z</time>
      </trkpt>
      <trkpt lat="47.83914" lon="-2.42856">
        <ele>58.85828</ele>
        <time>2022-12-14T12:52:48.285Z</time>
      </trkpt>
      <trkpt lat="47.83909" lon="-2.42844">
        <ele>58.85205</ele>
        <time>2022-12-14T12:52:50.300Z</time>
      </trkpt>
      <trkpt lat="47.83904" lon="-2.42832">
        <ele>58.845846</ele>
        <time>2022-12-14T12:52:52.297Z</time>
      </trkpt>
      <trkpt lat="47.83898" lon="-2.42821">
        <ele>58.818886</ele>
        <time>2022-12-14T12:52:54.284Z</time>
      </trkpt>
      <trkpt lat="47.83892" lon="-2.42809">
        <ele>58.791301</ele>
        <time>2022-12-14T12:52:56.284Z</time>
      </trkpt>
      <trkpt lat="47.83887" lon="-2.42797">
        <ele>58.764847</ele>
        <time>2022-12-14T12:52:58.274Z</time>
      </trkpt>
      <trkpt lat="47.83879" lon="-2.42782">
        <ele>58.729355</ele>
        <time>2022-12-14T12:53:01.297Z</time>
      </trkpt>
      <trkpt lat="47.83872" lon="-2.4277">
        <ele>58.697173</ele>
        <time>2022-12-14T12:53:04.284Z</time>
      </trkpt>
      <trkpt lat="47.83866" lon="-2.42757">
        <ele>58.668826</ele>
        <time>2022-12-14T12:53:07.298Z</time>
      </trkpt>
      <trkpt lat="47.8386" lon="-2.42746">
        <ele>58.640495</ele>
        <time>2022-12-14T12:53:10.300Z</time>
      </trkpt>
      <trkpt lat="47.83853" lon="-2.42733">
        <ele>58.610452</ele>
        <time>2022-12-14T12:53:13.272Z</time>
      </trkpt>
      <trkpt lat="47.83848" lon="-2.42722">
        <ele>58.583051</ele>
        <time>2022-12-14T12:53:16.287Z</time>
      </trkpt>
      <trkpt lat="47.8384" lon="-2.4271">
        <ele>58.553557</ele>
        <time>2022-12-14T12:53:19.289Z</time>
      </trkpt>
      <trkpt lat="47.83832" lon="-2.42698">
        <ele>58.521547</ele>
        <time>2022-12-14T12:53:22.332Z</time>
      </trkpt>
      <trkpt lat="47.83823" lon="-2.42684">
        <ele>58.484254</ele>
        <time>2022-12-14T12:53:25.287Z</time>
      </trkpt>
      <trkpt lat="47.83815" lon="-2.42669">
        <ele>58.447742</ele>
        <time>2022-12-14T12:53:28.352Z</time>
      </trkpt>
      <trkpt lat="47.8381" lon="-2.42658">
        <ele>58.421576</ele>
        <time>2022-12-14T12:53:30.286Z</time>
      </trkpt>
      <trkpt lat="47.83804" lon="-2.42646">
        <ele>58.393536</ele>
        <time>2022-12-14T12:53:32.291Z</time>
      </trkpt>
      <trkpt lat="47.83798" lon="-2.42628">
        <ele>58.355632</ele>
        <time>2022-12-14T12:53:35.298Z</time>
      </trkpt>
      <trkpt lat="47.83792" lon="-2.4261">
        <ele>58.47945</ele>
        <time>2022-12-14T12:53:38.291Z</time>
      </trkpt>
      <trkpt lat="47.83787" lon="-2.42592">
        <ele>58.738189</ele>
        <time>2022-12-14T12:53:41.300Z</time>
      </trkpt>
      <trkpt lat="47.83783" lon="-2.4258">
        <ele>58.916191</ele>
        <time>2022-12-14T12:53:43.274Z</time>
      </trkpt>
      <trkpt lat="47.8378" lon="-2.42567">
        <ele>59.100562</ele>
        <time>2022-12-14T12:53:45.283Z</time>
      </trkpt>
      <trkpt lat="47.83776" lon="-2.42548">
        <ele>59.367186</ele>
        <time>2022-12-14T12:53:48.302Z</time>
      </trkpt>
      <trkpt lat="47.83772" lon="-2.42535">
        <ele>59.551557</ele>
        <time>2022-12-14T12:53:50.358Z</time>
      </trkpt>
      <trkpt lat="47.83768" lon="-2.42517">
        <ele>59.803342</ele>
        <time>2022-12-14T12:53:53.287Z</time>
      </trkpt>
      <trkpt lat="47.83763" lon="-2.42501">
        <ele>60.031804</ele>
        <time>2022-12-14T12:53:56.383Z</time>
      </trkpt>
      <trkpt lat="47.83759" lon="-2.42485">
        <ele>60.26203</ele>
        <time>2022-12-14T12:53:59.293Z</time>
      </trkpt>
      <trkpt lat="47.83755" lon="-2.42467">
        <ele>60.50922</ele>
        <time>2022-12-14T12:54:02.377Z</time>
      </trkpt>
      <trkpt lat="47.83751" lon="-2.42449">
        <ele>60.760117</ele>
        <time>2022-12-14T12:54:05.289Z</time>
      </trkpt>
      <trkpt lat="47.83747" lon="-2.42431">
        <ele>61.016686</ele>
        <time>2022-12-14T12:54:08.300Z</time>
      </trkpt>
      <trkpt lat="47.83743" lon="-2.42412">
        <ele>61.282711</ele>
        <time>2022-12-14T12:54:11.297Z</time>
      </trkpt>
      <trkpt lat="47.83738" lon="-2.42393">
        <ele>61.547774</ele>
        <time>2022-12-14T12:54:14.267Z</time>
      </trkpt>
      <trkpt lat="47.83733" lon="-2.42374">
        <ele>61.813146</ele>
        <time>2022-12-14T12:54:17.302Z</time>
      </trkpt>
      <trkpt lat="47.8373" lon="-2.42362">
        <ele>61.886115</ele>
        <time>2022-12-14T12:54:19.369Z</time>
      </trkpt>
      <trkpt lat="47.83726" lon="-2.4235">
        <ele>61.875136</ele>
        <time>2022-12-14T12:54:21.290Z</time>
      </trkpt>
      <trkpt lat="47.83721" lon="-2.42332">
        <ele>61.859814</ele>
        <time>2022-12-14T12:54:24.296Z</time>
      </trkpt>
      <trkpt lat="47.83717" lon="-2.42318">
        <ele>61.846847</ele>
        <time>2022-12-14T12:54:27.302Z</time>
      </trkpt>
      <trkpt lat="47.83714" lon="-2.42301">
        <ele>61.832594</ele>
        <time>2022-12-14T12:54:30.292Z</time>
      </trkpt>
      <trkpt lat="47.83711" lon="-2.42283">
        <ele>61.817506</ele>
        <time>2022-12-14T12:54:33.295Z</time>
      </trkpt>
      <trkpt lat="47.83708" lon="-2.42264">
        <ele>61.801602</ele>
        <time>2022-12-14T12:54:36.295Z</time>
      </trkpt>
      <trkpt lat="47.83705" lon="-2.42244">
        <ele>61.785167</ele>
        <time>2022-12-14T12:54:39.300Z</time>
      </trkpt>
      <trkpt lat="47.83702" lon="-2.42225">
        <ele>61.76902</ele>
        <time>2022-12-14T12:54:42.287Z</time>
      </trkpt>
      <trkpt lat="47.83699" lon="-2.42206">
        <ele>61.753249</ele>
        <time>2022-12-14T12:54:45.291Z</time>
      </trkpt>
      <trkpt lat="47.83697" lon="-2.42189">
        <ele>61.738941</ele>
        <time>2022-12-14T12:54:48.295Z</time>
      </trkpt>
      <trkpt lat="47.83695" lon="-2.42169">
        <ele>61.722634</ele>
        <time>2022-12-14T12:54:51.294Z</time>
      </trkpt>
      <trkpt lat="47.83693" lon="-2.4215">
        <ele>61.70665</ele>
        <time>2022-12-14T12:54:54.349Z</time>
      </trkpt>
      <trkpt lat="47.83692" lon="-2.4213">
        <ele>61.690515</ele>
        <time>2022-12-14T12:54:57.289Z</time>
      </trkpt>
      <trkpt lat="47.83692" lon="-2.42115">
        <ele>61.67827</ele>
        <time>2022-12-14T12:54:59.299Z</time>
      </trkpt>
      <trkpt lat="47.83691" lon="-2.42096">
        <ele>61.653356</ele>
        <time>2022-12-14T12:55:02.292Z</time>
      </trkpt>
      <trkpt lat="47.83691" lon="-2.42078">
        <ele>61.62749</ele>
        <time>2022-12-14T12:55:05.293Z</time>
      </trkpt>
      <trkpt lat="47.8369" lon="-2.42061">
        <ele>61.602224</ele>
        <time>2022-12-14T12:55:08.296Z</time>
      </trkpt>
      <trkpt lat="47.8369" lon="-2.42042">
        <ele>61.574469</ele>
        <time>2022-12-14T12:55:11.287Z</time>
      </trkpt>
      <trkpt lat="47.8369" lon="-2.42028">
        <ele>61.55395</ele>
        <time>2022-12-14T12:55:13.279Z</time>
      </trkpt>
      <trkpt lat="47.8369" lon="-2.42014">
        <ele>61.53297</ele>
        <time>2022-12-14T12:55:15.298Z</time>
      </trkpt>
      <trkpt lat="47.83691" lon="-2.41994">
        <ele>61.503271</ele>
        <time>2022-12-14T12:55:18.350Z</time>
      </trkpt>
      <trkpt lat="47.83692" lon="-2.41974">
        <ele>61.473903</ele>
        <time>2022-12-14T12:55:21.290Z</time>
      </trkpt>
      <trkpt lat="47.83695" lon="-2.41957">
        <ele>61.447682</ele>
        <time>2022-12-14T12:55:24.350Z</time>
      </trkpt>
      <trkpt lat="47.83697" lon="-2.41938">
        <ele>61.41839</ele>
        <time>2022-12-14T12:55:27.283Z</time>
      </trkpt>
      <trkpt lat="47.83701" lon="-2.41918">
        <ele>61.388793</ele>
        <time>2022-12-14T12:55:30.301Z</time>
      </trkpt>
      <trkpt lat="47.83704" lon="-2.41899">
        <ele>61.359357</ele>
        <time>2022-12-14T12:55:33.284Z</time>
      </trkpt>
      <trkpt lat="47.83705" lon="-2.41878">
        <ele>61.328981</ele>
        <time>2022-12-14T12:55:36.299Z</time>
      </trkpt>
      <trkpt lat="47.83704" lon="-2.41858">
        <ele>61.299173</ele>
        <time>2022-12-14T12:55:39.272Z</time>
      </trkpt>
      <trkpt lat="47.837" lon="-2.4184">
        <ele>61.265533</ele>
        <time>2022-12-14T12:55:42.285Z</time>
      </trkpt>
      <trkpt lat="47.83695" lon="-2.41823">
        <ele>61.218211</ele>
        <time>2022-12-14T12:55:45.299Z</time>
      </trkpt>
      <trkpt lat="47.83689" lon="-2.41806">
        <ele>61.168309</ele>
        <time>2022-12-14T12:55:48.294Z</time>
      </trkpt>
      <trkpt lat="47.83681" lon="-2.4179">
        <ele>61.11705</ele>
        <time>2022-12-14T12:55:51.299Z</time>
      </trkpt>
      <trkpt lat="47.83673" lon="-2.41776">
        <ele>61.066322</ele>
        <time>2022-12-14T12:55:54.303Z</time>
      </trkpt>
      <trkpt lat="47.83664" lon="-2.41762">
        <ele>61.016955</ele>
        <time>2022-12-14T12:55:57.299Z</time>
      </trkpt>
      <trkpt lat="47.83657" lon="-2.41748">
        <ele>60.971955</ele>
        <time>2022-12-14T12:56:00.300Z</time>
      </trkpt>
      <trkpt lat="47.83648" lon="-2.41734">
        <ele>60.922781</ele>
        <time>2022-12-14T12:56:03.278Z</time>
      </trkpt>
      <trkpt lat="47.83639" lon="-2.4172">
        <ele>60.871931</ele>
        <time>2022-12-14T12:56:06.299Z</time>
      </trkpt>
      <trkpt lat="47.83629" lon="-2.41707">
        <ele>60.820133</ele>
        <time>2022-12-14T12:56:09.279Z</time>
      </trkpt>
      <trkpt lat="47.83622" lon="-2.41698">
        <ele>60.78366</ele>
        <time>2022-12-14T12:56:11.281Z</time>
      </trkpt>
      <trkpt lat="47.83611" lon="-2.41687">
        <ele>60.734793</ele>
        <time>2022-12-14T12:56:14.299Z</time>
      </trkpt>
      <trkpt lat="47.83603" lon="-2.41679">
        <ele>60.695092</ele>
        <time>2022-12-14T12:56:17.290Z</time>
      </trkpt>
      <trkpt lat="47.83593" lon="-2.41672">
        <ele>60.653138</ele>
        <time>2022-12-14T12:56:21.300Z</time>
      </trkpt>
      <trkpt lat="47.83579" lon="-2.41662">
        <ele>60.594143</ele>
        <time>2022-12-14T12:57:59.304Z</time>
      </trkpt>
      <trkpt lat="47.83569" lon="-2.41658">
        <ele>60.574426</ele>
        <time>2022-12-14T12:58:03.293Z</time>
      </trkpt>
      <trkpt lat="47.8356" lon="-2.41655">
        <ele>60.566546</ele>
        <time>2022-12-14T12:58:06.355Z</time>
      </trkpt>
      <trkpt lat="47.8355" lon="-2.41651">
        <ele>60.55812</ele>
        <time>2022-12-14T12:58:09.290Z</time>
      </trkpt>
      <trkpt lat="47.83538" lon="-2.41647">
        <ele>60.548552</ele>
        <time>2022-12-14T12:58:12.345Z</time>
      </trkpt>
      <trkpt lat="47.83527" lon="-2.41641">
        <ele>60.538748</ele>
        <time>2022-12-14T12:58:15.300Z</time>
      </trkpt>
      <trkpt lat="47.83516" lon="-2.41631">
        <ele>60.528766</ele>
        <time>2022-12-14T12:58:18.373Z</time>
      </trkpt>
      <trkpt lat="47.83506" lon="-2.41621">
        <ele>60.518527</ele>
        <time>2022-12-14T12:58:21.301Z</time>
      </trkpt>
      <trkpt lat="47.83496" lon="-2.41609">
        <ele>60.507936</ele>
        <time>2022-12-14T12:58:24.363Z</time>
      </trkpt>
      <trkpt lat="47.83486" lon="-2.41595">
        <ele>60.497283</ele>
        <time>2022-12-14T12:58:27.301Z</time>
      </trkpt>
      <trkpt lat="47.83477" lon="-2.41581">
        <ele>60.486499</ele>
        <time>2022-12-14T12:58:30.348Z</time>
      </trkpt>
      <trkpt lat="47.83469" lon="-2.41565">
        <ele>60.475797</ele>
        <time>2022-12-14T12:58:33.282Z</time>
      </trkpt>
      <trkpt lat="47.83462" lon="-2.41549">
        <ele>60.465426</ele>
        <time>2022-12-14T12:58:36.350Z</time>
      </trkpt>
      <trkpt lat="47.83455" lon="-2.41535">
        <ele>60.456045</ele>
        <time>2022-12-14T12:58:39.304Z</time>
      </trkpt>
      <trkpt lat="47.83448" lon="-2.41523">
        <ele>60.446925</ele>
        <time>2022-12-14T12:58:42.355Z</time>
      </trkpt>
      <trkpt lat="47.8344" lon="-2.4151">
        <ele>60.43737</ele>
        <time>2022-12-14T12:58:45.300Z</time>
      </trkpt>
      <trkpt lat="47.83431" lon="-2.41498">
        <ele>60.423905</ele>
        <time>2022-12-14T12:58:48.353Z</time>
      </trkpt>
      <trkpt lat="47.83421" lon="-2.41486">
        <ele>60.408031</ele>
        <time>2022-12-14T12:58:51.279Z</time>
      </trkpt>
      <trkpt lat="47.83412" lon="-2.41474">
        <ele>60.391837</ele>
        <time>2022-12-14T12:58:54.278Z</time>
      </trkpt>
      <trkpt lat="47.83402" lon="-2.41461">
        <ele>60.375491</ele>
        <time>2022-12-14T12:58:57.303Z</time>
      </trkpt>
      <trkpt lat="47.83393" lon="-2.41448">
        <ele>60.359042</ele>
        <time>2022-12-14T12:59:00.358Z</time>
      </trkpt>
      <trkpt lat="47.83383" lon="-2.41434">
        <ele>60.342355</ele>
        <time>2022-12-14T12:59:03.290Z</time>
      </trkpt>
      <trkpt lat="47.83377" lon="-2.41424">
        <ele>60.330921</ele>
        <time>2022-12-14T12:59:05.300Z</time>
      </trkpt>
      <trkpt lat="47.83371" lon="-2.41414">
        <ele>60.319326</ele>
        <time>2022-12-14T12:59:07.297Z</time>
      </trkpt>
      <trkpt lat="47.83364" lon="-2.41404">
        <ele>60.307497</ele>
        <time>2022-12-14T12:59:09.282Z</time>
      </trkpt>
      <trkpt lat="47.83358" lon="-2.41393">
        <ele>60.29541</ele>
        <time>2022-12-14T12:59:11.300Z</time>
      </trkpt>
      <trkpt lat="47.83352" lon="-2.41383">
        <ele>60.283763</ele>
        <time>2022-12-14T12:59:13.298Z</time>
      </trkpt>
      <trkpt lat="47.83344" lon="-2.41369">
        <ele>60.268021</ele>
        <time>2022-12-14T12:59:16.300Z</time>
      </trkpt>
      <trkpt lat="47.83336" lon="-2.41356">
        <ele>60.253063</ele>
        <time>2022-12-14T12:59:19.302Z</time>
      </trkpt>
      <trkpt lat="47.83328" lon="-2.41342">
        <ele>60.237566</ele>
        <time>2022-12-14T12:59:22.283Z</time>
      </trkpt>
      <trkpt lat="47.8332" lon="-2.41327">
        <ele>60.221206</ele>
        <time>2022-12-14T12:59:25.304Z</time>
      </trkpt>
      <trkpt lat="47.83311" lon="-2.41312">
        <ele>60.203192</ele>
        <time>2022-12-14T12:59:28.301Z</time>
      </trkpt>
      <trkpt lat="47.83302" lon="-2.41298">
        <ele>60.172114</ele>
        <time>2022-12-14T12:59:31.300Z</time>
      </trkpt>
      <trkpt lat="47.83292" lon="-2.41286">
        <ele>60.139839</ele>
        <time>2022-12-14T12:59:34.297Z</time>
      </trkpt>
      <trkpt lat="47.83284" lon="-2.41278">
        <ele>60.118096</ele>
        <time>2022-12-14T12:59:36.299Z</time>
      </trkpt>
      <trkpt lat="47.83277" lon="-2.41269">
        <ele>60.095336</ele>
        <time>2022-12-14T12:59:38.280Z</time>
      </trkpt>
      <trkpt lat="47.83268" lon="-2.4126">
        <ele>60.070111</ele>
        <time>2022-12-14T12:59:41.331Z</time>
      </trkpt>
      <trkpt lat="47.83258" lon="-2.4125">
        <ele>60.04121</ele>
        <time>2022-12-14T12:59:44.297Z</time>
      </trkpt>
      <trkpt lat="47.83247" lon="-2.4124">
        <ele>60.010264</ele>
        <time>2022-12-14T12:59:47.364Z</time>
      </trkpt>
      <trkpt lat="47.83239" lon="-2.41234">
        <ele>59.988863</ele>
        <time>2022-12-14T12:59:49.293Z</time>
      </trkpt>
      <trkpt lat="47.83231" lon="-2.41227">
        <ele>59.967176</ele>
        <time>2022-12-14T12:59:51.292Z</time>
      </trkpt>
      <trkpt lat="47.83223" lon="-2.41221">
        <ele>59.945278</ele>
        <time>2022-12-14T12:59:53.326Z</time>
      </trkpt>
      <trkpt lat="47.83213" lon="-2.41212">
        <ele>59.916217</ele>
        <time>2022-12-14T12:59:56.291Z</time>
      </trkpt>
      <trkpt lat="47.83201" lon="-2.41204">
        <ele>59.886621</ele>
        <time>2022-12-14T12:59:59.278Z</time>
      </trkpt>
      <trkpt lat="47.8319" lon="-2.41195">
        <ele>59.856304</ele>
        <time>2022-12-14T13:00:02.296Z</time>
      </trkpt>
      <trkpt lat="47.83179" lon="-2.41186">
        <ele>59.82568</ele>
        <time>2022-12-14T13:00:05.297Z</time>
      </trkpt>
      <trkpt lat="47.83171" lon="-2.41179">
        <ele>59.803969</ele>
        <time>2022-12-14T13:00:07.302Z</time>
      </trkpt>
      <trkpt lat="47.83163" lon="-2.41173">
        <ele>59.782336</ele>
        <time>2022-12-14T13:00:09.315Z</time>
      </trkpt>
      <trkpt lat="47.83153" lon="-2.41161">
        <ele>59.738338</ele>
        <time>2022-12-14T13:00:12.300Z</time>
      </trkpt>
      <trkpt lat="47.83143" lon="-2.41151">
        <ele>59.694978</ele>
        <time>2022-12-14T13:00:15.377Z</time>
      </trkpt>
      <trkpt lat="47.83134" lon="-2.41142">
        <ele>59.654361</ele>
        <time>2022-12-14T13:00:18.288Z</time>
      </trkpt>
      <trkpt lat="47.83125" lon="-2.41131">
        <ele>59.611695</ele>
        <time>2022-12-14T13:00:21.353Z</time>
      </trkpt>
      <trkpt lat="47.83116" lon="-2.41118">
        <ele>59.566573</ele>
        <time>2022-12-14T13:00:24.299Z</time>
      </trkpt>
      <trkpt lat="47.83107" lon="-2.41104">
        <ele>59.52091</ele>
        <time>2022-12-14T13:00:27.349Z</time>
      </trkpt>
      <trkpt lat="47.83098" lon="-2.4109">
        <ele>59.473002</ele>
        <time>2022-12-14T13:00:30.301Z</time>
      </trkpt>
      <trkpt lat="47.83089" lon="-2.41077">
        <ele>59.427435</ele>
        <time>2022-12-14T13:00:33.344Z</time>
      </trkpt>
      <trkpt lat="47.8308" lon="-2.41066">
        <ele>59.383053</ele>
        <time>2022-12-14T13:00:36.301Z</time>
      </trkpt>
      <trkpt lat="47.8307" lon="-2.41056">
        <ele>59.341591</ele>
        <time>2022-12-14T13:00:39.299Z</time>
      </trkpt>
      <trkpt lat="47.8306" lon="-2.41046">
        <ele>59.297302</ele>
        <time>2022-12-14T13:00:42.294Z</time>
      </trkpt>
      <trkpt lat="47.83051" lon="-2.41036">
        <ele>59.2546</ele>
        <time>2022-12-14T13:00:45.295Z</time>
      </trkpt>
      <trkpt lat="47.83042" lon="-2.41027">
        <ele>59.215405</ele>
        <time>2022-12-14T13:00:48.300Z</time>
      </trkpt>
      <trkpt lat="47.83033" lon="-2.41018">
        <ele>59.176542</ele>
        <time>2022-12-14T13:00:51.287Z</time>
      </trkpt>
      <trkpt lat="47.83023" lon="-2.41009">
        <ele>59.135459</ele>
        <time>2022-12-14T13:00:54.301Z</time>
      </trkpt>
      <trkpt lat="47.83016" lon="-2.41001">
        <ele>59.174361</ele>
        <time>2022-12-14T13:00:57.323Z</time>
      </trkpt>
      <trkpt lat="47.83006" lon="-2.40993">
        <ele>59.271647</ele>
        <time>2022-12-14T13:01:01.302Z</time>
      </trkpt>
      <trkpt lat="47.82998" lon="-2.40985">
        <ele>59.364194</ele>
        <time>2022-12-14T13:01:05.302Z</time>
      </trkpt>
      <trkpt lat="47.82989" lon="-2.4098">
        <ele>59.45177</ele>
        <time>2022-12-14T13:01:09.282Z</time>
      </trkpt>
      <trkpt lat="47.82979" lon="-2.40971">
        <ele>59.5601</ele>
        <time>2022-12-14T13:01:13.298Z</time>
      </trkpt>
      <trkpt lat="47.82971" lon="-2.40961">
        <ele>59.655744</ele>
        <time>2022-12-14T13:01:16.301Z</time>
      </trkpt>
      <trkpt lat="47.82962" lon="-2.40952">
        <ele>59.754023</ele>
        <time>2022-12-14T13:01:19.298Z</time>
      </trkpt>
      <trkpt lat="47.82953" lon="-2.40944">
        <ele>59.849095</ele>
        <time>2022-12-14T13:01:22.302Z</time>
      </trkpt>
      <trkpt lat="47.82943" lon="-2.40935">
        <ele>59.955093</ele>
        <time>2022-12-14T13:01:26.302Z</time>
      </trkpt>
      <trkpt lat="47.82935" lon="-2.40926">
        <ele>60.047395</ele>
        <time>2022-12-14T13:01:31.299Z</time>
      </trkpt>
      <trkpt lat="47.82926" lon="-2.40919">
        <ele>60.14418</ele>
        <time>2022-12-14T13:01:37.295Z</time>
      </trkpt>
      <trkpt lat="47.82917" lon="-2.40908">
        <ele>60.251555</ele>
        <time>2022-12-14T13:01:41.300Z</time>
      </trkpt>
      <trkpt lat="47.82908" lon="-2.40899">
        <ele>60.346797</ele>
        <time>2022-12-14T13:01:44.299Z</time>
      </trkpt>
      <trkpt lat="47.82898" lon="-2.40889">
        <ele>60.466985</ele>
        <time>2022-12-14T13:01:47.300Z</time>
      </trkpt>
      <trkpt lat="47.8289" lon="-2.4088">
        <ele>60.555657</ele>
        <time>2022-12-14T13:01:49.301Z</time>
      </trkpt>
      <trkpt lat="47.82882" lon="-2.40871">
        <ele>60.645391</ele>
        <time>2022-12-14T13:01:51.304Z</time>
      </trkpt>
      <trkpt lat="47.82874" lon="-2.40862">
        <ele>60.74105</ele>
        <time>2022-12-14T13:01:53.282Z</time>
      </trkpt>
      <trkpt lat="47.82866" lon="-2.40854">
        <ele>60.753472</ele>
        <time>2022-12-14T13:01:55.300Z</time>
      </trkpt>
      <trkpt lat="47.82858" lon="-2.40846">
        <ele>60.715549</ele>
        <time>2022-12-14T13:01:57.303Z</time>
      </trkpt>
      <trkpt lat="47.82851" lon="-2.40837">
        <ele>60.675747</ele>
        <time>2022-12-14T13:01:59.299Z</time>
      </trkpt>
      <trkpt lat="47.82844" lon="-2.40829">
        <ele>60.63799</ele>
        <time>2022-12-14T13:02:01.299Z</time>
      </trkpt>
      <trkpt lat="47.82833" lon="-2.40816">
        <ele>60.582008</ele>
        <time>2022-12-14T13:02:04.299Z</time>
      </trkpt>
      <trkpt lat="47.82826" lon="-2.40808">
        <ele>60.543575</ele>
        <time>2022-12-14T13:02:06.359Z</time>
      </trkpt>
      <trkpt lat="47.82818" lon="-2.40798">
        <ele>60.504583</ele>
        <time>2022-12-14T13:02:08.307Z</time>
      </trkpt>
      <trkpt lat="47.82811" lon="-2.4079">
        <ele>60.466264</ele>
        <time>2022-12-14T13:02:10.299Z</time>
      </trkpt>
      <trkpt lat="47.82802" lon="-2.40776">
        <ele>60.411556</ele>
        <time>2022-12-14T13:02:13.299Z</time>
      </trkpt>
      <trkpt lat="47.82795" lon="-2.40766">
        <ele>60.371206</ele>
        <time>2022-12-14T13:02:15.307Z</time>
      </trkpt>
      <trkpt lat="47.82785" lon="-2.40753">
        <ele>60.319106</ele>
        <time>2022-12-14T13:02:18.361Z</time>
      </trkpt>
      <trkpt lat="47.82776" lon="-2.4074">
        <ele>60.265902</ele>
        <time>2022-12-14T13:02:21.299Z</time>
      </trkpt>
      <trkpt lat="47.82767" lon="-2.40726">
        <ele>60.211844</ele>
        <time>2022-12-14T13:02:24.352Z</time>
      </trkpt>
      <trkpt lat="47.82758" lon="-2.40711">
        <ele>60.1571</ele>
        <time>2022-12-14T13:02:27.299Z</time>
      </trkpt>
      <trkpt lat="47.82752" lon="-2.40701">
        <ele>60.119565</ele>
        <time>2022-12-14T13:02:29.299Z</time>
      </trkpt>
      <trkpt lat="47.82743" lon="-2.40686">
        <ele>60.063366</ele>
        <time>2022-12-14T13:02:32.299Z</time>
      </trkpt>
      <trkpt lat="47.82734" lon="-2.40672">
        <ele>60.018155</ele>
        <time>2022-12-14T13:02:35.298Z</time>
      </trkpt>
      <trkpt lat="47.82727" lon="-2.40662">
        <ele>59.992997</ele>
        <time>2022-12-14T13:02:37.301Z</time>
      </trkpt>
      <trkpt lat="47.82718" lon="-2.40648">
        <ele>59.959458</ele>
        <time>2022-12-14T13:02:40.299Z</time>
      </trkpt>
      <trkpt lat="47.8271" lon="-2.40635">
        <ele>59.927716</ele>
        <time>2022-12-14T13:02:43.297Z</time>
      </trkpt>
      <trkpt lat="47.82701" lon="-2.40621">
        <ele>59.893739</ele>
        <time>2022-12-14T13:02:46.302Z</time>
      </trkpt>
      <trkpt lat="47.82695" lon="-2.40611">
        <ele>59.869254</ele>
        <time>2022-12-14T13:02:48.378Z</time>
      </trkpt>
      <trkpt lat="47.82685" lon="-2.40597">
        <ele>59.835403</ele>
        <time>2022-12-14T13:02:51.276Z</time>
      </trkpt>
      <trkpt lat="47.82679" lon="-2.40587">
        <ele>59.810094</ele>
        <time>2022-12-14T13:02:53.276Z</time>
      </trkpt>
      <trkpt lat="47.8267" lon="-2.40573">
        <ele>59.776463</ele>
        <time>2022-12-14T13:02:56.303Z</time>
      </trkpt>
      <trkpt lat="47.82663" lon="-2.40559">
        <ele>59.745571</ele>
        <time>2022-12-14T13:02:59.301Z</time>
      </trkpt>
      <trkpt lat="47.82655" lon="-2.40547">
        <ele>59.716251</ele>
        <time>2022-12-14T13:03:02.302Z</time>
      </trkpt>
      <trkpt lat="47.82646" lon="-2.40534">
        <ele>59.683</ele>
        <time>2022-12-14T13:03:05.301Z</time>
      </trkpt>
      <trkpt lat="47.82637" lon="-2.4052">
        <ele>59.648584</ele>
        <time>2022-12-14T13:03:08.302Z</time>
      </trkpt>
      <trkpt lat="47.82631" lon="-2.40509">
        <ele>59.624779</ele>
        <time>2022-12-14T13:03:10.302Z</time>
      </trkpt>
      <trkpt lat="47.82624" lon="-2.40496">
        <ele>59.593447</ele>
        <time>2022-12-14T13:03:13.274Z</time>
      </trkpt>
      <trkpt lat="47.82615" lon="-2.40483">
        <ele>59.561845</ele>
        <time>2022-12-14T13:03:16.297Z</time>
      </trkpt>
      <trkpt lat="47.82607" lon="-2.40471">
        <ele>59.510623</ele>
        <time>2022-12-14T13:03:19.281Z</time>
      </trkpt>
      <trkpt lat="47.82598" lon="-2.40458">
        <ele>59.456279</ele>
        <time>2022-12-14T13:03:22.301Z</time>
      </trkpt>
      <trkpt lat="47.8259" lon="-2.40445">
        <ele>59.403507</ele>
        <time>2022-12-14T13:03:25.299Z</time>
      </trkpt>
      <trkpt lat="47.82582" lon="-2.40431">
        <ele>59.350879</ele>
        <time>2022-12-14T13:03:28.302Z</time>
      </trkpt>
      <trkpt lat="47.82574" lon="-2.40418">
        <ele>59.298546</ele>
        <time>2022-12-14T13:03:31.298Z</time>
      </trkpt>
      <trkpt lat="47.82566" lon="-2.40405">
        <ele>59.246943</ele>
        <time>2022-12-14T13:03:34.301Z</time>
      </trkpt>
      <trkpt lat="47.8256" lon="-2.40393">
        <ele>59.202176</ele>
        <time>2022-12-14T13:03:36.375Z</time>
      </trkpt>
      <trkpt lat="47.82555" lon="-2.40381">
        <ele>59.160628</ele>
        <time>2022-12-14T13:03:38.305Z</time>
      </trkpt>
      <trkpt lat="47.82549" lon="-2.40364">
        <ele>59.102134</ele>
        <time>2022-12-14T13:03:41.301Z</time>
      </trkpt>
      <trkpt lat="47.82545" lon="-2.40351">
        <ele>59.0622</ele>
        <time>2022-12-14T13:03:43.285Z</time>
      </trkpt>
      <trkpt lat="47.8254" lon="-2.40333">
        <ele>59.004015</ele>
        <time>2022-12-14T13:03:46.290Z</time>
      </trkpt>
      <trkpt lat="47.82536" lon="-2.40316">
        <ele>58.951218</ele>
        <time>2022-12-14T13:03:49.289Z</time>
      </trkpt>
      <trkpt lat="47.82532" lon="-2.40298">
        <ele>58.895268</ele>
        <time>2022-12-14T13:03:52.301Z</time>
      </trkpt>
      <trkpt lat="47.82528" lon="-2.4028">
        <ele>58.839148</ele>
        <time>2022-12-14T13:03:55.301Z</time>
      </trkpt>
      <trkpt lat="47.82525" lon="-2.40259">
        <ele>58.776715</ele>
        <time>2022-12-14T13:03:58.301Z</time>
      </trkpt>
      <trkpt lat="47.82523" lon="-2.40244">
        <ele>58.545955</ele>
        <time>2022-12-14T13:04:00.360Z</time>
      </trkpt>
      <trkpt lat="47.8252" lon="-2.40229">
        <ele>58.30438</ele>
        <time>2022-12-14T13:04:02.303Z</time>
      </trkpt>
      <trkpt lat="47.82519" lon="-2.4021">
        <ele>58.022986</ele>
        <time>2022-12-14T13:04:05.300Z</time>
      </trkpt>
      <trkpt lat="47.82518" lon="-2.40194">
        <ele>57.768401</ele>
        <time>2022-12-14T13:04:08.299Z</time>
      </trkpt>
      <trkpt lat="47.82516" lon="-2.40176">
        <ele>57.487459</ele>
        <time>2022-12-14T13:04:11.301Z</time>
      </trkpt>
      <trkpt lat="47.82515" lon="-2.40159">
        <ele>57.217808</ele>
        <time>2022-12-14T13:04:14.297Z</time>
      </trkpt>
      <trkpt lat="47.82514" lon="-2.4014">
        <ele>56.927871</ele>
        <time>2022-12-14T13:04:17.301Z</time>
      </trkpt>
      <trkpt lat="47.82512" lon="-2.40122">
        <ele>56.643286</ele>
        <time>2022-12-14T13:04:20.301Z</time>
      </trkpt>
      <trkpt lat="47.82511" lon="-2.40102">
        <ele>56.334604</ele>
        <time>2022-12-14T13:04:23.354Z</time>
      </trkpt>
      <trkpt lat="47.82509" lon="-2.40085">
        <ele>56.056167</ele>
        <time>2022-12-14T13:04:26.302Z</time>
      </trkpt>
      <trkpt lat="47.82508" lon="-2.40069">
        <ele>55.814954</ele>
        <time>2022-12-14T13:04:29.353Z</time>
      </trkpt>
      <trkpt lat="47.82507" lon="-2.40054">
        <ele>55.582789</ele>
        <time>2022-12-14T13:04:32.296Z</time>
      </trkpt>
      <trkpt lat="47.82506" lon="-2.40039">
        <ele>55.34576</ele>
        <time>2022-12-14T13:04:35.352Z</time>
      </trkpt>
      <trkpt lat="47.82504" lon="-2.40022">
        <ele>55.072802</ele>
        <time>2022-12-14T13:04:38.301Z</time>
      </trkpt>
      <trkpt lat="47.82501" lon="-2.40006">
        <ele>54.815242</ele>
        <time>2022-12-14T13:04:41.338Z</time>
      </trkpt>
      <trkpt lat="47.82496" lon="-2.39988">
        <ele>54.662234</ele>
        <time>2022-12-14T13:04:44.292Z</time>
      </trkpt>
      <trkpt lat="47.8249" lon="-2.39974">
        <ele>54.762078</ele>
        <time>2022-12-14T13:04:47.349Z</time>
      </trkpt>
      <trkpt lat="47.82484" lon="-2.39962">
        <ele>54.859308</ele>
        <time>2022-12-14T13:04:50.299Z</time>
      </trkpt>
      <trkpt lat="47.82476" lon="-2.3995">
        <ele>54.965252</ele>
        <time>2022-12-14T13:04:53.345Z</time>
      </trkpt>
      <trkpt lat="47.82468" lon="-2.39937">
        <ele>55.075367</ele>
        <time>2022-12-14T13:04:56.297Z</time>
      </trkpt>
      <trkpt lat="47.8246" lon="-2.39927">
        <ele>55.174006</ele>
        <time>2022-12-14T13:04:59.283Z</time>
      </trkpt>
      <trkpt lat="47.82454" lon="-2.39918">
        <ele>55.259306</ele>
        <time>2022-12-14T13:05:02.301Z</time>
      </trkpt>
      <trkpt lat="47.82444" lon="-2.39909">
        <ele>55.365848</ele>
        <time>2022-12-14T13:05:06.278Z</time>
      </trkpt>
      <trkpt lat="47.82435" lon="-2.39901">
        <ele>55.462873</ele>
        <time>2022-12-14T13:05:10.355Z</time>
      </trkpt>
      <trkpt lat="47.82428" lon="-2.39891">
        <ele>55.550735</ele>
        <time>2022-12-14T13:05:14.302Z</time>
      </trkpt>
      <trkpt lat="47.82422" lon="-2.39881">
        <ele>55.640925</ele>
        <time>2022-12-14T13:05:17.302Z</time>
      </trkpt>
      <trkpt lat="47.82412" lon="-2.39868">
        <ele>55.758262</ele>
        <time>2022-12-14T13:05:20.300Z</time>
      </trkpt>
      <trkpt lat="47.82405" lon="-2.39859">
        <ele>55.84865</ele>
        <time>2022-12-14T13:05:22.346Z</time>
      </trkpt>
      <trkpt lat="47.82398" lon="-2.3985">
        <ele>55.93437</ele>
        <time>2022-12-14T13:05:24.303Z</time>
      </trkpt>
      <trkpt lat="47.8239" lon="-2.39841">
        <ele>56.025469</ele>
        <time>2022-12-14T13:05:26.303Z</time>
      </trkpt>
      <trkpt lat="47.82384" lon="-2.39832">
        <ele>56.111517</ele>
        <time>2022-12-14T13:05:28.358Z</time>
      </trkpt>
      <trkpt lat="47.82374" lon="-2.39819">
        <ele>56.237379</ele>
        <time>2022-12-14T13:05:31.328Z</time>
      </trkpt>
      <trkpt lat="47.82366" lon="-2.39807">
        <ele>56.342082</ele>
        <time>2022-12-14T13:05:34.298Z</time>
      </trkpt>
      <trkpt lat="47.82356" lon="-2.39794">
        <ele>56.46021</ele>
        <time>2022-12-14T13:05:37.300Z</time>
      </trkpt>
      <trkpt lat="47.82349" lon="-2.39784">
        <ele>56.547485</ele>
        <time>2022-12-14T13:05:39.303Z</time>
      </trkpt>
      <trkpt lat="47.82342" lon="-2.39775">
        <ele>56.635495</ele>
        <time>2022-12-14T13:05:41.303Z</time>
      </trkpt>
      <trkpt lat="47.82334" lon="-2.39765">
        <ele>56.726956</ele>
        <time>2022-12-14T13:05:43.296Z</time>
      </trkpt>
      <trkpt lat="47.82328" lon="-2.39756">
        <ele>56.811196</ele>
        <time>2022-12-14T13:05:45.308Z</time>
      </trkpt>
      <trkpt lat="47.82321" lon="-2.39746">
        <ele>56.897437</ele>
        <time>2022-12-14T13:05:47.302Z</time>
      </trkpt>
      <trkpt lat="47.82315" lon="-2.39736">
        <ele>56.980601</ele>
        <time>2022-12-14T13:05:49.301Z</time>
      </trkpt>
      <trkpt lat="47.82305" lon="-2.39725">
        <ele>57.095491</ele>
        <time>2022-12-14T13:05:52.299Z</time>
      </trkpt>
      <trkpt lat="47.82295" lon="-2.39713">
        <ele>57.212413</ele>
        <time>2022-12-14T13:05:55.300Z</time>
      </trkpt>
      <trkpt lat="47.82286" lon="-2.39701">
        <ele>57.323997</ele>
        <time>2022-12-14T13:05:58.299Z</time>
      </trkpt>
      <trkpt lat="47.82276" lon="-2.39688">
        <ele>57.443628</ele>
        <time>2022-12-14T13:06:01.283Z</time>
      </trkpt>
      <trkpt lat="47.82269" lon="-2.39679">
        <ele>57.526851</ele>
        <time>2022-12-14T13:06:03.297Z</time>
      </trkpt>
      <trkpt lat="47.82262" lon="-2.3967">
        <ele>57.609659</ele>
        <time>2022-12-14T13:06:05.351Z</time>
      </trkpt>
      <trkpt lat="47.82255" lon="-2.39661">
        <ele>57.697166</ele>
        <time>2022-12-14T13:06:07.301Z</time>
      </trkpt>
      <trkpt lat="47.82248" lon="-2.39651">
        <ele>57.783946</ele>
        <time>2022-12-14T13:06:09.298Z</time>
      </trkpt>
      <trkpt lat="47.82238" lon="-2.39638">
        <ele>57.908164</ele>
        <time>2022-12-14T13:06:12.300Z</time>
      </trkpt>
      <trkpt lat="47.8223" lon="-2.39628">
        <ele>57.964753</ele>
        <time>2022-12-14T13:06:14.297Z</time>
      </trkpt>
      <trkpt lat="47.82223" lon="-2.39619">
        <ele>57.980578</ele>
        <time>2022-12-14T13:06:16.352Z</time>
      </trkpt>
      <trkpt lat="47.82216" lon="-2.39609">
        <ele>57.99767</ele>
        <time>2022-12-14T13:06:18.303Z</time>
      </trkpt>
      <trkpt lat="47.82208" lon="-2.396">
        <ele>58.014823</ele>
        <time>2022-12-14T13:06:20.298Z</time>
      </trkpt>
      <trkpt lat="47.82202" lon="-2.39591">
        <ele>58.030727</ele>
        <time>2022-12-14T13:06:22.350Z</time>
      </trkpt>
      <trkpt lat="47.82194" lon="-2.39581">
        <ele>58.047771</ele>
        <time>2022-12-14T13:06:24.301Z</time>
      </trkpt>
      <trkpt lat="47.82187" lon="-2.39572">
        <ele>58.064166</ele>
        <time>2022-12-14T13:06:26.303Z</time>
      </trkpt>
      <trkpt lat="47.8218" lon="-2.39562">
        <ele>58.081542</ele>
        <time>2022-12-14T13:06:28.365Z</time>
      </trkpt>
      <trkpt lat="47.82172" lon="-2.39553">
        <ele>58.097928</ele>
        <time>2022-12-14T13:06:30.302Z</time>
      </trkpt>
      <trkpt lat="47.82162" lon="-2.39542">
        <ele>58.119671</ele>
        <time>2022-12-14T13:06:33.320Z</time>
      </trkpt>
      <trkpt lat="47.82154" lon="-2.3953">
        <ele>58.140015</ele>
        <time>2022-12-14T13:06:36.302Z</time>
      </trkpt>
      <trkpt lat="47.82144" lon="-2.39518">
        <ele>58.161771</ele>
        <time>2022-12-14T13:06:39.307Z</time>
      </trkpt>
      <trkpt lat="47.82134" lon="-2.39505">
        <ele>58.184598</ele>
        <time>2022-12-14T13:06:42.301Z</time>
      </trkpt>
      <trkpt lat="47.82127" lon="-2.39496">
        <ele>58.200532</ele>
        <time>2022-12-14T13:06:44.299Z</time>
      </trkpt>
      <trkpt lat="47.8212" lon="-2.39487">
        <ele>58.216074</ele>
        <time>2022-12-14T13:06:46.368Z</time>
      </trkpt>
      <trkpt lat="47.82111" lon="-2.39476">
        <ele>58.236902</ele>
        <time>2022-12-14T13:06:49.303Z</time>
      </trkpt>
      <trkpt lat="47.82102" lon="-2.39464">
        <ele>58.257814</ele>
        <time>2022-12-14T13:06:52.350Z</time>
      </trkpt>
      <trkpt lat="47.82092" lon="-2.39451">
        <ele>58.223049</ele>
        <time>2022-12-14T13:06:55.303Z</time>
      </trkpt>
      <trkpt lat="47.82083" lon="-2.39439">
        <ele>58.152285</ele>
        <time>2022-12-14T13:06:58.298Z</time>
      </trkpt>
      <trkpt lat="47.82073" lon="-2.39426">
        <ele>58.076949</ele>
        <time>2022-12-14T13:07:01.303Z</time>
      </trkpt>
      <trkpt lat="47.82063" lon="-2.39413">
        <ele>57.998292</ele>
        <time>2022-12-14T13:07:04.304Z</time>
      </trkpt>
      <trkpt lat="47.82055" lon="-2.39402">
        <ele>57.937811</ele>
        <time>2022-12-14T13:07:06.305Z</time>
      </trkpt>
      <trkpt lat="47.82048" lon="-2.39393">
        <ele>57.880827</ele>
        <time>2022-12-14T13:07:08.305Z</time>
      </trkpt>
      <trkpt lat="47.8204" lon="-2.39384">
        <ele>57.825927</ele>
        <time>2022-12-14T13:07:10.303Z</time>
      </trkpt>
      <trkpt lat="47.82033" lon="-2.39376">
        <ele>57.771559</ele>
        <time>2022-12-14T13:07:12.303Z</time>
      </trkpt>
      <trkpt lat="47.82023" lon="-2.39364">
        <ele>57.698604</ele>
        <time>2022-12-14T13:07:15.355Z</time>
      </trkpt>
      <trkpt lat="47.82013" lon="-2.39353">
        <ele>57.627134</ele>
        <time>2022-12-14T13:07:18.302Z</time>
      </trkpt>
      <trkpt lat="47.82004" lon="-2.39339">
        <ele>57.552709</ele>
        <time>2022-12-14T13:07:21.379Z</time>
      </trkpt>
      <trkpt lat="47.81997" lon="-2.3933">
        <ele>57.500265</ele>
        <time>2022-12-14T13:07:23.326Z</time>
      </trkpt>
      <trkpt lat="47.8199" lon="-2.39322">
        <ele>57.44706</ele>
        <time>2022-12-14T13:07:25.301Z</time>
      </trkpt>
      <trkpt lat="47.81983" lon="-2.39313">
        <ele>57.391505</ele>
        <time>2022-12-14T13:07:27.355Z</time>
      </trkpt>
      <trkpt lat="47.81975" lon="-2.39303">
        <ele>57.333378</ele>
        <time>2022-12-14T13:07:29.301Z</time>
      </trkpt>
      <trkpt lat="47.81967" lon="-2.39293">
        <ele>57.273616</ele>
        <time>2022-12-14T13:07:31.300Z</time>
      </trkpt>
      <trkpt lat="47.8196" lon="-2.39283">
        <ele>57.215008</ele>
        <time>2022-12-14T13:07:33.341Z</time>
      </trkpt>
      <trkpt lat="47.81952" lon="-2.39274">
        <ele>57.159642</ele>
        <time>2022-12-14T13:07:35.297Z</time>
      </trkpt>
      <trkpt lat="47.81942" lon="-2.39262">
        <ele>57.087782</ele>
        <time>2022-12-14T13:07:38.306Z</time>
      </trkpt>
      <trkpt lat="47.81933" lon="-2.39251">
        <ele>57.021685</ele>
        <time>2022-12-14T13:07:41.303Z</time>
      </trkpt>
      <trkpt lat="47.81925" lon="-2.39237">
        <ele>56.952482</ele>
        <time>2022-12-14T13:07:44.324Z</time>
      </trkpt>
      <trkpt lat="47.81918" lon="-2.39228">
        <ele>56.897898</ele>
        <time>2022-12-14T13:07:46.286Z</time>
      </trkpt>
      <trkpt lat="47.81911" lon="-2.39219">
        <ele>56.846287</ele>
        <time>2022-12-14T13:07:48.295Z</time>
      </trkpt>
      <trkpt lat="47.81901" lon="-2.39205">
        <ele>56.76861</ele>
        <time>2022-12-14T13:07:51.301Z</time>
      </trkpt>
      <trkpt lat="47.81895" lon="-2.39195">
        <ele>56.715972</ele>
        <time>2022-12-14T13:07:53.295Z</time>
      </trkpt>
      <trkpt lat="47.81887" lon="-2.39186">
        <ele>56.662266</ele>
        <time>2022-12-14T13:07:55.290Z</time>
      </trkpt>
      <trkpt lat="47.81878" lon="-2.39174">
        <ele>56.593127</ele>
        <time>2022-12-14T13:07:58.301Z</time>
      </trkpt>
      <trkpt lat="47.81869" lon="-2.39162">
        <ele>56.527014</ele>
        <time>2022-12-14T13:08:01.301Z</time>
      </trkpt>
      <trkpt lat="47.8186" lon="-2.3915">
        <ele>56.45395</ele>
        <time>2022-12-14T13:08:04.301Z</time>
      </trkpt>
      <trkpt lat="47.8185" lon="-2.39138">
        <ele>56.380579</ele>
        <time>2022-12-14T13:08:07.302Z</time>
      </trkpt>
      <trkpt lat="47.8184" lon="-2.39124">
        <ele>56.305696</ele>
        <time>2022-12-14T13:08:10.303Z</time>
      </trkpt>
      <trkpt lat="47.81832" lon="-2.39115">
        <ele>56.248196</ele>
        <time>2022-12-14T13:08:12.300Z</time>
      </trkpt>
      <trkpt lat="47.81825" lon="-2.39106">
        <ele>56.209836</ele>
        <time>2022-12-14T13:08:14.366Z</time>
      </trkpt>
      <trkpt lat="47.81816" lon="-2.39094">
        <ele>56.230198</ele>
        <time>2022-12-14T13:08:17.303Z</time>
      </trkpt>
      <trkpt lat="47.81807" lon="-2.39083">
        <ele>56.250132</ele>
        <time>2022-12-14T13:08:20.366Z</time>
      </trkpt>
      <trkpt lat="47.81797" lon="-2.39071">
        <ele>56.270997</ele>
        <time>2022-12-14T13:08:23.297Z</time>
      </trkpt>
      <trkpt lat="47.81787" lon="-2.39059">
        <ele>56.293292</ele>
        <time>2022-12-14T13:08:26.357Z</time>
      </trkpt>
      <trkpt lat="47.81781" lon="-2.3905">
        <ele>56.308652</ele>
        <time>2022-12-14T13:08:28.302Z</time>
      </trkpt>
      <trkpt lat="47.81774" lon="-2.3904">
        <ele>56.324595</ele>
        <time>2022-12-14T13:08:30.299Z</time>
      </trkpt>
      <trkpt lat="47.81766" lon="-2.39031">
        <ele>56.340839</ele>
        <time>2022-12-14T13:08:32.348Z</time>
      </trkpt>
      <trkpt lat="47.81759" lon="-2.39023">
        <ele>56.3566</ele>
        <time>2022-12-14T13:08:34.302Z</time>
      </trkpt>
      <trkpt lat="47.8175" lon="-2.3901">
        <ele>56.378914</ele>
        <time>2022-12-14T13:08:37.302Z</time>
      </trkpt>
      <trkpt lat="47.81741" lon="-2.38997">
        <ele>56.399356</ele>
        <time>2022-12-14T13:08:40.305Z</time>
      </trkpt>
      <trkpt lat="47.81731" lon="-2.38985">
        <ele>56.421038</ele>
        <time>2022-12-14T13:08:43.298Z</time>
      </trkpt>
      <trkpt lat="47.81722" lon="-2.38972">
        <ele>56.443273</ele>
        <time>2022-12-14T13:08:46.301Z</time>
      </trkpt>
      <trkpt lat="47.81712" lon="-2.3896">
        <ele>56.464808</ele>
        <time>2022-12-14T13:08:49.301Z</time>
      </trkpt>
      <trkpt lat="47.81703" lon="-2.38948">
        <ele>56.485059</ele>
        <time>2022-12-14T13:08:52.288Z</time>
      </trkpt>
      <trkpt lat="47.81695" lon="-2.38936">
        <ele>56.504005</ele>
        <time>2022-12-14T13:08:55.302Z</time>
      </trkpt>
      <trkpt lat="47.81686" lon="-2.38924">
        <ele>56.530536</ele>
        <time>2022-12-14T13:08:58.303Z</time>
      </trkpt>
      <trkpt lat="47.81676" lon="-2.38911">
        <ele>56.562654</ele>
        <time>2022-12-14T13:09:01.301Z</time>
      </trkpt>
      <trkpt lat="47.81669" lon="-2.38902">
        <ele>56.586032</ele>
        <time>2022-12-14T13:09:03.302Z</time>
      </trkpt>
      <trkpt lat="47.81659" lon="-2.38888">
        <ele>56.619164</ele>
        <time>2022-12-14T13:09:06.300Z</time>
      </trkpt>
      <trkpt lat="47.81649" lon="-2.38875">
        <ele>56.652153</ele>
        <time>2022-12-14T13:09:09.294Z</time>
      </trkpt>
      <trkpt lat="47.81639" lon="-2.38863">
        <ele>56.682063</ele>
        <time>2022-12-14T13:09:12.302Z</time>
      </trkpt>
      <trkpt lat="47.8163" lon="-2.38852">
        <ele>56.711885</ele>
        <time>2022-12-14T13:09:15.291Z</time>
      </trkpt>
      <trkpt lat="47.8162" lon="-2.3884">
        <ele>56.742463</ele>
        <time>2022-12-14T13:09:18.298Z</time>
      </trkpt>
      <trkpt lat="47.8161" lon="-2.38828">
        <ele>56.774507</ele>
        <time>2022-12-14T13:09:21.279Z</time>
      </trkpt>
      <trkpt lat="47.816" lon="-2.38815">
        <ele>56.806628</ele>
        <time>2022-12-14T13:09:24.303Z</time>
      </trkpt>
      <trkpt lat="47.81592" lon="-2.38805">
        <ele>56.830613</ele>
        <time>2022-12-14T13:09:26.300Z</time>
      </trkpt>
      <trkpt lat="47.81585" lon="-2.38797">
        <ele>56.852804</ele>
        <time>2022-12-14T13:09:28.307Z</time>
      </trkpt>
      <trkpt lat="47.81578" lon="-2.38788">
        <ele>56.875579</ele>
        <time>2022-12-14T13:09:30.303Z</time>
      </trkpt>
      <trkpt lat="47.81571" lon="-2.38779">
        <ele>56.899195</ele>
        <time>2022-12-14T13:09:32.301Z</time>
      </trkpt>
      <trkpt lat="47.81561" lon="-2.38766">
        <ele>56.930258</ele>
        <time>2022-12-14T13:09:35.304Z</time>
      </trkpt>
      <trkpt lat="47.81552" lon="-2.38755">
        <ele>56.906923</ele>
        <time>2022-12-14T13:09:38.310Z</time>
      </trkpt>
      <trkpt lat="47.81542" lon="-2.38742">
        <ele>56.747597</ele>
        <time>2022-12-14T13:09:41.283Z</time>
      </trkpt>
      <trkpt lat="47.81533" lon="-2.38729">
        <ele>56.585133</ele>
        <time>2022-12-14T13:09:44.302Z</time>
      </trkpt>
      <trkpt lat="47.81523" lon="-2.38716">
        <ele>56.41705</ele>
        <time>2022-12-14T13:09:47.300Z</time>
      </trkpt>
      <trkpt lat="47.81516" lon="-2.38707">
        <ele>56.299779</ele>
        <time>2022-12-14T13:09:49.350Z</time>
      </trkpt>
      <trkpt lat="47.81509" lon="-2.38698">
        <ele>56.182875</ele>
        <time>2022-12-14T13:09:51.295Z</time>
      </trkpt>
      <trkpt lat="47.81499" lon="-2.38685">
        <ele>56.01384</ele>
        <time>2022-12-14T13:09:54.302Z</time>
      </trkpt>
      <trkpt lat="47.81489" lon="-2.38672">
        <ele>55.842324</ele>
        <time>2022-12-14T13:09:57.298Z</time>
      </trkpt>
      <trkpt lat="47.81482" lon="-2.38663">
        <ele>55.72316</ele>
        <time>2022-12-14T13:09:59.301Z</time>
      </trkpt>
      <trkpt lat="47.81473" lon="-2.38651">
        <ele>55.565907</ele>
        <time>2022-12-14T13:10:02.284Z</time>
      </trkpt>
      <trkpt lat="47.81465" lon="-2.38639">
        <ele>55.422791</ele>
        <time>2022-12-14T13:10:05.302Z</time>
      </trkpt>
      <trkpt lat="47.81456" lon="-2.38628">
        <ele>55.272955</ele>
        <time>2022-12-14T13:10:08.274Z</time>
      </trkpt>
      <trkpt lat="47.81446" lon="-2.38616">
        <ele>55.110345</ele>
        <time>2022-12-14T13:10:11.303Z</time>
      </trkpt>
      <trkpt lat="47.81436" lon="-2.38604">
        <ele>54.947419</ele>
        <time>2022-12-14T13:10:14.305Z</time>
      </trkpt>
      <trkpt lat="47.81427" lon="-2.38592">
        <ele>54.792581</ele>
        <time>2022-12-14T13:10:17.303Z</time>
      </trkpt>
      <trkpt lat="47.81417" lon="-2.38579">
        <ele>54.638437</ele>
        <time>2022-12-14T13:10:20.301Z</time>
      </trkpt>
      <trkpt lat="47.81407" lon="-2.38566">
        <ele>54.553651</ele>
        <time>2022-12-14T13:10:23.330Z</time>
      </trkpt>
      <trkpt lat="47.81397" lon="-2.38554">
        <ele>54.471573</ele>
        <time>2022-12-14T13:10:26.301Z</time>
      </trkpt>
      <trkpt lat="47.8139" lon="-2.38545">
        <ele>54.413462</ele>
        <time>2022-12-14T13:10:28.298Z</time>
      </trkpt>
      <trkpt lat="47.81383" lon="-2.38535">
        <ele>54.353812</ele>
        <time>2022-12-14T13:10:30.303Z</time>
      </trkpt>
      <trkpt lat="47.81377" lon="-2.38525">
        <ele>54.295679</ele>
        <time>2022-12-14T13:10:32.303Z</time>
      </trkpt>
      <trkpt lat="47.81367" lon="-2.38514">
        <ele>54.216776</ele>
        <time>2022-12-14T13:10:35.306Z</time>
      </trkpt>
      <trkpt lat="47.81358" lon="-2.38503">
        <ele>54.142726</ele>
        <time>2022-12-14T13:10:38.302Z</time>
      </trkpt>
      <trkpt lat="47.81348" lon="-2.38491">
        <ele>54.060881</ele>
        <time>2022-12-14T13:10:41.302Z</time>
      </trkpt>
      <trkpt lat="47.81341" lon="-2.3848">
        <ele>53.994299</ele>
        <time>2022-12-14T13:10:43.335Z</time>
      </trkpt>
      <trkpt lat="47.81334" lon="-2.38471">
        <ele>53.934665</ele>
        <time>2022-12-14T13:10:45.303Z</time>
      </trkpt>
      <trkpt lat="47.81326" lon="-2.38462">
        <ele>53.874059</ele>
        <time>2022-12-14T13:10:47.302Z</time>
      </trkpt>
      <trkpt lat="47.81317" lon="-2.38449">
        <ele>53.793026</ele>
        <time>2022-12-14T13:10:50.301Z</time>
      </trkpt>
      <trkpt lat="47.81308" lon="-2.38438">
        <ele>53.720159</ele>
        <time>2022-12-14T13:10:53.295Z</time>
      </trkpt>
      <trkpt lat="47.81301" lon="-2.38428">
        <ele>53.655677</ele>
        <time>2022-12-14T13:10:56.302Z</time>
      </trkpt>
      <trkpt lat="47.81292" lon="-2.38416">
        <ele>53.58105</ele>
        <time>2022-12-14T13:10:59.302Z</time>
      </trkpt>
      <trkpt lat="47.81283" lon="-2.38405">
        <ele>53.511812</ele>
        <time>2022-12-14T13:11:02.302Z</time>
      </trkpt>
      <trkpt lat="47.81274" lon="-2.38394">
        <ele>53.524064</ele>
        <time>2022-12-14T13:11:05.305Z</time>
      </trkpt>
      <trkpt lat="47.81266" lon="-2.38384">
        <ele>53.535582</ele>
        <time>2022-12-14T13:11:08.299Z</time>
      </trkpt>
      <trkpt lat="47.81258" lon="-2.38374">
        <ele>53.547017</ele>
        <time>2022-12-14T13:11:11.305Z</time>
      </trkpt>
      <trkpt lat="47.81251" lon="-2.38364">
        <ele>53.558046</ele>
        <time>2022-12-14T13:11:14.353Z</time>
      </trkpt>
      <trkpt lat="47.81243" lon="-2.38355">
        <ele>53.568539</ele>
        <time>2022-12-14T13:11:17.305Z</time>
      </trkpt>
      <trkpt lat="47.81234" lon="-2.38346">
        <ele>53.580222</ele>
        <time>2022-12-14T13:11:21.304Z</time>
      </trkpt>
      <trkpt lat="47.81227" lon="-2.38335">
        <ele>53.591913</ele>
        <time>2022-12-14T13:11:26.353Z</time>
      </trkpt>
      <trkpt lat="47.8122" lon="-2.38324">
        <ele>53.603014</ele>
        <time>2022-12-14T13:11:30.301Z</time>
      </trkpt>
      <trkpt lat="47.81212" lon="-2.38313">
        <ele>53.615333</ele>
        <time>2022-12-14T13:11:34.304Z</time>
      </trkpt>
      <trkpt lat="47.81203" lon="-2.38305">
        <ele>53.626127</ele>
        <time>2022-12-14T13:11:38.340Z</time>
      </trkpt>
      <trkpt lat="47.81194" lon="-2.38294">
        <ele>53.638877</ele>
        <time>2022-12-14T13:11:43.313Z</time>
      </trkpt>
      <trkpt lat="47.81187" lon="-2.38285">
        <ele>53.649179</ele>
        <time>2022-12-14T13:11:46.284Z</time>
      </trkpt>
      <trkpt lat="47.81179" lon="-2.38273">
        <ele>53.661907</ele>
        <time>2022-12-14T13:11:49.305Z</time>
      </trkpt>
      <trkpt lat="47.81169" lon="-2.38261">
        <ele>53.675665</ele>
        <time>2022-12-14T13:11:52.304Z</time>
      </trkpt>
      <trkpt lat="47.8116" lon="-2.38249">
        <ele>53.688642</ele>
        <time>2022-12-14T13:11:55.366Z</time>
      </trkpt>
      <trkpt lat="47.81152" lon="-2.38239">
        <ele>53.700402</ele>
        <time>2022-12-14T13:11:58.302Z</time>
      </trkpt>
      <trkpt lat="47.81145" lon="-2.38231">
        <ele>53.672692</ele>
        <time>2022-12-14T13:12:01.364Z</time>
      </trkpt>
      <trkpt lat="47.81136" lon="-2.38224">
        <ele>53.485372</ele>
        <time>2022-12-14T13:12:04.301Z</time>
      </trkpt>
      <trkpt lat="47.81126" lon="-2.38214">
        <ele>53.275251</ele>
        <time>2022-12-14T13:12:07.361Z</time>
      </trkpt>
      <trkpt lat="47.81117" lon="-2.38204">
        <ele>53.071596</ele>
        <time>2022-12-14T13:12:10.301Z</time>
      </trkpt>
      <trkpt lat="47.81108" lon="-2.38195">
        <ele>52.870705</ele>
        <time>2022-12-14T13:12:13.355Z</time>
      </trkpt>
      <trkpt lat="47.81098" lon="-2.38186">
        <ele>52.665811</ele>
        <time>2022-12-14T13:12:16.301Z</time>
      </trkpt>
      <trkpt lat="47.81088" lon="-2.38178">
        <ele>52.457537</ele>
        <time>2022-12-14T13:12:19.302Z</time>
      </trkpt>
      <trkpt lat="47.81078" lon="-2.38169">
        <ele>52.245512</ele>
        <time>2022-12-14T13:12:22.304Z</time>
      </trkpt>
      <trkpt lat="47.81067" lon="-2.38163">
        <ele>52.038408</ele>
        <time>2022-12-14T13:12:25.304Z</time>
      </trkpt>
      <trkpt lat="47.81058" lon="-2.38156">
        <ele>51.853385</ele>
        <time>2022-12-14T13:12:28.302Z</time>
      </trkpt>
      <trkpt lat="47.81049" lon="-2.38151">
        <ele>51.677724</ele>
        <time>2022-12-14T13:12:31.298Z</time>
      </trkpt>
      <trkpt lat="47.8104" lon="-2.38146">
        <ele>51.501061</ele>
        <time>2022-12-14T13:12:34.277Z</time>
      </trkpt>
      <trkpt lat="47.81031" lon="-2.38141">
        <ele>51.33838</ele>
        <time>2022-12-14T13:12:37.289Z</time>
      </trkpt>
      <trkpt lat="47.81023" lon="-2.38135">
        <ele>51.172718</ele>
        <time>2022-12-14T13:12:40.301Z</time>
      </trkpt>
      <trkpt lat="47.81015" lon="-2.38128">
        <ele>50.994637</ele>
        <time>2022-12-14T13:12:43.359Z</time>
      </trkpt>
      <trkpt lat="47.81004" lon="-2.38121">
        <ele>50.781131</ele>
        <time>2022-12-14T13:12:46.301Z</time>
      </trkpt>
      <trkpt lat="47.80995" lon="-2.38116">
        <ele>50.605375</ele>
        <time>2022-12-14T13:12:49.357Z</time>
      </trkpt>
      <trkpt lat="47.80984" lon="-2.38113">
        <ele>50.471801</ele>
        <time>2022-12-14T13:12:54.302Z</time>
      </trkpt>
      <trkpt lat="47.80973" lon="-2.38109">
        <ele>50.535179</ele>
        <time>2022-12-14T13:12:59.300Z</time>
      </trkpt>
      <trkpt lat="47.80964" lon="-2.38101">
        <ele>50.592374</ele>
        <time>2022-12-14T13:13:02.282Z</time>
      </trkpt>
      <trkpt lat="47.80954" lon="-2.38093">
        <ele>50.654491</ele>
        <time>2022-12-14T13:13:05.303Z</time>
      </trkpt>
      <trkpt lat="47.80943" lon="-2.38086">
        <ele>50.721805</ele>
        <time>2022-12-14T13:13:08.303Z</time>
      </trkpt>
      <trkpt lat="47.80931" lon="-2.38079">
        <ele>50.788815</ele>
        <time>2022-12-14T13:13:11.302Z</time>
      </trkpt>
      <trkpt lat="47.80921" lon="-2.38072">
        <ele>50.851005</ele>
        <time>2022-12-14T13:13:14.288Z</time>
      </trkpt>
      <trkpt lat="47.80911" lon="-2.38066">
        <ele>50.906811</ele>
        <time>2022-12-14T13:13:17.303Z</time>
      </trkpt>
      <trkpt lat="47.80902" lon="-2.3806">
        <ele>50.961076</ele>
        <time>2022-12-14T13:13:20.302Z</time>
      </trkpt>
      <trkpt lat="47.80891" lon="-2.38053">
        <ele>51.026642</ele>
        <time>2022-12-14T13:13:24.347Z</time>
      </trkpt>
      <trkpt lat="47.80883" lon="-2.38046">
        <ele>51.079167</ele>
        <time>2022-12-14T13:13:28.301Z</time>
      </trkpt>
      <trkpt lat="47.80874" lon="-2.38038">
        <ele>51.133457</ele>
        <time>2022-12-14T13:13:32.306Z</time>
      </trkpt>
      <trkpt lat="47.80864" lon="-2.3804">
        <ele>51.193478</ele>
        <time>2022-12-14T13:13:38.306Z</time>
      </trkpt>
      <trkpt lat="47.80855" lon="-2.38045">
        <ele>51.243082</ele>
        <time>2022-12-14T13:13:42.287Z</time>
      </trkpt>
      <trkpt lat="47.80844" lon="-2.38047">
        <ele>51.305175</ele>
        <time>2022-12-14T13:13:46.301Z</time>
      </trkpt>
      <trkpt lat="47.80834" lon="-2.38045">
        <ele>51.36118</ele>
        <time>2022-12-14T13:13:49.302Z</time>
      </trkpt>
      <trkpt lat="47.80822" lon="-2.38046">
        <ele>51.422303</ele>
        <time>2022-12-14T13:13:52.300Z</time>
      </trkpt>
      <trkpt lat="47.80811" lon="-2.38045">
        <ele>51.418015</ele>
        <time>2022-12-14T13:13:55.306Z</time>
      </trkpt>
      <trkpt lat="47.80799" lon="-2.38044">
        <ele>51.386265</ele>
        <time>2022-12-14T13:13:58.301Z</time>
      </trkpt>
      <trkpt lat="47.80789" lon="-2.38043">
        <ele>51.35783</ele>
        <time>2022-12-14T13:14:01.306Z</time>
      </trkpt>
      <trkpt lat="47.80779" lon="-2.38043">
        <ele>51.331033</ele>
        <time>2022-12-14T13:14:04.346Z</time>
      </trkpt>
      <trkpt lat="47.80769" lon="-2.38042">
        <ele>51.303409</ele>
        <time>2022-12-14T13:14:07.301Z</time>
      </trkpt>
      <trkpt lat="47.80759" lon="-2.38043">
        <ele>51.276308</ele>
        <time>2022-12-14T13:14:10.364Z</time>
      </trkpt>
      <trkpt lat="47.80747" lon="-2.38045">
        <ele>51.246072</ele>
        <time>2022-12-14T13:14:13.288Z</time>
      </trkpt>
      <trkpt lat="47.80736" lon="-2.38048">
        <ele>51.214712</ele>
        <time>2022-12-14T13:14:16.347Z</time>
      </trkpt>
      <trkpt lat="47.80724" lon="-2.38051">
        <ele>51.182614</ele>
        <time>2022-12-14T13:14:19.303Z</time>
      </trkpt>
      <trkpt lat="47.80713" lon="-2.38051">
        <ele>51.15095</ele>
        <time>2022-12-14T13:14:22.360Z</time>
      </trkpt>
      <trkpt lat="47.80702" lon="-2.38051">
        <ele>51.121695</ele>
        <time>2022-12-14T13:14:25.297Z</time>
      </trkpt>
      <trkpt lat="47.80692" lon="-2.38048">
        <ele>51.093393</ele>
        <time>2022-12-14T13:14:28.350Z</time>
      </trkpt>
      <trkpt lat="47.8068" lon="-2.38045">
        <ele>51.062065</ele>
        <time>2022-12-14T13:14:31.306Z</time>
      </trkpt>
      <trkpt lat="47.80669" lon="-2.38041">
        <ele>51.030896</ele>
        <time>2022-12-14T13:14:34.351Z</time>
      </trkpt>
      <trkpt lat="47.80659" lon="-2.38035">
        <ele>51.001082</ele>
        <time>2022-12-14T13:14:37.305Z</time>
      </trkpt>
      <trkpt lat="47.8065" lon="-2.38028">
        <ele>50.974645</ele>
        <time>2022-12-14T13:14:40.348Z</time>
      </trkpt>
      <trkpt lat="47.8064" lon="-2.3802">
        <ele>50.914855</ele>
        <time>2022-12-14T13:14:44.298Z</time>
      </trkpt>
      <trkpt lat="47.80631" lon="-2.38009">
        <ele>50.792223</ele>
        <time>2022-12-14T13:14:48.302Z</time>
      </trkpt>
      <trkpt lat="47.80622" lon="-2.37998">
        <ele>50.670063</ele>
        <time>2022-12-14T13:14:52.308Z</time>
      </trkpt>
      <trkpt lat="47.80616" lon="-2.37988">
        <ele>50.572201</ele>
        <time>2022-12-14T13:14:55.299Z</time>
      </trkpt>
      <trkpt lat="47.8061" lon="-2.37976">
        <ele>50.474576</ele>
        <time>2022-12-14T13:14:58.276Z</time>
      </trkpt>
      <trkpt lat="47.80604" lon="-2.37964">
        <ele>50.370078</ele>
        <time>2022-12-14T13:15:01.303Z</time>
      </trkpt>
      <trkpt lat="47.80598" lon="-2.37953">
        <ele>50.267469</ele>
        <time>2022-12-14T13:15:04.285Z</time>
      </trkpt>
      <trkpt lat="47.80592" lon="-2.37942">
        <ele>50.168236</ele>
        <time>2022-12-14T13:15:07.281Z</time>
      </trkpt>
      <trkpt lat="47.80587" lon="-2.37929">
        <ele>50.064784</ele>
        <time>2022-12-14T13:15:10.304Z</time>
      </trkpt>
      <trkpt lat="47.80581" lon="-2.37914">
        <ele>49.943588</ele>
        <time>2022-12-14T13:15:13.326Z</time>
      </trkpt>
      <trkpt lat="47.80576" lon="-2.37899">
        <ele>49.825198</ele>
        <time>2022-12-14T13:15:16.302Z</time>
      </trkpt>
      <trkpt lat="47.80572" lon="-2.37884">
        <ele>49.705604</ele>
        <time>2022-12-14T13:15:19.305Z</time>
      </trkpt>
      <trkpt lat="47.80566" lon="-2.37868">
        <ele>49.581241</ele>
        <time>2022-12-14T13:15:22.299Z</time>
      </trkpt>
      <trkpt lat="47.80561" lon="-2.37852">
        <ele>49.452963</ele>
        <time>2022-12-14T13:15:25.303Z</time>
      </trkpt>
      <trkpt lat="47.80555" lon="-2.37835">
        <ele>49.322</ele>
        <time>2022-12-14T13:15:28.304Z</time>
      </trkpt>
      <trkpt lat="47.8055" lon="-2.37818">
        <ele>49.191709</ele>
        <time>2022-12-14T13:15:31.304Z</time>
      </trkpt>
      <trkpt lat="47.80545" lon="-2.37802">
        <ele>49.069857</ele>
        <time>2022-12-14T13:15:34.301Z</time>
      </trkpt>
      <trkpt lat="47.8054" lon="-2.37785">
        <ele>49.044818</ele>
        <time>2022-12-14T13:15:37.303Z</time>
      </trkpt>
      <trkpt lat="47.80536" lon="-2.37766">
        <ele>49.017734</ele>
        <time>2022-12-14T13:15:40.301Z</time>
      </trkpt>
      <trkpt lat="47.80531" lon="-2.3775">
        <ele>48.992902</ele>
        <time>2022-12-14T13:15:43.306Z</time>
      </trkpt>
      <trkpt lat="47.80527" lon="-2.37733">
        <ele>48.969284</ele>
        <time>2022-12-14T13:15:46.303Z</time>
      </trkpt>
      <trkpt lat="47.80522" lon="-2.37717">
        <ele>48.945477</ele>
        <time>2022-12-14T13:15:49.301Z</time>
      </trkpt>
      <trkpt lat="47.80517" lon="-2.377">
        <ele>48.920543</ele>
        <time>2022-12-14T13:15:52.295Z</time>
      </trkpt>
      <trkpt lat="47.80513" lon="-2.37682">
        <ele>48.894798</ele>
        <time>2022-12-14T13:15:55.305Z</time>
      </trkpt>
      <trkpt lat="47.80508" lon="-2.37664">
        <ele>48.867805</ele>
        <time>2022-12-14T13:15:58.301Z</time>
      </trkpt>
      <trkpt lat="47.80504" lon="-2.37651">
        <ele>48.849644</ele>
        <time>2022-12-14T13:16:00.303Z</time>
      </trkpt>
      <trkpt lat="47.80501" lon="-2.37638">
        <ele>48.830902</ele>
        <time>2022-12-14T13:16:02.351Z</time>
      </trkpt>
      <trkpt lat="47.80496" lon="-2.3762">
        <ele>48.803931</ele>
        <time>2022-12-14T13:16:05.303Z</time>
      </trkpt>
      <trkpt lat="47.80493" lon="-2.37607">
        <ele>48.785132</ele>
        <time>2022-12-14T13:16:07.306Z</time>
      </trkpt>
      <trkpt lat="47.80489" lon="-2.37588">
        <ele>48.757907</ele>
        <time>2022-12-14T13:16:10.304Z</time>
      </trkpt>
      <trkpt lat="47.80484" lon="-2.3757">
        <ele>48.731919</ele>
        <time>2022-12-14T13:16:13.295Z</time>
      </trkpt>
      <trkpt lat="47.8048" lon="-2.37552">
        <ele>48.710711</ele>
        <time>2022-12-14T13:16:16.304Z</time>
      </trkpt>
      <trkpt lat="47.80476" lon="-2.37536">
        <ele>48.845346</ele>
        <time>2022-12-14T13:16:19.360Z</time>
      </trkpt>
      <trkpt lat="47.80472" lon="-2.37518">
        <ele>48.987967</ele>
        <time>2022-12-14T13:16:22.299Z</time>
      </trkpt>
      <trkpt lat="47.80469" lon="-2.37504">
        <ele>49.090953</ele>
        <time>2022-12-14T13:16:24.310Z</time>
      </trkpt>
      <trkpt lat="47.80466" lon="-2.37492">
        <ele>49.19223</ele>
        <time>2022-12-14T13:16:26.303Z</time>
      </trkpt>
      <trkpt lat="47.80461" lon="-2.37474">
        <ele>49.335328</ele>
        <time>2022-12-14T13:16:29.304Z</time>
      </trkpt>
      <trkpt lat="47.80456" lon="-2.37456">
        <ele>49.477437</ele>
        <time>2022-12-14T13:16:32.302Z</time>
      </trkpt>
      <trkpt lat="47.80452" lon="-2.37439">
        <ele>49.610897</ele>
        <time>2022-12-14T13:16:35.301Z</time>
      </trkpt>
      <trkpt lat="47.80449" lon="-2.37421">
        <ele>49.750812</ele>
        <time>2022-12-14T13:16:38.300Z</time>
      </trkpt>
      <trkpt lat="47.80446" lon="-2.37404">
        <ele>49.882954</ele>
        <time>2022-12-14T13:16:41.302Z</time>
      </trkpt>
      <trkpt lat="47.80444" lon="-2.37386">
        <ele>50.021048</ele>
        <time>2022-12-14T13:16:44.306Z</time>
      </trkpt>
      <trkpt lat="47.80442" lon="-2.37367">
        <ele>50.165644</ele>
        <time>2022-12-14T13:16:47.304Z</time>
      </trkpt>
      <trkpt lat="47.80442" lon="-2.37348">
        <ele>50.307786</ele>
        <time>2022-12-14T13:16:50.303Z</time>
      </trkpt>
      <trkpt lat="47.80441" lon="-2.37329">
        <ele>50.446774</ele>
        <time>2022-12-14T13:16:53.275Z</time>
      </trkpt>
      <trkpt lat="47.80441" lon="-2.37312">
        <ele>50.575217</ele>
        <time>2022-12-14T13:16:56.300Z</time>
      </trkpt>
      <trkpt lat="47.80441" lon="-2.37297">
        <ele>50.685025</ele>
        <time>2022-12-14T13:16:59.304Z</time>
      </trkpt>
      <trkpt lat="47.80442" lon="-2.37282">
        <ele>50.664312</ele>
        <time>2022-12-14T13:17:02.302Z</time>
      </trkpt>
      <trkpt lat="47.80443" lon="-2.37265">
        <ele>50.604781</ele>
        <time>2022-12-14T13:17:05.302Z</time>
      </trkpt>
      <trkpt lat="47.80445" lon="-2.37247">
        <ele>50.542061</ele>
        <time>2022-12-14T13:17:08.302Z</time>
      </trkpt>
      <trkpt lat="47.80447" lon="-2.3723">
        <ele>50.479157</ele>
        <time>2022-12-14T13:17:11.376Z</time>
      </trkpt>
      <trkpt lat="47.8045" lon="-2.37211">
        <ele>50.412507</ele>
        <time>2022-12-14T13:17:14.283Z</time>
      </trkpt>
      <trkpt lat="47.80454" lon="-2.37194">
        <ele>50.34795</ele>
        <time>2022-12-14T13:17:17.319Z</time>
      </trkpt>
      <trkpt lat="47.8046" lon="-2.37178">
        <ele>50.286601</ele>
        <time>2022-12-14T13:17:20.303Z</time>
      </trkpt>
      <trkpt lat="47.80465" lon="-2.37161">
        <ele>50.221823</ele>
        <time>2022-12-14T13:17:23.350Z</time>
      </trkpt>
      <trkpt lat="47.80471" lon="-2.37145">
        <ele>50.154738</ele>
        <time>2022-12-14T13:17:26.303Z</time>
      </trkpt>
      <trkpt lat="47.80477" lon="-2.37128">
        <ele>50.088571</ele>
        <time>2022-12-14T13:17:29.302Z</time>
      </trkpt>
      <trkpt lat="47.80484" lon="-2.37113">
        <ele>50.026634</ele>
        <time>2022-12-14T13:17:32.296Z</time>
      </trkpt>
      <trkpt lat="47.80491" lon="-2.37101">
        <ele>49.967179</ele>
        <time>2022-12-14T13:17:35.287Z</time>
      </trkpt>
      <trkpt lat="47.80501" lon="-2.3709">
        <ele>49.905111</ele>
        <time>2022-12-14T13:17:38.302Z</time>
      </trkpt>
      <trkpt lat="47.80511" lon="-2.37081">
        <ele>49.844853</ele>
        <time>2022-12-14T13:17:41.302Z</time>
      </trkpt>
      <trkpt lat="47.8052" lon="-2.37074">
        <ele>49.793098</ele>
        <time>2022-12-14T13:17:44.299Z</time>
      </trkpt>
      <trkpt lat="47.80529" lon="-2.37068">
        <ele>49.744229</ele>
        <time>2022-12-14T13:17:47.283Z</time>
      </trkpt>
      <trkpt lat="47.8054" lon="-2.37061">
        <ele>49.690019</ele>
        <time>2022-12-14T13:17:50.303Z</time>
      </trkpt>
      <trkpt lat="47.80553" lon="-2.37055">
        <ele>49.632335</ele>
        <time>2022-12-14T13:17:53.277Z</time>
      </trkpt>
      <trkpt lat="47.80564" lon="-2.37049">
        <ele>49.578542</ele>
        <time>2022-12-14T13:17:56.303Z</time>
      </trkpt>
      <trkpt lat="47.80576" lon="-2.37042">
        <ele>49.51912</ele>
        <time>2022-12-14T13:17:59.302Z</time>
      </trkpt>
      <trkpt lat="47.80585" lon="-2.37037">
        <ele>49.479193</ele>
        <time>2022-12-14T13:18:01.298Z</time>
      </trkpt>
      <trkpt lat="47.80596" lon="-2.37031">
        <ele>49.426424</ele>
        <time>2022-12-14T13:18:04.351Z</time>
      </trkpt>
      <trkpt lat="47.80607" lon="-2.37023">
        <ele>49.373245</ele>
        <time>2022-12-14T13:18:07.298Z</time>
      </trkpt>
      <trkpt lat="47.80615" lon="-2.37017">
        <ele>49.332324</ele>
        <time>2022-12-14T13:18:09.293Z</time>
      </trkpt>
      <trkpt lat="47.80624" lon="-2.37011">
        <ele>49.287545</ele>
        <time>2022-12-14T13:18:11.289Z</time>
      </trkpt>
      <trkpt lat="47.80634" lon="-2.37005">
        <ele>49.241448</ele>
        <time>2022-12-14T13:18:13.297Z</time>
      </trkpt>
      <trkpt lat="47.80646" lon="-2.36998">
        <ele>49.182833</ele>
        <time>2022-12-14T13:18:16.355Z</time>
      </trkpt>
      <trkpt lat="47.80658" lon="-2.36991">
        <ele>49.124659</ele>
        <time>2022-12-14T13:18:19.300Z</time>
      </trkpt>
      <trkpt lat="47.80667" lon="-2.36984">
        <ele>49.081866</ele>
        <time>2022-12-14T13:18:21.301Z</time>
      </trkpt>
      <trkpt lat="47.80674" lon="-2.36977">
        <ele>49.041567</ele>
        <time>2022-12-14T13:18:23.337Z</time>
      </trkpt>
      <trkpt lat="47.80682" lon="-2.36969">
        <ele>48.998748</ele>
        <time>2022-12-14T13:18:25.283Z</time>
      </trkpt>
      <trkpt lat="47.80693" lon="-2.36957">
        <ele>49.145069</ele>
        <time>2022-12-14T13:18:28.290Z</time>
      </trkpt>
      <trkpt lat="47.80701" lon="-2.36949">
        <ele>49.388044</ele>
        <time>2022-12-14T13:18:30.302Z</time>
      </trkpt>
      <trkpt lat="47.8071" lon="-2.36938">
        <ele>49.70361</ele>
        <time>2022-12-14T13:18:33.291Z</time>
      </trkpt>
      <trkpt lat="47.80717" lon="-2.36926">
        <ele>49.973557</ele>
        <time>2022-12-14T13:18:36.302Z</time>
      </trkpt>
      <trkpt lat="47.80724" lon="-2.36911">
        <ele>50.289493</ele>
        <time>2022-12-14T13:18:39.302Z</time>
      </trkpt>
      <trkpt lat="47.8073" lon="-2.36894">
        <ele>50.607063</ele>
        <time>2022-12-14T13:18:42.303Z</time>
      </trkpt>
      <trkpt lat="47.80736" lon="-2.36877">
        <ele>50.946955</ele>
        <time>2022-12-14T13:18:45.302Z</time>
      </trkpt>
      <trkpt lat="47.80741" lon="-2.36859">
        <ele>51.282755</ele>
        <time>2022-12-14T13:18:48.303Z</time>
      </trkpt>
      <trkpt lat="47.80744" lon="-2.36841">
        <ele>51.615341</ele>
        <time>2022-12-14T13:18:51.305Z</time>
      </trkpt>
      <trkpt lat="47.80746" lon="-2.36822">
        <ele>51.940796</ele>
        <time>2022-12-14T13:18:54.301Z</time>
      </trkpt>
      <trkpt lat="47.80746" lon="-2.36804">
        <ele>52.248885</ele>
        <time>2022-12-14T13:18:57.302Z</time>
      </trkpt>
      <trkpt lat="47.80748" lon="-2.36787">
        <ele>52.551464</ele>
        <time>2022-12-14T13:19:00.302Z</time>
      </trkpt>
      <trkpt lat="47.80748" lon="-2.3677">
        <ele>52.847551</ele>
        <time>2022-12-14T13:19:03.322Z</time>
      </trkpt>
      <trkpt lat="47.80749" lon="-2.36751">
        <ele>53.166513</ele>
        <time>2022-12-14T13:19:06.302Z</time>
      </trkpt>
      <trkpt lat="47.8075" lon="-2.36732">
        <ele>53.503773</ele>
        <time>2022-12-14T13:19:09.285Z</time>
      </trkpt>
      <trkpt lat="47.80751" lon="-2.36714">
        <ele>53.585091</ele>
        <time>2022-12-14T13:19:12.303Z</time>
      </trkpt>
      <trkpt lat="47.80753" lon="-2.36697">
        <ele>53.560998</ele>
        <time>2022-12-14T13:19:15.304Z</time>
      </trkpt>
      <trkpt lat="47.80755" lon="-2.36677">
        <ele>53.533931</ele>
        <time>2022-12-14T13:19:18.305Z</time>
      </trkpt>
      <trkpt lat="47.80755" lon="-2.36659">
        <ele>53.508971</ele>
        <time>2022-12-14T13:19:21.304Z</time>
      </trkpt>
      <trkpt lat="47.80756" lon="-2.36642">
        <ele>53.484704</ele>
        <time>2022-12-14T13:19:24.293Z</time>
      </trkpt>
      <trkpt lat="47.80758" lon="-2.36623">
        <ele>53.458816</ele>
        <time>2022-12-14T13:19:27.303Z</time>
      </trkpt>
      <trkpt lat="47.80758" lon="-2.36606">
        <ele>53.434034</ele>
        <time>2022-12-14T13:19:30.304Z</time>
      </trkpt>
      <trkpt lat="47.80759" lon="-2.36589">
        <ele>53.410669</ele>
        <time>2022-12-14T13:19:33.291Z</time>
      </trkpt>
      <trkpt lat="47.8076" lon="-2.36572">
        <ele>53.3869</ele>
        <time>2022-12-14T13:19:36.318Z</time>
      </trkpt>
      <trkpt lat="47.80761" lon="-2.36554">
        <ele>53.361662</ele>
        <time>2022-12-14T13:19:39.304Z</time>
      </trkpt>
      <trkpt lat="47.80761" lon="-2.36537">
        <ele>53.338834</ele>
        <time>2022-12-14T13:19:42.306Z</time>
      </trkpt>
      <trkpt lat="47.80761" lon="-2.36521">
        <ele>53.316164</ele>
        <time>2022-12-14T13:19:45.291Z</time>
      </trkpt>
      <trkpt lat="47.80762" lon="-2.36506">
        <ele>53.295142</ele>
        <time>2022-12-14T13:19:48.303Z</time>
      </trkpt>
      <trkpt lat="47.80762" lon="-2.36491">
        <ele>53.274144</ele>
        <time>2022-12-14T13:19:51.305Z</time>
      </trkpt>
      <trkpt lat="47.80761" lon="-2.36475">
        <ele>53.252403</ele>
        <time>2022-12-14T13:19:54.298Z</time>
      </trkpt>
      <trkpt lat="47.80761" lon="-2.36458">
        <ele>53.230332</ele>
        <time>2022-12-14T13:19:57.285Z</time>
      </trkpt>
      <trkpt lat="47.8076" lon="-2.36439">
        <ele>53.233743</ele>
        <time>2022-12-14T13:20:00.295Z</time>
      </trkpt>
      <trkpt lat="47.8076" lon="-2.36419">
        <ele>53.237187</ele>
        <time>2022-12-14T13:20:03.283Z</time>
      </trkpt>
      <trkpt lat="47.80761" lon="-2.36401">
        <ele>53.240508</ele>
        <time>2022-12-14T13:20:06.306Z</time>
      </trkpt>
      <trkpt lat="47.80761" lon="-2.36382">
        <ele>53.243759</ele>
        <time>2022-12-14T13:20:09.285Z</time>
      </trkpt>
      <trkpt lat="47.80762" lon="-2.36364">
        <ele>53.247025</ele>
        <time>2022-12-14T13:20:12.302Z</time>
      </trkpt>
      <trkpt lat="47.80762" lon="-2.36351">
        <ele>53.249417</ele>
        <time>2022-12-14T13:20:14.290Z</time>
      </trkpt>
      <trkpt lat="47.80762" lon="-2.36337">
        <ele>53.251825</ele>
        <time>2022-12-14T13:20:16.303Z</time>
      </trkpt>
      <trkpt lat="47.80762" lon="-2.36324">
        <ele>53.254216</ele>
        <time>2022-12-14T13:20:18.309Z</time>
      </trkpt>
      <trkpt lat="47.80762" lon="-2.36305">
        <ele>53.25766</ele>
        <time>2022-12-14T13:20:21.306Z</time>
      </trkpt>
      <trkpt lat="47.80762" lon="-2.36286">
        <ele>53.260943</ele>
        <time>2022-12-14T13:20:24.302Z</time>
      </trkpt>
      <trkpt lat="47.80762" lon="-2.36268">
        <ele>53.264226</ele>
        <time>2022-12-14T13:20:27.300Z</time>
      </trkpt>
      <trkpt lat="47.80762" lon="-2.3625">
        <ele>53.267475</ele>
        <time>2022-12-14T13:20:30.305Z</time>
      </trkpt>
      <trkpt lat="47.80763" lon="-2.36232">
        <ele>53.27055</ele>
        <time>2022-12-14T13:20:33.314Z</time>
      </trkpt>
      <trkpt lat="47.80764" lon="-2.36214">
        <ele>53.273889</ele>
        <time>2022-12-14T13:20:36.305Z</time>
      </trkpt>
      <trkpt lat="47.80764" lon="-2.36196">
        <ele>53.277013</ele>
        <time>2022-12-14T13:20:39.303Z</time>
      </trkpt>
      <trkpt lat="47.80765" lon="-2.36178">
        <ele>53.211737</ele>
        <time>2022-12-14T13:20:42.302Z</time>
      </trkpt>
      <trkpt lat="47.80766" lon="-2.36158">
        <ele>53.120241</ele>
        <time>2022-12-14T13:20:45.299Z</time>
      </trkpt>
      <trkpt lat="47.80766" lon="-2.3614">
        <ele>53.03558</ele>
        <time>2022-12-14T13:20:48.289Z</time>
      </trkpt>
      <trkpt lat="47.80767" lon="-2.36123">
        <ele>52.955226</ele>
        <time>2022-12-14T13:20:51.302Z</time>
      </trkpt>
      <trkpt lat="47.80767" lon="-2.36104">
        <ele>52.864527</ele>
        <time>2022-12-14T13:20:54.283Z</time>
      </trkpt>
      <trkpt lat="47.80767" lon="-2.36085">
        <ele>52.774204</ele>
        <time>2022-12-14T13:20:57.301Z</time>
      </trkpt>
      <trkpt lat="47.80768" lon="-2.36065">
        <ele>52.681103</ele>
        <time>2022-12-14T13:21:00.305Z</time>
      </trkpt>
      <trkpt lat="47.80769" lon="-2.36046">
        <ele>52.588772</ele>
        <time>2022-12-14T13:21:03.298Z</time>
      </trkpt>
      <trkpt lat="47.8077" lon="-2.36028">
        <ele>52.505521</ele>
        <time>2022-12-14T13:21:06.303Z</time>
      </trkpt>
      <trkpt lat="47.80772" lon="-2.36011">
        <ele>52.421995</ele>
        <time>2022-12-14T13:21:09.301Z</time>
      </trkpt>
      <trkpt lat="47.80774" lon="-2.35995">
        <ele>52.345772</ele>
        <time>2022-12-14T13:21:12.301Z</time>
      </trkpt>
      <trkpt lat="47.80776" lon="-2.35977">
        <ele>52.25766</ele>
        <time>2022-12-14T13:21:15.304Z</time>
      </trkpt>
      <trkpt lat="47.80777" lon="-2.35958">
        <ele>52.16908</ele>
        <time>2022-12-14T13:21:18.305Z</time>
      </trkpt>
      <trkpt lat="47.80779" lon="-2.35939">
        <ele>52.076911</ele>
        <time>2022-12-14T13:21:21.303Z</time>
      </trkpt>
      <trkpt lat="47.80779" lon="-2.35925">
        <ele>52.012893</ele>
        <time>2022-12-14T13:21:23.289Z</time>
      </trkpt>
      <trkpt lat="47.80781" lon="-2.35907">
        <ele>51.969989</ele>
        <time>2022-12-14T13:21:26.306Z</time>
      </trkpt>
      <trkpt lat="47.80782" lon="-2.35893">
        <ele>51.936778</ele>
        <time>2022-12-14T13:21:29.304Z</time>
      </trkpt>
      <trkpt lat="47.80784" lon="-2.35878">
        <ele>51.902475</ele>
        <time>2022-12-14T13:21:32.304Z</time>
      </trkpt>
      <trkpt lat="47.80786" lon="-2.35863">
        <ele>51.866146</ele>
        <time>2022-12-14T13:21:35.301Z</time>
      </trkpt>
      <trkpt lat="47.80787" lon="-2.35846">
        <ele>51.827537</ele>
        <time>2022-12-14T13:21:38.303Z</time>
      </trkpt>
      <trkpt lat="47.80789" lon="-2.3583">
        <ele>51.789108</ele>
        <time>2022-12-14T13:21:41.304Z</time>
      </trkpt>
      <trkpt lat="47.80791" lon="-2.35814">
        <ele>51.752396</ele>
        <time>2022-12-14T13:21:44.303Z</time>
      </trkpt>
      <trkpt lat="47.80793" lon="-2.358">
        <ele>51.716906</ele>
        <time>2022-12-14T13:21:47.304Z</time>
      </trkpt>
      <trkpt lat="47.80796" lon="-2.35785">
        <ele>51.682891</ele>
        <time>2022-12-14T13:21:50.305Z</time>
      </trkpt>
      <trkpt lat="47.80797" lon="-2.3577">
        <ele>51.647273</ele>
        <time>2022-12-14T13:21:53.303Z</time>
      </trkpt>
      <trkpt lat="47.80799" lon="-2.35755">
        <ele>51.61045</ele>
        <time>2022-12-14T13:21:56.306Z</time>
      </trkpt>
      <trkpt lat="47.80801" lon="-2.3574">
        <ele>51.575631</ele>
        <time>2022-12-14T13:21:59.306Z</time>
      </trkpt>
      <trkpt lat="47.80802" lon="-2.35724">
        <ele>51.537676</ele>
        <time>2022-12-14T13:22:02.304Z</time>
      </trkpt>
      <trkpt lat="47.80804" lon="-2.35708">
        <ele>51.499532</ele>
        <time>2022-12-14T13:22:05.306Z</time>
      </trkpt>
      <trkpt lat="47.80805" lon="-2.35691">
        <ele>51.460797</ele>
        <time>2022-12-14T13:22:08.306Z</time>
      </trkpt>
      <trkpt lat="47.80807" lon="-2.35674">
        <ele>51.421207</ele>
        <time>2022-12-14T13:22:11.302Z</time>
      </trkpt>
      <trkpt lat="47.80809" lon="-2.35659">
        <ele>51.394443</ele>
        <time>2022-12-14T13:22:14.311Z</time>
      </trkpt>
      <trkpt lat="47.8081" lon="-2.35645">
        <ele>51.427668</ele>
        <time>2022-12-14T13:22:17.304Z</time>
      </trkpt>
      <trkpt lat="47.80812" lon="-2.3563">
        <ele>51.4619</ele>
        <time>2022-12-14T13:22:20.303Z</time>
      </trkpt>
      <trkpt lat="47.80814" lon="-2.35615">
        <ele>51.49578</ele>
        <time>2022-12-14T13:22:23.304Z</time>
      </trkpt>
      <trkpt lat="47.80816" lon="-2.35599">
        <ele>51.53435</ele>
        <time>2022-12-14T13:22:26.303Z</time>
      </trkpt>
      <trkpt lat="47.80817" lon="-2.35581">
        <ele>51.575955</ele>
        <time>2022-12-14T13:22:29.303Z</time>
      </trkpt>
      <trkpt lat="47.80819" lon="-2.35563">
        <ele>51.616467</ele>
        <time>2022-12-14T13:22:32.303Z</time>
      </trkpt>
      <trkpt lat="47.80821" lon="-2.35546">
        <ele>51.655428</ele>
        <time>2022-12-14T13:22:35.300Z</time>
      </trkpt>
      <trkpt lat="47.80822" lon="-2.35531">
        <ele>51.690418</ele>
        <time>2022-12-14T13:22:38.302Z</time>
      </trkpt>
      <trkpt lat="47.80822" lon="-2.35516">
        <ele>51.724673</ele>
        <time>2022-12-14T13:22:41.302Z</time>
      </trkpt>
      <trkpt lat="47.80821" lon="-2.355">
        <ele>51.762424</ele>
        <time>2022-12-14T13:22:44.306Z</time>
      </trkpt>
      <trkpt lat="47.80819" lon="-2.35482">
        <ele>51.803304</ele>
        <time>2022-12-14T13:22:47.302Z</time>
      </trkpt>
      <trkpt lat="47.80815" lon="-2.35464">
        <ele>51.845823</ele>
        <time>2022-12-14T13:22:50.300Z</time>
      </trkpt>
      <trkpt lat="47.80812" lon="-2.35448">
        <ele>51.884248</ele>
        <time>2022-12-14T13:22:53.329Z</time>
      </trkpt>
      <trkpt lat="47.80809" lon="-2.35434">
        <ele>51.918344</ele>
        <time>2022-12-14T13:22:56.302Z</time>
      </trkpt>
      <trkpt lat="47.80805" lon="-2.35419">
        <ele>51.9538</ele>
        <time>2022-12-14T13:22:59.303Z</time>
      </trkpt>
      <trkpt lat="47.80801" lon="-2.35403">
        <ele>51.992457</ele>
        <time>2022-12-14T13:23:02.304Z</time>
      </trkpt>
      <trkpt lat="47.80798" lon="-2.35388">
        <ele>52.007484</ele>
        <time>2022-12-14T13:23:05.305Z</time>
      </trkpt>
      <trkpt lat="47.80794" lon="-2.35371">
        <ele>52.017097</ele>
        <time>2022-12-14T13:23:08.304Z</time>
      </trkpt>
      <trkpt lat="47.8079" lon="-2.35353">
        <ele>52.026483</ele>
        <time>2022-12-14T13:23:11.309Z</time>
      </trkpt>
      <trkpt lat="47.80787" lon="-2.35334">
        <ele>52.036417</ele>
        <time>2022-12-14T13:23:14.344Z</time>
      </trkpt>
      <trkpt lat="47.80783" lon="-2.35317">
        <ele>52.046066</ele>
        <time>2022-12-14T13:23:17.304Z</time>
      </trkpt>
      <trkpt lat="47.8078" lon="-2.353">
        <ele>52.055233</ele>
        <time>2022-12-14T13:23:20.350Z</time>
      </trkpt>
      <trkpt lat="47.80776" lon="-2.35282">
        <ele>52.064446</ele>
        <time>2022-12-14T13:23:23.296Z</time>
      </trkpt>
      <trkpt lat="47.80772" lon="-2.35266">
        <ele>52.073632</ele>
        <time>2022-12-14T13:23:26.348Z</time>
      </trkpt>
      <trkpt lat="47.80769" lon="-2.35248">
        <ele>52.083025</ele>
        <time>2022-12-14T13:23:29.285Z</time>
      </trkpt>
      <trkpt lat="47.80765" lon="-2.3523">
        <ele>52.092555</ele>
        <time>2022-12-14T13:23:32.347Z</time>
      </trkpt>
      <trkpt lat="47.80762" lon="-2.35216">
        <ele>52.100499</ele>
        <time>2022-12-14T13:23:35.305Z</time>
      </trkpt>
      <trkpt lat="47.80759" lon="-2.35198">
        <ele>52.109703</ele>
        <time>2022-12-14T13:23:39.304Z</time>
      </trkpt>
      <trkpt lat="47.80756" lon="-2.35182">
        <ele>52.118144</ele>
        <time>2022-12-14T13:23:42.304Z</time>
      </trkpt>
      <trkpt lat="47.80752" lon="-2.35166">
        <ele>52.127407</ele>
        <time>2022-12-14T13:23:45.289Z</time>
      </trkpt>
      <trkpt lat="47.80748" lon="-2.35148">
        <ele>52.13662</ele>
        <time>2022-12-14T13:23:48.300Z</time>
      </trkpt>
      <trkpt lat="47.80745" lon="-2.3513">
        <ele>52.20402</ele>
        <time>2022-12-14T13:23:51.302Z</time>
      </trkpt>
      <trkpt lat="47.80741" lon="-2.35112">
        <ele>52.292199</ele>
        <time>2022-12-14T13:23:54.292Z</time>
      </trkpt>
      <trkpt lat="47.80737" lon="-2.35094">
        <ele>52.380176</ele>
        <time>2022-12-14T13:23:57.310Z</time>
      </trkpt>
      <trkpt lat="47.80734" lon="-2.35081">
        <ele>52.446185</ele>
        <time>2022-12-14T13:23:59.302Z</time>
      </trkpt>
      <trkpt lat="47.80731" lon="-2.35066">
        <ele>52.514465</ele>
        <time>2022-12-14T13:24:01.303Z</time>
      </trkpt>
      <trkpt lat="47.80728" lon="-2.35052">
        <ele>52.583984</ele>
        <time>2022-12-14T13:24:03.297Z</time>
      </trkpt>
      <trkpt lat="47.80725" lon="-2.35038">
        <ele>52.652479</ele>
        <time>2022-12-14T13:24:05.301Z</time>
      </trkpt>
      <trkpt lat="47.80722" lon="-2.35024">
        <ele>52.719451</ele>
        <time>2022-12-14T13:24:07.380Z</time>
      </trkpt>
      <trkpt lat="47.80718" lon="-2.35006">
        <ele>52.808925</ele>
        <time>2022-12-14T13:24:10.301Z</time>
      </trkpt>
      <trkpt lat="47.80714" lon="-2.34987">
        <ele>52.902421</ele>
        <time>2022-12-14T13:24:13.353Z</time>
      </trkpt>
      <trkpt lat="47.80712" lon="-2.34973">
        <ele>52.965621</ele>
        <time>2022-12-14T13:24:15.298Z</time>
      </trkpt>
      <trkpt lat="47.80707" lon="-2.34955">
        <ele>53.056891</ele>
        <time>2022-12-14T13:24:18.309Z</time>
      </trkpt>
      <trkpt lat="47.80703" lon="-2.34938">
        <ele>53.139973</ele>
        <time>2022-12-14T13:24:21.309Z</time>
      </trkpt>
      <trkpt lat="47.80698" lon="-2.34921">
        <ele>53.225294</ele>
        <time>2022-12-14T13:24:24.325Z</time>
      </trkpt>
      <trkpt lat="47.80695" lon="-2.34908">
        <ele>53.291966</ele>
        <time>2022-12-14T13:24:27.303Z</time>
      </trkpt>
      <trkpt lat="47.80691" lon="-2.34893">
        <ele>53.365019</ele>
        <time>2022-12-14T13:24:30.350Z</time>
      </trkpt>
      <trkpt lat="47.80687" lon="-2.34877">
        <ele>53.368139</ele>
        <time>2022-12-14T13:24:33.300Z</time>
      </trkpt>
      <trkpt lat="47.80683" lon="-2.34861">
        <ele>53.356011</ele>
        <time>2022-12-14T13:24:36.346Z</time>
      </trkpt>
      <trkpt lat="47.80679" lon="-2.34843">
        <ele>53.343312</ele>
        <time>2022-12-14T13:24:39.309Z</time>
      </trkpt>
      <trkpt lat="47.80675" lon="-2.34825">
        <ele>53.330216</ele>
        <time>2022-12-14T13:24:42.350Z</time>
      </trkpt>
      <trkpt lat="47.80672" lon="-2.34807">
        <ele>53.316904</ele>
        <time>2022-12-14T13:24:45.306Z</time>
      </trkpt>
      <trkpt lat="47.80669" lon="-2.34789">
        <ele>53.304418</ele>
        <time>2022-12-14T13:24:48.356Z</time>
      </trkpt>
      <trkpt lat="47.80667" lon="-2.34772">
        <ele>53.292272</ele>
        <time>2022-12-14T13:24:51.304Z</time>
      </trkpt>
      <trkpt lat="47.80664" lon="-2.34755">
        <ele>53.279964</ele>
        <time>2022-12-14T13:24:54.303Z</time>
      </trkpt>
      <trkpt lat="47.80661" lon="-2.34736">
        <ele>53.266778</ele>
        <time>2022-12-14T13:24:57.304Z</time>
      </trkpt>
      <trkpt lat="47.80659" lon="-2.34717">
        <ele>53.25321</ele>
        <time>2022-12-14T13:25:00.302Z</time>
      </trkpt>
      <trkpt lat="47.80656" lon="-2.34698">
        <ele>53.239777</ele>
        <time>2022-12-14T13:25:03.291Z</time>
      </trkpt>
      <trkpt lat="47.80654" lon="-2.34685">
        <ele>53.230312</ele>
        <time>2022-12-14T13:25:05.352Z</time>
      </trkpt>
      <trkpt lat="47.80651" lon="-2.34666">
        <ele>53.21665</ele>
        <time>2022-12-14T13:25:08.307Z</time>
      </trkpt>
      <trkpt lat="47.80648" lon="-2.34647">
        <ele>53.203397</ele>
        <time>2022-12-14T13:25:11.348Z</time>
      </trkpt>
      <trkpt lat="47.80645" lon="-2.34631">
        <ele>53.192149</ele>
        <time>2022-12-14T13:25:14.291Z</time>
      </trkpt>
      <trkpt lat="47.80642" lon="-2.34615">
        <ele>53.14162</ele>
        <time>2022-12-14T13:25:17.357Z</time>
      </trkpt>
      <trkpt lat="47.80639" lon="-2.34597">
        <ele>53.088468</ele>
        <time>2022-12-14T13:25:20.305Z</time>
      </trkpt>
      <trkpt lat="47.80635" lon="-2.34579">
        <ele>53.03232</ele>
        <time>2022-12-14T13:25:23.345Z</time>
      </trkpt>
      <trkpt lat="47.80631" lon="-2.34564">
        <ele>52.986669</ele>
        <time>2022-12-14T13:25:25.300Z</time>
      </trkpt>
      <trkpt lat="47.80628" lon="-2.34551">
        <ele>52.945574</ele>
        <time>2022-12-14T13:25:27.307Z</time>
      </trkpt>
      <trkpt lat="47.80624" lon="-2.34538">
        <ele>52.904916</ele>
        <time>2022-12-14T13:25:29.352Z</time>
      </trkpt>
      <trkpt lat="47.80621" lon="-2.34523">
        <ele>52.858719</ele>
        <time>2022-12-14T13:25:32.297Z</time>
      </trkpt>
      <trkpt lat="47.80618" lon="-2.34506">
        <ele>52.807323</ele>
        <time>2022-12-14T13:25:35.350Z</time>
      </trkpt>
      <trkpt lat="47.80615" lon="-2.34487">
        <ele>52.74962</ele>
        <time>2022-12-14T13:25:38.304Z</time>
      </trkpt>
      <trkpt lat="47.80611" lon="-2.34468">
        <ele>52.692419</ele>
        <time>2022-12-14T13:25:41.355Z</time>
      </trkpt>
      <trkpt lat="47.80608" lon="-2.34454">
        <ele>52.649673</ele>
        <time>2022-12-14T13:25:43.322Z</time>
      </trkpt>
      <trkpt lat="47.80605" lon="-2.3444">
        <ele>52.606512</ele>
        <time>2022-12-14T13:25:45.310Z</time>
      </trkpt>
      <trkpt lat="47.80602" lon="-2.34425">
        <ele>52.562091</ele>
        <time>2022-12-14T13:25:47.352Z</time>
      </trkpt>
      <trkpt lat="47.806" lon="-2.34412">
        <ele>52.521185</ele>
        <time>2022-12-14T13:25:49.288Z</time>
      </trkpt>
      <trkpt lat="47.80596" lon="-2.34395">
        <ele>52.468845</ele>
        <time>2022-12-14T13:25:52.310Z</time>
      </trkpt>
      <trkpt lat="47.80591" lon="-2.34384">
        <ele>52.429793</ele>
        <time>2022-12-14T13:25:54.306Z</time>
      </trkpt>
      <trkpt lat="47.80586" lon="-2.34369">
        <ele>52.391263</ele>
        <time>2022-12-14T13:25:57.305Z</time>
      </trkpt>
      <trkpt lat="47.80579" lon="-2.34354">
        <ele>52.358224</ele>
        <time>2022-12-14T13:26:00.305Z</time>
      </trkpt>
      <trkpt lat="47.80572" lon="-2.3434">
        <ele>52.326695</ele>
        <time>2022-12-14T13:26:03.317Z</time>
      </trkpt>
      <trkpt lat="47.80565" lon="-2.34323">
        <ele>52.29137</ele>
        <time>2022-12-14T13:26:06.303Z</time>
      </trkpt>
      <trkpt lat="47.8056" lon="-2.34311">
        <ele>52.265279</ele>
        <time>2022-12-14T13:26:08.314Z</time>
      </trkpt>
      <trkpt lat="47.80556" lon="-2.34299">
        <ele>52.240214</ele>
        <time>2022-12-14T13:26:10.354Z</time>
      </trkpt>
      <trkpt lat="47.8055" lon="-2.34281">
        <ele>52.203851</ele>
        <time>2022-12-14T13:26:13.283Z</time>
      </trkpt>
      <trkpt lat="47.80545" lon="-2.34263">
        <ele>52.168357</ele>
        <time>2022-12-14T13:26:16.306Z</time>
      </trkpt>
      <trkpt lat="47.80541" lon="-2.34248">
        <ele>52.136986</ele>
        <time>2022-12-14T13:26:19.312Z</time>
      </trkpt>
      <trkpt lat="47.80536" lon="-2.34235">
        <ele>52.111005</ele>
        <time>2022-12-14T13:26:21.352Z</time>
      </trkpt>
      <trkpt lat="47.80532" lon="-2.34223">
        <ele>52.085206</ele>
        <time>2022-12-14T13:26:23.288Z</time>
      </trkpt>
      <trkpt lat="47.80528" lon="-2.3421">
        <ele>52.059857</ele>
        <time>2022-12-14T13:26:25.312Z</time>
      </trkpt>
      <trkpt lat="47.80522" lon="-2.34193">
        <ele>52.023695</ele>
        <time>2022-12-14T13:26:28.290Z</time>
      </trkpt>
      <trkpt lat="47.80516" lon="-2.34176">
        <ele>51.989416</ele>
        <time>2022-12-14T13:26:31.306Z</time>
      </trkpt>
      <trkpt lat="47.80512" lon="-2.3416">
        <ele>51.958336</ele>
        <time>2022-12-14T13:26:34.293Z</time>
      </trkpt>
      <trkpt lat="47.80507" lon="-2.34145">
        <ele>51.926752</ele>
        <time>2022-12-14T13:26:37.304Z</time>
      </trkpt>
      <trkpt lat="47.80501" lon="-2.34127">
        <ele>51.901437</ele>
        <time>2022-12-14T13:26:40.303Z</time>
      </trkpt>
      <trkpt lat="47.80495" lon="-2.3411">
        <ele>51.879206</ele>
        <time>2022-12-14T13:26:43.300Z</time>
      </trkpt>
      <trkpt lat="47.8049" lon="-2.34094">
        <ele>51.858599</ele>
        <time>2022-12-14T13:26:46.305Z</time>
      </trkpt>
      <trkpt lat="47.80485" lon="-2.34081">
        <ele>51.840927</ele>
        <time>2022-12-14T13:26:49.304Z</time>
      </trkpt>
      <trkpt lat="47.8048" lon="-2.34068">
        <ele>51.822215</ele>
        <time>2022-12-14T13:26:52.297Z</time>
      </trkpt>
      <trkpt lat="47.80473" lon="-2.34055">
        <ele>51.803167</ele>
        <time>2022-12-14T13:26:55.349Z</time>
      </trkpt>
      <trkpt lat="47.80467" lon="-2.34042">
        <ele>51.784845</ele>
        <time>2022-12-14T13:26:58.312Z</time>
      </trkpt>
      <trkpt lat="47.8046" lon="-2.34029">
        <ele>51.765623</ele>
        <time>2022-12-14T13:27:01.304Z</time>
      </trkpt>
      <trkpt lat="47.80453" lon="-2.34015">
        <ele>51.745438</ele>
        <time>2022-12-14T13:27:04.308Z</time>
      </trkpt>
      <trkpt lat="47.80445" lon="-2.34">
        <ele>51.722586</ele>
        <time>2022-12-14T13:27:07.293Z</time>
      </trkpt>
      <trkpt lat="47.8044" lon="-2.33989">
        <ele>51.706384</ele>
        <time>2022-12-14T13:27:09.305Z</time>
      </trkpt>
      <trkpt lat="47.80434" lon="-2.33978">
        <ele>51.69058</ele>
        <time>2022-12-14T13:27:11.306Z</time>
      </trkpt>
      <trkpt lat="47.80427" lon="-2.33962">
        <ele>51.667582</ele>
        <time>2022-12-14T13:27:14.304Z</time>
      </trkpt>
      <trkpt lat="47.80421" lon="-2.33948">
        <ele>51.647308</ele>
        <time>2022-12-14T13:27:17.318Z</time>
      </trkpt>
      <trkpt lat="47.80414" lon="-2.33935">
        <ele>51.629058</ele>
        <time>2022-12-14T13:27:20.314Z</time>
      </trkpt>
      <trkpt lat="47.80407" lon="-2.33922">
        <ele>51.608852</ele>
        <time>2022-12-14T13:27:23.319Z</time>
      </trkpt>
      <trkpt lat="47.804" lon="-2.33905">
        <ele>51.657152</ele>
        <time>2022-12-14T13:27:26.306Z</time>
      </trkpt>
      <trkpt lat="47.80392" lon="-2.33889">
        <ele>51.717855</ele>
        <time>2022-12-14T13:27:29.292Z</time>
      </trkpt>
      <trkpt lat="47.80387" lon="-2.33877">
        <ele>51.76236</ele>
        <time>2022-12-14T13:27:31.301Z</time>
      </trkpt>
      <trkpt lat="47.80382" lon="-2.33865">
        <ele>51.806639</ele>
        <time>2022-12-14T13:27:33.302Z</time>
      </trkpt>
      <trkpt lat="47.80376" lon="-2.33847">
        <ele>51.869191</ele>
        <time>2022-12-14T13:27:36.320Z</time>
      </trkpt>
      <trkpt lat="47.80368" lon="-2.3383">
        <ele>51.932997</ele>
        <time>2022-12-14T13:27:39.307Z</time>
      </trkpt>
      <trkpt lat="47.80362" lon="-2.33814">
        <ele>51.988388</ele>
        <time>2022-12-14T13:27:42.306Z</time>
      </trkpt>
      <trkpt lat="47.80357" lon="-2.338">
        <ele>52.039906</ele>
        <time>2022-12-14T13:27:45.366Z</time>
      </trkpt>
      <trkpt lat="47.80351" lon="-2.33786">
        <ele>52.088853</ele>
        <time>2022-12-14T13:27:48.304Z</time>
      </trkpt>
      <trkpt lat="47.80346" lon="-2.33771">
        <ele>52.142464</ele>
        <time>2022-12-14T13:27:51.353Z</time>
      </trkpt>
      <trkpt lat="47.8034" lon="-2.33755">
        <ele>52.198743</ele>
        <time>2022-12-14T13:27:54.302Z</time>
      </trkpt>
      <trkpt lat="47.80334" lon="-2.33738">
        <ele>52.258029</ele>
        <time>2022-12-14T13:27:57.348Z</time>
      </trkpt>
      <trkpt lat="47.80328" lon="-2.3372">
        <ele>52.320051</ele>
        <time>2022-12-14T13:28:00.303Z</time>
      </trkpt>
      <trkpt lat="47.80323" lon="-2.33702">
        <ele>52.380375</ele>
        <time>2022-12-14T13:28:03.354Z</time>
      </trkpt>
      <trkpt lat="47.80318" lon="-2.33685">
        <ele>52.432493</ele>
        <time>2022-12-14T13:28:06.316Z</time>
      </trkpt>
      <trkpt lat="47.80314" lon="-2.33668">
        <ele>52.398998</ele>
        <time>2022-12-14T13:28:09.289Z</time>
      </trkpt>
      <trkpt lat="47.8031" lon="-2.33651">
        <ele>52.364822</ele>
        <time>2022-12-14T13:28:12.303Z</time>
      </trkpt>
      <trkpt lat="47.80307" lon="-2.33634">
        <ele>52.331507</ele>
        <time>2022-12-14T13:28:15.295Z</time>
      </trkpt>
      <trkpt lat="47.80303" lon="-2.33615">
        <ele>52.295543</ele>
        <time>2022-12-14T13:28:18.302Z</time>
      </trkpt>
      <trkpt lat="47.803" lon="-2.33598">
        <ele>52.262486</ele>
        <time>2022-12-14T13:28:21.314Z</time>
      </trkpt>
      <trkpt lat="47.80298" lon="-2.33583">
        <ele>52.23199</ele>
        <time>2022-12-14T13:28:24.311Z</time>
      </trkpt>
      <trkpt lat="47.80295" lon="-2.33567">
        <ele>52.201226</ele>
        <time>2022-12-14T13:28:27.305Z</time>
      </trkpt>
      <trkpt lat="47.80292" lon="-2.3355">
        <ele>52.169437</ele>
        <time>2022-12-14T13:28:30.293Z</time>
      </trkpt>
      <trkpt lat="47.80289" lon="-2.33532">
        <ele>52.134589</ele>
        <time>2022-12-14T13:28:33.287Z</time>
      </trkpt>
      <trkpt lat="47.80288" lon="-2.33513">
        <ele>52.098238</ele>
        <time>2022-12-14T13:28:36.308Z</time>
      </trkpt>
      <trkpt lat="47.80286" lon="-2.33495">
        <ele>52.063718</ele>
        <time>2022-12-14T13:28:39.298Z</time>
      </trkpt>
      <trkpt lat="47.80286" lon="-2.33477">
        <ele>52.028701</ele>
        <time>2022-12-14T13:28:42.304Z</time>
      </trkpt>
      <trkpt lat="47.80288" lon="-2.33458">
        <ele>51.994331</ele>
        <time>2022-12-14T13:28:45.285Z</time>
      </trkpt>
      <trkpt lat="47.8029" lon="-2.3344">
        <ele>51.95924</ele>
        <time>2022-12-14T13:28:48.305Z</time>
      </trkpt>
      <trkpt lat="47.80293" lon="-2.33422">
        <ele>51.925367</ele>
        <time>2022-12-14T13:28:51.307Z</time>
      </trkpt>
      <trkpt lat="47.80297" lon="-2.33404">
        <ele>51.896152</ele>
        <time>2022-12-14T13:28:54.303Z</time>
      </trkpt>
      <trkpt lat="47.80302" lon="-2.33387">
        <ele>51.868008</ele>
        <time>2022-12-14T13:28:57.309Z</time>
      </trkpt>
      <trkpt lat="47.80306" lon="-2.3337">
        <ele>51.841875</ele>
        <time>2022-12-14T13:29:00.288Z</time>
      </trkpt>
      <trkpt lat="47.80309" lon="-2.33355">
        <ele>51.818027</ele>
        <time>2022-12-14T13:29:03.293Z</time>
      </trkpt>
      <trkpt lat="47.80313" lon="-2.3334">
        <ele>51.793822</ele>
        <time>2022-12-14T13:29:06.288Z</time>
      </trkpt>
      <trkpt lat="47.80316" lon="-2.33325">
        <ele>51.770515</ele>
        <time>2022-12-14T13:29:09.304Z</time>
      </trkpt>
      <trkpt lat="47.80318" lon="-2.33308">
        <ele>51.744813</ele>
        <time>2022-12-14T13:29:12.315Z</time>
      </trkpt>
      <trkpt lat="47.80319" lon="-2.33291">
        <ele>51.719134</ele>
        <time>2022-12-14T13:29:15.288Z</time>
      </trkpt>
      <trkpt lat="47.8032" lon="-2.33273">
        <ele>51.691986</ele>
        <time>2022-12-14T13:29:18.350Z</time>
      </trkpt>
      <trkpt lat="47.80319" lon="-2.33255">
        <ele>51.665149</ele>
        <time>2022-12-14T13:29:21.303Z</time>
      </trkpt>
      <trkpt lat="47.80317" lon="-2.33237">
        <ele>51.636279</ele>
        <time>2022-12-14T13:29:24.357Z</time>
      </trkpt>
      <trkpt lat="47.80314" lon="-2.33217">
        <ele>51.60667</ele>
        <time>2022-12-14T13:29:27.303Z</time>
      </trkpt>
      <trkpt lat="47.80312" lon="-2.33199">
        <ele>51.578051</ele>
        <time>2022-12-14T13:29:30.377Z</time>
      </trkpt>
      <trkpt lat="47.80308" lon="-2.33181">
        <ele>51.550609</ele>
        <time>2022-12-14T13:29:33.303Z</time>
      </trkpt>
      <trkpt lat="47.80304" lon="-2.33166">
        <ele>51.521111</ele>
        <time>2022-12-14T13:29:36.347Z</time>
      </trkpt>
      <trkpt lat="47.80297" lon="-2.33153">
        <ele>51.439552</ele>
        <time>2022-12-14T13:29:39.306Z</time>
      </trkpt>
      <trkpt lat="47.8029" lon="-2.33139">
        <ele>51.351942</ele>
        <time>2022-12-14T13:29:42.312Z</time>
      </trkpt>
      <trkpt lat="47.80283" lon="-2.33124">
        <ele>51.260354</ele>
        <time>2022-12-14T13:29:45.308Z</time>
      </trkpt>
      <trkpt lat="47.80274" lon="-2.33113">
        <ele>51.172572</ele>
        <time>2022-12-14T13:29:48.293Z</time>
      </trkpt>
      <trkpt lat="47.80264" lon="-2.33102">
        <ele>51.079957</ele>
        <time>2022-12-14T13:29:51.309Z</time>
      </trkpt>
      <trkpt lat="47.80252" lon="-2.33094">
        <ele>50.987084</ele>
        <time>2022-12-14T13:29:54.289Z</time>
      </trkpt>
      <trkpt lat="47.80242" lon="-2.33086">
        <ele>50.895908</ele>
        <time>2022-12-14T13:29:57.306Z</time>
      </trkpt>
      <trkpt lat="47.80231" lon="-2.33077">
        <ele>50.803035</ele>
        <time>2022-12-14T13:30:00.305Z</time>
      </trkpt>
      <trkpt lat="47.8022" lon="-2.33067">
        <ele>50.70897</ele>
        <time>2022-12-14T13:30:03.299Z</time>
      </trkpt>
      <trkpt lat="47.8021" lon="-2.33055">
        <ele>50.615539</ele>
        <time>2022-12-14T13:30:06.307Z</time>
      </trkpt>
      <trkpt lat="47.80201" lon="-2.33043">
        <ele>50.523934</ele>
        <time>2022-12-14T13:30:09.302Z</time>
      </trkpt>
      <trkpt lat="47.80192" lon="-2.33028">
        <ele>50.425607</ele>
        <time>2022-12-14T13:30:12.310Z</time>
      </trkpt>
      <trkpt lat="47.80184" lon="-2.33014">
        <ele>50.32805</ele>
        <time>2022-12-14T13:30:15.309Z</time>
      </trkpt>
      <trkpt lat="47.80175" lon="-2.33001">
        <ele>50.235752</ele>
        <time>2022-12-14T13:30:18.309Z</time>
      </trkpt>
      <trkpt lat="47.80167" lon="-2.32988">
        <ele>50.125841</ele>
        <time>2022-12-14T13:30:21.306Z</time>
      </trkpt>
      <trkpt lat="47.80159" lon="-2.32974">
        <ele>49.990036</ele>
        <time>2022-12-14T13:30:24.305Z</time>
      </trkpt>
      <trkpt lat="47.80151" lon="-2.32959">
        <ele>49.850202</ele>
        <time>2022-12-14T13:30:27.307Z</time>
      </trkpt>
      <trkpt lat="47.80144" lon="-2.32942">
        <ele>49.698625</ele>
        <time>2022-12-14T13:30:30.306Z</time>
      </trkpt>
      <trkpt lat="47.80138" lon="-2.32931">
        <ele>49.595495</ele>
        <time>2022-12-14T13:30:32.315Z</time>
      </trkpt>
      <trkpt lat="47.80128" lon="-2.32919">
        <ele>49.446543</ele>
        <time>2022-12-14T13:30:35.305Z</time>
      </trkpt>
      <trkpt lat="47.80119" lon="-2.32912">
        <ele>49.339692</ele>
        <time>2022-12-14T13:30:37.304Z</time>
      </trkpt>
      <trkpt lat="47.80108" lon="-2.32904">
        <ele>49.199958</ele>
        <time>2022-12-14T13:30:40.379Z</time>
      </trkpt>
      <trkpt lat="47.80099" lon="-2.32899">
        <ele>49.098167</ele>
        <time>2022-12-14T13:30:42.303Z</time>
      </trkpt>
      <trkpt lat="47.80091" lon="-2.32894">
        <ele>48.994831</ele>
        <time>2022-12-14T13:30:44.303Z</time>
      </trkpt>
      <trkpt lat="47.80082" lon="-2.3289">
        <ele>48.89355</ele>
        <time>2022-12-14T13:30:46.349Z</time>
      </trkpt>
      <trkpt lat="47.80073" lon="-2.32886">
        <ele>48.786713</ele>
        <time>2022-12-14T13:30:48.296Z</time>
      </trkpt>
      <trkpt lat="47.8006" lon="-2.3288">
        <ele>48.634792</ele>
        <time>2022-12-14T13:30:51.307Z</time>
      </trkpt>
      <trkpt lat="47.80051" lon="-2.32875">
        <ele>48.531713</ele>
        <time>2022-12-14T13:30:53.290Z</time>
      </trkpt>
      <trkpt lat="47.80043" lon="-2.3287">
        <ele>48.429681</ele>
        <time>2022-12-14T13:30:55.310Z</time>
      </trkpt>
      <trkpt lat="47.80034" lon="-2.32864">
        <ele>48.326866</ele>
        <time>2022-12-14T13:30:57.308Z</time>
      </trkpt>
      <trkpt lat="47.80023" lon="-2.32856">
        <ele>48.183715</ele>
        <time>2022-12-14T13:31:00.298Z</time>
      </trkpt>
      <trkpt lat="47.8001" lon="-2.32847">
        <ele>48.296211</ele>
        <time>2022-12-14T13:31:03.321Z</time>
      </trkpt>
      <trkpt lat="47.80002" lon="-2.32841">
        <ele>48.372611</ele>
        <time>2022-12-14T13:31:05.308Z</time>
      </trkpt>
      <trkpt lat="47.79994" lon="-2.32832">
        <ele>48.456711</ele>
        <time>2022-12-14T13:31:07.310Z</time>
      </trkpt>
      <trkpt lat="47.79981" lon="-2.32823">
        <ele>48.570715</ele>
        <time>2022-12-14T13:31:10.321Z</time>
      </trkpt>
      <trkpt lat="47.7997" lon="-2.32813">
        <ele>48.682983</ele>
        <time>2022-12-14T13:31:13.315Z</time>
      </trkpt>
      <trkpt lat="47.79961" lon="-2.32807">
        <ele>48.760371</ele>
        <time>2022-12-14T13:31:15.296Z</time>
      </trkpt>
      <trkpt lat="47.79953" lon="-2.328">
        <ele>48.837015</ele>
        <time>2022-12-14T13:31:17.315Z</time>
      </trkpt>
      <trkpt lat="47.79941" lon="-2.32792">
        <ele>48.947625</ele>
        <time>2022-12-14T13:31:20.354Z</time>
      </trkpt>
      <trkpt lat="47.79929" lon="-2.32786">
        <ele>49.051424</ele>
        <time>2022-12-14T13:31:23.305Z</time>
      </trkpt>
      <trkpt lat="47.79917" lon="-2.32779">
        <ele>49.159687</ele>
        <time>2022-12-14T13:31:26.367Z</time>
      </trkpt>
      <trkpt lat="47.79903" lon="-2.32774">
        <ele>49.275549</ele>
        <time>2022-12-14T13:31:29.307Z</time>
      </trkpt>
      <trkpt lat="47.79894" lon="-2.32771">
        <ele>49.356344</ele>
        <time>2022-12-14T13:31:31.309Z</time>
      </trkpt>
      <trkpt lat="47.79884" lon="-2.3277">
        <ele>49.436818</ele>
        <time>2022-12-14T13:31:33.296Z</time>
      </trkpt>
      <trkpt lat="47.79875" lon="-2.32769">
        <ele>49.513339</ele>
        <time>2022-12-14T13:31:35.306Z</time>
      </trkpt>
      <trkpt lat="47.79862" lon="-2.32769">
        <ele>49.62264</ele>
        <time>2022-12-14T13:31:38.361Z</time>
      </trkpt>
      <trkpt lat="47.7985" lon="-2.32769">
        <ele>49.651018</ele>
        <time>2022-12-14T13:31:41.304Z</time>
      </trkpt>
      <trkpt lat="47.79837" lon="-2.32768">
        <ele>49.603335</ele>
        <time>2022-12-14T13:31:44.323Z</time>
      </trkpt>
      <trkpt lat="47.79827" lon="-2.32768">
        <ele>49.570361</ele>
        <time>2022-12-14T13:31:46.304Z</time>
      </trkpt>
      <trkpt lat="47.79818" lon="-2.32768">
        <ele>49.535953</ele>
        <time>2022-12-14T13:31:48.303Z</time>
      </trkpt>
      <trkpt lat="47.79809" lon="-2.32767">
        <ele>49.503139</ele>
        <time>2022-12-14T13:31:50.367Z</time>
      </trkpt>
      <trkpt lat="47.79799" lon="-2.32763">
        <ele>49.468176</ele>
        <time>2022-12-14T13:31:52.316Z</time>
      </trkpt>
      <trkpt lat="47.79791" lon="-2.32759">
        <ele>49.435678</ele>
        <time>2022-12-14T13:31:54.299Z</time>
      </trkpt>
      <trkpt lat="47.79782" lon="-2.32753">
        <ele>49.402713</ele>
        <time>2022-12-14T13:31:56.347Z</time>
      </trkpt>
      <trkpt lat="47.79772" lon="-2.32741">
        <ele>49.355694</ele>
        <time>2022-12-14T13:31:59.312Z</time>
      </trkpt>
      <trkpt lat="47.79762" lon="-2.3273">
        <ele>49.312692</ele>
        <time>2022-12-14T13:32:02.360Z</time>
      </trkpt>
      <trkpt lat="47.79753" lon="-2.3272">
        <ele>49.27057</ele>
        <time>2022-12-14T13:32:05.304Z</time>
      </trkpt>
      <trkpt lat="47.79744" lon="-2.32708">
        <ele>49.228488</ele>
        <time>2022-12-14T13:32:08.368Z</time>
      </trkpt>
      <trkpt lat="47.79735" lon="-2.32695">
        <ele>49.183794</ele>
        <time>2022-12-14T13:32:11.304Z</time>
      </trkpt>
      <trkpt lat="47.7973" lon="-2.32683">
        <ele>49.149555</ele>
        <time>2022-12-14T13:32:13.297Z</time>
      </trkpt>
      <trkpt lat="47.7972" lon="-2.32668">
        <ele>49.100653</ele>
        <time>2022-12-14T13:32:16.303Z</time>
      </trkpt>
      <trkpt lat="47.79714" lon="-2.32658">
        <ele>49.067175</ele>
        <time>2022-12-14T13:32:18.306Z</time>
      </trkpt>
      <trkpt lat="47.79706" lon="-2.32645">
        <ele>49.037672</ele>
        <time>2022-12-14T13:32:21.289Z</time>
      </trkpt>
      <trkpt lat="47.79697" lon="-2.32633">
        <ele>49.191593</ele>
        <time>2022-12-14T13:32:24.302Z</time>
      </trkpt>
      <trkpt lat="47.79689" lon="-2.32625">
        <ele>49.322041</ele>
        <time>2022-12-14T13:32:27.305Z</time>
      </trkpt>
      <trkpt lat="47.79679" lon="-2.32616">
        <ele>49.467683</ele>
        <time>2022-12-14T13:32:30.310Z</time>
      </trkpt>
      <trkpt lat="47.79667" lon="-2.32611">
        <ele>49.632307</ele>
        <time>2022-12-14T13:32:33.288Z</time>
      </trkpt>
      <trkpt lat="47.79657" lon="-2.32609">
        <ele>49.761055</ele>
        <time>2022-12-14T13:32:35.289Z</time>
      </trkpt>
      <trkpt lat="47.79647" lon="-2.32607">
        <ele>49.883934</ele>
        <time>2022-12-14T13:32:37.308Z</time>
      </trkpt>
      <trkpt lat="47.79634" lon="-2.32603">
        <ele>50.05359</ele>
        <time>2022-12-14T13:32:40.307Z</time>
      </trkpt>
      <trkpt lat="47.79625" lon="-2.32599">
        <ele>50.172758</ele>
        <time>2022-12-14T13:32:42.303Z</time>
      </trkpt>
      <trkpt lat="47.79616" lon="-2.32596">
        <ele>50.293482</ele>
        <time>2022-12-14T13:32:44.374Z</time>
      </trkpt>
      <trkpt lat="47.79604" lon="-2.32595">
        <ele>50.455138</ele>
        <time>2022-12-14T13:32:47.313Z</time>
      </trkpt>
      <trkpt lat="47.79592" lon="-2.32596">
        <ele>50.606513</ele>
        <time>2022-12-14T13:32:50.353Z</time>
      </trkpt>
      <trkpt lat="47.79582" lon="-2.32597">
        <ele>50.725875</ele>
        <time>2022-12-14T13:32:52.306Z</time>
      </trkpt>
      <trkpt lat="47.79573" lon="-2.32598">
        <ele>50.843142</ele>
        <time>2022-12-14T13:32:54.305Z</time>
      </trkpt>
      <trkpt lat="47.79561" lon="-2.32602">
        <ele>51.006851</ele>
        <time>2022-12-14T13:32:57.308Z</time>
      </trkpt>
      <trkpt lat="47.79548" lon="-2.32607">
        <ele>51.176635</ele>
        <time>2022-12-14T13:33:00.318Z</time>
      </trkpt>
      <trkpt lat="47.79537" lon="-2.32613">
        <ele>51.325012</ele>
        <time>2022-12-14T13:33:03.292Z</time>
      </trkpt>
      <trkpt lat="47.79527" lon="-2.32619">
        <ele>51.496412</ele>
        <time>2022-12-14T13:33:06.307Z</time>
      </trkpt>
      <trkpt lat="47.79517" lon="-2.32625">
        <ele>51.672867</ele>
        <time>2022-12-14T13:33:09.318Z</time>
      </trkpt>
      <trkpt lat="47.79507" lon="-2.32632">
        <ele>51.863829</ele>
        <time>2022-12-14T13:33:12.308Z</time>
      </trkpt>
      <trkpt lat="47.79495" lon="-2.32641">
        <ele>52.069805</ele>
        <time>2022-12-14T13:33:15.316Z</time>
      </trkpt>
      <trkpt lat="47.79484" lon="-2.32651">
        <ele>52.277217</ele>
        <time>2022-12-14T13:33:18.306Z</time>
      </trkpt>
      <trkpt lat="47.79475" lon="-2.32662">
        <ele>52.475151</ele>
        <time>2022-12-14T13:33:21.315Z</time>
      </trkpt>
      <trkpt lat="47.79464" lon="-2.32673">
        <ele>52.684878</ele>
        <time>2022-12-14T13:33:24.305Z</time>
      </trkpt>
      <trkpt lat="47.79453" lon="-2.32682">
        <ele>52.898003</ele>
        <time>2022-12-14T13:33:27.309Z</time>
      </trkpt>
      <trkpt lat="47.79441" lon="-2.32691">
        <ele>53.102637</ele>
        <time>2022-12-14T13:33:30.299Z</time>
      </trkpt>
      <trkpt lat="47.7943" lon="-2.327">
        <ele>53.31301</ele>
        <time>2022-12-14T13:33:33.290Z</time>
      </trkpt>
      <trkpt lat="47.79419" lon="-2.32708">
        <ele>53.514138</ele>
        <time>2022-12-14T13:33:36.304Z</time>
      </trkpt>
      <trkpt lat="47.7941" lon="-2.32714">
        <ele>53.663082</ele>
        <time>2022-12-14T13:33:38.352Z</time>
      </trkpt>
      <trkpt lat="47.79402" lon="-2.3272">
        <ele>53.822049</ele>
        <time>2022-12-14T13:33:40.305Z</time>
      </trkpt>
      <trkpt lat="47.79393" lon="-2.32726">
        <ele>53.973123</ele>
        <time>2022-12-14T13:33:42.305Z</time>
      </trkpt>
      <trkpt lat="47.79381" lon="-2.32732">
        <ele>54.175473</ele>
        <time>2022-12-14T13:33:45.313Z</time>
      </trkpt>
      <trkpt lat="47.7937" lon="-2.32738">
        <ele>54.040653</ele>
        <time>2022-12-14T13:33:48.306Z</time>
      </trkpt>
      <trkpt lat="47.79358" lon="-2.32743">
        <ele>53.664634</ele>
        <time>2022-12-14T13:33:51.314Z</time>
      </trkpt>
      <trkpt lat="47.79346" lon="-2.32747">
        <ele>53.304218</ele>
        <time>2022-12-14T13:33:54.307Z</time>
      </trkpt>
      <trkpt lat="47.79334" lon="-2.32751">
        <ele>52.966335</ele>
        <time>2022-12-14T13:33:57.309Z</time>
      </trkpt>
      <trkpt lat="47.79321" lon="-2.32754">
        <ele>52.578626</ele>
        <time>2022-12-14T13:34:00.310Z</time>
      </trkpt>
      <trkpt lat="47.79308" lon="-2.32754">
        <ele>52.200944</ele>
        <time>2022-12-14T13:34:03.303Z</time>
      </trkpt>
      <trkpt lat="47.79296" lon="-2.32752">
        <ele>51.820838</ele>
        <time>2022-12-14T13:34:06.313Z</time>
      </trkpt>
      <trkpt lat="47.79284" lon="-2.32747">
        <ele>51.462213</ele>
        <time>2022-12-14T13:34:09.308Z</time>
      </trkpt>
      <trkpt lat="47.79272" lon="-2.32741">
        <ele>51.09181</ele>
        <time>2022-12-14T13:34:12.307Z</time>
      </trkpt>
      <trkpt lat="47.7926" lon="-2.32735">
        <ele>50.728029</ele>
        <time>2022-12-14T13:34:15.304Z</time>
      </trkpt>
      <trkpt lat="47.79248" lon="-2.32728">
        <ele>50.355579</ele>
        <time>2022-12-14T13:34:18.303Z</time>
      </trkpt>
      <trkpt lat="47.79237" lon="-2.32721">
        <ele>50.003805</ele>
        <time>2022-12-14T13:34:21.307Z</time>
      </trkpt>
      <trkpt lat="47.79228" lon="-2.32713">
        <ele>49.683307</ele>
        <time>2022-12-14T13:34:24.308Z</time>
      </trkpt>
      <trkpt lat="47.79218" lon="-2.32704">
        <ele>49.358308</ele>
        <time>2022-12-14T13:34:27.306Z</time>
      </trkpt>
      <trkpt lat="47.79208" lon="-2.32696">
        <ele>49.023737</ele>
        <time>2022-12-14T13:34:30.305Z</time>
      </trkpt>
      <trkpt lat="47.79199" lon="-2.32686">
        <ele>48.986868</ele>
        <time>2022-12-14T13:34:33.353Z</time>
      </trkpt>
      <trkpt lat="47.7919" lon="-2.32677">
        <ele>48.986916</ele>
        <time>2022-12-14T13:34:36.352Z</time>
      </trkpt>
      <trkpt lat="47.79181" lon="-2.32668">
        <ele>48.986965</ele>
        <time>2022-12-14T13:34:39.312Z</time>
      </trkpt>
      <trkpt lat="47.79172" lon="-2.32657">
        <ele>48.987019</ele>
        <time>2022-12-14T13:34:42.353Z</time>
      </trkpt>
      <trkpt lat="47.79163" lon="-2.32645">
        <ele>48.98707</ele>
        <time>2022-12-14T13:34:45.321Z</time>
      </trkpt>
      <trkpt lat="47.79156" lon="-2.32634">
        <ele>48.987116</ele>
        <time>2022-12-14T13:34:48.359Z</time>
      </trkpt>
      <trkpt lat="47.79149" lon="-2.32624">
        <ele>48.987161</ele>
        <time>2022-12-14T13:34:51.304Z</time>
      </trkpt>
      <trkpt lat="47.79141" lon="-2.32613">
        <ele>48.987207</ele>
        <time>2022-12-14T13:34:54.331Z</time>
      </trkpt>
      <trkpt lat="47.79134" lon="-2.32601">
        <ele>48.987255</ele>
        <time>2022-12-14T13:34:57.311Z</time>
      </trkpt>
      <trkpt lat="47.79126" lon="-2.32587">
        <ele>48.98731</ele>
        <time>2022-12-14T13:35:00.306Z</time>
      </trkpt>
      <trkpt lat="47.79118" lon="-2.32571">
        <ele>48.987368</ele>
        <time>2022-12-14T13:35:03.327Z</time>
      </trkpt>
      <trkpt lat="47.79111" lon="-2.32555">
        <ele>48.987426</ele>
        <time>2022-12-14T13:35:06.305Z</time>
      </trkpt>
      <trkpt lat="47.79104" lon="-2.3254">
        <ele>48.987481</ele>
        <time>2022-12-14T13:35:09.303Z</time>
      </trkpt>
      <trkpt lat="47.79098" lon="-2.32523">
        <ele>48.987537</ele>
        <time>2022-12-14T13:35:12.304Z</time>
      </trkpt>
      <trkpt lat="47.79092" lon="-2.32509">
        <ele>48.987588</ele>
        <time>2022-12-14T13:35:15.304Z</time>
      </trkpt>
      <trkpt lat="47.79087" lon="-2.32494">
        <ele>49.052186</ele>
        <time>2022-12-14T13:35:18.311Z</time>
      </trkpt>
      <trkpt lat="47.79082" lon="-2.32479">
        <ele>49.276505</ele>
        <time>2022-12-14T13:35:21.310Z</time>
      </trkpt>
      <trkpt lat="47.79078" lon="-2.32464">
        <ele>49.499387</ele>
        <time>2022-12-14T13:35:24.307Z</time>
      </trkpt>
      <trkpt lat="47.79074" lon="-2.32447">
        <ele>49.757072</ele>
        <time>2022-12-14T13:35:27.306Z</time>
      </trkpt>
      <trkpt lat="47.7907" lon="-2.32428">
        <ele>50.023328</ele>
        <time>2022-12-14T13:35:30.306Z</time>
      </trkpt>
      <trkpt lat="47.79068" lon="-2.3241">
        <ele>50.271454</ele>
        <time>2022-12-14T13:35:33.303Z</time>
      </trkpt>
      <trkpt lat="47.79067" lon="-2.32395">
        <ele>50.488158</ele>
        <time>2022-12-14T13:35:36.305Z</time>
      </trkpt>
      <trkpt lat="47.79066" lon="-2.3238">
        <ele>50.689042</ele>
        <time>2022-12-14T13:35:39.310Z</time>
      </trkpt>
      <trkpt lat="47.79063" lon="-2.32366">
        <ele>50.895947</ele>
        <time>2022-12-14T13:35:42.314Z</time>
      </trkpt>
      <trkpt lat="47.79059" lon="-2.3235">
        <ele>51.134053</ele>
        <time>2022-12-14T13:35:45.303Z</time>
      </trkpt>
      <trkpt lat="47.79054" lon="-2.32331">
        <ele>51.405954</ele>
        <time>2022-12-14T13:35:48.306Z</time>
      </trkpt>
      <trkpt lat="47.7905" lon="-2.32313">
        <ele>51.668849</ele>
        <time>2022-12-14T13:35:51.302Z</time>
      </trkpt>
      <trkpt lat="47.79046" lon="-2.32297">
        <ele>51.912986</ele>
        <time>2022-12-14T13:35:54.313Z</time>
      </trkpt>
      <trkpt lat="47.79041" lon="-2.3228">
        <ele>52.165518</ele>
        <time>2022-12-14T13:35:57.302Z</time>
      </trkpt>
      <trkpt lat="47.79036" lon="-2.32262">
        <ele>52.420848</ele>
        <time>2022-12-14T13:36:00.307Z</time>
      </trkpt>
      <trkpt lat="47.79032" lon="-2.32245">
        <ele>52.672256</ele>
        <time>2022-12-14T13:36:03.294Z</time>
      </trkpt>
      <trkpt lat="47.79026" lon="-2.3223">
        <ele>52.657536</ele>
        <time>2022-12-14T13:36:06.305Z</time>
      </trkpt>
      <trkpt lat="47.7902" lon="-2.32214">
        <ele>52.641547</ele>
        <time>2022-12-14T13:36:09.315Z</time>
      </trkpt>
      <trkpt lat="47.79014" lon="-2.32197">
        <ele>52.624925</ele>
        <time>2022-12-14T13:36:12.290Z</time>
      </trkpt>
      <trkpt lat="47.7901" lon="-2.32184">
        <ele>52.612992</ele>
        <time>2022-12-14T13:36:14.307Z</time>
      </trkpt>
      <trkpt lat="47.79005" lon="-2.32172">
        <ele>52.60089</ele>
        <time>2022-12-14T13:36:16.305Z</time>
      </trkpt>
      <trkpt lat="47.79" lon="-2.3216">
        <ele>52.58943</ele>
        <time>2022-12-14T13:36:18.292Z</time>
      </trkpt>
      <trkpt lat="47.78993" lon="-2.32144">
        <ele>52.572474</ele>
        <time>2022-12-14T13:36:21.375Z</time>
      </trkpt>
      <trkpt lat="47.78987" lon="-2.32132">
        <ele>52.560045</ele>
        <time>2022-12-14T13:36:23.303Z</time>
      </trkpt>
      <trkpt lat="47.78982" lon="-2.3212">
        <ele>52.548316</ele>
        <time>2022-12-14T13:36:25.313Z</time>
      </trkpt>
      <trkpt lat="47.78977" lon="-2.32109">
        <ele>52.536874</ele>
        <time>2022-12-14T13:36:27.359Z</time>
      </trkpt>
      <trkpt lat="47.78968" lon="-2.32096">
        <ele>52.521593</ele>
        <time>2022-12-14T13:36:30.318Z</time>
      </trkpt>
      <trkpt lat="47.78962" lon="-2.32085">
        <ele>52.508384</ele>
        <time>2022-12-14T13:36:33.318Z</time>
      </trkpt>
      <trkpt lat="47.78952" lon="-2.32074">
        <ele>52.493803</ele>
        <time>2022-12-14T13:36:36.317Z</time>
      </trkpt>
      <trkpt lat="47.78941" lon="-2.32065">
        <ele>52.477534</ele>
        <time>2022-12-14T13:36:39.311Z</time>
      </trkpt>
      <trkpt lat="47.78929" lon="-2.32057">
        <ele>52.460585</ele>
        <time>2022-12-14T13:36:42.303Z</time>
      </trkpt>
      <trkpt lat="47.7892" lon="-2.32054">
        <ele>52.449028</ele>
        <time>2022-12-14T13:36:44.377Z</time>
      </trkpt>
      <trkpt lat="47.78908" lon="-2.32046">
        <ele>52.561368</ele>
        <time>2022-12-14T13:36:47.313Z</time>
      </trkpt>
      <trkpt lat="47.78899" lon="-2.32041">
        <ele>52.672731</ele>
        <time>2022-12-14T13:36:49.315Z</time>
      </trkpt>
      <trkpt lat="47.78887" lon="-2.32033">
        <ele>52.831815</ele>
        <time>2022-12-14T13:36:52.316Z</time>
      </trkpt>
      <trkpt lat="47.78878" lon="-2.32027">
        <ele>52.954842</ele>
        <time>2022-12-14T13:36:54.296Z</time>
      </trkpt>
      <trkpt lat="47.78868" lon="-2.32022">
        <ele>53.076185</ele>
        <time>2022-12-14T13:36:56.343Z</time>
      </trkpt>
      <trkpt lat="47.78859" lon="-2.32016">
        <ele>53.198896</ele>
        <time>2022-12-14T13:36:58.311Z</time>
      </trkpt>
      <trkpt lat="47.78849" lon="-2.32011">
        <ele>53.322503</ele>
        <time>2022-12-14T13:37:00.321Z</time>
      </trkpt>
      <trkpt lat="47.78839" lon="-2.32004">
        <ele>53.455038</ele>
        <time>2022-12-14T13:37:02.363Z</time>
      </trkpt>
      <trkpt lat="47.7883" lon="-2.31997">
        <ele>53.573109</ele>
        <time>2022-12-14T13:37:04.318Z</time>
      </trkpt>
      <trkpt lat="47.78821" lon="-2.31994">
        <ele>53.686244</ele>
        <time>2022-12-14T13:37:06.302Z</time>
      </trkpt>
      <trkpt lat="47.78811" lon="-2.31987">
        <ele>53.816916</ele>
        <time>2022-12-14T13:37:08.378Z</time>
      </trkpt>
      <trkpt lat="47.78802" lon="-2.31981">
        <ele>53.937761</ele>
        <time>2022-12-14T13:37:10.320Z</time>
      </trkpt>
      <trkpt lat="47.78793" lon="-2.31976">
        <ele>54.055471</ele>
        <time>2022-12-14T13:37:12.314Z</time>
      </trkpt>
      <trkpt lat="47.78784" lon="-2.31969">
        <ele>54.17172</ele>
        <time>2022-12-14T13:37:14.372Z</time>
      </trkpt>
      <trkpt lat="47.78772" lon="-2.31963">
        <ele>54.330549</ele>
        <time>2022-12-14T13:37:17.301Z</time>
      </trkpt>
      <trkpt lat="47.78761" lon="-2.31955">
        <ele>54.479815</ele>
        <time>2022-12-14T13:37:20.360Z</time>
      </trkpt>
      <trkpt lat="47.78748" lon="-2.31947">
        <ele>54.592996</ele>
        <time>2022-12-14T13:37:23.301Z</time>
      </trkpt>
      <trkpt lat="47.7874" lon="-2.31942">
        <ele>54.55689</ele>
        <time>2022-12-14T13:37:25.307Z</time>
      </trkpt>
      <trkpt lat="47.7873" lon="-2.31936">
        <ele>54.516848</ele>
        <time>2022-12-14T13:37:27.310Z</time>
      </trkpt>
      <trkpt lat="47.78721" lon="-2.31931">
        <ele>54.478157</ele>
        <time>2022-12-14T13:37:29.305Z</time>
      </trkpt>
      <trkpt lat="47.78712" lon="-2.31926">
        <ele>54.439645</ele>
        <time>2022-12-14T13:37:31.309Z</time>
      </trkpt>
      <trkpt lat="47.78702" lon="-2.3192">
        <ele>54.398349</ele>
        <time>2022-12-14T13:37:33.293Z</time>
      </trkpt>
      <trkpt lat="47.78693" lon="-2.31915">
        <ele>54.358543</ele>
        <time>2022-12-14T13:37:35.304Z</time>
      </trkpt>
      <trkpt lat="47.78683" lon="-2.31909">
        <ele>54.317979</ele>
        <time>2022-12-14T13:37:37.306Z</time>
      </trkpt>
      <trkpt lat="47.78674" lon="-2.31903">
        <ele>54.278442</ele>
        <time>2022-12-14T13:37:39.317Z</time>
      </trkpt>
      <trkpt lat="47.78666" lon="-2.31898">
        <ele>54.242036</ele>
        <time>2022-12-14T13:37:41.309Z</time>
      </trkpt>
      <trkpt lat="47.78654" lon="-2.31891">
        <ele>54.191775</ele>
        <time>2022-12-14T13:37:44.308Z</time>
      </trkpt>
      <trkpt lat="47.78642" lon="-2.31884">
        <ele>54.143788</ele>
        <time>2022-12-14T13:37:47.317Z</time>
      </trkpt>
      <trkpt lat="47.78632" lon="-2.31878">
        <ele>54.101485</ele>
        <time>2022-12-14T13:37:50.308Z</time>
      </trkpt>
      <trkpt lat="47.78623" lon="-2.31873">
        <ele>54.05974</ele>
        <time>2022-12-14T13:37:53.298Z</time>
      </trkpt>
      <trkpt lat="47.78612" lon="-2.31867">
        <ele>54.014185</ele>
        <time>2022-12-14T13:37:56.305Z</time>
      </trkpt>
      <trkpt lat="47.78601" lon="-2.3186">
        <ele>53.96863</ele>
        <time>2022-12-14T13:37:59.306Z</time>
      </trkpt>
      <trkpt lat="47.78591" lon="-2.31852">
        <ele>53.923906</ele>
        <time>2022-12-14T13:38:02.306Z</time>
      </trkpt>
      <trkpt lat="47.78581" lon="-2.31844">
        <ele>53.858655</ele>
        <time>2022-12-14T13:38:05.306Z</time>
      </trkpt>
      <trkpt lat="47.78569" lon="-2.31836">
        <ele>53.753669</ele>
        <time>2022-12-14T13:38:08.312Z</time>
      </trkpt>
      <trkpt lat="47.78557" lon="-2.31827">
        <ele>53.642634</ele>
        <time>2022-12-14T13:38:11.319Z</time>
      </trkpt>
      <trkpt lat="47.78548" lon="-2.31821">
        <ele>53.561208</ele>
        <time>2022-12-14T13:38:13.293Z</time>
      </trkpt>
      <trkpt lat="47.78539" lon="-2.31816">
        <ele>53.484174</ele>
        <time>2022-12-14T13:38:15.379Z</time>
      </trkpt>
      <trkpt lat="47.7853" lon="-2.3181">
        <ele>53.402748</ele>
        <time>2022-12-14T13:38:17.307Z</time>
      </trkpt>
      <trkpt lat="47.78521" lon="-2.31804">
        <ele>53.323797</ele>
        <time>2022-12-14T13:38:19.316Z</time>
      </trkpt>
      <trkpt lat="47.78508" lon="-2.31797">
        <ele>53.212633</ele>
        <time>2022-12-14T13:38:22.310Z</time>
      </trkpt>
      <trkpt lat="47.78496" lon="-2.31789">
        <ele>53.103721</ele>
        <time>2022-12-14T13:38:25.306Z</time>
      </trkpt>
      <trkpt lat="47.78483" lon="-2.31783">
        <ele>52.99845</ele>
        <time>2022-12-14T13:38:28.306Z</time>
      </trkpt>
      <trkpt lat="47.78471" lon="-2.31777">
        <ele>52.891121</ele>
        <time>2022-12-14T13:38:31.316Z</time>
      </trkpt>
      <trkpt lat="47.78462" lon="-2.31773">
        <ele>52.814224</ele>
        <time>2022-12-14T13:38:33.323Z</time>
      </trkpt>
      <trkpt lat="47.78453" lon="-2.31768">
        <ele>52.738157</ele>
        <time>2022-12-14T13:38:35.317Z</time>
      </trkpt>
      <trkpt lat="47.78444" lon="-2.31763">
        <ele>52.659206</ele>
        <time>2022-12-14T13:38:37.308Z</time>
      </trkpt>
      <trkpt lat="47.78434" lon="-2.31758">
        <ele>52.574919</ele>
        <time>2022-12-14T13:38:39.369Z</time>
      </trkpt>
      <trkpt lat="47.78425" lon="-2.31754">
        <ele>52.49381</ele>
        <time>2022-12-14T13:38:41.316Z</time>
      </trkpt>
      <trkpt lat="47.78416" lon="-2.31749">
        <ele>52.430076</ele>
        <time>2022-12-14T13:38:43.295Z</time>
      </trkpt>
      <trkpt lat="47.78408" lon="-2.31745">
        <ele>52.419025</ele>
        <time>2022-12-14T13:38:45.400Z</time>
      </trkpt>
      <trkpt lat="47.78399" lon="-2.3174">
        <ele>52.407835</ele>
        <time>2022-12-14T13:38:47.322Z</time>
      </trkpt>
      <trkpt lat="47.78386" lon="-2.31734">
        <ele>52.391619</ele>
        <time>2022-12-14T13:38:50.317Z</time>
      </trkpt>
      <trkpt lat="47.78377" lon="-2.31729">
        <ele>52.380171</ele>
        <time>2022-12-14T13:38:52.318Z</time>
      </trkpt>
      <trkpt lat="47.78369" lon="-2.31723">
        <ele>52.368509</ele>
        <time>2022-12-14T13:38:54.315Z</time>
      </trkpt>
      <trkpt lat="47.78359" lon="-2.31719">
        <ele>52.356279</ele>
        <time>2022-12-14T13:38:56.307Z</time>
      </trkpt>
      <trkpt lat="47.78349" lon="-2.31714">
        <ele>52.344035</ele>
        <time>2022-12-14T13:38:58.307Z</time>
      </trkpt>
      <trkpt lat="47.7834" lon="-2.31709">
        <ele>52.332105</ele>
        <time>2022-12-14T13:39:00.306Z</time>
      </trkpt>
      <trkpt lat="47.78331" lon="-2.31703">
        <ele>52.320201</ele>
        <time>2022-12-14T13:39:02.307Z</time>
      </trkpt>
      <trkpt lat="47.78322" lon="-2.31698">
        <ele>52.307873</ele>
        <time>2022-12-14T13:39:04.296Z</time>
      </trkpt>
      <trkpt lat="47.78312" lon="-2.31693">
        <ele>52.29506</ele>
        <time>2022-12-14T13:39:06.318Z</time>
      </trkpt>
      <trkpt lat="47.78302" lon="-2.31688">
        <ele>52.282587</ele>
        <time>2022-12-14T13:39:08.306Z</time>
      </trkpt>
      <trkpt lat="47.78293" lon="-2.31682">
        <ele>52.270014</ele>
        <time>2022-12-14T13:39:10.317Z</time>
      </trkpt>
      <trkpt lat="47.78283" lon="-2.31676">
        <ele>52.257116</ele>
        <time>2022-12-14T13:39:12.305Z</time>
      </trkpt>
      <trkpt lat="47.78273" lon="-2.3167">
        <ele>52.244047</ele>
        <time>2022-12-14T13:39:14.350Z</time>
      </trkpt>
      <trkpt lat="47.78262" lon="-2.31665">
        <ele>52.230651</ele>
        <time>2022-12-14T13:39:16.307Z</time>
      </trkpt>
      <trkpt lat="47.78252" lon="-2.3166">
        <ele>52.217496</ele>
        <time>2022-12-14T13:39:18.310Z</time>
      </trkpt>
      <trkpt lat="47.78242" lon="-2.31656">
        <ele>52.188786</ele>
        <time>2022-12-14T13:39:20.359Z</time>
      </trkpt>
      <trkpt lat="47.78231" lon="-2.31653">
        <ele>52.153248</ele>
        <time>2022-12-14T13:39:22.306Z</time>
      </trkpt>
      <trkpt lat="47.78222" lon="-2.3165">
        <ele>52.119835</ele>
        <time>2022-12-14T13:39:24.316Z</time>
      </trkpt>
      <trkpt lat="47.78212" lon="-2.31648">
        <ele>52.085224</ele>
        <time>2022-12-14T13:39:26.352Z</time>
      </trkpt>
      <trkpt lat="47.78202" lon="-2.31647">
        <ele>52.051089</ele>
        <time>2022-12-14T13:39:28.296Z</time>
      </trkpt>
      <trkpt lat="47.78192" lon="-2.31643">
        <ele>52.016337</ele>
        <time>2022-12-14T13:39:30.308Z</time>
      </trkpt>
      <trkpt lat="47.78182" lon="-2.3164">
        <ele>51.980531</ele>
        <time>2022-12-14T13:39:32.318Z</time>
      </trkpt>
      <trkpt lat="47.78172" lon="-2.31637">
        <ele>51.946626</ele>
        <time>2022-12-14T13:39:34.305Z</time>
      </trkpt>
      <trkpt lat="47.78163" lon="-2.31631">
        <ele>51.911101</ele>
        <time>2022-12-14T13:39:36.307Z</time>
      </trkpt>
      <trkpt lat="47.78153" lon="-2.31627">
        <ele>51.875851</ele>
        <time>2022-12-14T13:39:38.308Z</time>
      </trkpt>
      <trkpt lat="47.78143" lon="-2.31621">
        <ele>51.839838</ele>
        <time>2022-12-14T13:39:40.310Z</time>
      </trkpt>
      <trkpt lat="47.78133" lon="-2.31616">
        <ele>51.802785</ele>
        <time>2022-12-14T13:39:42.308Z</time>
      </trkpt>
      <trkpt lat="47.78122" lon="-2.3161">
        <ele>51.765076</ele>
        <time>2022-12-14T13:39:44.319Z</time>
      </trkpt>
      <trkpt lat="47.78112" lon="-2.31605">
        <ele>51.726319</ele>
        <time>2022-12-14T13:39:46.318Z</time>
      </trkpt>
      <trkpt lat="47.78101" lon="-2.31599">
        <ele>51.687256</ele>
        <time>2022-12-14T13:39:48.317Z</time>
      </trkpt>
      <trkpt lat="47.78091" lon="-2.31593">
        <ele>51.6496</ele>
        <time>2022-12-14T13:39:50.313Z</time>
      </trkpt>
      <trkpt lat="47.78081" lon="-2.31587">
        <ele>51.613826</ele>
        <time>2022-12-14T13:39:52.314Z</time>
      </trkpt>
      <trkpt lat="47.78072" lon="-2.31581">
        <ele>51.560316</ele>
        <time>2022-12-14T13:39:54.299Z</time>
      </trkpt>
      <trkpt lat="47.78064" lon="-2.31576">
        <ele>51.48922</ele>
        <time>2022-12-14T13:39:56.306Z</time>
      </trkpt>
      <trkpt lat="47.78055" lon="-2.31569">
        <ele>51.414247</ele>
        <time>2022-12-14T13:39:58.309Z</time>
      </trkpt>
      <trkpt lat="47.78046" lon="-2.31562">
        <ele>51.338799</ele>
        <time>2022-12-14T13:40:00.311Z</time>
      </trkpt>
      <trkpt lat="47.78037" lon="-2.31555">
        <ele>51.258933</ele>
        <time>2022-12-14T13:40:02.307Z</time>
      </trkpt>
      <trkpt lat="47.78028" lon="-2.31546">
        <ele>51.177094</ele>
        <time>2022-12-14T13:40:04.308Z</time>
      </trkpt>
      <trkpt lat="47.78019" lon="-2.31538">
        <ele>51.093698</ele>
        <time>2022-12-14T13:40:06.316Z</time>
      </trkpt>
      <trkpt lat="47.78009" lon="-2.31529">
        <ele>51.004897</ele>
        <time>2022-12-14T13:40:08.309Z</time>
      </trkpt>
      <trkpt lat="47.78" lon="-2.31522">
        <ele>50.928627</ele>
        <time>2022-12-14T13:40:10.316Z</time>
      </trkpt>
      <trkpt lat="47.77992" lon="-2.31514">
        <ele>50.850854</ele>
        <time>2022-12-14T13:40:12.318Z</time>
      </trkpt>
      <trkpt lat="47.77984" lon="-2.31505">
        <ele>50.776323</ele>
        <time>2022-12-14T13:40:14.311Z</time>
      </trkpt>
      <trkpt lat="47.77977" lon="-2.31498">
        <ele>50.707518</ele>
        <time>2022-12-14T13:40:16.308Z</time>
      </trkpt>
      <trkpt lat="47.77969" lon="-2.31491">
        <ele>50.637585</ele>
        <time>2022-12-14T13:40:18.308Z</time>
      </trkpt>
      <trkpt lat="47.77958" lon="-2.31481">
        <ele>50.541775</ele>
        <time>2022-12-14T13:40:21.313Z</time>
      </trkpt>
      <trkpt lat="47.77948" lon="-2.31471">
        <ele>50.448986</ele>
        <time>2022-12-14T13:40:24.316Z</time>
      </trkpt>
      <trkpt lat="47.77938" lon="-2.31461">
        <ele>50.35464</ele>
        <time>2022-12-14T13:40:27.313Z</time>
      </trkpt>
      <trkpt lat="47.77926" lon="-2.31453">
        <ele>50.257879</ele>
        <time>2022-12-14T13:40:30.310Z</time>
      </trkpt>
      <trkpt lat="47.77919" lon="-2.31446">
        <ele>50.210086</ele>
        <time>2022-12-14T13:40:32.307Z</time>
      </trkpt>
      <trkpt lat="47.77906" lon="-2.31437">
        <ele>50.189171</ele>
        <time>2022-12-14T13:40:35.313Z</time>
      </trkpt>
      <trkpt lat="47.77898" lon="-2.3143">
        <ele>50.17508</ele>
        <time>2022-12-14T13:40:37.378Z</time>
      </trkpt>
      <trkpt lat="47.7789" lon="-2.31423">
        <ele>50.16053</ele>
        <time>2022-12-14T13:40:39.318Z</time>
      </trkpt>
      <trkpt lat="47.77881" lon="-2.31416">
        <ele>50.145597</ele>
        <time>2022-12-14T13:40:41.308Z</time>
      </trkpt>
      <trkpt lat="47.77871" lon="-2.3141">
        <ele>50.129582</ele>
        <time>2022-12-14T13:40:43.360Z</time>
      </trkpt>
      <trkpt lat="47.77862" lon="-2.31405">
        <ele>50.114898</ele>
        <time>2022-12-14T13:40:45.309Z</time>
      </trkpt>
      <trkpt lat="47.77852" lon="-2.31402">
        <ele>50.1002</ele>
        <time>2022-12-14T13:40:47.316Z</time>
      </trkpt>
      <trkpt lat="47.77843" lon="-2.31401">
        <ele>50.085855</ele>
        <time>2022-12-14T13:40:49.298Z</time>
      </trkpt>
      <trkpt lat="47.77834" lon="-2.31404">
        <ele>50.072083</ele>
        <time>2022-12-14T13:40:51.308Z</time>
      </trkpt>
      <trkpt lat="47.77821" lon="-2.31404">
        <ele>50.053092</ele>
        <time>2022-12-14T13:40:54.322Z</time>
      </trkpt>
      <trkpt lat="47.77807" lon="-2.31408">
        <ele>50.031857</ele>
        <time>2022-12-14T13:40:57.322Z</time>
      </trkpt>
      <trkpt lat="47.77798" lon="-2.3141">
        <ele>50.017604</ele>
        <time>2022-12-14T13:40:59.304Z</time>
      </trkpt>
      <trkpt lat="47.77789" lon="-2.31414">
        <ele>50.00352</ele>
        <time>2022-12-14T13:41:01.309Z</time>
      </trkpt>
      <trkpt lat="47.77777" lon="-2.31417">
        <ele>49.98451</ele>
        <time>2022-12-14T13:41:04.305Z</time>
      </trkpt>
      <trkpt lat="47.77767" lon="-2.3142">
        <ele>49.97047</ele>
        <time>2022-12-14T13:41:06.316Z</time>
      </trkpt>
      <trkpt lat="47.77758" lon="-2.31424">
        <ele>49.956167</ele>
        <time>2022-12-14T13:41:08.315Z</time>
      </trkpt>
      <trkpt lat="47.77749" lon="-2.31427">
        <ele>49.961758</ele>
        <time>2022-12-14T13:41:10.306Z</time>
      </trkpt>
      <trkpt lat="47.77737" lon="-2.31432">
        <ele>50.120525</ele>
        <time>2022-12-14T13:41:13.301Z</time>
      </trkpt>
      <trkpt lat="47.77725" lon="-2.31435">
        <ele>50.272825</ele>
        <time>2022-12-14T13:41:16.318Z</time>
      </trkpt>
      <trkpt lat="47.77714" lon="-2.3144">
        <ele>50.410913</ele>
        <time>2022-12-14T13:41:19.318Z</time>
      </trkpt>
      <trkpt lat="47.77702" lon="-2.31444">
        <ele>50.560755</ele>
        <time>2022-12-14T13:41:22.309Z</time>
      </trkpt>
      <trkpt lat="47.7769" lon="-2.31447">
        <ele>50.708701</ele>
        <time>2022-12-14T13:41:25.312Z</time>
      </trkpt>
      <trkpt lat="47.77678" lon="-2.3145">
        <ele>50.864627</ele>
        <time>2022-12-14T13:41:28.320Z</time>
      </trkpt>
      <trkpt lat="47.77668" lon="-2.31451">
        <ele>50.977772</ele>
        <time>2022-12-14T13:41:30.300Z</time>
      </trkpt>
      <trkpt lat="47.77659" lon="-2.31454">
        <ele>51.093815</ele>
        <time>2022-12-14T13:41:32.310Z</time>
      </trkpt>
      <trkpt lat="47.7765" lon="-2.31458">
        <ele>51.213825</ele>
        <time>2022-12-14T13:41:34.294Z</time>
      </trkpt>
      <trkpt lat="47.77636" lon="-2.31461">
        <ele>51.381355</ele>
        <time>2022-12-14T13:41:37.303Z</time>
      </trkpt>
      <trkpt lat="47.77624" lon="-2.31464">
        <ele>51.535655</ele>
        <time>2022-12-14T13:41:40.314Z</time>
      </trkpt>
      <trkpt lat="47.77611" lon="-2.31466">
        <ele>51.692009</ele>
        <time>2022-12-14T13:41:43.305Z</time>
      </trkpt>
      <trkpt lat="47.77602" lon="-2.31468">
        <ele>51.802441</ele>
        <time>2022-12-14T13:41:45.319Z</time>
      </trkpt>
      <trkpt lat="47.7759" lon="-2.3147">
        <ele>51.953284</ele>
        <time>2022-12-14T13:41:48.315Z</time>
      </trkpt>
      <trkpt lat="47.7758" lon="-2.31472">
        <ele>52.081979</ele>
        <time>2022-12-14T13:41:50.316Z</time>
      </trkpt>
      <trkpt lat="47.7757" lon="-2.31474">
        <ele>52.164098</ele>
        <time>2022-12-14T13:41:52.306Z</time>
      </trkpt>
      <trkpt lat="47.77559" lon="-2.31477">
        <ele>52.198002</ele>
        <time>2022-12-14T13:41:55.369Z</time>
      </trkpt>
      <trkpt lat="47.77547" lon="-2.3148">
        <ele>52.231156</ele>
        <time>2022-12-14T13:41:58.320Z</time>
      </trkpt>
      <trkpt lat="47.77536" lon="-2.31481">
        <ele>52.265026</ele>
        <time>2022-12-14T13:42:01.314Z</time>
      </trkpt>
      <trkpt lat="47.77525" lon="-2.31483">
        <ele>52.294828</ele>
        <time>2022-12-14T13:42:03.304Z</time>
      </trkpt>
      <trkpt lat="47.77512" lon="-2.31484">
        <ele>52.332949</ele>
        <time>2022-12-14T13:42:06.373Z</time>
      </trkpt>
      <trkpt lat="47.77499" lon="-2.31488">
        <ele>52.37143</ele>
        <time>2022-12-14T13:42:09.321Z</time>
      </trkpt>
      <trkpt lat="47.77486" lon="-2.31491">
        <ele>52.409312</ele>
        <time>2022-12-14T13:42:12.373Z</time>
      </trkpt>
      <trkpt lat="47.77477" lon="-2.31493">
        <ele>52.435506</ele>
        <time>2022-12-14T13:42:14.313Z</time>
      </trkpt>
      <trkpt lat="47.77467" lon="-2.31495">
        <ele>52.464561</ele>
        <time>2022-12-14T13:42:16.316Z</time>
      </trkpt>
      <trkpt lat="47.77457" lon="-2.31497">
        <ele>52.494448</ele>
        <time>2022-12-14T13:42:18.374Z</time>
      </trkpt>
      <trkpt lat="47.77444" lon="-2.31498">
        <ele>52.531379</ele>
        <time>2022-12-14T13:42:21.312Z</time>
      </trkpt>
      <trkpt lat="47.77431" lon="-2.31502">
        <ele>52.568787</ele>
        <time>2022-12-14T13:42:24.356Z</time>
      </trkpt>
      <trkpt lat="47.77419" lon="-2.31505">
        <ele>52.602626</ele>
        <time>2022-12-14T13:42:27.315Z</time>
      </trkpt>
      <trkpt lat="47.77409" lon="-2.31506">
        <ele>52.634186</ele>
        <time>2022-12-14T13:42:30.353Z</time>
      </trkpt>
      <trkpt lat="47.77395" lon="-2.31509">
        <ele>52.664686</ele>
        <time>2022-12-14T13:42:33.338Z</time>
      </trkpt>
      <trkpt lat="47.77386" lon="-2.3151">
        <ele>52.547272</ele>
        <time>2022-12-14T13:42:35.310Z</time>
      </trkpt>
      <trkpt lat="47.77373" lon="-2.31512">
        <ele>52.38546</ele>
        <time>2022-12-14T13:42:38.319Z</time>
      </trkpt>
      <trkpt lat="47.7736" lon="-2.31515">
        <ele>52.233317</ele>
        <time>2022-12-14T13:42:41.314Z</time>
      </trkpt>
      <trkpt lat="47.77347" lon="-2.31517">
        <ele>52.070666</ele>
        <time>2022-12-14T13:42:44.314Z</time>
      </trkpt>
      <trkpt lat="47.77334" lon="-2.3152">
        <ele>51.902569</ele>
        <time>2022-12-14T13:42:47.319Z</time>
      </trkpt>
      <trkpt lat="47.77324" lon="-2.31521">
        <ele>51.78663</ele>
        <time>2022-12-14T13:42:49.320Z</time>
      </trkpt>
      <trkpt lat="47.77311" lon="-2.31524">
        <ele>51.624325</ele>
        <time>2022-12-14T13:42:52.313Z</time>
      </trkpt>
      <trkpt lat="47.77298" lon="-2.31526">
        <ele>51.467396</ele>
        <time>2022-12-14T13:42:55.315Z</time>
      </trkpt>
      <trkpt lat="47.77287" lon="-2.31527">
        <ele>51.323177</ele>
        <time>2022-12-14T13:42:58.307Z</time>
      </trkpt>
      <trkpt lat="47.77277" lon="-2.31528">
        <ele>51.205233</ele>
        <time>2022-12-14T13:43:01.304Z</time>
      </trkpt>
      <trkpt lat="47.77266" lon="-2.31529">
        <ele>51.070721</ele>
        <time>2022-12-14T13:43:04.317Z</time>
      </trkpt>
      <trkpt lat="47.77255" lon="-2.3153">
        <ele>50.937994</ele>
        <time>2022-12-14T13:43:07.315Z</time>
      </trkpt>
      <trkpt lat="47.77242" lon="-2.31533">
        <ele>50.774361</ele>
        <time>2022-12-14T13:43:10.320Z</time>
      </trkpt>
      <trkpt lat="47.77233" lon="-2.31534">
        <ele>50.655531</ele>
        <time>2022-12-14T13:43:12.309Z</time>
      </trkpt>
      <trkpt lat="47.77218" lon="-2.31539">
        <ele>50.476029</ele>
        <time>2022-12-14T13:43:15.308Z</time>
      </trkpt>
      <trkpt lat="47.77208" lon="-2.31542">
        <ele>50.504808</ele>
        <time>2022-12-14T13:43:17.387Z</time>
      </trkpt>
      <trkpt lat="47.77195" lon="-2.31545">
        <ele>50.563637</ele>
        <time>2022-12-14T13:43:20.313Z</time>
      </trkpt>
      <trkpt lat="47.77183" lon="-2.31547">
        <ele>50.618554</ele>
        <time>2022-12-14T13:43:23.353Z</time>
      </trkpt>
      <trkpt lat="47.77171" lon="-2.31549">
        <ele>50.672883</ele>
        <time>2022-12-14T13:43:26.319Z</time>
      </trkpt>
      <trkpt lat="47.77158" lon="-2.31551">
        <ele>50.731858</ele>
        <time>2022-12-14T13:43:29.362Z</time>
      </trkpt>
      <trkpt lat="47.77149" lon="-2.31552">
        <ele>50.772387</ele>
        <time>2022-12-14T13:43:31.309Z</time>
      </trkpt>
      <trkpt lat="47.77139" lon="-2.31554">
        <ele>50.815541</ele>
        <time>2022-12-14T13:43:33.294Z</time>
      </trkpt>
      <trkpt lat="47.7713" lon="-2.31555">
        <ele>50.859959</ele>
        <time>2022-12-14T13:43:35.382Z</time>
      </trkpt>
      <trkpt lat="47.7712" lon="-2.31557">
        <ele>50.904046</ele>
        <time>2022-12-14T13:43:37.309Z</time>
      </trkpt>
      <trkpt lat="47.77111" lon="-2.31559">
        <ele>50.946839</ele>
        <time>2022-12-14T13:43:39.308Z</time>
      </trkpt>
      <trkpt lat="47.77101" lon="-2.31562">
        <ele>50.988743</ele>
        <time>2022-12-14T13:43:41.369Z</time>
      </trkpt>
      <trkpt lat="47.77091" lon="-2.31562">
        <ele>51.037398</ele>
        <time>2022-12-14T13:43:44.306Z</time>
      </trkpt>
      <trkpt lat="47.77081" lon="-2.31562">
        <ele>51.079718</ele>
        <time>2022-12-14T13:43:47.376Z</time>
      </trkpt>
      <trkpt lat="47.77069" lon="-2.31565">
        <ele>51.133274</ele>
        <time>2022-12-14T13:43:50.318Z</time>
      </trkpt>
      <trkpt lat="47.77059" lon="-2.31572">
        <ele>51.183844</ele>
        <time>2022-12-14T13:43:53.339Z</time>
      </trkpt>
      <trkpt lat="47.77052" lon="-2.31581">
        <ele>51.226289</ele>
        <time>2022-12-14T13:43:56.304Z</time>
      </trkpt>
      <trkpt lat="47.77042" lon="-2.31586">
        <ele>51.275233</ele>
        <time>2022-12-14T13:44:01.307Z</time>
      </trkpt>
      <trkpt lat="47.77032" lon="-2.31584">
        <ele>51.360622</ele>
        <time>2022-12-14T13:44:04.378Z</time>
      </trkpt>
      <trkpt lat="47.77021" lon="-2.31577">
        <ele>51.458908</ele>
        <time>2022-12-14T13:44:08.308Z</time>
      </trkpt>
      <trkpt lat="47.77013" lon="-2.31571">
        <ele>51.53617</ele>
        <time>2022-12-14T13:44:12.307Z</time>
      </trkpt>
      <trkpt lat="47.77003" lon="-2.31568">
        <ele>51.624804</ele>
        <time>2022-12-14T13:44:16.389Z</time>
      </trkpt>
      <trkpt lat="47.76993" lon="-2.31568">
        <ele>51.711938</ele>
        <time>2022-12-14T13:44:19.310Z</time>
      </trkpt>
      <trkpt lat="47.76982" lon="-2.31571">
        <ele>51.80213</ele>
        <time>2022-12-14T13:44:22.375Z</time>
      </trkpt>
      <trkpt lat="47.76972" lon="-2.31573">
        <ele>51.890869</ele>
        <time>2022-12-14T13:44:25.324Z</time>
      </trkpt>
      <trkpt lat="47.76961" lon="-2.31574">
        <ele>51.980796</ele>
        <time>2022-12-14T13:44:28.319Z</time>
      </trkpt>
      <trkpt lat="47.7695" lon="-2.31577">
        <ele>52.072962</ele>
        <time>2022-12-14T13:44:31.287Z</time>
      </trkpt>
      <trkpt lat="47.76938" lon="-2.31579">
        <ele>52.175962</ele>
        <time>2022-12-14T13:44:34.298Z</time>
      </trkpt>
      <trkpt lat="47.76926" lon="-2.3158">
        <ele>52.278426</ele>
        <time>2022-12-14T13:44:37.290Z</time>
      </trkpt>
      <trkpt lat="47.76915" lon="-2.31581">
        <ele>52.370979</ele>
        <time>2022-12-14T13:44:40.298Z</time>
      </trkpt>
      <trkpt lat="47.76905" lon="-2.31583">
        <ele>52.457966</ele>
        <time>2022-12-14T13:44:44.329Z</time>
      </trkpt>
      <trkpt lat="47.76896" lon="-2.31583">
        <ele>52.536672</ele>
        <time>2022-12-14T13:45:00.301Z</time>
      </trkpt>
      <trkpt lat="47.76895" lon="-2.3158">
        <ele>52.549429</ele>
        <time>2022-12-14T13:45:32.812Z</time>
      </trkpt>
      <trkpt lat="47.76882" lon="-2.31587">
        <ele>52.664224</ele>
        <time>2022-12-14T13:51:18.299Z</time>
      </trkpt>
      <trkpt lat="47.76873" lon="-2.31586">
        <ele>52.742019</ele>
        <time>2022-12-14T13:51:22.303Z</time>
      </trkpt>
      <trkpt lat="47.76864" lon="-2.31587">
        <ele>52.871341</ele>
        <time>2022-12-14T13:51:25.293Z</time>
      </trkpt>
      <trkpt lat="47.76851" lon="-2.31587">
        <ele>53.160526</ele>
        <time>2022-12-14T13:51:28.317Z</time>
      </trkpt>
      <trkpt lat="47.76839" lon="-2.31587">
        <ele>53.436304</ele>
        <time>2022-12-14T13:51:31.307Z</time>
      </trkpt>
      <trkpt lat="47.76827" lon="-2.31588">
        <ele>53.709823</ele>
        <time>2022-12-14T13:51:34.304Z</time>
      </trkpt>
      <trkpt lat="47.76816" lon="-2.31588">
        <ele>53.960616</ele>
        <time>2022-12-14T13:51:37.298Z</time>
      </trkpt>
      <trkpt lat="47.76804" lon="-2.31588">
        <ele>54.222797</ele>
        <time>2022-12-14T13:51:40.319Z</time>
      </trkpt>
      <trkpt lat="47.76792" lon="-2.31588">
        <ele>54.482627</ele>
        <time>2022-12-14T13:51:43.298Z</time>
      </trkpt>
      <trkpt lat="47.7678" lon="-2.31589">
        <ele>54.754346</ele>
        <time>2022-12-14T13:51:46.318Z</time>
      </trkpt>
      <trkpt lat="47.76768" lon="-2.3159">
        <ele>55.028426</ele>
        <time>2022-12-14T13:51:49.307Z</time>
      </trkpt>
      <trkpt lat="47.76758" lon="-2.31594">
        <ele>55.262376</ele>
        <time>2022-12-14T13:51:51.301Z</time>
      </trkpt>
      <trkpt lat="47.76749" lon="-2.31597">
        <ele>55.475831</ele>
        <time>2022-12-14T13:51:53.293Z</time>
      </trkpt>
      <trkpt lat="47.76738" lon="-2.31602">
        <ele>55.740913</ele>
        <time>2022-12-14T13:51:56.296Z</time>
      </trkpt>
      <trkpt lat="47.76726" lon="-2.31603">
        <ele>56.010998</ele>
        <time>2022-12-14T13:52:00.297Z</time>
      </trkpt>
      <trkpt lat="47.76713" lon="-2.31607">
        <ele>56.30649</ele>
        <time>2022-12-14T13:52:03.291Z</time>
      </trkpt>
      <trkpt lat="47.76704" lon="-2.31612">
        <ele>56.515282</ele>
        <time>2022-12-14T13:52:05.307Z</time>
      </trkpt>
      <trkpt lat="47.76692" lon="-2.31619">
        <ele>56.821262</ele>
        <time>2022-12-14T13:52:08.320Z</time>
      </trkpt>
      <trkpt lat="47.76683" lon="-2.31624">
        <ele>56.776986</ele>
        <time>2022-12-14T13:52:10.309Z</time>
      </trkpt>
      <trkpt lat="47.7667" lon="-2.31633">
        <ele>56.633316</ele>
        <time>2022-12-14T13:52:13.298Z</time>
      </trkpt>
      <trkpt lat="47.76662" lon="-2.3164">
        <ele>56.534694</ele>
        <time>2022-12-14T13:52:15.316Z</time>
      </trkpt>
      <trkpt lat="47.76654" lon="-2.31648">
        <ele>56.438691</ele>
        <time>2022-12-14T13:52:17.312Z</time>
      </trkpt>
      <trkpt lat="47.76643" lon="-2.31659">
        <ele>56.293887</ele>
        <time>2022-12-14T13:52:20.299Z</time>
      </trkpt>
      <trkpt lat="47.76635" lon="-2.31669">
        <ele>56.192605</ele>
        <time>2022-12-14T13:52:22.307Z</time>
      </trkpt>
      <trkpt lat="47.76628" lon="-2.31678">
        <ele>56.090993</ele>
        <time>2022-12-14T13:52:24.304Z</time>
      </trkpt>
      <trkpt lat="47.7662" lon="-2.31686">
        <ele>55.994228</ele>
        <time>2022-12-14T13:52:26.321Z</time>
      </trkpt>
      <trkpt lat="47.76613" lon="-2.31696">
        <ele>55.895343</ele>
        <time>2022-12-14T13:52:28.314Z</time>
      </trkpt>
      <trkpt lat="47.76606" lon="-2.31707">
        <ele>55.792347</ele>
        <time>2022-12-14T13:52:30.309Z</time>
      </trkpt>
      <trkpt lat="47.766" lon="-2.31716">
        <ele>55.6984</ele>
        <time>2022-12-14T13:52:32.303Z</time>
      </trkpt>
      <trkpt lat="47.76593" lon="-2.31725">
        <ele>55.601527</ele>
        <time>2022-12-14T13:52:34.317Z</time>
      </trkpt>
      <trkpt lat="47.76585" lon="-2.31734">
        <ele>55.502724</ele>
        <time>2022-12-14T13:52:36.315Z</time>
      </trkpt>
      <trkpt lat="47.76577" lon="-2.31743">
        <ele>55.401905</ele>
        <time>2022-12-14T13:52:38.307Z</time>
      </trkpt>
      <trkpt lat="47.76569" lon="-2.3175">
        <ele>55.304892</ele>
        <time>2022-12-14T13:52:40.319Z</time>
      </trkpt>
      <trkpt lat="47.76559" lon="-2.3176">
        <ele>55.177849</ele>
        <time>2022-12-14T13:52:43.298Z</time>
      </trkpt>
      <trkpt lat="47.76551" lon="-2.31767">
        <ele>55.079068</ele>
        <time>2022-12-14T13:52:46.319Z</time>
      </trkpt>
      <trkpt lat="47.76542" lon="-2.31773">
        <ele>54.992874</ele>
        <time>2022-12-14T13:52:49.319Z</time>
      </trkpt>
      <trkpt lat="47.76532" lon="-2.31776">
        <ele>54.961395</ele>
        <time>2022-12-14T13:52:52.318Z</time>
      </trkpt>
      <trkpt lat="47.76521" lon="-2.31777">
        <ele>54.927828</ele>
        <time>2022-12-14T13:52:55.310Z</time>
      </trkpt>
      <trkpt lat="47.76508" lon="-2.31778">
        <ele>54.890696</ele>
        <time>2022-12-14T13:52:58.319Z</time>
      </trkpt>
      <trkpt lat="47.76495" lon="-2.31778">
        <ele>54.850898</ele>
        <time>2022-12-14T13:53:01.308Z</time>
      </trkpt>
      <trkpt lat="47.76482" lon="-2.31778">
        <ele>54.811702</ele>
        <time>2022-12-14T13:53:04.295Z</time>
      </trkpt>
      <trkpt lat="47.76473" lon="-2.31778">
        <ele>54.78358</ele>
        <time>2022-12-14T13:53:06.303Z</time>
      </trkpt>
      <trkpt lat="47.76463" lon="-2.31777">
        <ele>54.755983</ele>
        <time>2022-12-14T13:53:08.303Z</time>
      </trkpt>
      <trkpt lat="47.76454" lon="-2.31777">
        <ele>54.728157</ele>
        <time>2022-12-14T13:53:10.295Z</time>
      </trkpt>
      <trkpt lat="47.76441" lon="-2.31776">
        <ele>54.688914</ele>
        <time>2022-12-14T13:53:13.298Z</time>
      </trkpt>
      <trkpt lat="47.76431" lon="-2.31776">
        <ele>54.660482</ele>
        <time>2022-12-14T13:53:15.297Z</time>
      </trkpt>
      <trkpt lat="47.76421" lon="-2.31775">
        <ele>54.630241</ele>
        <time>2022-12-14T13:53:17.291Z</time>
      </trkpt>
      <trkpt lat="47.76412" lon="-2.31775">
        <ele>54.601219</ele>
        <time>2022-12-14T13:53:19.296Z</time>
      </trkpt>
      <trkpt lat="47.76402" lon="-2.31774">
        <ele>54.571205</ele>
        <time>2022-12-14T13:53:21.298Z</time>
      </trkpt>
      <trkpt lat="47.76392" lon="-2.31773">
        <ele>54.541504</ele>
        <time>2022-12-14T13:53:23.295Z</time>
      </trkpt>
      <trkpt lat="47.76382" lon="-2.31772">
        <ele>54.511818</ele>
        <time>2022-12-14T13:53:25.319Z</time>
      </trkpt>
      <trkpt lat="47.76372" lon="-2.3177">
        <ele>54.482085</ele>
        <time>2022-12-14T13:53:27.309Z</time>
      </trkpt>
      <trkpt lat="47.76362" lon="-2.31769">
        <ele>54.43804</ele>
        <time>2022-12-14T13:53:29.317Z</time>
      </trkpt>
      <trkpt lat="47.76351" lon="-2.31768">
        <ele>54.344786</ele>
        <time>2022-12-14T13:53:31.307Z</time>
      </trkpt>
      <trkpt lat="47.76341" lon="-2.31767">
        <ele>54.255681</ele>
        <time>2022-12-14T13:53:33.295Z</time>
      </trkpt>
      <trkpt lat="47.76331" lon="-2.31765">
        <ele>54.162042</ele>
        <time>2022-12-14T13:53:35.289Z</time>
      </trkpt>
      <trkpt lat="47.7632" lon="-2.31763">
        <ele>54.0681</ele>
        <time>2022-12-14T13:53:37.301Z</time>
      </trkpt>
      <trkpt lat="47.7631" lon="-2.3176">
        <ele>53.973109</ele>
        <time>2022-12-14T13:53:39.352Z</time>
      </trkpt>
      <trkpt lat="47.763" lon="-2.31758">
        <ele>53.884338</ele>
        <time>2022-12-14T13:53:41.326Z</time>
      </trkpt>
      <trkpt lat="47.76289" lon="-2.31756">
        <ele>53.790886</ele>
        <time>2022-12-14T13:53:43.292Z</time>
      </trkpt>
      <trkpt lat="47.7628" lon="-2.31754">
        <ele>53.70474</ele>
        <time>2022-12-14T13:53:45.300Z</time>
      </trkpt>
      <trkpt lat="47.76271" lon="-2.31751">
        <ele>53.624385</ele>
        <time>2022-12-14T13:53:47.308Z</time>
      </trkpt>
      <trkpt lat="47.76262" lon="-2.31749">
        <ele>53.543272</ele>
        <time>2022-12-14T13:53:49.311Z</time>
      </trkpt>
      <trkpt lat="47.76253" lon="-2.31746">
        <ele>53.457841</ele>
        <time>2022-12-14T13:53:51.310Z</time>
      </trkpt>
      <trkpt lat="47.76243" lon="-2.31743">
        <ele>53.373658</ele>
        <time>2022-12-14T13:53:53.319Z</time>
      </trkpt>
      <trkpt lat="47.76234" lon="-2.3174">
        <ele>53.286627</ele>
        <time>2022-12-14T13:53:55.305Z</time>
      </trkpt>
      <trkpt lat="47.76224" lon="-2.31737">
        <ele>53.1992</ele>
        <time>2022-12-14T13:53:57.289Z</time>
      </trkpt>
      <trkpt lat="47.76214" lon="-2.31734">
        <ele>53.106846</ele>
        <time>2022-12-14T13:53:59.309Z</time>
      </trkpt>
      <trkpt lat="47.76204" lon="-2.31731">
        <ele>53.016805</ele>
        <time>2022-12-14T13:54:01.308Z</time>
      </trkpt>
      <trkpt lat="47.76194" lon="-2.31728">
        <ele>52.926427</ele>
        <time>2022-12-14T13:54:03.350Z</time>
      </trkpt>
      <trkpt lat="47.76184" lon="-2.31724">
        <ele>52.884925</ele>
        <time>2022-12-14T13:54:05.291Z</time>
      </trkpt>
      <trkpt lat="47.76175" lon="-2.31722">
        <ele>52.947627</ele>
        <time>2022-12-14T13:54:07.297Z</time>
      </trkpt>
      <trkpt lat="47.76166" lon="-2.3172">
        <ele>53.008657</ele>
        <time>2022-12-14T13:54:09.319Z</time>
      </trkpt>
      <trkpt lat="47.76157" lon="-2.31716">
        <ele>53.070553</ele>
        <time>2022-12-14T13:54:11.313Z</time>
      </trkpt>
      <trkpt lat="47.76148" lon="-2.31713">
        <ele>53.133965</ele>
        <time>2022-12-14T13:54:13.317Z</time>
      </trkpt>
      <trkpt lat="47.76139" lon="-2.31709">
        <ele>53.197984</ele>
        <time>2022-12-14T13:54:15.297Z</time>
      </trkpt>
      <trkpt lat="47.76129" lon="-2.31704">
        <ele>53.263538</ele>
        <time>2022-12-14T13:54:17.317Z</time>
      </trkpt>
      <trkpt lat="47.7612" lon="-2.317">
        <ele>53.327184</ele>
        <time>2022-12-14T13:54:19.323Z</time>
      </trkpt>
      <trkpt lat="47.76112" lon="-2.31695">
        <ele>53.388794</ele>
        <time>2022-12-14T13:54:21.311Z</time>
      </trkpt>
      <trkpt lat="47.76099" lon="-2.31689">
        <ele>53.477259</ele>
        <time>2022-12-14T13:54:24.319Z</time>
      </trkpt>
      <trkpt lat="47.76091" lon="-2.31684">
        <ele>53.537706</ele>
        <time>2022-12-14T13:54:26.319Z</time>
      </trkpt>
      <trkpt lat="47.76078" lon="-2.31676">
        <ele>53.62772</ele>
        <time>2022-12-14T13:54:29.323Z</time>
      </trkpt>
      <trkpt lat="47.76069" lon="-2.31671">
        <ele>53.691174</ele>
        <time>2022-12-14T13:54:31.317Z</time>
      </trkpt>
      <trkpt lat="47.7606" lon="-2.31665">
        <ele>53.756818</ele>
        <time>2022-12-14T13:54:33.299Z</time>
      </trkpt>
      <trkpt lat="47.76051" lon="-2.3166">
        <ele>53.824483</ele>
        <time>2022-12-14T13:54:35.296Z</time>
      </trkpt>
      <trkpt lat="47.76041" lon="-2.31655">
        <ele>53.893106</ele>
        <time>2022-12-14T13:54:37.318Z</time>
      </trkpt>
      <trkpt lat="47.76032" lon="-2.31652">
        <ele>53.95414</ele>
        <time>2022-12-14T13:54:39.300Z</time>
      </trkpt>
      <trkpt lat="47.76023" lon="-2.3165">
        <ele>54.016117</ele>
        <time>2022-12-14T13:54:41.315Z</time>
      </trkpt>
      <trkpt lat="47.7601" lon="-2.3165">
        <ele>54.073947</ele>
        <time>2022-12-14T13:54:44.319Z</time>
      </trkpt>
      <trkpt lat="47.76001" lon="-2.3165">
        <ele>54.088506</ele>
        <time>2022-12-14T13:54:46.321Z</time>
      </trkpt>
      <trkpt lat="47.75991" lon="-2.31651">
        <ele>54.104294</ele>
        <time>2022-12-14T13:54:48.318Z</time>
      </trkpt>
      <trkpt lat="47.75982" lon="-2.31653">
        <ele>54.119728</ele>
        <time>2022-12-14T13:54:50.321Z</time>
      </trkpt>
      <trkpt lat="47.75972" lon="-2.31654">
        <ele>54.135288</ele>
        <time>2022-12-14T13:54:52.314Z</time>
      </trkpt>
      <trkpt lat="47.75962" lon="-2.31655">
        <ele>54.151502</ele>
        <time>2022-12-14T13:54:54.319Z</time>
      </trkpt>
      <trkpt lat="47.75952" lon="-2.31656">
        <ele>54.16757</ele>
        <time>2022-12-14T13:54:56.298Z</time>
      </trkpt>
      <trkpt lat="47.75941" lon="-2.31657">
        <ele>54.184967</ele>
        <time>2022-12-14T13:54:58.318Z</time>
      </trkpt>
      <trkpt lat="47.75931" lon="-2.31659">
        <ele>54.201757</ele>
        <time>2022-12-14T13:55:00.310Z</time>
      </trkpt>
      <trkpt lat="47.75921" lon="-2.31661">
        <ele>54.21804</ele>
        <time>2022-12-14T13:55:02.322Z</time>
      </trkpt>
      <trkpt lat="47.75911" lon="-2.31662">
        <ele>54.234402</ele>
        <time>2022-12-14T13:55:04.319Z</time>
      </trkpt>
      <trkpt lat="47.75901" lon="-2.31662">
        <ele>54.249935</ele>
        <time>2022-12-14T13:55:06.320Z</time>
      </trkpt>
      <trkpt lat="47.75889" lon="-2.31662">
        <ele>54.270647</ele>
        <time>2022-12-14T13:55:09.318Z</time>
      </trkpt>
      <trkpt lat="47.75876" lon="-2.31661">
        <ele>54.291059</ele>
        <time>2022-12-14T13:55:12.316Z</time>
      </trkpt>
      <trkpt lat="47.75863" lon="-2.31658">
        <ele>54.311635</ele>
        <time>2022-12-14T13:55:15.300Z</time>
      </trkpt>
      <trkpt lat="47.75851" lon="-2.31653">
        <ele>54.332662</ele>
        <time>2022-12-14T13:55:18.318Z</time>
      </trkpt>
      <trkpt lat="47.75839" lon="-2.31646">
        <ele>54.354079</ele>
        <time>2022-12-14T13:55:21.294Z</time>
      </trkpt>
      <trkpt lat="47.75826" lon="-2.31638">
        <ele>54.066695</ele>
        <time>2022-12-14T13:55:24.290Z</time>
      </trkpt>
      <trkpt lat="47.75818" lon="-2.31632">
        <ele>53.852231</ele>
        <time>2022-12-14T13:55:26.302Z</time>
      </trkpt>
      <trkpt lat="47.7581" lon="-2.31625">
        <ele>53.633285</ele>
        <time>2022-12-14T13:55:28.293Z</time>
      </trkpt>
      <trkpt lat="47.75798" lon="-2.31616">
        <ele>53.325339</ele>
        <time>2022-12-14T13:55:31.320Z</time>
      </trkpt>
      <trkpt lat="47.75787" lon="-2.31607">
        <ele>53.038132</ele>
        <time>2022-12-14T13:55:34.317Z</time>
      </trkpt>
      <trkpt lat="47.75777" lon="-2.31598">
        <ele>52.765477</ele>
        <time>2022-12-14T13:55:37.302Z</time>
      </trkpt>
      <trkpt lat="47.75766" lon="-2.31588">
        <ele>52.469214</ele>
        <time>2022-12-14T13:55:40.318Z</time>
      </trkpt>
      <trkpt lat="47.75754" lon="-2.31578">
        <ele>52.151436</ele>
        <time>2022-12-14T13:55:43.300Z</time>
      </trkpt>
      <trkpt lat="47.75746" lon="-2.3157">
        <ele>51.930987</ele>
        <time>2022-12-14T13:55:45.301Z</time>
      </trkpt>
      <trkpt lat="47.75738" lon="-2.31563">
        <ele>51.716428</ele>
        <time>2022-12-14T13:55:47.317Z</time>
      </trkpt>
      <trkpt lat="47.75728" lon="-2.31552">
        <ele>51.430227</ele>
        <time>2022-12-14T13:55:50.323Z</time>
      </trkpt>
      <trkpt lat="47.75721" lon="-2.31539">
        <ele>51.169237</ele>
        <time>2022-12-14T13:55:54.322Z</time>
      </trkpt>
      <trkpt lat="47.75714" lon="-2.31529">
        <ele>50.934553</ele>
        <time>2022-12-14T13:55:58.321Z</time>
      </trkpt>
      <trkpt lat="47.75708" lon="-2.31517">
        <ele>50.709484</ele>
        <time>2022-12-14T13:56:01.317Z</time>
      </trkpt>
      <trkpt lat="47.75703" lon="-2.31501">
        <ele>50.440422</ele>
        <time>2022-12-14T13:56:04.290Z</time>
      </trkpt>
      <trkpt lat="47.75698" lon="-2.31483">
        <ele>50.18465</ele>
        <time>2022-12-14T13:56:07.313Z</time>
      </trkpt>
      <trkpt lat="47.75696" lon="-2.3147">
        <ele>50.161915</ele>
        <time>2022-12-14T13:56:09.319Z</time>
      </trkpt>
      <trkpt lat="47.75695" lon="-2.31456">
        <ele>50.137175</ele>
        <time>2022-12-14T13:56:11.298Z</time>
      </trkpt>
      <trkpt lat="47.75694" lon="-2.31441">
        <ele>50.111967</ele>
        <time>2022-12-14T13:56:13.300Z</time>
      </trkpt>
      <trkpt lat="47.75694" lon="-2.31426">
        <ele>50.087651</ele>
        <time>2022-12-14T13:56:15.295Z</time>
      </trkpt>
      <trkpt lat="47.75698" lon="-2.31412">
        <ele>50.062282</ele>
        <time>2022-12-14T13:56:17.296Z</time>
      </trkpt>
      <trkpt lat="47.75702" lon="-2.31399">
        <ele>50.037947</ele>
        <time>2022-12-14T13:56:19.297Z</time>
      </trkpt>
      <trkpt lat="47.75705" lon="-2.31386">
        <ele>50.014195</ele>
        <time>2022-12-14T13:56:21.320Z</time>
      </trkpt>
      <trkpt lat="47.75709" lon="-2.31374">
        <ele>49.991417</ele>
        <time>2022-12-14T13:56:23.327Z</time>
      </trkpt>
      <trkpt lat="47.75712" lon="-2.3136">
        <ele>49.967914</ele>
        <time>2022-12-14T13:56:25.291Z</time>
      </trkpt>
      <trkpt lat="47.75716" lon="-2.31341">
        <ele>49.933864</ele>
        <time>2022-12-14T13:56:28.293Z</time>
      </trkpt>
      <trkpt lat="47.75718" lon="-2.31322">
        <ele>49.900553</ele>
        <time>2022-12-14T13:56:31.292Z</time>
      </trkpt>
      <trkpt lat="47.75719" lon="-2.31308">
        <ele>49.877362</ele>
        <time>2022-12-14T13:56:33.297Z</time>
      </trkpt>
      <trkpt lat="47.7572" lon="-2.31294">
        <ele>49.853705</ele>
        <time>2022-12-14T13:56:35.316Z</time>
      </trkpt>
      <trkpt lat="47.75721" lon="-2.3128">
        <ele>49.829484</ele>
        <time>2022-12-14T13:56:37.319Z</time>
      </trkpt>
      <trkpt lat="47.75722" lon="-2.31266">
        <ele>49.806438</ele>
        <time>2022-12-14T13:56:39.324Z</time>
      </trkpt>
      <trkpt lat="47.75721" lon="-2.31253">
        <ele>49.783659</ele>
        <time>2022-12-14T13:56:41.297Z</time>
      </trkpt>
      <trkpt lat="47.75721" lon="-2.31233">
        <ele>49.749886</ele>
        <time>2022-12-14T13:56:44.328Z</time>
      </trkpt>
      <trkpt lat="47.7572" lon="-2.31219">
        <ele>49.709847</ele>
        <time>2022-12-14T13:56:46.291Z</time>
      </trkpt>
      <trkpt lat="47.75718" lon="-2.31204">
        <ele>49.650924</ele>
        <time>2022-12-14T13:56:48.294Z</time>
      </trkpt>
      <trkpt lat="47.75716" lon="-2.31189">
        <ele>49.59166</ele>
        <time>2022-12-14T13:56:50.299Z</time>
      </trkpt>
      <trkpt lat="47.75712" lon="-2.31174">
        <ele>49.528848</ele>
        <time>2022-12-14T13:56:52.308Z</time>
      </trkpt>
      <trkpt lat="47.75709" lon="-2.3116">
        <ele>49.469204</ele>
        <time>2022-12-14T13:56:54.304Z</time>
      </trkpt>
      <trkpt lat="47.75705" lon="-2.31147">
        <ele>49.411931</ele>
        <time>2022-12-14T13:56:56.315Z</time>
      </trkpt>
      <trkpt lat="47.757" lon="-2.3113">
        <ele>49.341277</ele>
        <time>2022-12-14T13:56:59.318Z</time>
      </trkpt>
      <trkpt lat="47.75695" lon="-2.31113">
        <ele>49.266361</ele>
        <time>2022-12-14T13:57:02.317Z</time>
      </trkpt>
      <trkpt lat="47.75688" lon="-2.31096">
        <ele>49.187105</ele>
        <time>2022-12-14T13:57:05.306Z</time>
      </trkpt>
      <trkpt lat="47.75684" lon="-2.31083">
        <ele>49.131254</ele>
        <time>2022-12-14T13:57:07.312Z</time>
      </trkpt>
      <trkpt lat="47.75679" lon="-2.31071">
        <ele>49.075244</ele>
        <time>2022-12-14T13:57:09.316Z</time>
      </trkpt>
      <trkpt lat="47.75673" lon="-2.31059">
        <ele>49.018292</ele>
        <time>2022-12-14T13:57:11.317Z</time>
      </trkpt>
      <trkpt lat="47.75667" lon="-2.31048">
        <ele>48.961382</ele>
        <time>2022-12-14T13:57:13.301Z</time>
      </trkpt>
      <trkpt lat="47.7566" lon="-2.31038">
        <ele>48.904862</ele>
        <time>2022-12-14T13:57:15.299Z</time>
      </trkpt>
      <trkpt lat="47.75654" lon="-2.31028">
        <ele>48.849596</ele>
        <time>2022-12-14T13:57:17.312Z</time>
      </trkpt>
      <trkpt lat="47.75644" lon="-2.31016">
        <ele>48.778594</ele>
        <time>2022-12-14T13:57:20.305Z</time>
      </trkpt>
      <trkpt lat="47.75636" lon="-2.31007">
        <ele>48.717381</ele>
        <time>2022-12-14T13:57:23.298Z</time>
      </trkpt>
      <trkpt lat="47.75627" lon="-2.30996">
        <ele>48.698347</ele>
        <time>2022-12-14T13:57:26.318Z</time>
      </trkpt>
      <trkpt lat="47.75616" lon="-2.30986">
        <ele>48.728662</ele>
        <time>2022-12-14T13:57:29.320Z</time>
      </trkpt>
      <trkpt lat="47.75605" lon="-2.30976">
        <ele>48.760128</ele>
        <time>2022-12-14T13:57:32.322Z</time>
      </trkpt>
      <trkpt lat="47.75594" lon="-2.30965">
        <ele>48.79156</ele>
        <time>2022-12-14T13:57:35.320Z</time>
      </trkpt>
      <trkpt lat="47.75586" lon="-2.30958">
        <ele>48.81351</ele>
        <time>2022-12-14T13:57:37.314Z</time>
      </trkpt>
      <trkpt lat="47.75578" lon="-2.30951">
        <ele>48.83588</ele>
        <time>2022-12-14T13:57:39.308Z</time>
      </trkpt>
      <trkpt lat="47.75571" lon="-2.30944">
        <ele>48.857502</ele>
        <time>2022-12-14T13:57:41.322Z</time>
      </trkpt>
      <trkpt lat="47.75564" lon="-2.30934">
        <ele>48.88003</ele>
        <time>2022-12-14T13:57:43.302Z</time>
      </trkpt>
      <trkpt lat="47.75558" lon="-2.30923">
        <ele>48.902658</ele>
        <time>2022-12-14T13:57:45.292Z</time>
      </trkpt>
      <trkpt lat="47.75552" lon="-2.30912">
        <ele>48.925627</ele>
        <time>2022-12-14T13:57:47.316Z</time>
      </trkpt>
      <trkpt lat="47.75546" lon="-2.30901">
        <ele>48.948273</ele>
        <time>2022-12-14T13:57:49.317Z</time>
      </trkpt>
      <trkpt lat="47.75541" lon="-2.30889">
        <ele>48.971278</ele>
        <time>2022-12-14T13:57:51.319Z</time>
      </trkpt>
      <trkpt lat="47.75536" lon="-2.30877">
        <ele>48.993739</ele>
        <time>2022-12-14T13:57:53.318Z</time>
      </trkpt>
      <trkpt lat="47.7553" lon="-2.30866">
        <ele>49.016473</ele>
        <time>2022-12-14T13:57:55.319Z</time>
      </trkpt>
      <trkpt lat="47.75525" lon="-2.30854">
        <ele>49.039606</ele>
        <time>2022-12-14T13:57:57.318Z</time>
      </trkpt>
      <trkpt lat="47.75521" lon="-2.30842">
        <ele>49.06174</ele>
        <time>2022-12-14T13:57:59.320Z</time>
      </trkpt>
      <trkpt lat="47.75515" lon="-2.30823">
        <ele>49.094537</ele>
        <time>2022-12-14T13:58:02.313Z</time>
      </trkpt>
      <trkpt lat="47.7551" lon="-2.30806">
        <ele>49.12199</ele>
        <time>2022-12-14T13:58:05.316Z</time>
      </trkpt>
      <trkpt lat="47.75504" lon="-2.30788">
        <ele>49.14392</ele>
        <time>2022-12-14T13:58:08.320Z</time>
      </trkpt>
      <trkpt lat="47.755" lon="-2.30776">
        <ele>49.159263</ele>
        <time>2022-12-14T13:58:10.322Z</time>
      </trkpt>
      <trkpt lat="47.75497" lon="-2.30763">
        <ele>49.174507</ele>
        <time>2022-12-14T13:58:12.296Z</time>
      </trkpt>
      <trkpt lat="47.75494" lon="-2.3075">
        <ele>49.190124</ele>
        <time>2022-12-14T13:58:14.301Z</time>
      </trkpt>
      <trkpt lat="47.75491" lon="-2.30737">
        <ele>49.206273</ele>
        <time>2022-12-14T13:58:16.300Z</time>
      </trkpt>
      <trkpt lat="47.75488" lon="-2.30724">
        <ele>49.221846</ele>
        <time>2022-12-14T13:58:18.306Z</time>
      </trkpt>
      <trkpt lat="47.75484" lon="-2.30704">
        <ele>49.244682</ele>
        <time>2022-12-14T13:58:21.308Z</time>
      </trkpt>
      <trkpt lat="47.75481" lon="-2.3069">
        <ele>49.261486</ele>
        <time>2022-12-14T13:58:23.296Z</time>
      </trkpt>
      <trkpt lat="47.75478" lon="-2.30675">
        <ele>49.278919</ele>
        <time>2022-12-14T13:58:25.315Z</time>
      </trkpt>
      <trkpt lat="47.75475" lon="-2.30662">
        <ele>49.295045</ele>
        <time>2022-12-14T13:58:27.311Z</time>
      </trkpt>
      <trkpt lat="47.75473" lon="-2.30647">
        <ele>49.311957</ele>
        <time>2022-12-14T13:58:29.309Z</time>
      </trkpt>
      <trkpt lat="47.7547" lon="-2.30633">
        <ele>49.32881</ele>
        <time>2022-12-14T13:58:31.313Z</time>
      </trkpt>
      <trkpt lat="47.75466" lon="-2.30619">
        <ele>49.345932</ele>
        <time>2022-12-14T13:58:33.320Z</time>
      </trkpt>
      <trkpt lat="47.75463" lon="-2.30605">
        <ele>49.362722</ele>
        <time>2022-12-14T13:58:35.313Z</time>
      </trkpt>
      <trkpt lat="47.75459" lon="-2.3059">
        <ele>49.379905</ele>
        <time>2022-12-14T13:58:37.317Z</time>
      </trkpt>
      <trkpt lat="47.75456" lon="-2.30576">
        <ele>49.396969</ele>
        <time>2022-12-14T13:58:39.309Z</time>
      </trkpt>
      <trkpt lat="47.75452" lon="-2.30562">
        <ele>49.41367</ele>
        <time>2022-12-14T13:58:41.318Z</time>
      </trkpt>
      <trkpt lat="47.75449" lon="-2.30549">
        <ele>49.327996</ele>
        <time>2022-12-14T13:58:43.300Z</time>
      </trkpt>
      <trkpt lat="47.75445" lon="-2.30536">
        <ele>49.222184</ele>
        <time>2022-12-14T13:58:45.311Z</time>
      </trkpt>
      <trkpt lat="47.75441" lon="-2.30518">
        <ele>49.072371</ele>
        <time>2022-12-14T13:58:48.309Z</time>
      </trkpt>
      <trkpt lat="47.75436" lon="-2.30501">
        <ele>48.927443</ele>
        <time>2022-12-14T13:58:51.316Z</time>
      </trkpt>
      <trkpt lat="47.7543" lon="-2.30482">
        <ele>48.772634</ele>
        <time>2022-12-14T13:58:54.311Z</time>
      </trkpt>
      <trkpt lat="47.75426" lon="-2.3047">
        <ele>48.668563</ele>
        <time>2022-12-14T13:58:56.316Z</time>
      </trkpt>
      <trkpt lat="47.75422" lon="-2.30458">
        <ele>48.563748</ele>
        <time>2022-12-14T13:58:58.299Z</time>
      </trkpt>
      <trkpt lat="47.75418" lon="-2.30445">
        <ele>48.458242</ele>
        <time>2022-12-14T13:59:00.304Z</time>
      </trkpt>
      <trkpt lat="47.75414" lon="-2.30432">
        <ele>48.3471</ele>
        <time>2022-12-14T13:59:02.320Z</time>
      </trkpt>
      <trkpt lat="47.75409" lon="-2.30419">
        <ele>48.230476</ele>
        <time>2022-12-14T13:59:04.321Z</time>
      </trkpt>
      <trkpt lat="47.75404" lon="-2.30405">
        <ele>48.114197</ele>
        <time>2022-12-14T13:59:06.311Z</time>
      </trkpt>
      <trkpt lat="47.75399" lon="-2.30392">
        <ele>47.998222</ele>
        <time>2022-12-14T13:59:08.316Z</time>
      </trkpt>
      <trkpt lat="47.75394" lon="-2.3038">
        <ele>47.889122</ele>
        <time>2022-12-14T13:59:10.313Z</time>
      </trkpt>
      <trkpt lat="47.75389" lon="-2.30366">
        <ele>47.766055</ele>
        <time>2022-12-14T13:59:12.300Z</time>
      </trkpt>
      <trkpt lat="47.75384" lon="-2.30354">
        <ele>47.657822</ele>
        <time>2022-12-14T13:59:14.304Z</time>
      </trkpt>
      <trkpt lat="47.75377" lon="-2.30342">
        <ele>47.537806</ele>
        <time>2022-12-14T13:59:16.319Z</time>
      </trkpt>
      <trkpt lat="47.75371" lon="-2.3033">
        <ele>47.417962</ele>
        <time>2022-12-14T13:59:18.298Z</time>
      </trkpt>
      <trkpt lat="47.75364" lon="-2.30319">
        <ele>47.398148</ele>
        <time>2022-12-14T13:59:20.318Z</time>
      </trkpt>
      <trkpt lat="47.75357" lon="-2.30308">
        <ele>47.459989</ele>
        <time>2022-12-14T13:59:22.304Z</time>
      </trkpt>
      <trkpt lat="47.75349" lon="-2.30299">
        <ele>47.521295</ele>
        <time>2022-12-14T13:59:24.317Z</time>
      </trkpt>
      <trkpt lat="47.75342" lon="-2.3029">
        <ele>47.578444</ele>
        <time>2022-12-14T13:59:26.319Z</time>
      </trkpt>
      <trkpt lat="47.75335" lon="-2.30281">
        <ele>47.638731</ele>
        <time>2022-12-14T13:59:28.298Z</time>
      </trkpt>
      <trkpt lat="47.75328" lon="-2.30272">
        <ele>47.695519</ele>
        <time>2022-12-14T13:59:30.322Z</time>
      </trkpt>
      <trkpt lat="47.7532" lon="-2.30264">
        <ele>47.756091</ele>
        <time>2022-12-14T13:59:32.321Z</time>
      </trkpt>
      <trkpt lat="47.75312" lon="-2.30256">
        <ele>47.813608</ele>
        <time>2022-12-14T13:59:34.320Z</time>
      </trkpt>
      <trkpt lat="47.75301" lon="-2.30245">
        <ele>47.894946</ele>
        <time>2022-12-14T13:59:37.323Z</time>
      </trkpt>
      <trkpt lat="47.7529" lon="-2.30234">
        <ele>47.978186</ele>
        <time>2022-12-14T13:59:40.309Z</time>
      </trkpt>
      <trkpt lat="47.75282" lon="-2.30227">
        <ele>48.035078</ele>
        <time>2022-12-14T13:59:42.318Z</time>
      </trkpt>
      <trkpt lat="47.75275" lon="-2.30217">
        <ele>48.096371</ele>
        <time>2022-12-14T13:59:44.316Z</time>
      </trkpt>
      <trkpt lat="47.75263" lon="-2.30206">
        <ele>48.181389</ele>
        <time>2022-12-14T13:59:47.317Z</time>
      </trkpt>
      <trkpt lat="47.75255" lon="-2.30199">
        <ele>48.23911</ele>
        <time>2022-12-14T13:59:49.322Z</time>
      </trkpt>
      <trkpt lat="47.75248" lon="-2.30191">
        <ele>48.298882</ele>
        <time>2022-12-14T13:59:51.320Z</time>
      </trkpt>
      <trkpt lat="47.75237" lon="-2.30179">
        <ele>48.38155</ele>
        <time>2022-12-14T13:59:54.314Z</time>
      </trkpt>
      <trkpt lat="47.75228" lon="-2.30166">
        <ele>48.458991</ele>
        <time>2022-12-14T13:59:57.301Z</time>
      </trkpt>
      <trkpt lat="47.75221" lon="-2.30153">
        <ele>48.464276</ele>
        <time>2022-12-14T14:00:00.296Z</time>
      </trkpt>
      <trkpt lat="47.75214" lon="-2.30139">
        <ele>48.439444</ele>
        <time>2022-12-14T14:00:03.301Z</time>
      </trkpt>
      <trkpt lat="47.75206" lon="-2.30125">
        <ele>48.412129</ele>
        <time>2022-12-14T14:00:06.317Z</time>
      </trkpt>
      <trkpt lat="47.75198" lon="-2.3011">
        <ele>48.383847</ele>
        <time>2022-12-14T14:00:09.314Z</time>
      </trkpt>
      <trkpt lat="47.7519" lon="-2.30094">
        <ele>48.35437</ele>
        <time>2022-12-14T14:00:12.308Z</time>
      </trkpt>
      <trkpt lat="47.75184" lon="-2.30083">
        <ele>48.334768</ele>
        <time>2022-12-14T14:00:14.321Z</time>
      </trkpt>
      <trkpt lat="47.75179" lon="-2.30073">
        <ele>48.314785</ele>
        <time>2022-12-14T14:00:16.317Z</time>
      </trkpt>
      <trkpt lat="47.75173" lon="-2.30061">
        <ele>48.294478</ele>
        <time>2022-12-14T14:00:18.313Z</time>
      </trkpt>
      <trkpt lat="47.75168" lon="-2.30049">
        <ele>48.273564</ele>
        <time>2022-12-14T14:00:20.314Z</time>
      </trkpt>
      <trkpt lat="47.75161" lon="-2.30033">
        <ele>48.24507</ele>
        <time>2022-12-14T14:00:23.314Z</time>
      </trkpt>
      <trkpt lat="47.75156" lon="-2.30016">
        <ele>48.218371</ele>
        <time>2022-12-14T14:00:26.299Z</time>
      </trkpt>
      <trkpt lat="47.75152" lon="-2.3">
        <ele>48.193043</ele>
        <time>2022-12-14T14:00:29.318Z</time>
      </trkpt>
      <trkpt lat="47.75147" lon="-2.29983">
        <ele>48.166094</ele>
        <time>2022-12-14T14:00:32.316Z</time>
      </trkpt>
      <trkpt lat="47.75143" lon="-2.29965">
        <ele>48.138445</ele>
        <time>2022-12-14T14:00:35.321Z</time>
      </trkpt>
      <trkpt lat="47.75139" lon="-2.29947">
        <ele>48.110667</ele>
        <time>2022-12-14T14:00:38.318Z</time>
      </trkpt>
      <trkpt lat="47.75135" lon="-2.29929">
        <ele>48.078895</ele>
        <time>2022-12-14T14:00:41.305Z</time>
      </trkpt>
      <trkpt lat="47.75132" lon="-2.29916">
        <ele>48.04777</ele>
        <time>2022-12-14T14:00:43.328Z</time>
      </trkpt>
      <trkpt lat="47.7513" lon="-2.29903">
        <ele>48.016548</ele>
        <time>2022-12-14T14:00:45.322Z</time>
      </trkpt>
      <trkpt lat="47.75127" lon="-2.29889">
        <ele>47.985206</ele>
        <time>2022-12-14T14:00:47.298Z</time>
      </trkpt>
      <trkpt lat="47.75124" lon="-2.29876">
        <ele>47.953863</ele>
        <time>2022-12-14T14:00:49.318Z</time>
      </trkpt>
      <trkpt lat="47.75122" lon="-2.29862">
        <ele>47.920905</ele>
        <time>2022-12-14T14:00:51.321Z</time>
      </trkpt>
      <trkpt lat="47.7512" lon="-2.29848">
        <ele>47.888667</ele>
        <time>2022-12-14T14:00:53.293Z</time>
      </trkpt>
      <trkpt lat="47.75118" lon="-2.29834">
        <ele>47.857201</ele>
        <time>2022-12-14T14:00:55.299Z</time>
      </trkpt>
      <trkpt lat="47.75116" lon="-2.29815">
        <ele>47.812681</ele>
        <time>2022-12-14T14:00:58.325Z</time>
      </trkpt>
      <trkpt lat="47.75115" lon="-2.29801">
        <ele>47.780476</ele>
        <time>2022-12-14T14:01:00.316Z</time>
      </trkpt>
      <trkpt lat="47.75113" lon="-2.29787">
        <ele>47.748804</ele>
        <time>2022-12-14T14:01:02.303Z</time>
      </trkpt>
      <trkpt lat="47.75112" lon="-2.29773">
        <ele>47.717316</ele>
        <time>2022-12-14T14:01:04.306Z</time>
      </trkpt>
      <trkpt lat="47.7511" lon="-2.2976">
        <ele>47.685884</ele>
        <time>2022-12-14T14:01:06.297Z</time>
      </trkpt>
      <trkpt lat="47.75106" lon="-2.29742">
        <ele>47.642543</ele>
        <time>2022-12-14T14:01:09.314Z</time>
      </trkpt>
      <trkpt lat="47.75101" lon="-2.29725">
        <ele>47.601176</ele>
        <time>2022-12-14T14:01:12.322Z</time>
      </trkpt>
      <trkpt lat="47.75097" lon="-2.29707">
        <ele>47.559241</ele>
        <time>2022-12-14T14:01:15.322Z</time>
      </trkpt>
      <trkpt lat="47.75092" lon="-2.29689">
        <ele>47.514912</ele>
        <time>2022-12-14T14:01:18.302Z</time>
      </trkpt>
      <trkpt lat="47.75088" lon="-2.29677">
        <ele>47.484197</ele>
        <time>2022-12-14T14:01:20.298Z</time>
      </trkpt>
      <trkpt lat="47.75085" lon="-2.29664">
        <ele>47.469881</ele>
        <time>2022-12-14T14:01:22.322Z</time>
      </trkpt>
      <trkpt lat="47.7508" lon="-2.29648">
        <ele>47.451948</ele>
        <time>2022-12-14T14:01:25.314Z</time>
      </trkpt>
      <trkpt lat="47.75075" lon="-2.29633">
        <ele>47.435609</ele>
        <time>2022-12-14T14:01:28.319Z</time>
      </trkpt>
      <trkpt lat="47.75071" lon="-2.2962">
        <ele>47.420286</ele>
        <time>2022-12-14T14:01:31.321Z</time>
      </trkpt>
      <trkpt lat="47.75066" lon="-2.29604">
        <ele>47.402699</ele>
        <time>2022-12-14T14:01:35.320Z</time>
      </trkpt>
      <trkpt lat="47.75061" lon="-2.2959">
        <ele>47.38656</ele>
        <time>2022-12-14T14:01:39.307Z</time>
      </trkpt>
      <trkpt lat="47.75056" lon="-2.29576">
        <ele>47.370694</ele>
        <time>2022-12-14T14:01:42.296Z</time>
      </trkpt>
      <trkpt lat="47.7505" lon="-2.29559">
        <ele>47.351619</ele>
        <time>2022-12-14T14:01:45.315Z</time>
      </trkpt>
      <trkpt lat="47.75046" lon="-2.29546">
        <ele>47.336703</ele>
        <time>2022-12-14T14:01:47.318Z</time>
      </trkpt>
      <trkpt lat="47.75041" lon="-2.29534">
        <ele>47.321993</ele>
        <time>2022-12-14T14:01:49.320Z</time>
      </trkpt>
      <trkpt lat="47.75036" lon="-2.2952">
        <ele>47.306151</ele>
        <time>2022-12-14T14:01:51.321Z</time>
      </trkpt>
      <trkpt lat="47.75032" lon="-2.29505">
        <ele>47.290657</ele>
        <time>2022-12-14T14:01:53.299Z</time>
      </trkpt>
      <trkpt lat="47.75028" lon="-2.29492">
        <ele>47.275229</ele>
        <time>2022-12-14T14:01:55.318Z</time>
      </trkpt>
      <trkpt lat="47.75024" lon="-2.29479">
        <ele>47.260718</ele>
        <time>2022-12-14T14:01:57.320Z</time>
      </trkpt>
      <trkpt lat="47.75019" lon="-2.29465">
        <ele>47.245186</ele>
        <time>2022-12-14T14:01:59.316Z</time>
      </trkpt>
      <trkpt lat="47.75014" lon="-2.29452">
        <ele>47.230632</ele>
        <time>2022-12-14T14:02:01.322Z</time>
      </trkpt>
      <trkpt lat="47.7501" lon="-2.29439">
        <ele>47.215468</ele>
        <time>2022-12-14T14:02:03.306Z</time>
      </trkpt>
      <trkpt lat="47.75005" lon="-2.29426">
        <ele>47.245283</ele>
        <time>2022-12-14T14:02:05.320Z</time>
      </trkpt>
      <trkpt lat="47.75" lon="-2.29414">
        <ele>47.283051</ele>
        <time>2022-12-14T14:02:07.313Z</time>
      </trkpt>
      <trkpt lat="47.74994" lon="-2.29403">
        <ele>47.320523</ele>
        <time>2022-12-14T14:02:09.299Z</time>
      </trkpt>
      <trkpt lat="47.74988" lon="-2.29392">
        <ele>47.360007</ele>
        <time>2022-12-14T14:02:11.296Z</time>
      </trkpt>
      <trkpt lat="47.74982" lon="-2.29381">
        <ele>47.398821</ele>
        <time>2022-12-14T14:02:13.299Z</time>
      </trkpt>
      <trkpt lat="47.74976" lon="-2.29369">
        <ele>47.439331</ele>
        <time>2022-12-14T14:02:15.317Z</time>
      </trkpt>
      <trkpt lat="47.74969" lon="-2.29358">
        <ele>47.479117</ele>
        <time>2022-12-14T14:02:17.318Z</time>
      </trkpt>
      <trkpt lat="47.74961" lon="-2.29342">
        <ele>47.531346</ele>
        <time>2022-12-14T14:02:20.311Z</time>
      </trkpt>
      <trkpt lat="47.74952" lon="-2.29327">
        <ele>47.585361</ele>
        <time>2022-12-14T14:02:23.324Z</time>
      </trkpt>
      <trkpt lat="47.74944" lon="-2.29313">
        <ele>47.635758</ele>
        <time>2022-12-14T14:02:26.318Z</time>
      </trkpt>
      <trkpt lat="47.74937" lon="-2.29302">
        <ele>47.674465</ele>
        <time>2022-12-14T14:02:28.320Z</time>
      </trkpt>
      <trkpt lat="47.74928" lon="-2.29288">
        <ele>47.729264</ele>
        <time>2022-12-14T14:02:31.323Z</time>
      </trkpt>
      <trkpt lat="47.74922" lon="-2.29277">
        <ele>47.767301</ele>
        <time>2022-12-14T14:02:33.312Z</time>
      </trkpt>
      <trkpt lat="47.74912" lon="-2.29262">
        <ele>47.823711</ele>
        <time>2022-12-14T14:02:36.323Z</time>
      </trkpt>
      <trkpt lat="47.74905" lon="-2.29253">
        <ele>47.861603</ele>
        <time>2022-12-14T14:02:38.312Z</time>
      </trkpt>
      <trkpt lat="47.74896" lon="-2.29239">
        <ele>47.913936</ele>
        <time>2022-12-14T14:02:41.317Z</time>
      </trkpt>
      <trkpt lat="47.74887" lon="-2.29224">
        <ele>47.928307</ele>
        <time>2022-12-14T14:02:44.319Z</time>
      </trkpt>
      <trkpt lat="47.7488" lon="-2.29215">
        <ele>47.923246</ele>
        <time>2022-12-14T14:02:46.319Z</time>
      </trkpt>
      <trkpt lat="47.74873" lon="-2.29206">
        <ele>47.918006</ele>
        <time>2022-12-14T14:02:48.321Z</time>
      </trkpt>
      <trkpt lat="47.74866" lon="-2.29196">
        <ele>47.912721</ele>
        <time>2022-12-14T14:02:50.324Z</time>
      </trkpt>
      <trkpt lat="47.74859" lon="-2.29187">
        <ele>47.907621</ele>
        <time>2022-12-14T14:02:52.315Z</time>
      </trkpt>
      <trkpt lat="47.74852" lon="-2.29178">
        <ele>47.902453</ele>
        <time>2022-12-14T14:02:54.320Z</time>
      </trkpt>
      <trkpt lat="47.74845" lon="-2.29168">
        <ele>47.897098</ele>
        <time>2022-12-14T14:02:56.322Z</time>
      </trkpt>
      <trkpt lat="47.74837" lon="-2.29159">
        <ele>47.891659</ele>
        <time>2022-12-14T14:02:58.296Z</time>
      </trkpt>
      <trkpt lat="47.7483" lon="-2.29149">
        <ele>47.886244</ele>
        <time>2022-12-14T14:03:00.302Z</time>
      </trkpt>
      <trkpt lat="47.74823" lon="-2.2914">
        <ele>47.881016</ele>
        <time>2022-12-14T14:03:02.321Z</time>
      </trkpt>
      <trkpt lat="47.74813" lon="-2.29131">
        <ele>47.874583</ele>
        <time>2022-12-14T14:03:05.323Z</time>
      </trkpt>
      <trkpt lat="47.74803" lon="-2.29121">
        <ele>47.867917</ele>
        <time>2022-12-14T14:03:08.320Z</time>
      </trkpt>
      <trkpt lat="47.74792" lon="-2.29111">
        <ele>47.860745</ele>
        <time>2022-12-14T14:03:11.320Z</time>
      </trkpt>
      <trkpt lat="47.74781" lon="-2.29101">
        <ele>47.853643</ele>
        <time>2022-12-14T14:03:14.315Z</time>
      </trkpt>
      <trkpt lat="47.74769" lon="-2.29092">
        <ele>47.846364</ele>
        <time>2022-12-14T14:03:17.322Z</time>
      </trkpt>
      <trkpt lat="47.74758" lon="-2.29082">
        <ele>47.839214</ele>
        <time>2022-12-14T14:03:20.310Z</time>
      </trkpt>
      <trkpt lat="47.74747" lon="-2.29073">
        <ele>47.835779</ele>
        <time>2022-12-14T14:03:23.304Z</time>
      </trkpt>
      <trkpt lat="47.74735" lon="-2.29064">
        <ele>47.847391</ele>
        <time>2022-12-14T14:03:26.311Z</time>
      </trkpt>
      <trkpt lat="47.74726" lon="-2.29059">
        <ele>47.856378</ele>
        <time>2022-12-14T14:03:28.313Z</time>
      </trkpt>
      <trkpt lat="47.74714" lon="-2.29049">
        <ele>47.868584</ele>
        <time>2022-12-14T14:03:31.317Z</time>
      </trkpt>
      <trkpt lat="47.74706" lon="-2.29042">
        <ele>47.87696</ele>
        <time>2022-12-14T14:03:33.297Z</time>
      </trkpt>
      <trkpt lat="47.74694" lon="-2.29031">
        <ele>47.888927</ele>
        <time>2022-12-14T14:03:36.319Z</time>
      </trkpt>
      <trkpt lat="47.74685" lon="-2.29023">
        <ele>47.899012</ele>
        <time>2022-12-14T14:03:39.308Z</time>
      </trkpt>
      <trkpt lat="47.74674" lon="-2.29014">
        <ele>47.910053</ele>
        <time>2022-12-14T14:03:42.320Z</time>
      </trkpt>
      <trkpt lat="47.74663" lon="-2.29006">
        <ele>47.921319</ele>
        <time>2022-12-14T14:03:45.313Z</time>
      </trkpt>
      <trkpt lat="47.74654" lon="-2.28999">
        <ele>47.930013</ele>
        <time>2022-12-14T14:03:47.311Z</time>
      </trkpt>
      <trkpt lat="47.74645" lon="-2.28993">
        <ele>47.938627</ele>
        <time>2022-12-14T14:03:49.317Z</time>
      </trkpt>
      <trkpt lat="47.74637" lon="-2.28985">
        <ele>47.947434</ele>
        <time>2022-12-14T14:03:51.324Z</time>
      </trkpt>
      <trkpt lat="47.74629" lon="-2.28979">
        <ele>47.955543</ele>
        <time>2022-12-14T14:03:53.299Z</time>
      </trkpt>
      <trkpt lat="47.74619" lon="-2.28971">
        <ele>47.96585</ele>
        <time>2022-12-14T14:03:56.322Z</time>
      </trkpt>
      <trkpt lat="47.74608" lon="-2.28963">
        <ele>47.976578</ele>
        <time>2022-12-14T14:03:59.322Z</time>
      </trkpt>
      <trkpt lat="47.74597" lon="-2.28955">
        <ele>47.987818</ele>
        <time>2022-12-14T14:04:02.316Z</time>
      </trkpt>
      <trkpt lat="47.74585" lon="-2.28947">
        <ele>48.015107</ele>
        <time>2022-12-14T14:04:05.316Z</time>
      </trkpt>
      <trkpt lat="47.74577" lon="-2.28942">
        <ele>48.051885</ele>
        <time>2022-12-14T14:04:07.321Z</time>
      </trkpt>
      <trkpt lat="47.74568" lon="-2.28937">
        <ele>48.08907</ele>
        <time>2022-12-14T14:04:09.320Z</time>
      </trkpt>
      <trkpt lat="47.74559" lon="-2.28932">
        <ele>48.127205</ele>
        <time>2022-12-14T14:04:11.315Z</time>
      </trkpt>
      <trkpt lat="47.74547" lon="-2.28924">
        <ele>48.179684</ele>
        <time>2022-12-14T14:04:14.318Z</time>
      </trkpt>
      <trkpt lat="47.74537" lon="-2.28915">
        <ele>48.228248</ele>
        <time>2022-12-14T14:04:17.293Z</time>
      </trkpt>
      <trkpt lat="47.74528" lon="-2.28907">
        <ele>48.270779</ele>
        <time>2022-12-14T14:04:20.296Z</time>
      </trkpt>
      <trkpt lat="47.74519" lon="-2.28897">
        <ele>48.314043</ele>
        <time>2022-12-14T14:04:23.300Z</time>
      </trkpt>
      <trkpt lat="47.74511" lon="-2.28885">
        <ele>48.359613</ele>
        <time>2022-12-14T14:04:26.322Z</time>
      </trkpt>
      <trkpt lat="47.74502" lon="-2.28873">
        <ele>48.407426</ele>
        <time>2022-12-14T14:04:29.319Z</time>
      </trkpt>
      <trkpt lat="47.74494" lon="-2.28861">
        <ele>48.454867</ele>
        <time>2022-12-14T14:04:32.313Z</time>
      </trkpt>
      <trkpt lat="47.74485" lon="-2.28848">
        <ele>48.504382</ele>
        <time>2022-12-14T14:04:35.317Z</time>
      </trkpt>
      <trkpt lat="47.74476" lon="-2.28834">
        <ele>48.555811</ele>
        <time>2022-12-14T14:04:38.322Z</time>
      </trkpt>
      <trkpt lat="47.7447" lon="-2.2882">
        <ele>48.600089</ele>
        <time>2022-12-14T14:04:41.306Z</time>
      </trkpt>
      <trkpt lat="47.74465" lon="-2.28805">
        <ele>48.646807</ele>
        <time>2022-12-14T14:04:44.318Z</time>
      </trkpt>
      <trkpt lat="47.74461" lon="-2.28786">
        <ele>48.698792</ele>
        <time>2022-12-14T14:04:47.297Z</time>
      </trkpt>
      <trkpt lat="47.74458" lon="-2.28769">
        <ele>48.850631</ele>
        <time>2022-12-14T14:04:50.321Z</time>
      </trkpt>
      <trkpt lat="47.74456" lon="-2.28753">
        <ele>49.032289</ele>
        <time>2022-12-14T14:04:53.299Z</time>
      </trkpt>
      <trkpt lat="47.74453" lon="-2.28737">
        <ele>49.224018</ele>
        <time>2022-12-14T14:04:56.318Z</time>
      </trkpt>
      <trkpt lat="47.7445" lon="-2.28721">
        <ele>49.407768</ele>
        <time>2022-12-14T14:04:59.321Z</time>
      </trkpt>
      <trkpt lat="47.74447" lon="-2.28705">
        <ele>49.603774</ele>
        <time>2022-12-14T14:05:02.323Z</time>
      </trkpt>
      <trkpt lat="47.74443" lon="-2.28687">
        <ele>49.821426</ele>
        <time>2022-12-14T14:05:05.319Z</time>
      </trkpt>
      <trkpt lat="47.74439" lon="-2.28669">
        <ele>50.032545</ele>
        <time>2022-12-14T14:05:08.321Z</time>
      </trkpt>
      <trkpt lat="47.74437" lon="-2.28654">
        <ele>50.215415</ele>
        <time>2022-12-14T14:05:11.323Z</time>
      </trkpt>
      <trkpt lat="47.74434" lon="-2.28638">
        <ele>50.397866</ele>
        <time>2022-12-14T14:05:14.315Z</time>
      </trkpt>
      <trkpt lat="47.74432" lon="-2.2862">
        <ele>50.607125</ele>
        <time>2022-12-14T14:05:17.313Z</time>
      </trkpt>
      <trkpt lat="47.7443" lon="-2.28601">
        <ele>50.83467</ele>
        <time>2022-12-14T14:05:20.317Z</time>
      </trkpt>
      <trkpt lat="47.74428" lon="-2.28581">
        <ele>51.058242</ele>
        <time>2022-12-14T14:05:23.315Z</time>
      </trkpt>
      <trkpt lat="47.74425" lon="-2.28563">
        <ele>51.271686</ele>
        <time>2022-12-14T14:05:26.308Z</time>
      </trkpt>
      <trkpt lat="47.74423" lon="-2.28544">
        <ele>51.493605</ele>
        <time>2022-12-14T14:05:29.309Z</time>
      </trkpt>
      <trkpt lat="47.74421" lon="-2.28526">
        <ele>51.695815</ele>
        <time>2022-12-14T14:05:32.306Z</time>
      </trkpt>
      <trkpt lat="47.74418" lon="-2.28507">
        <ele>51.765315</ele>
        <time>2022-12-14T14:05:35.318Z</time>
      </trkpt>
      <trkpt lat="47.74416" lon="-2.28494">
        <ele>51.760299</ele>
        <time>2022-12-14T14:05:37.307Z</time>
      </trkpt>
      <trkpt lat="47.74413" lon="-2.28478">
        <ele>51.754447</ele>
        <time>2022-12-14T14:05:39.320Z</time>
      </trkpt>
      <trkpt lat="47.7441" lon="-2.28465">
        <ele>51.74944</ele>
        <time>2022-12-14T14:05:41.319Z</time>
      </trkpt>
      <trkpt lat="47.74408" lon="-2.28452">
        <ele>51.744268</ele>
        <time>2022-12-14T14:05:43.329Z</time>
      </trkpt>
      <trkpt lat="47.74405" lon="-2.28438">
        <ele>51.73889</ele>
        <time>2022-12-14T14:05:45.313Z</time>
      </trkpt>
      <trkpt lat="47.74401" lon="-2.28424">
        <ele>51.733528</ele>
        <time>2022-12-14T14:05:47.313Z</time>
      </trkpt>
      <trkpt lat="47.74399" lon="-2.28411">
        <ele>51.728483</ele>
        <time>2022-12-14T14:05:49.298Z</time>
      </trkpt>
      <trkpt lat="47.74396" lon="-2.28398">
        <ele>51.723337</ele>
        <time>2022-12-14T14:05:51.318Z</time>
      </trkpt>
      <trkpt lat="47.74392" lon="-2.28378">
        <ele>51.716054</ele>
        <time>2022-12-14T14:05:54.322Z</time>
      </trkpt>
      <trkpt lat="47.7439" lon="-2.28365">
        <ele>51.711028</ele>
        <time>2022-12-14T14:05:56.301Z</time>
      </trkpt>
      <trkpt lat="47.74388" lon="-2.2835">
        <ele>51.705493</ele>
        <time>2022-12-14T14:05:58.315Z</time>
      </trkpt>
      <trkpt lat="47.74387" lon="-2.28336">
        <ele>51.700054</ele>
        <time>2022-12-14T14:06:00.315Z</time>
      </trkpt>
      <trkpt lat="47.74387" lon="-2.28321">
        <ele>51.694735</ele>
        <time>2022-12-14T14:06:02.320Z</time>
      </trkpt>
      <trkpt lat="47.74388" lon="-2.28307">
        <ele>51.689365</ele>
        <time>2022-12-14T14:06:04.315Z</time>
      </trkpt>
      <trkpt lat="47.74387" lon="-2.28292">
        <ele>51.684069</ele>
        <time>2022-12-14T14:06:06.320Z</time>
      </trkpt>
      <trkpt lat="47.74388" lon="-2.28277">
        <ele>51.678418</ele>
        <time>2022-12-14T14:06:08.322Z</time>
      </trkpt>
      <trkpt lat="47.74387" lon="-2.28263">
        <ele>51.673295</ele>
        <time>2022-12-14T14:06:10.321Z</time>
      </trkpt>
      <trkpt lat="47.74385" lon="-2.2825">
        <ele>51.601675</ele>
        <time>2022-12-14T14:06:12.317Z</time>
      </trkpt>
      <trkpt lat="47.74382" lon="-2.28232">
        <ele>51.473099</ele>
        <time>2022-12-14T14:06:15.301Z</time>
      </trkpt>
      <trkpt lat="47.74378" lon="-2.28217">
        <ele>51.360415</ele>
        <time>2022-12-14T14:06:18.318Z</time>
      </trkpt>
      <trkpt lat="47.74375" lon="-2.28204">
        <ele>51.26338</ele>
        <time>2022-12-14T14:06:20.321Z</time>
      </trkpt>
      <trkpt lat="47.74371" lon="-2.28191">
        <ele>51.165444</ele>
        <time>2022-12-14T14:06:22.303Z</time>
      </trkpt>
      <trkpt lat="47.74367" lon="-2.28178">
        <ele>51.065938</ele>
        <time>2022-12-14T14:06:24.319Z</time>
      </trkpt>
      <trkpt lat="47.74362" lon="-2.28166">
        <ele>50.966166</ele>
        <time>2022-12-14T14:06:26.323Z</time>
      </trkpt>
      <trkpt lat="47.74357" lon="-2.28154">
        <ele>50.86796</ele>
        <time>2022-12-14T14:06:28.321Z</time>
      </trkpt>
      <trkpt lat="47.74353" lon="-2.28141">
        <ele>50.769563</ele>
        <time>2022-12-14T14:06:30.321Z</time>
      </trkpt>
      <trkpt lat="47.74348" lon="-2.28129">
        <ele>50.67439</ele>
        <time>2022-12-14T14:06:32.322Z</time>
      </trkpt>
      <trkpt lat="47.74343" lon="-2.28118">
        <ele>50.579218</ele>
        <time>2022-12-14T14:06:34.323Z</time>
      </trkpt>
      <trkpt lat="47.74338" lon="-2.28106">
        <ele>50.478325</ele>
        <time>2022-12-14T14:06:36.295Z</time>
      </trkpt>
      <trkpt lat="47.74331" lon="-2.28095">
        <ele>50.374082</ele>
        <time>2022-12-14T14:06:38.323Z</time>
      </trkpt>
      <trkpt lat="47.74326" lon="-2.28084">
        <ele>50.279583</ele>
        <time>2022-12-14T14:06:40.309Z</time>
      </trkpt>
      <trkpt lat="47.7432" lon="-2.28071">
        <ele>50.174112</ele>
        <time>2022-12-14T14:06:42.322Z</time>
      </trkpt>
      <trkpt lat="47.74314" lon="-2.28056">
        <ele>50.04891</ele>
        <time>2022-12-14T14:06:45.320Z</time>
      </trkpt>
      <trkpt lat="47.74309" lon="-2.28041">
        <ele>49.931642</ele>
        <time>2022-12-14T14:06:48.299Z</time>
      </trkpt>
      <trkpt lat="47.74305" lon="-2.28024">
        <ele>49.804709</ele>
        <time>2022-12-14T14:06:51.326Z</time>
      </trkpt>
      <trkpt lat="47.74301" lon="-2.28005">
        <ele>49.876687</ele>
        <time>2022-12-14T14:06:54.295Z</time>
      </trkpt>
      <trkpt lat="47.74299" lon="-2.27992">
        <ele>49.926372</ele>
        <time>2022-12-14T14:06:56.317Z</time>
      </trkpt>
      <trkpt lat="47.74297" lon="-2.27979">
        <ele>49.976024</ele>
        <time>2022-12-14T14:06:58.303Z</time>
      </trkpt>
      <trkpt lat="47.74295" lon="-2.27965">
        <ele>50.028089</ele>
        <time>2022-12-14T14:07:00.321Z</time>
      </trkpt>
      <trkpt lat="47.74293" lon="-2.27951">
        <ele>50.080998</ele>
        <time>2022-12-14T14:07:02.324Z</time>
      </trkpt>
      <trkpt lat="47.74291" lon="-2.27938">
        <ele>50.130479</ele>
        <time>2022-12-14T14:07:04.323Z</time>
      </trkpt>
      <trkpt lat="47.74289" lon="-2.27919">
        <ele>50.199461</ele>
        <time>2022-12-14T14:07:07.323Z</time>
      </trkpt>
      <trkpt lat="47.74287" lon="-2.27902">
        <ele>50.264142</ele>
        <time>2022-12-14T14:07:10.307Z</time>
      </trkpt>
      <trkpt lat="47.74284" lon="-2.27885">
        <ele>50.32907</ele>
        <time>2022-12-14T14:07:13.318Z</time>
      </trkpt>
      <trkpt lat="47.74282" lon="-2.27866">
        <ele>50.399966</ele>
        <time>2022-12-14T14:07:16.308Z</time>
      </trkpt>
      <trkpt lat="47.7428" lon="-2.27847">
        <ele>50.471253</ele>
        <time>2022-12-14T14:07:19.293Z</time>
      </trkpt>
      <trkpt lat="47.74279" lon="-2.27833">
        <ele>50.522837</ele>
        <time>2022-12-14T14:07:21.310Z</time>
      </trkpt>
      <trkpt lat="47.74278" lon="-2.2782">
        <ele>50.572683</ele>
        <time>2022-12-14T14:07:23.302Z</time>
      </trkpt>
      <trkpt lat="47.74276" lon="-2.27801">
        <ele>50.643759</ele>
        <time>2022-12-14T14:07:26.320Z</time>
      </trkpt>
      <trkpt lat="47.74275" lon="-2.27784">
        <ele>50.707157</ele>
        <time>2022-12-14T14:07:29.324Z</time>
      </trkpt>
      <trkpt lat="47.74274" lon="-2.27767">
        <ele>50.770146</ele>
        <time>2022-12-14T14:07:32.321Z</time>
      </trkpt>
      <trkpt lat="47.74274" lon="-2.27749">
        <ele>50.748873</ele>
        <time>2022-12-14T14:07:35.325Z</time>
      </trkpt>
      <trkpt lat="47.74274" lon="-2.27732">
        <ele>50.680832</ele>
        <time>2022-12-14T14:07:38.303Z</time>
      </trkpt>
      <trkpt lat="47.74274" lon="-2.27714">
        <ele>50.608851</ele>
        <time>2022-12-14T14:07:41.322Z</time>
      </trkpt>
      <trkpt lat="47.74275" lon="-2.27695">
        <ele>50.535978</ele>
        <time>2022-12-14T14:07:44.322Z</time>
      </trkpt>
      <trkpt lat="47.74276" lon="-2.27676">
        <ele>50.461025</ele>
        <time>2022-12-14T14:07:47.314Z</time>
      </trkpt>
      <trkpt lat="47.74277" lon="-2.27657">
        <ele>50.384936</ele>
        <time>2022-12-14T14:07:50.317Z</time>
      </trkpt>
      <trkpt lat="47.7428" lon="-2.27638">
        <ele>50.310172</ele>
        <time>2022-12-14T14:07:53.320Z</time>
      </trkpt>
      <trkpt lat="47.74282" lon="-2.2762">
        <ele>50.238002</ele>
        <time>2022-12-14T14:07:56.319Z</time>
      </trkpt>
      <trkpt lat="47.74285" lon="-2.27602">
        <ele>50.163935</ele>
        <time>2022-12-14T14:07:59.300Z</time>
      </trkpt>
      <trkpt lat="47.74288" lon="-2.27583">
        <ele>50.088129</ele>
        <time>2022-12-14T14:08:02.323Z</time>
      </trkpt>
      <trkpt lat="47.74292" lon="-2.27565">
        <ele>50.011703</ele>
        <time>2022-12-14T14:08:05.323Z</time>
      </trkpt>
      <trkpt lat="47.74296" lon="-2.27549">
        <ele>49.944519</ele>
        <time>2022-12-14T14:08:08.315Z</time>
      </trkpt>
      <trkpt lat="47.74301" lon="-2.27533">
        <ele>49.876199</ele>
        <time>2022-12-14T14:08:11.321Z</time>
      </trkpt>
      <trkpt lat="47.74308" lon="-2.27517">
        <ele>49.801114</ele>
        <time>2022-12-14T14:08:14.321Z</time>
      </trkpt>
      <trkpt lat="47.74317" lon="-2.27502">
        <ele>49.738632</ele>
        <time>2022-12-14T14:08:17.323Z</time>
      </trkpt>
      <trkpt lat="47.74325" lon="-2.27486">
        <ele>49.728909</ele>
        <time>2022-12-14T14:08:20.319Z</time>
      </trkpt>
      <trkpt lat="47.74333" lon="-2.27472">
        <ele>49.719677</ele>
        <time>2022-12-14T14:08:23.305Z</time>
      </trkpt>
      <trkpt lat="47.74341" lon="-2.2746">
        <ele>49.711314</ele>
        <time>2022-12-14T14:08:26.317Z</time>
      </trkpt>
      <trkpt lat="47.74349" lon="-2.27448">
        <ele>49.703238</ele>
        <time>2022-12-14T14:08:29.299Z</time>
      </trkpt>
      <trkpt lat="47.74356" lon="-2.27436">
        <ele>49.695075</ele>
        <time>2022-12-14T14:08:32.316Z</time>
      </trkpt>
      <trkpt lat="47.74365" lon="-2.27422">
        <ele>49.685707</ele>
        <time>2022-12-14T14:08:35.319Z</time>
      </trkpt>
      <trkpt lat="47.74373" lon="-2.27407">
        <ele>49.676093</ele>
        <time>2022-12-14T14:08:38.305Z</time>
      </trkpt>
      <trkpt lat="47.7438" lon="-2.27393">
        <ele>49.66766</ele>
        <time>2022-12-14T14:08:41.317Z</time>
      </trkpt>
      <trkpt lat="47.74384" lon="-2.27379">
        <ele>49.659908</ele>
        <time>2022-12-14T14:08:44.314Z</time>
      </trkpt>
      <trkpt lat="47.74389" lon="-2.27363">
        <ele>49.651243</ele>
        <time>2022-12-14T14:08:47.319Z</time>
      </trkpt>
      <trkpt lat="47.74392" lon="-2.27343">
        <ele>49.64155</ele>
        <time>2022-12-14T14:08:50.321Z</time>
      </trkpt>
      <trkpt lat="47.74395" lon="-2.27325">
        <ele>49.632033</ele>
        <time>2022-12-14T14:08:53.314Z</time>
      </trkpt>
      <trkpt lat="47.74397" lon="-2.27305">
        <ele>49.622181</ele>
        <time>2022-12-14T14:08:56.322Z</time>
      </trkpt>
      <trkpt lat="47.74399" lon="-2.27285">
        <ele>49.612499</ele>
        <time>2022-12-14T14:08:59.319Z</time>
      </trkpt>
      <trkpt lat="47.744" lon="-2.27268">
        <ele>49.793042</ele>
        <time>2022-12-14T14:09:02.343Z</time>
      </trkpt>
      <trkpt lat="47.74401" lon="-2.27251">
        <ele>50.08998</ele>
        <time>2022-12-14T14:09:05.313Z</time>
      </trkpt>
      <trkpt lat="47.74401" lon="-2.27234">
        <ele>50.401014</ele>
        <time>2022-12-14T14:09:08.320Z</time>
      </trkpt>
      <trkpt lat="47.74402" lon="-2.27216">
        <ele>50.727376</ele>
        <time>2022-12-14T14:09:11.322Z</time>
      </trkpt>
      <trkpt lat="47.74404" lon="-2.27198">
        <ele>51.049695</ele>
        <time>2022-12-14T14:09:14.325Z</time>
      </trkpt>
      <trkpt lat="47.74407" lon="-2.2718">
        <ele>51.373252</ele>
        <time>2022-12-14T14:09:17.325Z</time>
      </trkpt>
      <trkpt lat="47.74411" lon="-2.27164">
        <ele>51.681469</ele>
        <time>2022-12-14T14:09:20.314Z</time>
      </trkpt>
      <trkpt lat="47.74416" lon="-2.27147">
        <ele>51.993241</ele>
        <time>2022-12-14T14:09:23.302Z</time>
      </trkpt>
      <trkpt lat="47.74422" lon="-2.2713">
        <ele>52.347747</ele>
        <time>2022-12-14T14:09:26.297Z</time>
      </trkpt>
      <trkpt lat="47.7443" lon="-2.27117">
        <ele>52.64756</ele>
        <time>2022-12-14T14:09:28.319Z</time>
      </trkpt>
      <trkpt lat="47.74437" lon="-2.27107">
        <ele>52.910897</ele>
        <time>2022-12-14T14:09:30.320Z</time>
      </trkpt>
      <trkpt lat="47.74444" lon="-2.27092">
        <ele>53.230011</ele>
        <time>2022-12-14T14:09:33.322Z</time>
      </trkpt>
      <trkpt lat="47.74452" lon="-2.2708">
        <ele>53.533325</ele>
        <time>2022-12-14T14:09:36.316Z</time>
      </trkpt>
      <trkpt lat="47.74459" lon="-2.27068">
        <ele>53.827844</ele>
        <time>2022-12-14T14:09:39.297Z</time>
      </trkpt>
      <trkpt lat="47.74467" lon="-2.27055">
        <ele>54.134477</ele>
        <time>2022-12-14T14:09:42.325Z</time>
      </trkpt>
      <trkpt lat="47.74474" lon="-2.27042">
        <ele>54.359147</ele>
        <time>2022-12-14T14:09:45.322Z</time>
      </trkpt>
      <trkpt lat="47.74482" lon="-2.27029">
        <ele>54.355146</ele>
        <time>2022-12-14T14:09:48.319Z</time>
      </trkpt>
      <trkpt lat="47.74489" lon="-2.27018">
        <ele>54.351478</ele>
        <time>2022-12-14T14:09:51.323Z</time>
      </trkpt>
      <trkpt lat="47.74498" lon="-2.27008">
        <ele>54.347821</ele>
        <time>2022-12-14T14:09:54.320Z</time>
      </trkpt>
      <trkpt lat="47.74506" lon="-2.27">
        <ele>54.344232</ele>
        <time>2022-12-14T14:09:57.297Z</time>
      </trkpt>
      <trkpt lat="47.74516" lon="-2.26992">
        <ele>54.340275</ele>
        <time>2022-12-14T14:10:00.321Z</time>
      </trkpt>
      <trkpt lat="47.74527" lon="-2.26986">
        <ele>54.336301</ele>
        <time>2022-12-14T14:10:03.302Z</time>
      </trkpt>
      <trkpt lat="47.74536" lon="-2.26982">
        <ele>54.333083</ele>
        <time>2022-12-14T14:10:05.300Z</time>
      </trkpt>
      <trkpt lat="47.74545" lon="-2.26979">
        <ele>54.329835</ele>
        <time>2022-12-14T14:10:07.320Z</time>
      </trkpt>
      <trkpt lat="47.74557" lon="-2.26974">
        <ele>54.32543</ele>
        <time>2022-12-14T14:10:10.320Z</time>
      </trkpt>
      <trkpt lat="47.74568" lon="-2.2697">
        <ele>54.321257</ele>
        <time>2022-12-14T14:10:13.317Z</time>
      </trkpt>
      <trkpt lat="47.74581" lon="-2.26964">
        <ele>54.316695</ele>
        <time>2022-12-14T14:10:16.315Z</time>
      </trkpt>
      <trkpt lat="47.74591" lon="-2.26959">
        <ele>54.312703</ele>
        <time>2022-12-14T14:10:19.325Z</time>
      </trkpt>
      <trkpt lat="47.74602" lon="-2.26951">
        <ele>54.308694</ele>
        <time>2022-12-14T14:10:21.316Z</time>
      </trkpt>
      <trkpt lat="47.74611" lon="-2.26943">
        <ele>54.305014</ele>
        <time>2022-12-14T14:10:23.307Z</time>
      </trkpt>
      <trkpt lat="47.74618" lon="-2.26934">
        <ele>54.301786</ele>
        <time>2022-12-14T14:10:25.301Z</time>
      </trkpt>
      <trkpt lat="47.74624" lon="-2.2692">
        <ele>54.297639</ele>
        <time>2022-12-14T14:10:28.311Z</time>
      </trkpt>
      <trkpt lat="47.74631" lon="-2.26905">
        <ele>53.935536</ele>
        <time>2022-12-14T14:10:31.316Z</time>
      </trkpt>
      <trkpt lat="47.74636" lon="-2.26889">
        <ele>53.523809</ele>
        <time>2022-12-14T14:10:34.319Z</time>
      </trkpt>
      <trkpt lat="47.74641" lon="-2.26872">
        <ele>53.098098</ele>
        <time>2022-12-14T14:10:37.325Z</time>
      </trkpt>
      <trkpt lat="47.74643" lon="-2.26854">
        <ele>52.658757</ele>
        <time>2022-12-14T14:10:40.297Z</time>
      </trkpt>
      <trkpt lat="47.74644" lon="-2.26834">
        <ele>52.207635</ele>
        <time>2022-12-14T14:10:43.299Z</time>
      </trkpt>
      <trkpt lat="47.74643" lon="-2.26815">
        <ele>51.754188</ele>
        <time>2022-12-14T14:10:46.306Z</time>
      </trkpt>
      <trkpt lat="47.7464" lon="-2.26797">
        <ele>51.312701</ele>
        <time>2022-12-14T14:10:49.301Z</time>
      </trkpt>
      <trkpt lat="47.74635" lon="-2.26781">
        <ele>50.903401</ele>
        <time>2022-12-14T14:10:52.300Z</time>
      </trkpt>
      <trkpt lat="47.74629" lon="-2.26769">
        <ele>50.565825</ele>
        <time>2022-12-14T14:10:55.301Z</time>
      </trkpt>
      <trkpt lat="47.74622" lon="-2.26759">
        <ele>50.228444</ele>
        <time>2022-12-14T14:10:58.301Z</time>
      </trkpt>
      <trkpt lat="47.74613" lon="-2.26747">
        <ele>49.808224</ele>
        <time>2022-12-14T14:11:01.320Z</time>
      </trkpt>
      <trkpt lat="47.74603" lon="-2.26735">
        <ele>49.372161</ele>
        <time>2022-12-14T14:11:04.316Z</time>
      </trkpt>
      <trkpt lat="47.74593" lon="-2.26723">
        <ele>48.920647</ele>
        <time>2022-12-14T14:11:07.297Z</time>
      </trkpt>
      <trkpt lat="47.74584" lon="-2.26709">
        <ele>48.460953</ele>
        <time>2022-12-14T14:11:10.322Z</time>
      </trkpt>
      <trkpt lat="47.74576" lon="-2.26695">
        <ele>48.059924</ele>
        <time>2022-12-14T14:11:13.301Z</time>
      </trkpt>
      <trkpt lat="47.74569" lon="-2.26679">
        <ele>48.062831</ele>
        <time>2022-12-14T14:11:16.323Z</time>
      </trkpt>
      <trkpt lat="47.74563" lon="-2.26663">
        <ele>48.06573</ele>
        <time>2022-12-14T14:11:19.314Z</time>
      </trkpt>
      <trkpt lat="47.74558" lon="-2.26649">
        <ele>48.068215</ele>
        <time>2022-12-14T14:11:22.297Z</time>
      </trkpt>
      <trkpt lat="47.74552" lon="-2.26633">
        <ele>48.071062</ele>
        <time>2022-12-14T14:11:25.317Z</time>
      </trkpt>
      <trkpt lat="47.74548" lon="-2.26616">
        <ele>48.073797</ele>
        <time>2022-12-14T14:11:28.318Z</time>
      </trkpt>
      <trkpt lat="47.74545" lon="-2.26599">
        <ele>48.076479</ele>
        <time>2022-12-14T14:11:31.309Z</time>
      </trkpt>
      <trkpt lat="47.74543" lon="-2.26582">
        <ele>48.079242</ele>
        <time>2022-12-14T14:11:34.319Z</time>
      </trkpt>
      <trkpt lat="47.74541" lon="-2.26565">
        <ele>48.081979</ele>
        <time>2022-12-14T14:11:37.324Z</time>
      </trkpt>
      <trkpt lat="47.74539" lon="-2.26549">
        <ele>48.084496</ele>
        <time>2022-12-14T14:11:40.305Z</time>
      </trkpt>
      <trkpt lat="47.74537" lon="-2.26534">
        <ele>48.086766</ele>
        <time>2022-12-14T14:11:43.323Z</time>
      </trkpt>
      <trkpt lat="47.74536" lon="-2.26518">
        <ele>48.089344</ele>
        <time>2022-12-14T14:11:47.323Z</time>
      </trkpt>
      <trkpt lat="47.74534" lon="-2.26502">
        <ele>48.091866</ele>
        <time>2022-12-14T14:11:51.322Z</time>
      </trkpt>
      <trkpt lat="47.74531" lon="-2.26486">
        <ele>48.094337</ele>
        <time>2022-12-14T14:11:55.322Z</time>
      </trkpt>
      <trkpt lat="47.7453" lon="-2.26473">
        <ele>48.096443</ele>
        <time>2022-12-14T14:11:58.310Z</time>
      </trkpt>
      <trkpt lat="47.74528" lon="-2.26456">
        <ele>48.099073</ele>
        <time>2022-12-14T14:12:02.320Z</time>
      </trkpt>
      <trkpt lat="47.74527" lon="-2.2644">
        <ele>48.104607</ele>
        <time>2022-12-14T14:12:06.304Z</time>
      </trkpt>
      <trkpt lat="47.74528" lon="-2.26425">
        <ele>48.130001</ele>
        <time>2022-12-14T14:12:10.302Z</time>
      </trkpt>
      <trkpt lat="47.74528" lon="-2.26411">
        <ele>48.152574</ele>
        <time>2022-12-14T14:12:14.306Z</time>
      </trkpt>
      <trkpt lat="47.74527" lon="-2.26398">
        <ele>48.175654</ele>
        <time>2022-12-14T14:12:18.301Z</time>
      </trkpt>
      <trkpt lat="47.74528" lon="-2.26384">
        <ele>48.198521</ele>
        <time>2022-12-14T14:12:21.322Z</time>
      </trkpt>
      <trkpt lat="47.74525" lon="-2.26367">
        <ele>48.227146</ele>
        <time>2022-12-14T14:12:24.301Z</time>
      </trkpt>
      <trkpt lat="47.74524" lon="-2.26348">
        <ele>48.259401</ele>
        <time>2022-12-14T14:12:27.322Z</time>
      </trkpt>
      <trkpt lat="47.74522" lon="-2.26335">
        <ele>48.281699</ele>
        <time>2022-12-14T14:12:29.299Z</time>
      </trkpt>
      <trkpt lat="47.7452" lon="-2.26318">
        <ele>48.310527</ele>
        <time>2022-12-14T14:12:32.301Z</time>
      </trkpt>
      <trkpt lat="47.74519" lon="-2.26302">
        <ele>48.337097</ele>
        <time>2022-12-14T14:12:35.300Z</time>
      </trkpt>
      <trkpt lat="47.74516" lon="-2.26288">
        <ele>48.361639</ele>
        <time>2022-12-14T14:12:38.322Z</time>
      </trkpt>
      <trkpt lat="47.74514" lon="-2.26274">
        <ele>48.384927</ele>
        <time>2022-12-14T14:12:41.322Z</time>
      </trkpt>
      <trkpt lat="47.74511" lon="-2.26259">
        <ele>48.411981</ele>
        <time>2022-12-14T14:12:44.313Z</time>
      </trkpt>
      <trkpt lat="47.74506" lon="-2.26243">
        <ele>48.440964</ele>
        <time>2022-12-14T14:12:47.304Z</time>
      </trkpt>
      <trkpt lat="47.745" lon="-2.26227">
        <ele>48.471477</ele>
        <time>2022-12-14T14:12:50.305Z</time>
      </trkpt>
      <trkpt lat="47.74493" lon="-2.26212">
        <ele>48.501664</ele>
        <time>2022-12-14T14:12:53.301Z</time>
      </trkpt>
      <trkpt lat="47.74484" lon="-2.26197">
        <ele>48.534049</ele>
        <time>2022-12-14T14:12:56.322Z</time>
      </trkpt>
      <trkpt lat="47.74478" lon="-2.26187">
        <ele>48.529032</ele>
        <time>2022-12-14T14:12:58.322Z</time>
      </trkpt>
      <trkpt lat="47.74471" lon="-2.26177">
        <ele>48.4948</ele>
        <time>2022-12-14T14:13:00.322Z</time>
      </trkpt>
      <trkpt lat="47.74465" lon="-2.26167">
        <ele>48.460676</ele>
        <time>2022-12-14T14:13:02.301Z</time>
      </trkpt>
      <trkpt lat="47.74458" lon="-2.26158">
        <ele>48.425743</ele>
        <time>2022-12-14T14:13:04.316Z</time>
      </trkpt>
      <trkpt lat="47.74451" lon="-2.26148">
        <ele>48.391253</ele>
        <time>2022-12-14T14:13:06.320Z</time>
      </trkpt>
      <trkpt lat="47.74442" lon="-2.26135">
        <ele>48.344547</ele>
        <time>2022-12-14T14:13:09.324Z</time>
      </trkpt>
      <trkpt lat="47.74432" lon="-2.26125">
        <ele>48.301022</ele>
        <time>2022-12-14T14:13:12.313Z</time>
      </trkpt>
      <trkpt lat="47.74425" lon="-2.26113">
        <ele>48.259686</ele>
        <time>2022-12-14T14:13:15.317Z</time>
      </trkpt>
      <trkpt lat="47.74417" lon="-2.26102">
        <ele>48.219406</ele>
        <time>2022-12-14T14:13:18.299Z</time>
      </trkpt>
      <trkpt lat="47.74409" lon="-2.26089">
        <ele>48.175781</ele>
        <time>2022-12-14T14:13:21.324Z</time>
      </trkpt>
      <trkpt lat="47.744" lon="-2.26077">
        <ele>48.131457</ele>
        <time>2022-12-14T14:13:24.320Z</time>
      </trkpt>
      <trkpt lat="47.74391" lon="-2.26064">
        <ele>48.085727</ele>
        <time>2022-12-14T14:13:27.322Z</time>
      </trkpt>
      <trkpt lat="47.74382" lon="-2.26051">
        <ele>48.03688</ele>
        <time>2022-12-14T14:13:30.299Z</time>
      </trkpt>
      <trkpt lat="47.74372" lon="-2.26038">
        <ele>47.989239</ele>
        <time>2022-12-14T14:13:33.321Z</time>
      </trkpt>
      <trkpt lat="47.74364" lon="-2.26031">
        <ele>47.955215</ele>
        <time>2022-12-14T14:13:35.327Z</time>
      </trkpt>
      <trkpt lat="47.74356" lon="-2.26024">
        <ele>47.920782</ele>
        <time>2022-12-14T14:13:37.328Z</time>
      </trkpt>
      <trkpt lat="47.74348" lon="-2.26017">
        <ele>47.885531</ele>
        <time>2022-12-14T14:13:39.308Z</time>
      </trkpt>
      <trkpt lat="47.7434" lon="-2.2601">
        <ele>47.995004</ele>
        <time>2022-12-14T14:13:41.322Z</time>
      </trkpt>
      <trkpt lat="47.74331" lon="-2.26006">
        <ele>48.13515</ele>
        <time>2022-12-14T14:13:43.325Z</time>
      </trkpt>
      <trkpt lat="47.74319" lon="-2.25998">
        <ele>48.337602</ele>
        <time>2022-12-14T14:13:46.319Z</time>
      </trkpt>
      <trkpt lat="47.74307" lon="-2.25993">
        <ele>48.529232</ele>
        <time>2022-12-14T14:13:49.320Z</time>
      </trkpt>
      <trkpt lat="47.74294" lon="-2.25987">
        <ele>48.734593</ele>
        <time>2022-12-14T14:13:52.324Z</time>
      </trkpt>
      <trkpt lat="47.74285" lon="-2.25984">
        <ele>48.877104</ele>
        <time>2022-12-14T14:13:54.317Z</time>
      </trkpt>
      <trkpt lat="47.74275" lon="-2.25983">
        <ele>49.019429</ele>
        <time>2022-12-14T14:13:56.315Z</time>
      </trkpt>
      <trkpt lat="47.74266" lon="-2.25983">
        <ele>49.165493</ele>
        <time>2022-12-14T14:13:58.321Z</time>
      </trkpt>
      <trkpt lat="47.74257" lon="-2.25983">
        <ele>49.303946</ele>
        <time>2022-12-14T14:14:00.320Z</time>
      </trkpt>
      <trkpt lat="47.74247" lon="-2.25982">
        <ele>49.447197</ele>
        <time>2022-12-14T14:14:02.321Z</time>
      </trkpt>
      <trkpt lat="47.74237" lon="-2.25981">
        <ele>49.596893</ele>
        <time>2022-12-14T14:14:04.321Z</time>
      </trkpt>
      <trkpt lat="47.74228" lon="-2.25979">
        <ele>49.742474</ele>
        <time>2022-12-14T14:14:06.322Z</time>
      </trkpt>
      <trkpt lat="47.74215" lon="-2.25976">
        <ele>49.946846</ele>
        <time>2022-12-14T14:14:09.320Z</time>
      </trkpt>
      <trkpt lat="47.74202" lon="-2.25972">
        <ele>50.148211</ele>
        <time>2022-12-14T14:14:12.317Z</time>
      </trkpt>
      <trkpt lat="47.74193" lon="-2.25968">
        <ele>50.287523</ele>
        <time>2022-12-14T14:14:14.320Z</time>
      </trkpt>
      <trkpt lat="47.74184" lon="-2.25964">
        <ele>50.428139</ele>
        <time>2022-12-14T14:14:16.326Z</time>
      </trkpt>
      <trkpt lat="47.74175" lon="-2.25959">
        <ele>50.575417</ele>
        <time>2022-12-14T14:14:18.324Z</time>
      </trkpt>
      <trkpt lat="47.74166" lon="-2.25953">
        <ele>50.448131</ele>
        <time>2022-12-14T14:14:20.310Z</time>
      </trkpt>
      <trkpt lat="47.74157" lon="-2.25947">
        <ele>50.229289</ele>
        <time>2022-12-14T14:14:22.323Z</time>
      </trkpt>
      <trkpt lat="47.74148" lon="-2.25942">
        <ele>50.013431</ele>
        <time>2022-12-14T14:14:24.329Z</time>
      </trkpt>
      <trkpt lat="47.74137" lon="-2.25933">
        <ele>49.71324</ele>
        <time>2022-12-14T14:14:27.319Z</time>
      </trkpt>
      <trkpt lat="47.74125" lon="-2.25923">
        <ele>49.418115</ele>
        <time>2022-12-14T14:14:30.304Z</time>
      </trkpt>
      <trkpt lat="47.74117" lon="-2.25917">
        <ele>49.211008</ele>
        <time>2022-12-14T14:14:32.323Z</time>
      </trkpt>
      <trkpt lat="47.74109" lon="-2.2591">
        <ele>48.998153</ele>
        <time>2022-12-14T14:14:34.324Z</time>
      </trkpt>
      <trkpt lat="47.74101" lon="-2.25902">
        <ele>48.777921</ele>
        <time>2022-12-14T14:14:36.320Z</time>
      </trkpt>
      <trkpt lat="47.74093" lon="-2.25895">
        <ele>48.568843</ele>
        <time>2022-12-14T14:14:38.304Z</time>
      </trkpt>
      <trkpt lat="47.74085" lon="-2.25887">
        <ele>48.348802</ele>
        <time>2022-12-14T14:14:40.328Z</time>
      </trkpt>
      <trkpt lat="47.74075" lon="-2.25875">
        <ele>48.045935</ele>
        <time>2022-12-14T14:14:43.302Z</time>
      </trkpt>
      <trkpt lat="47.74066" lon="-2.25867">
        <ele>47.824625</ele>
        <time>2022-12-14T14:14:45.323Z</time>
      </trkpt>
      <trkpt lat="47.74059" lon="-2.25858">
        <ele>47.609792</ele>
        <time>2022-12-14T14:14:47.319Z</time>
      </trkpt>
      <trkpt lat="47.74052" lon="-2.25849">
        <ele>47.401413</ele>
        <time>2022-12-14T14:14:49.319Z</time>
      </trkpt>
      <trkpt lat="47.74045" lon="-2.25841">
        <ele>47.186851</ele>
        <time>2022-12-14T14:14:51.305Z</time>
      </trkpt>
      <trkpt lat="47.74038" lon="-2.25832">
        <ele>46.97615</ele>
        <time>2022-12-14T14:14:53.334Z</time>
      </trkpt>
      <trkpt lat="47.74028" lon="-2.25819">
        <ele>46.685571</ele>
        <time>2022-12-14T14:14:56.319Z</time>
      </trkpt>
      <trkpt lat="47.74018" lon="-2.25809">
        <ele>46.52078</ele>
        <time>2022-12-14T14:14:59.316Z</time>
      </trkpt>
      <trkpt lat="47.74008" lon="-2.25799">
        <ele>46.507803</ele>
        <time>2022-12-14T14:15:02.307Z</time>
      </trkpt>
      <trkpt lat="47.74001" lon="-2.25791">
        <ele>46.498319</ele>
        <time>2022-12-14T14:15:04.322Z</time>
      </trkpt>
      <trkpt lat="47.73993" lon="-2.25784">
        <ele>46.488492</ele>
        <time>2022-12-14T14:15:06.325Z</time>
      </trkpt>
      <trkpt lat="47.73985" lon="-2.25777">
        <ele>46.478632</ele>
        <time>2022-12-14T14:15:08.326Z</time>
      </trkpt>
      <trkpt lat="47.73977" lon="-2.2577">
        <ele>46.46907</ele>
        <time>2022-12-14T14:15:10.325Z</time>
      </trkpt>
      <trkpt lat="47.73967" lon="-2.2576">
        <ele>46.456243</ele>
        <time>2022-12-14T14:15:13.318Z</time>
      </trkpt>
      <trkpt lat="47.73956" lon="-2.25751">
        <ele>46.443233</ele>
        <time>2022-12-14T14:15:16.324Z</time>
      </trkpt>
      <trkpt lat="47.73946" lon="-2.25743">
        <ele>46.431474</ele>
        <time>2022-12-14T14:15:19.308Z</time>
      </trkpt>
      <trkpt lat="47.73938" lon="-2.25735">
        <ele>46.42081</ele>
        <time>2022-12-14T14:15:22.309Z</time>
      </trkpt>
      <trkpt lat="47.73929" lon="-2.25727">
        <ele>46.410476</ele>
        <time>2022-12-14T14:15:25.299Z</time>
      </trkpt>
      <trkpt lat="47.7392" lon="-2.25719">
        <ele>46.398698</ele>
        <time>2022-12-14T14:15:28.321Z</time>
      </trkpt>
      <trkpt lat="47.73909" lon="-2.25709">
        <ele>46.385866</ele>
        <time>2022-12-14T14:15:31.323Z</time>
      </trkpt>
      <trkpt lat="47.73902" lon="-2.25702">
        <ele>46.376128</ele>
        <time>2022-12-14T14:15:33.297Z</time>
      </trkpt>
      <trkpt lat="47.73893" lon="-2.25695">
        <ele>46.365848</ele>
        <time>2022-12-14T14:15:35.322Z</time>
      </trkpt>
      <trkpt lat="47.73884" lon="-2.25687">
        <ele>46.355445</ele>
        <time>2022-12-14T14:15:37.327Z</time>
      </trkpt>
      <trkpt lat="47.73876" lon="-2.25679">
        <ele>46.344577</ele>
        <time>2022-12-14T14:15:39.309Z</time>
      </trkpt>
      <trkpt lat="47.73867" lon="-2.25672">
        <ele>46.342776</ele>
        <time>2022-12-14T14:15:41.323Z</time>
      </trkpt>
      <trkpt lat="47.73859" lon="-2.25664">
        <ele>46.373708</ele>
        <time>2022-12-14T14:15:43.299Z</time>
      </trkpt>
      <trkpt lat="47.73848" lon="-2.25653">
        <ele>46.414201</ele>
        <time>2022-12-14T14:15:46.321Z</time>
      </trkpt>
      <trkpt lat="47.73839" lon="-2.25642">
        <ele>46.453059</ele>
        <time>2022-12-14T14:15:49.296Z</time>
      </trkpt>
      <trkpt lat="47.7383" lon="-2.25631">
        <ele>46.488828</ele>
        <time>2022-12-14T14:15:52.309Z</time>
      </trkpt>
      <trkpt lat="47.73821" lon="-2.25617">
        <ele>46.529503</ele>
        <time>2022-12-14T14:15:55.296Z</time>
      </trkpt>
      <trkpt lat="47.73813" lon="-2.25602">
        <ele>46.569935</ele>
        <time>2022-12-14T14:15:58.320Z</time>
      </trkpt>
      <trkpt lat="47.73806" lon="-2.25586">
        <ele>46.609996</ele>
        <time>2022-12-14T14:16:01.320Z</time>
      </trkpt>
      <trkpt lat="47.738" lon="-2.25569">
        <ele>46.650363</ele>
        <time>2022-12-14T14:16:04.316Z</time>
      </trkpt>
      <trkpt lat="47.73794" lon="-2.25551">
        <ele>46.691567</ele>
        <time>2022-12-14T14:16:07.320Z</time>
      </trkpt>
      <trkpt lat="47.73789" lon="-2.25535">
        <ele>46.730876</ele>
        <time>2022-12-14T14:16:10.322Z</time>
      </trkpt>
      <trkpt lat="47.73783" lon="-2.25518">
        <ele>46.77067</ele>
        <time>2022-12-14T14:16:13.299Z</time>
      </trkpt>
      <trkpt lat="47.7378" lon="-2.25505">
        <ele>46.798861</ele>
        <time>2022-12-14T14:16:15.321Z</time>
      </trkpt>
      <trkpt lat="47.73774" lon="-2.25488">
        <ele>46.839231</ele>
        <time>2022-12-14T14:16:18.321Z</time>
      </trkpt>
      <trkpt lat="47.73769" lon="-2.25471">
        <ele>46.878702</ele>
        <time>2022-12-14T14:16:21.321Z</time>
      </trkpt>
      <trkpt lat="47.73764" lon="-2.25456">
        <ele>46.915987</ele>
        <time>2022-12-14T14:16:24.322Z</time>
      </trkpt>
      <trkpt lat="47.73759" lon="-2.2544">
        <ele>46.955376</ele>
        <time>2022-12-14T14:16:27.322Z</time>
      </trkpt>
      <trkpt lat="47.73754" lon="-2.25425">
        <ele>46.993796</ele>
        <time>2022-12-14T14:16:30.320Z</time>
      </trkpt>
      <trkpt lat="47.73749" lon="-2.25408">
        <ele>47.034839</ele>
        <time>2022-12-14T14:16:33.299Z</time>
      </trkpt>
      <trkpt lat="47.73744" lon="-2.25393">
        <ele>47.073039</ele>
        <time>2022-12-14T14:16:36.319Z</time>
      </trkpt>
      <trkpt lat="47.73739" lon="-2.25376">
        <ele>47.115678</ele>
        <time>2022-12-14T14:16:39.309Z</time>
      </trkpt>
      <trkpt lat="47.73733" lon="-2.25361">
        <ele>47.154346</ele>
        <time>2022-12-14T14:16:42.323Z</time>
      </trkpt>
      <trkpt lat="47.73727" lon="-2.25346">
        <ele>47.194518</ele>
        <time>2022-12-14T14:16:45.319Z</time>
      </trkpt>
      <trkpt lat="47.73722" lon="-2.25331">
        <ele>47.234785</ele>
        <time>2022-12-14T14:16:48.324Z</time>
      </trkpt>
      <trkpt lat="47.73717" lon="-2.25315">
        <ele>47.274732</ele>
        <time>2022-12-14T14:16:51.322Z</time>
      </trkpt>
      <trkpt lat="47.73711" lon="-2.25298">
        <ele>47.317029</ele>
        <time>2022-12-14T14:16:54.317Z</time>
      </trkpt>
      <trkpt lat="47.73705" lon="-2.25281">
        <ele>47.359668</ele>
        <time>2022-12-14T14:16:57.324Z</time>
      </trkpt>
      <trkpt lat="47.737" lon="-2.25265">
        <ele>47.402029</ele>
        <time>2022-12-14T14:17:00.320Z</time>
      </trkpt>
      <trkpt lat="47.73694" lon="-2.2525">
        <ele>47.440834</ele>
        <time>2022-12-14T14:17:03.300Z</time>
      </trkpt>
      <trkpt lat="47.73689" lon="-2.25237">
        <ele>47.475096</ele>
        <time>2022-12-14T14:17:06.315Z</time>
      </trkpt>
      <trkpt lat="47.73683" lon="-2.25224">
        <ele>47.515618</ele>
        <time>2022-12-14T14:17:09.323Z</time>
      </trkpt>
      <trkpt lat="47.73677" lon="-2.25209">
        <ele>47.612822</ele>
        <time>2022-12-14T14:17:12.323Z</time>
      </trkpt>
      <trkpt lat="47.7367" lon="-2.25195">
        <ele>47.708626</ele>
        <time>2022-12-14T14:17:15.326Z</time>
      </trkpt>
      <trkpt lat="47.73664" lon="-2.2518">
        <ele>47.80878</ele>
        <time>2022-12-14T14:17:18.321Z</time>
      </trkpt>
      <trkpt lat="47.73658" lon="-2.25164">
        <ele>47.911726</ele>
        <time>2022-12-14T14:17:21.324Z</time>
      </trkpt>
      <trkpt lat="47.73653" lon="-2.25147">
        <ele>48.014841</ele>
        <time>2022-12-14T14:17:24.324Z</time>
      </trkpt>
      <trkpt lat="47.73648" lon="-2.25129">
        <ele>48.123268</ele>
        <time>2022-12-14T14:17:27.320Z</time>
      </trkpt>
      <trkpt lat="47.73645" lon="-2.25111">
        <ele>48.230632</ele>
        <time>2022-12-14T14:17:30.300Z</time>
      </trkpt>
      <trkpt lat="47.73642" lon="-2.25094">
        <ele>48.32939</ele>
        <time>2022-12-14T14:17:33.303Z</time>
      </trkpt>
      <trkpt lat="47.7364" lon="-2.25078">
        <ele>48.421987</ele>
        <time>2022-12-14T14:17:36.322Z</time>
      </trkpt>
      <trkpt lat="47.73638" lon="-2.25061">
        <ele>48.515076</ele>
        <time>2022-12-14T14:17:39.312Z</time>
      </trkpt>
      <trkpt lat="47.73637" lon="-2.25045">
        <ele>48.608831</ele>
        <time>2022-12-14T14:17:42.320Z</time>
      </trkpt>
      <trkpt lat="47.73636" lon="-2.25027">
        <ele>48.708162</ele>
        <time>2022-12-14T14:17:45.299Z</time>
      </trkpt>
      <trkpt lat="47.73636" lon="-2.25009">
        <ele>48.813464</ele>
        <time>2022-12-14T14:17:48.321Z</time>
      </trkpt>
      <trkpt lat="47.73637" lon="-2.24993">
        <ele>48.904435</ele>
        <time>2022-12-14T14:17:51.322Z</time>
      </trkpt>
      <trkpt lat="47.73638" lon="-2.24978">
        <ele>48.987922</ele>
        <time>2022-12-14T14:17:54.321Z</time>
      </trkpt>
      <trkpt lat="47.7364" lon="-2.24964">
        <ele>49.014735</ele>
        <time>2022-12-14T14:17:57.320Z</time>
      </trkpt>
      <trkpt lat="47.73643" lon="-2.24949">
        <ele>49.013584</ele>
        <time>2022-12-14T14:18:00.313Z</time>
      </trkpt>
      <trkpt lat="47.73645" lon="-2.24932">
        <ele>49.012292</ele>
        <time>2022-12-14T14:18:03.299Z</time>
      </trkpt>
      <trkpt lat="47.73648" lon="-2.24916">
        <ele>49.011041</ele>
        <time>2022-12-14T14:18:06.317Z</time>
      </trkpt>
      <trkpt lat="47.73651" lon="-2.24902">
        <ele>49.009995</ele>
        <time>2022-12-14T14:18:09.325Z</time>
      </trkpt>
      <trkpt lat="47.73653" lon="-2.24887">
        <ele>49.008848</ele>
        <time>2022-12-14T14:18:12.324Z</time>
      </trkpt>
      <trkpt lat="47.73656" lon="-2.24871">
        <ele>49.007621</ele>
        <time>2022-12-14T14:18:15.322Z</time>
      </trkpt>
      <trkpt lat="47.73659" lon="-2.24854">
        <ele>49.006304</ele>
        <time>2022-12-14T14:18:18.321Z</time>
      </trkpt>
      <trkpt lat="47.73662" lon="-2.24836">
        <ele>49.004921</ele>
        <time>2022-12-14T14:18:21.327Z</time>
      </trkpt>
      <trkpt lat="47.73666" lon="-2.24818">
        <ele>49.003567</ele>
        <time>2022-12-14T14:18:24.317Z</time>
      </trkpt>
      <trkpt lat="47.73669" lon="-2.24801">
        <ele>49.002226</ele>
        <time>2022-12-14T14:18:27.328Z</time>
      </trkpt>
      <trkpt lat="47.73673" lon="-2.24783">
        <ele>49.00085</ele>
        <time>2022-12-14T14:18:30.328Z</time>
      </trkpt>
      <trkpt lat="47.73677" lon="-2.24765">
        <ele>48.999432</ele>
        <time>2022-12-14T14:18:33.303Z</time>
      </trkpt>
      <trkpt lat="47.73681" lon="-2.24746">
        <ele>48.997918</ele>
        <time>2022-12-14T14:18:36.320Z</time>
      </trkpt>
      <trkpt lat="47.73685" lon="-2.24733">
        <ele>48.996914</ele>
        <time>2022-12-14T14:18:38.320Z</time>
      </trkpt>
      <trkpt lat="47.73689" lon="-2.24715">
        <ele>48.996873</ele>
        <time>2022-12-14T14:18:41.319Z</time>
      </trkpt>
      <trkpt lat="47.73694" lon="-2.24698">
        <ele>49.015352</ele>
        <time>2022-12-14T14:18:44.323Z</time>
      </trkpt>
      <trkpt lat="47.73699" lon="-2.24684">
        <ele>49.032072</ele>
        <time>2022-12-14T14:18:47.322Z</time>
      </trkpt>
      <trkpt lat="47.73704" lon="-2.24669">
        <ele>49.04857</ele>
        <time>2022-12-14T14:18:50.326Z</time>
      </trkpt>
      <trkpt lat="47.73709" lon="-2.24654">
        <ele>49.065765</ele>
        <time>2022-12-14T14:18:53.305Z</time>
      </trkpt>
      <trkpt lat="47.73713" lon="-2.24641">
        <ele>49.080546</ele>
        <time>2022-12-14T14:18:56.304Z</time>
      </trkpt>
      <trkpt lat="47.73717" lon="-2.24628">
        <ele>49.095128</ele>
        <time>2022-12-14T14:18:59.302Z</time>
      </trkpt>
      <trkpt lat="47.73722" lon="-2.24614">
        <ele>49.111215</ele>
        <time>2022-12-14T14:19:02.319Z</time>
      </trkpt>
      <trkpt lat="47.73727" lon="-2.24601">
        <ele>49.126557</ele>
        <time>2022-12-14T14:19:05.322Z</time>
      </trkpt>
      <trkpt lat="47.73732" lon="-2.24587">
        <ele>49.142105</ele>
        <time>2022-12-14T14:19:08.318Z</time>
      </trkpt>
      <trkpt lat="47.73738" lon="-2.24573">
        <ele>49.158802</ele>
        <time>2022-12-14T14:19:11.331Z</time>
      </trkpt>
      <trkpt lat="47.73743" lon="-2.24558">
        <ele>49.176369</ele>
        <time>2022-12-14T14:19:14.324Z</time>
      </trkpt>
      <trkpt lat="47.7375" lon="-2.24542">
        <ele>49.195161</ele>
        <time>2022-12-14T14:19:17.299Z</time>
      </trkpt>
      <trkpt lat="47.73757" lon="-2.24526">
        <ele>49.214597</ele>
        <time>2022-12-14T14:19:20.322Z</time>
      </trkpt>
      <trkpt lat="47.73764" lon="-2.2451">
        <ele>49.234198</ele>
        <time>2022-12-14T14:19:23.302Z</time>
      </trkpt>
      <trkpt lat="47.73771" lon="-2.24495">
        <ele>49.252115</ele>
        <time>2022-12-14T14:19:26.320Z</time>
      </trkpt>
      <trkpt lat="47.73778" lon="-2.24481">
        <ele>49.279679</ele>
        <time>2022-12-14T14:19:29.322Z</time>
      </trkpt>
      <trkpt lat="47.73786" lon="-2.24467">
        <ele>49.348176</ele>
        <time>2022-12-14T14:19:32.325Z</time>
      </trkpt>
      <trkpt lat="47.73795" lon="-2.24452">
        <ele>49.418801</ele>
        <time>2022-12-14T14:19:35.306Z</time>
      </trkpt>
      <trkpt lat="47.73804" lon="-2.24438">
        <ele>49.489789</ele>
        <time>2022-12-14T14:19:38.324Z</time>
      </trkpt>
      <trkpt lat="47.73812" lon="-2.24425">
        <ele>49.557982</ele>
        <time>2022-12-14T14:19:41.324Z</time>
      </trkpt>
      <trkpt lat="47.7382" lon="-2.24413">
        <ele>49.617523</ele>
        <time>2022-12-14T14:19:44.316Z</time>
      </trkpt>
      <trkpt lat="47.73827" lon="-2.24401">
        <ele>49.676692</ele>
        <time>2022-12-14T14:19:47.322Z</time>
      </trkpt>
      <trkpt lat="47.73835" lon="-2.24389">
        <ele>49.737893</ele>
        <time>2022-12-14T14:19:50.324Z</time>
      </trkpt>
      <trkpt lat="47.73843" lon="-2.24375">
        <ele>49.803721</ele>
        <time>2022-12-14T14:19:53.296Z</time>
      </trkpt>
      <trkpt lat="47.73851" lon="-2.24361">
        <ele>49.8725</ele>
        <time>2022-12-14T14:19:56.319Z</time>
      </trkpt>
      <trkpt lat="47.73858" lon="-2.24345">
        <ele>49.940669</ele>
        <time>2022-12-14T14:19:59.322Z</time>
      </trkpt>
      <trkpt lat="47.73864" lon="-2.24331">
        <ele>50.005196</ele>
        <time>2022-12-14T14:20:02.331Z</time>
      </trkpt>
      <trkpt lat="47.73869" lon="-2.24317">
        <ele>50.061979</ele>
        <time>2022-12-14T14:20:05.323Z</time>
      </trkpt>
      <trkpt lat="47.73875" lon="-2.24301">
        <ele>50.127386</ele>
        <time>2022-12-14T14:20:09.321Z</time>
      </trkpt>
      <trkpt lat="47.73879" lon="-2.24287">
        <ele>50.184057</ele>
        <time>2022-12-14T14:20:12.320Z</time>
      </trkpt>
      <trkpt lat="47.73884" lon="-2.24272">
        <ele>50.24587</ele>
        <time>2022-12-14T14:20:15.321Z</time>
      </trkpt>
      <trkpt lat="47.7389" lon="-2.24258">
        <ele>50.299693</ele>
        <time>2022-12-14T14:20:18.321Z</time>
      </trkpt>
      <trkpt lat="47.73897" lon="-2.24246">
        <ele>50.351869</ele>
        <time>2022-12-14T14:20:21.323Z</time>
      </trkpt>
      <trkpt lat="47.73905" lon="-2.24234">
        <ele>50.403607</ele>
        <time>2022-12-14T14:20:24.322Z</time>
      </trkpt>
      <trkpt lat="47.73914" lon="-2.24223">
        <ele>50.459521</ele>
        <time>2022-12-14T14:20:27.310Z</time>
      </trkpt>
      <trkpt lat="47.73923" lon="-2.24213">
        <ele>50.513881</ele>
        <time>2022-12-14T14:20:30.323Z</time>
      </trkpt>
      <trkpt lat="47.73932" lon="-2.24202">
        <ele>50.570575</ele>
        <time>2022-12-14T14:20:33.302Z</time>
      </trkpt>
      <trkpt lat="47.73941" lon="-2.24191">
        <ele>50.626468</ele>
        <time>2022-12-14T14:20:36.319Z</time>
      </trkpt>
      <trkpt lat="47.73949" lon="-2.24181">
        <ele>50.677397</ele>
        <time>2022-12-14T14:20:39.318Z</time>
      </trkpt>
      <trkpt lat="47.73957" lon="-2.24172">
        <ele>50.725191</ele>
        <time>2022-12-14T14:20:42.323Z</time>
      </trkpt>
      <trkpt lat="47.73966" lon="-2.24161">
        <ele>50.780976</ele>
        <time>2022-12-14T14:20:45.323Z</time>
      </trkpt>
      <trkpt lat="47.73975" lon="-2.24149">
        <ele>50.839897</ele>
        <time>2022-12-14T14:20:48.323Z</time>
      </trkpt>
      <trkpt lat="47.73985" lon="-2.24138">
        <ele>50.897574</ele>
        <time>2022-12-14T14:20:51.325Z</time>
      </trkpt>
      <trkpt lat="47.73994" lon="-2.24126">
        <ele>50.956776</ele>
        <time>2022-12-14T14:20:54.321Z</time>
      </trkpt>
      <trkpt lat="47.74004" lon="-2.24115">
        <ele>51.016385</ele>
        <time>2022-12-14T14:20:57.321Z</time>
      </trkpt>
      <trkpt lat="47.74014" lon="-2.24102">
        <ele>51.080029</ele>
        <time>2022-12-14T14:21:00.323Z</time>
      </trkpt>
      <trkpt lat="47.74024" lon="-2.2409">
        <ele>51.089464</ele>
        <time>2022-12-14T14:21:03.303Z</time>
      </trkpt>
      <trkpt lat="47.74034" lon="-2.24078">
        <ele>51.045256</ele>
        <time>2022-12-14T14:21:06.323Z</time>
      </trkpt>
      <trkpt lat="47.74043" lon="-2.24068">
        <ele>51.009618</ele>
        <time>2022-12-14T14:21:09.320Z</time>
      </trkpt>
      <trkpt lat="47.74051" lon="-2.24059">
        <ele>50.974651</ele>
        <time>2022-12-14T14:21:12.324Z</time>
      </trkpt>
      <trkpt lat="47.7406" lon="-2.24047">
        <ele>50.934979</ele>
        <time>2022-12-14T14:21:15.298Z</time>
      </trkpt>
      <trkpt lat="47.74068" lon="-2.24034">
        <ele>50.893239</ele>
        <time>2022-12-14T14:21:18.306Z</time>
      </trkpt>
      <trkpt lat="47.74076" lon="-2.2402">
        <ele>50.850338</ele>
        <time>2022-12-14T14:21:21.325Z</time>
      </trkpt>
      <trkpt lat="47.74083" lon="-2.24004">
        <ele>50.807557</ele>
        <time>2022-12-14T14:21:24.315Z</time>
      </trkpt>
      <trkpt lat="47.7409" lon="-2.23987">
        <ele>50.763783</ele>
        <time>2022-12-14T14:21:27.319Z</time>
      </trkpt>
      <trkpt lat="47.74096" lon="-2.23971">
        <ele>50.721382</ele>
        <time>2022-12-14T14:21:30.324Z</time>
      </trkpt>
      <trkpt lat="47.74102" lon="-2.23954">
        <ele>50.677175</ele>
        <time>2022-12-14T14:21:33.298Z</time>
      </trkpt>
      <trkpt lat="47.74107" lon="-2.23937">
        <ele>50.636057</ele>
        <time>2022-12-14T14:21:36.322Z</time>
      </trkpt>
      <trkpt lat="47.74112" lon="-2.23922">
        <ele>50.598526</ele>
        <time>2022-12-14T14:21:39.318Z</time>
      </trkpt>
      <trkpt lat="47.74115" lon="-2.23907">
        <ele>50.561069</ele>
        <time>2022-12-14T14:21:43.301Z</time>
      </trkpt>
      <trkpt lat="47.74119" lon="-2.2389">
        <ele>50.520885</ele>
        <time>2022-12-14T14:21:47.323Z</time>
      </trkpt>
      <trkpt lat="47.74121" lon="-2.23875">
        <ele>50.471483</ele>
        <time>2022-12-14T14:21:50.324Z</time>
      </trkpt>
      <trkpt lat="47.74123" lon="-2.23859">
        <ele>50.40237</ele>
        <time>2022-12-14T14:21:53.299Z</time>
      </trkpt>
      <trkpt lat="47.74126" lon="-2.23841">
        <ele>50.324234</ele>
        <time>2022-12-14T14:21:56.316Z</time>
      </trkpt>
      <trkpt lat="47.74127" lon="-2.23823">
        <ele>50.247596</ele>
        <time>2022-12-14T14:21:59.309Z</time>
      </trkpt>
      <trkpt lat="47.74127" lon="-2.23807">
        <ele>50.179728</ele>
        <time>2022-12-14T14:22:02.326Z</time>
      </trkpt>
      <trkpt lat="47.74127" lon="-2.23792">
        <ele>50.114008</ele>
        <time>2022-12-14T14:22:05.299Z</time>
      </trkpt>
      <trkpt lat="47.74127" lon="-2.23776">
        <ele>50.044814</ele>
        <time>2022-12-14T14:22:08.324Z</time>
      </trkpt>
      <trkpt lat="47.74126" lon="-2.23758">
        <ele>49.968003</ele>
        <time>2022-12-14T14:22:11.321Z</time>
      </trkpt>
      <trkpt lat="47.74126" lon="-2.2374">
        <ele>49.893292</ele>
        <time>2022-12-14T14:22:14.322Z</time>
      </trkpt>
      <trkpt lat="47.74125" lon="-2.23722">
        <ele>49.815084</ele>
        <time>2022-12-14T14:22:17.324Z</time>
      </trkpt>
      <trkpt lat="47.74124" lon="-2.23703">
        <ele>49.735295</ele>
        <time>2022-12-14T14:22:20.321Z</time>
      </trkpt>
      <trkpt lat="47.74123" lon="-2.23685">
        <ele>49.657475</ele>
        <time>2022-12-14T14:22:23.304Z</time>
      </trkpt>
      <trkpt lat="47.74122" lon="-2.23666">
        <ele>49.577137</ele>
        <time>2022-12-14T14:22:26.324Z</time>
      </trkpt>
      <trkpt lat="47.74122" lon="-2.23647">
        <ele>49.494728</ele>
        <time>2022-12-14T14:22:29.324Z</time>
      </trkpt>
      <trkpt lat="47.74121" lon="-2.23627">
        <ele>49.408851</ele>
        <time>2022-12-14T14:22:32.325Z</time>
      </trkpt>
      <trkpt lat="47.7412" lon="-2.23607">
        <ele>49.361716</ele>
        <time>2022-12-14T14:22:35.321Z</time>
      </trkpt>
      <trkpt lat="47.74119" lon="-2.23587">
        <ele>49.359873</ele>
        <time>2022-12-14T14:22:38.324Z</time>
      </trkpt>
      <trkpt lat="47.74118" lon="-2.23571">
        <ele>49.358278</ele>
        <time>2022-12-14T14:22:41.322Z</time>
      </trkpt>
      <trkpt lat="47.74116" lon="-2.23556">
        <ele>49.356871</ele>
        <time>2022-12-14T14:22:44.322Z</time>
      </trkpt>
      <trkpt lat="47.74114" lon="-2.23541">
        <ele>49.355357</ele>
        <time>2022-12-14T14:22:47.323Z</time>
      </trkpt>
      <trkpt lat="47.74111" lon="-2.23525">
        <ele>49.353804</ele>
        <time>2022-12-14T14:22:50.324Z</time>
      </trkpt>
      <trkpt lat="47.74108" lon="-2.2351">
        <ele>49.352321</ele>
        <time>2022-12-14T14:22:53.303Z</time>
      </trkpt>
      <trkpt lat="47.74104" lon="-2.23493">
        <ele>49.350553</ele>
        <time>2022-12-14T14:22:56.325Z</time>
      </trkpt>
      <trkpt lat="47.741" lon="-2.2348">
        <ele>49.349252</ele>
        <time>2022-12-14T14:22:58.318Z</time>
      </trkpt>
      <trkpt lat="47.74096" lon="-2.23468">
        <ele>49.347953</ele>
        <time>2022-12-14T14:23:00.321Z</time>
      </trkpt>
      <trkpt lat="47.7409" lon="-2.2345">
        <ele>49.346086</ele>
        <time>2022-12-14T14:23:03.301Z</time>
      </trkpt>
      <trkpt lat="47.74084" lon="-2.23434">
        <ele>49.344359</ele>
        <time>2022-12-14T14:23:06.322Z</time>
      </trkpt>
      <trkpt lat="47.74079" lon="-2.23421">
        <ele>49.342905</ele>
        <time>2022-12-14T14:23:09.322Z</time>
      </trkpt>
      <trkpt lat="47.74074" lon="-2.23409">
        <ele>49.341547</ele>
        <time>2022-12-14T14:23:12.303Z</time>
      </trkpt>
      <trkpt lat="47.74068" lon="-2.23398">
        <ele>49.340205</ele>
        <time>2022-12-14T14:23:15.322Z</time>
      </trkpt>
      <trkpt lat="47.74063" lon="-2.23385">
        <ele>49.33883</ele>
        <time>2022-12-14T14:23:18.323Z</time>
      </trkpt>
      <trkpt lat="47.74057" lon="-2.23373">
        <ele>49.337432</ele>
        <time>2022-12-14T14:23:21.321Z</time>
      </trkpt>
      <trkpt lat="47.74052" lon="-2.23361">
        <ele>49.364565</ele>
        <time>2022-12-14T14:23:24.307Z</time>
      </trkpt>
      <trkpt lat="47.74045" lon="-2.23349">
        <ele>49.401602</ele>
        <time>2022-12-14T14:23:27.321Z</time>
      </trkpt>
      <trkpt lat="47.74039" lon="-2.23336">
        <ele>49.437995</ele>
        <time>2022-12-14T14:23:30.324Z</time>
      </trkpt>
      <trkpt lat="47.74033" lon="-2.2332">
        <ele>49.480371</ele>
        <time>2022-12-14T14:23:33.300Z</time>
      </trkpt>
      <trkpt lat="47.74029" lon="-2.23304">
        <ele>49.520597</ele>
        <time>2022-12-14T14:23:36.299Z</time>
      </trkpt>
      <trkpt lat="47.74025" lon="-2.23289">
        <ele>49.556541</ele>
        <time>2022-12-14T14:23:39.305Z</time>
      </trkpt>
      <trkpt lat="47.74023" lon="-2.23273">
        <ele>49.595085</ele>
        <time>2022-12-14T14:23:43.300Z</time>
      </trkpt>
      <trkpt lat="47.74021" lon="-2.23258">
        <ele>49.630687</ele>
        <time>2022-12-14T14:23:46.317Z</time>
      </trkpt>
      <trkpt lat="47.74018" lon="-2.23243">
        <ele>49.666899</ele>
        <time>2022-12-14T14:23:49.321Z</time>
      </trkpt>
      <trkpt lat="47.74015" lon="-2.23228">
        <ele>49.704489</ele>
        <time>2022-12-14T14:23:52.323Z</time>
      </trkpt>
      <trkpt lat="47.7401" lon="-2.23212">
        <ele>49.744354</ele>
        <time>2022-12-14T14:23:55.321Z</time>
      </trkpt>
      <trkpt lat="47.74005" lon="-2.23197">
        <ele>49.783033</ele>
        <time>2022-12-14T14:23:58.319Z</time>
      </trkpt>
      <trkpt lat="47.73999" lon="-2.23183">
        <ele>49.820662</ele>
        <time>2022-12-14T14:24:01.300Z</time>
      </trkpt>
      <trkpt lat="47.73993" lon="-2.23169">
        <ele>49.859727</ele>
        <time>2022-12-14T14:24:04.322Z</time>
      </trkpt>
      <trkpt lat="47.73986" lon="-2.23158">
        <ele>49.895363</ele>
        <time>2022-12-14T14:24:07.304Z</time>
      </trkpt>
      <trkpt lat="47.73979" lon="-2.23144">
        <ele>49.935355</ele>
        <time>2022-12-14T14:24:11.322Z</time>
      </trkpt>
      <trkpt lat="47.73973" lon="-2.23134">
        <ele>49.896074</ele>
        <time>2022-12-14T14:24:14.324Z</time>
      </trkpt>
      <trkpt lat="47.73966" lon="-2.23124">
        <ele>49.697122</ele>
        <time>2022-12-14T14:24:17.321Z</time>
      </trkpt>
      <trkpt lat="47.73957" lon="-2.23111">
        <ele>49.446586</ele>
        <time>2022-12-14T14:24:20.319Z</time>
      </trkpt>
      <trkpt lat="47.73947" lon="-2.23099">
        <ele>49.183743</ele>
        <time>2022-12-14T14:24:23.297Z</time>
      </trkpt>
      <trkpt lat="47.73937" lon="-2.23087">
        <ele>48.918631</ele>
        <time>2022-12-14T14:24:26.315Z</time>
      </trkpt>
      <trkpt lat="47.73927" lon="-2.23074">
        <ele>48.658637</ele>
        <time>2022-12-14T14:24:29.321Z</time>
      </trkpt>
      <trkpt lat="47.73918" lon="-2.23063">
        <ele>48.404234</ele>
        <time>2022-12-14T14:24:32.321Z</time>
      </trkpt>
      <trkpt lat="47.7391" lon="-2.23054">
        <ele>48.215889</ele>
        <time>2022-12-14T14:24:34.320Z</time>
      </trkpt>
      <trkpt lat="47.73901" lon="-2.23043">
        <ele>47.965685</ele>
        <time>2022-12-14T14:24:37.321Z</time>
      </trkpt>
      <trkpt lat="47.73892" lon="-2.23034">
        <ele>47.735208</ele>
        <time>2022-12-14T14:24:40.322Z</time>
      </trkpt>
      <trkpt lat="47.73881" lon="-2.23023">
        <ele>47.479364</ele>
        <time>2022-12-14T14:24:43.304Z</time>
      </trkpt>
      <trkpt lat="47.73871" lon="-2.23013">
        <ele>47.232934</ele>
        <time>2022-12-14T14:24:46.315Z</time>
      </trkpt>
      <trkpt lat="47.73861" lon="-2.23003">
        <ele>46.974356</ele>
        <time>2022-12-14T14:24:49.322Z</time>
      </trkpt>
      <trkpt lat="47.73851" lon="-2.22993">
        <ele>46.724706</ele>
        <time>2022-12-14T14:24:52.321Z</time>
      </trkpt>
      <trkpt lat="47.73841" lon="-2.22982">
        <ele>46.481274</ele>
        <time>2022-12-14T14:24:55.323Z</time>
      </trkpt>
      <trkpt lat="47.73833" lon="-2.22973">
        <ele>46.273035</ele>
        <time>2022-12-14T14:24:58.326Z</time>
      </trkpt>
      <trkpt lat="47.73826" lon="-2.22963">
        <ele>46.283501</ele>
        <time>2022-12-14T14:25:01.321Z</time>
      </trkpt>
      <trkpt lat="47.73818" lon="-2.22951">
        <ele>46.297598</ele>
        <time>2022-12-14T14:25:04.324Z</time>
      </trkpt>
      <trkpt lat="47.73808" lon="-2.22938">
        <ele>46.313196</ele>
        <time>2022-12-14T14:25:07.321Z</time>
      </trkpt>
      <trkpt lat="47.73798" lon="-2.22926">
        <ele>46.329263</ele>
        <time>2022-12-14T14:25:10.321Z</time>
      </trkpt>
      <trkpt lat="47.73789" lon="-2.22917">
        <ele>46.342776</ele>
        <time>2022-12-14T14:25:13.299Z</time>
      </trkpt>
      <trkpt lat="47.7378" lon="-2.22911">
        <ele>46.35478</ele>
        <time>2022-12-14T14:25:16.302Z</time>
      </trkpt>
      <trkpt lat="47.73771" lon="-2.22906">
        <ele>46.366504</ele>
        <time>2022-12-14T14:25:19.323Z</time>
      </trkpt>
      <trkpt lat="47.73763" lon="-2.22896">
        <ele>46.379945</ele>
        <time>2022-12-14T14:25:22.304Z</time>
      </trkpt>
      <trkpt lat="47.73756" lon="-2.22883">
        <ele>46.393911</ele>
        <time>2022-12-14T14:25:25.304Z</time>
      </trkpt>
      <trkpt lat="47.7375" lon="-2.22868">
        <ele>46.408246</ele>
        <time>2022-12-14T14:25:28.306Z</time>
      </trkpt>
      <trkpt lat="47.73745" lon="-2.22853">
        <ele>46.422191</ele>
        <time>2022-12-14T14:25:31.302Z</time>
      </trkpt>
      <trkpt lat="47.73738" lon="-2.22837">
        <ele>46.437882</ele>
        <time>2022-12-14T14:25:34.324Z</time>
      </trkpt>
      <trkpt lat="47.73732" lon="-2.22821">
        <ele>46.453206</ele>
        <time>2022-12-14T14:25:37.315Z</time>
      </trkpt>
      <trkpt lat="47.73725" lon="-2.22805">
        <ele>46.46886</ele>
        <time>2022-12-14T14:25:40.309Z</time>
      </trkpt>
      <trkpt lat="47.73718" lon="-2.2279">
        <ele>46.484302</ele>
        <time>2022-12-14T14:25:43.303Z</time>
      </trkpt>
      <trkpt lat="47.73709" lon="-2.22775">
        <ele>46.521676</ele>
        <time>2022-12-14T14:25:46.320Z</time>
      </trkpt>
      <trkpt lat="47.737" lon="-2.22762">
        <ele>46.585383</ele>
        <time>2022-12-14T14:25:49.308Z</time>
      </trkpt>
      <trkpt lat="47.73692" lon="-2.22753">
        <ele>46.63027</ele>
        <time>2022-12-14T14:25:51.300Z</time>
      </trkpt>
      <trkpt lat="47.73685" lon="-2.22746">
        <ele>46.674429</ele>
        <time>2022-12-14T14:25:53.304Z</time>
      </trkpt>
      <trkpt lat="47.73674" lon="-2.22735">
        <ele>46.737944</ele>
        <time>2022-12-14T14:25:56.322Z</time>
      </trkpt>
      <trkpt lat="47.73663" lon="-2.22724">
        <ele>46.800454</ele>
        <time>2022-12-14T14:25:59.328Z</time>
      </trkpt>
      <trkpt lat="47.73655" lon="-2.22712">
        <ele>46.855938</ele>
        <time>2022-12-14T14:26:02.327Z</time>
      </trkpt>
      <trkpt lat="47.73646" lon="-2.227">
        <ele>46.914036</ele>
        <time>2022-12-14T14:26:05.323Z</time>
      </trkpt>
      <trkpt lat="47.73637" lon="-2.22686">
        <ele>46.977307</ele>
        <time>2022-12-14T14:26:08.321Z</time>
      </trkpt>
      <trkpt lat="47.73629" lon="-2.22672">
        <ele>47.03879</ele>
        <time>2022-12-14T14:26:11.322Z</time>
      </trkpt>
      <trkpt lat="47.73619" lon="-2.22657">
        <ele>47.102725</ele>
        <time>2022-12-14T14:26:14.325Z</time>
      </trkpt>
      <trkpt lat="47.7361" lon="-2.22644">
        <ele>47.163569</ele>
        <time>2022-12-14T14:26:17.325Z</time>
      </trkpt>
      <trkpt lat="47.736" lon="-2.22632">
        <ele>47.228581</ele>
        <time>2022-12-14T14:26:20.323Z</time>
      </trkpt>
      <trkpt lat="47.73589" lon="-2.22623">
        <ele>47.286269</ele>
        <time>2022-12-14T14:26:23.301Z</time>
      </trkpt>
      <trkpt lat="47.73579" lon="-2.22614">
        <ele>47.343789</ele>
        <time>2022-12-14T14:26:26.319Z</time>
      </trkpt>
      <trkpt lat="47.73568" lon="-2.22605">
        <ele>47.343279</ele>
        <time>2022-12-14T14:26:29.320Z</time>
      </trkpt>
      <trkpt lat="47.73557" lon="-2.22595">
        <ele>47.318467</ele>
        <time>2022-12-14T14:26:32.320Z</time>
      </trkpt>
      <trkpt lat="47.73545" lon="-2.22586">
        <ele>47.293901</ele>
        <time>2022-12-14T14:26:35.321Z</time>
      </trkpt>
      <trkpt lat="47.73533" lon="-2.22576">
        <ele>47.269004</ele>
        <time>2022-12-14T14:26:38.326Z</time>
      </trkpt>
      <trkpt lat="47.73522" lon="-2.22567">
        <ele>47.244391</ele>
        <time>2022-12-14T14:26:41.306Z</time>
      </trkpt>
      <trkpt lat="47.73513" lon="-2.22559">
        <ele>47.223739</ele>
        <time>2022-12-14T14:26:44.319Z</time>
      </trkpt>
      <trkpt lat="47.73504" lon="-2.22551">
        <ele>47.204315</ele>
        <time>2022-12-14T14:26:47.324Z</time>
      </trkpt>
      <trkpt lat="47.73494" lon="-2.22542">
        <ele>47.183763</ele>
        <time>2022-12-14T14:26:50.323Z</time>
      </trkpt>
      <trkpt lat="47.73484" lon="-2.22533">
        <ele>47.161787</ele>
        <time>2022-12-14T14:26:53.304Z</time>
      </trkpt>
      <trkpt lat="47.73473" lon="-2.22522">
        <ele>47.137345</ele>
        <time>2022-12-14T14:26:56.326Z</time>
      </trkpt>
      <trkpt lat="47.73466" lon="-2.22515">
        <ele>47.120409</ele>
        <time>2022-12-14T14:26:58.319Z</time>
      </trkpt>
      <trkpt lat="47.73458" lon="-2.22508">
        <ele>47.10318</ele>
        <time>2022-12-14T14:27:00.314Z</time>
      </trkpt>
      <trkpt lat="47.73451" lon="-2.22501">
        <ele>47.08623</ele>
        <time>2022-12-14T14:27:02.320Z</time>
      </trkpt>
      <trkpt lat="47.7344" lon="-2.2249">
        <ele>47.062378</ele>
        <time>2022-12-14T14:27:05.325Z</time>
      </trkpt>
      <trkpt lat="47.7343" lon="-2.2248">
        <ele>47.040687</ele>
        <time>2022-12-14T14:27:08.325Z</time>
      </trkpt>
      <trkpt lat="47.7342" lon="-2.22471">
        <ele>47.032371</ele>
        <time>2022-12-14T14:27:11.327Z</time>
      </trkpt>
      <trkpt lat="47.73411" lon="-2.22461">
        <ele>47.086054</ele>
        <time>2022-12-14T14:27:14.323Z</time>
      </trkpt>
      <trkpt lat="47.73401" lon="-2.2245">
        <ele>47.141877</ele>
        <time>2022-12-14T14:27:17.325Z</time>
      </trkpt>
      <trkpt lat="47.7339" lon="-2.22439">
        <ele>47.198605</ele>
        <time>2022-12-14T14:27:20.324Z</time>
      </trkpt>
      <trkpt lat="47.7338" lon="-2.22428">
        <ele>47.255153</ele>
        <time>2022-12-14T14:27:23.302Z</time>
      </trkpt>
      <trkpt lat="47.73372" lon="-2.22418">
        <ele>47.304305</ele>
        <time>2022-12-14T14:27:26.324Z</time>
      </trkpt>
      <trkpt lat="47.73363" lon="-2.22409">
        <ele>47.35146</ele>
        <time>2022-12-14T14:27:29.326Z</time>
      </trkpt>
      <trkpt lat="47.73353" lon="-2.22399">
        <ele>47.406576</ele>
        <time>2022-12-14T14:27:32.319Z</time>
      </trkpt>
      <trkpt lat="47.73344" lon="-2.22387">
        <ele>47.45922</ele>
        <time>2022-12-14T14:27:35.320Z</time>
      </trkpt>
      <trkpt lat="47.73335" lon="-2.22375">
        <ele>47.51657</ele>
        <time>2022-12-14T14:27:38.320Z</time>
      </trkpt>
      <trkpt lat="47.73325" lon="-2.22361">
        <ele>47.575837</ele>
        <time>2022-12-14T14:27:41.326Z</time>
      </trkpt>
      <trkpt lat="47.73317" lon="-2.22347">
        <ele>47.634604</ele>
        <time>2022-12-14T14:27:44.324Z</time>
      </trkpt>
      <trkpt lat="47.73308" lon="-2.22333">
        <ele>47.692321</ele>
        <time>2022-12-14T14:27:47.320Z</time>
      </trkpt>
      <trkpt lat="47.73299" lon="-2.2232">
        <ele>47.747648</ele>
        <time>2022-12-14T14:27:50.323Z</time>
      </trkpt>
      <trkpt lat="47.7329" lon="-2.22308">
        <ele>47.804113</ele>
        <time>2022-12-14T14:27:53.304Z</time>
      </trkpt>
      <trkpt lat="47.73281" lon="-2.22298">
        <ele>47.811344</ele>
        <time>2022-12-14T14:27:56.323Z</time>
      </trkpt>
      <trkpt lat="47.73271" lon="-2.2229">
        <ele>47.763895</ele>
        <time>2022-12-14T14:27:59.301Z</time>
      </trkpt>
      <trkpt lat="47.73261" lon="-2.22283">
        <ele>47.714753</ele>
        <time>2022-12-14T14:28:02.325Z</time>
      </trkpt>
      <trkpt lat="47.7325" lon="-2.22276">
        <ele>47.663285</ele>
        <time>2022-12-14T14:28:05.324Z</time>
      </trkpt>
      <trkpt lat="47.73239" lon="-2.22269">
        <ele>47.611481</ele>
        <time>2022-12-14T14:28:08.319Z</time>
      </trkpt>
      <trkpt lat="47.73227" lon="-2.22263">
        <ele>47.559001</ele>
        <time>2022-12-14T14:28:11.324Z</time>
      </trkpt>
      <trkpt lat="47.73216" lon="-2.22256">
        <ele>47.506177</ele>
        <time>2022-12-14T14:28:14.321Z</time>
      </trkpt>
      <trkpt lat="47.73205" lon="-2.22249">
        <ele>47.454315</ele>
        <time>2022-12-14T14:28:17.327Z</time>
      </trkpt>
      <trkpt lat="47.73193" lon="-2.22242">
        <ele>47.398766</ele>
        <time>2022-12-14T14:28:20.323Z</time>
      </trkpt>
      <trkpt lat="47.73181" lon="-2.22234">
        <ele>47.342596</ele>
        <time>2022-12-14T14:28:23.299Z</time>
      </trkpt>
      <trkpt lat="47.73169" lon="-2.22226">
        <ele>47.287434</ele>
        <time>2022-12-14T14:28:26.319Z</time>
      </trkpt>
      <trkpt lat="47.73158" lon="-2.22217">
        <ele>47.23367</ele>
        <time>2022-12-14T14:28:29.324Z</time>
      </trkpt>
      <trkpt lat="47.73149" lon="-2.22208">
        <ele>47.186021</ele>
        <time>2022-12-14T14:28:32.322Z</time>
      </trkpt>
      <trkpt lat="47.73141" lon="-2.22198">
        <ele>47.139264</ele>
        <time>2022-12-14T14:28:35.322Z</time>
      </trkpt>
      <trkpt lat="47.73132" lon="-2.22186">
        <ele>47.08754</ele>
        <time>2022-12-14T14:28:38.327Z</time>
      </trkpt>
      <trkpt lat="47.73122" lon="-2.22173">
        <ele>47.06139</ele>
        <time>2022-12-14T14:28:41.326Z</time>
      </trkpt>
      <trkpt lat="47.73113" lon="-2.2216">
        <ele>47.072772</ele>
        <time>2022-12-14T14:28:44.322Z</time>
      </trkpt>
      <trkpt lat="47.73103" lon="-2.22147">
        <ele>47.084337</ele>
        <time>2022-12-14T14:28:47.328Z</time>
      </trkpt>
      <trkpt lat="47.73095" lon="-2.22132">
        <ele>47.095702</ele>
        <time>2022-12-14T14:28:50.324Z</time>
      </trkpt>
      <trkpt lat="47.73087" lon="-2.22117">
        <ele>47.106994</ele>
        <time>2022-12-14T14:28:53.303Z</time>
      </trkpt>
      <trkpt lat="47.73081" lon="-2.22106">
        <ele>47.114976</ele>
        <time>2022-12-14T14:28:55.310Z</time>
      </trkpt>
      <trkpt lat="47.73074" lon="-2.22092">
        <ele>47.125459</ele>
        <time>2022-12-14T14:28:58.323Z</time>
      </trkpt>
      <trkpt lat="47.73067" lon="-2.22078">
        <ele>47.135773</ele>
        <time>2022-12-14T14:29:01.322Z</time>
      </trkpt>
      <trkpt lat="47.7306" lon="-2.22062">
        <ele>47.146937</ele>
        <time>2022-12-14T14:29:04.322Z</time>
      </trkpt>
      <trkpt lat="47.73055" lon="-2.22051">
        <ele>47.154792</ele>
        <time>2022-12-14T14:29:06.303Z</time>
      </trkpt>
      <trkpt lat="47.7305" lon="-2.22039">
        <ele>47.162659</ele>
        <time>2022-12-14T14:29:08.325Z</time>
      </trkpt>
      <trkpt lat="47.73045" lon="-2.22021">
        <ele>47.174159</ele>
        <time>2022-12-14T14:29:11.322Z</time>
      </trkpt>
      <trkpt lat="47.73041" lon="-2.22009">
        <ele>47.182148</ele>
        <time>2022-12-14T14:29:13.307Z</time>
      </trkpt>
      <trkpt lat="47.73036" lon="-2.21993">
        <ele>47.192249</ele>
        <time>2022-12-14T14:29:16.322Z</time>
      </trkpt>
      <trkpt lat="47.73033" lon="-2.21978">
        <ele>47.201467</ele>
        <time>2022-12-14T14:29:19.317Z</time>
      </trkpt>
      <trkpt lat="47.7303" lon="-2.21964">
        <ele>47.210217</ele>
        <time>2022-12-14T14:29:22.300Z</time>
      </trkpt>
      <trkpt lat="47.73028" lon="-2.21948">
        <ele>47.252991</ele>
        <time>2022-12-14T14:29:25.321Z</time>
      </trkpt>
      <trkpt lat="47.73026" lon="-2.2193">
        <ele>47.317381</ele>
        <time>2022-12-14T14:29:28.322Z</time>
      </trkpt>
      <trkpt lat="47.73024" lon="-2.21912">
        <ele>47.384809</ele>
        <time>2022-12-14T14:29:31.320Z</time>
      </trkpt>
      <trkpt lat="47.73021" lon="-2.21894">
        <ele>47.451654</ele>
        <time>2022-12-14T14:29:34.321Z</time>
      </trkpt>
      <trkpt lat="47.73019" lon="-2.21875">
        <ele>47.521457</ele>
        <time>2022-12-14T14:29:37.324Z</time>
      </trkpt>
      <trkpt lat="47.73015" lon="-2.21857">
        <ele>47.590576</ele>
        <time>2022-12-14T14:29:40.321Z</time>
      </trkpt>
      <trkpt lat="47.73013" lon="-2.21839">
        <ele>47.657185</ele>
        <time>2022-12-14T14:29:43.304Z</time>
      </trkpt>
      <trkpt lat="47.73009" lon="-2.21821">
        <ele>47.727166</ele>
        <time>2022-12-14T14:29:46.318Z</time>
      </trkpt>
      <trkpt lat="47.73005" lon="-2.21802">
        <ele>47.798047</ele>
        <time>2022-12-14T14:29:49.323Z</time>
      </trkpt>
      <trkpt lat="47.73002" lon="-2.21784">
        <ele>47.86739</ele>
        <time>2022-12-14T14:29:52.322Z</time>
      </trkpt>
      <trkpt lat="47.72998" lon="-2.21765">
        <ele>47.938576</ele>
        <time>2022-12-14T14:29:55.306Z</time>
      </trkpt>
      <trkpt lat="47.72995" lon="-2.21747">
        <ele>48.004831</ele>
        <time>2022-12-14T14:29:58.322Z</time>
      </trkpt>
      <trkpt lat="47.72991" lon="-2.21729">
        <ele>48.073947</ele>
        <time>2022-12-14T14:30:01.318Z</time>
      </trkpt>
      <trkpt lat="47.72986" lon="-2.21711">
        <ele>48.144103</ele>
        <time>2022-12-14T14:30:04.323Z</time>
      </trkpt>
      <trkpt lat="47.72982" lon="-2.21693">
        <ele>48.190363</ele>
        <time>2022-12-14T14:30:07.322Z</time>
      </trkpt>
      <trkpt lat="47.72978" lon="-2.2168">
        <ele>48.197718</ele>
        <time>2022-12-14T14:30:09.321Z</time>
      </trkpt>
      <trkpt lat="47.72973" lon="-2.21662">
        <ele>48.208127</ele>
        <time>2022-12-14T14:30:12.322Z</time>
      </trkpt>
      <trkpt lat="47.72969" lon="-2.21647">
        <ele>48.217071</ele>
        <time>2022-12-14T14:30:15.317Z</time>
      </trkpt>
      <trkpt lat="47.72964" lon="-2.21631">
        <ele>48.226425</ele>
        <time>2022-12-14T14:30:18.325Z</time>
      </trkpt>
      <trkpt lat="47.72959" lon="-2.21615">
        <ele>48.236176</ele>
        <time>2022-12-14T14:30:21.320Z</time>
      </trkpt>
      <trkpt lat="47.72953" lon="-2.21599">
        <ele>48.245842</ele>
        <time>2022-12-14T14:30:24.322Z</time>
      </trkpt>
      <trkpt lat="47.72948" lon="-2.21584">
        <ele>48.254981</ele>
        <time>2022-12-14T14:30:27.327Z</time>
      </trkpt>
      <trkpt lat="47.72942" lon="-2.2157">
        <ele>48.263907</ele>
        <time>2022-12-14T14:30:30.324Z</time>
      </trkpt>
      <trkpt lat="47.72936" lon="-2.21555">
        <ele>48.273159</ele>
        <time>2022-12-14T14:30:33.301Z</time>
      </trkpt>
      <trkpt lat="47.72931" lon="-2.21543">
        <ele>48.281167</ele>
        <time>2022-12-14T14:30:36.324Z</time>
      </trkpt>
      <trkpt lat="47.72925" lon="-2.2153">
        <ele>48.289259</ele>
        <time>2022-12-14T14:30:39.323Z</time>
      </trkpt>
      <trkpt lat="47.72919" lon="-2.21516">
        <ele>48.298331</ele>
        <time>2022-12-14T14:30:42.302Z</time>
      </trkpt>
      <trkpt lat="47.72912" lon="-2.21502">
        <ele>48.307585</ele>
        <time>2022-12-14T14:30:45.324Z</time>
      </trkpt>
      <trkpt lat="47.72904" lon="-2.21488">
        <ele>48.317252</ele>
        <time>2022-12-14T14:30:48.311Z</time>
      </trkpt>
      <trkpt lat="47.72898" lon="-2.21475">
        <ele>48.325969</ele>
        <time>2022-12-14T14:30:51.323Z</time>
      </trkpt>
      <trkpt lat="47.72893" lon="-2.21462">
        <ele>48.346538</ele>
        <time>2022-12-14T14:30:54.322Z</time>
      </trkpt>
      <trkpt lat="47.72887" lon="-2.21449">
        <ele>48.379614</ele>
        <time>2022-12-14T14:30:57.323Z</time>
      </trkpt>
      <trkpt lat="47.7288" lon="-2.21442">
        <ele>48.408259</ele>
        <time>2022-12-14T14:31:00.309Z</time>
      </trkpt>
      <trkpt lat="47.7287" lon="-2.21438">
        <ele>48.440876</ele>
        <time>2022-12-14T14:31:03.308Z</time>
      </trkpt>
      <trkpt lat="47.72859" lon="-2.21433">
        <ele>48.475941</ele>
        <time>2022-12-14T14:31:06.317Z</time>
      </trkpt>
      <trkpt lat="47.72849" lon="-2.21426">
        <ele>48.512518</ele>
        <time>2022-12-14T14:31:09.305Z</time>
      </trkpt>
      <trkpt lat="47.72838" lon="-2.21417">
        <ele>48.55157</ele>
        <time>2022-12-14T14:31:12.325Z</time>
      </trkpt>
      <trkpt lat="47.72827" lon="-2.21408">
        <ele>48.590987</ele>
        <time>2022-12-14T14:31:15.324Z</time>
      </trkpt>
      <trkpt lat="47.72817" lon="-2.21399">
        <ele>48.629272</ele>
        <time>2022-12-14T14:31:18.324Z</time>
      </trkpt>
      <trkpt lat="47.72807" lon="-2.21389">
        <ele>48.668279</ele>
        <time>2022-12-14T14:31:21.318Z</time>
      </trkpt>
      <trkpt lat="47.72797" lon="-2.2138">
        <ele>48.705088</ele>
        <time>2022-12-14T14:31:24.321Z</time>
      </trkpt>
      <trkpt lat="47.72788" lon="-2.21373">
        <ele>48.736709</ele>
        <time>2022-12-14T14:31:27.324Z</time>
      </trkpt>
      <trkpt lat="47.7278" lon="-2.21365">
        <ele>48.766574</ele>
        <time>2022-12-14T14:31:30.325Z</time>
      </trkpt>
      <trkpt lat="47.72771" lon="-2.2136">
        <ele>48.798497</ele>
        <time>2022-12-14T14:31:33.302Z</time>
      </trkpt>
      <trkpt lat="47.72761" lon="-2.21353">
        <ele>48.832725</ele>
        <time>2022-12-14T14:31:36.323Z</time>
      </trkpt>
      <trkpt lat="47.72751" lon="-2.21346">
        <ele>48.868321</ele>
        <time>2022-12-14T14:31:39.301Z</time>
      </trkpt>
      <trkpt lat="47.7274" lon="-2.21339">
        <ele>48.906633</ele>
        <time>2022-12-14T14:31:42.321Z</time>
      </trkpt>
      <trkpt lat="47.72729" lon="-2.21332">
        <ele>48.963135</ele>
        <time>2022-12-14T14:31:45.324Z</time>
      </trkpt>
      <trkpt lat="47.72717" lon="-2.21324">
        <ele>49.021966</ele>
        <time>2022-12-14T14:31:48.308Z</time>
      </trkpt>
      <trkpt lat="47.72706" lon="-2.21316">
        <ele>49.081083</ele>
        <time>2022-12-14T14:31:51.324Z</time>
      </trkpt>
      <trkpt lat="47.72694" lon="-2.21308">
        <ele>49.138951</ele>
        <time>2022-12-14T14:31:54.317Z</time>
      </trkpt>
      <trkpt lat="47.72683" lon="-2.21301">
        <ele>49.196962</ele>
        <time>2022-12-14T14:31:57.321Z</time>
      </trkpt>
      <trkpt lat="47.72674" lon="-2.21296">
        <ele>49.240637</ele>
        <time>2022-12-14T14:31:59.324Z</time>
      </trkpt>
      <trkpt lat="47.72661" lon="-2.21291">
        <ele>49.29978</ele>
        <time>2022-12-14T14:32:02.321Z</time>
      </trkpt>
      <trkpt lat="47.72651" lon="-2.21288">
        <ele>49.350053</ele>
        <time>2022-12-14T14:32:05.324Z</time>
      </trkpt>
      <trkpt lat="47.72641" lon="-2.21288">
        <ele>49.395525</ele>
        <time>2022-12-14T14:32:08.323Z</time>
      </trkpt>
      <trkpt lat="47.72631" lon="-2.21288">
        <ele>49.438675</ele>
        <time>2022-12-14T14:32:11.322Z</time>
      </trkpt>
      <trkpt lat="47.72621" lon="-2.21288">
        <ele>49.485076</ele>
        <time>2022-12-14T14:32:14.308Z</time>
      </trkpt>
      <trkpt lat="47.72611" lon="-2.21289">
        <ele>49.532407</ele>
        <time>2022-12-14T14:32:17.323Z</time>
      </trkpt>
      <trkpt lat="47.72602" lon="-2.21289">
        <ele>49.573722</ele>
        <time>2022-12-14T14:32:20.323Z</time>
      </trkpt>
      <trkpt lat="47.72591" lon="-2.2129">
        <ele>49.624241</ele>
        <time>2022-12-14T14:32:24.330Z</time>
      </trkpt>
      <trkpt lat="47.72581" lon="-2.2129">
        <ele>49.669279</ele>
        <time>2022-12-14T14:32:28.320Z</time>
      </trkpt>
      <trkpt lat="47.72574" lon="-2.21295">
        <ele>49.705676</ele>
        <time>2022-12-14T14:33:11.975Z</time>
      </trkpt>
      <trkpt lat="47.72571" lon="-2.21297">
        <ele>49.721611</ele>
        <time>2022-12-14T15:02:20.910Z</time>
      </trkpt>
      <trkpt lat="47.72562" lon="-2.2129">
        <ele>49.851187</ele>
        <time>2022-12-14T15:10:51.321Z</time>
      </trkpt>
      <trkpt lat="47.72551" lon="-2.21295">
        <ele>50.006906</ele>
        <time>2022-12-14T15:10:56.321Z</time>
      </trkpt>
      <trkpt lat="47.7254" lon="-2.21294">
        <ele>50.164816</ele>
        <time>2022-12-14T15:11:01.339Z</time>
      </trkpt>
      <trkpt lat="47.72532" lon="-2.21299">
        <ele>50.294315</ele>
        <time>2022-12-14T15:11:05.316Z</time>
      </trkpt>
      <trkpt lat="47.72523" lon="-2.21306">
        <ele>50.436648</ele>
        <time>2022-12-14T15:11:09.332Z</time>
      </trkpt>
      <trkpt lat="47.72514" lon="-2.21298">
        <ele>50.591594</ele>
        <time>2022-12-14T15:11:13.318Z</time>
      </trkpt>
      <trkpt lat="47.72506" lon="-2.21285">
        <ele>50.757613</ele>
        <time>2022-12-14T15:11:17.340Z</time>
      </trkpt>
      <trkpt lat="47.72501" lon="-2.21273">
        <ele>50.890587</ele>
        <time>2022-12-14T15:11:20.346Z</time>
      </trkpt>
      <trkpt lat="47.72493" lon="-2.21261">
        <ele>51.049174</ele>
        <time>2022-12-14T15:11:24.321Z</time>
      </trkpt>
      <trkpt lat="47.72486" lon="-2.21248">
        <ele>51.218202</ele>
        <time>2022-12-14T15:11:28.321Z</time>
      </trkpt>
      <trkpt lat="47.72479" lon="-2.21236">
        <ele>51.365804</ele>
        <time>2022-12-14T15:11:31.326Z</time>
      </trkpt>
      <trkpt lat="47.72473" lon="-2.21224">
        <ele>51.509296</ele>
        <time>2022-12-14T15:11:34.339Z</time>
      </trkpt>
      <trkpt lat="47.72469" lon="-2.2121">
        <ele>51.662032</ele>
        <time>2022-12-14T15:11:37.319Z</time>
      </trkpt>
      <trkpt lat="47.72467" lon="-2.21196">
        <ele>51.79613</ele>
        <time>2022-12-14T15:11:40.316Z</time>
      </trkpt>
      <trkpt lat="47.72464" lon="-2.21179">
        <ele>51.967669</ele>
        <time>2022-12-14T15:11:44.316Z</time>
      </trkpt>
      <trkpt lat="47.72463" lon="-2.21165">
        <ele>52.105661</ele>
        <time>2022-12-14T15:11:47.332Z</time>
      </trkpt>
      <trkpt lat="47.72462" lon="-2.21151">
        <ele>52.242153</ele>
        <time>2022-12-14T15:11:50.328Z</time>
      </trkpt>
      <trkpt lat="47.72463" lon="-2.21136">
        <ele>52.304339</ele>
        <time>2022-12-14T15:11:53.318Z</time>
      </trkpt>
      <trkpt lat="47.72465" lon="-2.21122">
        <ele>52.29289</ele>
        <time>2022-12-14T15:11:56.330Z</time>
      </trkpt>
      <trkpt lat="47.72465" lon="-2.21108">
        <ele>52.282548</ele>
        <time>2022-12-14T15:11:59.317Z</time>
      </trkpt>
      <trkpt lat="47.72464" lon="-2.21092">
        <ele>52.270403</ele>
        <time>2022-12-14T15:12:03.315Z</time>
      </trkpt>
      <trkpt lat="47.72462" lon="-2.21075">
        <ele>52.256475</ele>
        <time>2022-12-14T15:12:07.316Z</time>
      </trkpt>
      <trkpt lat="47.72459" lon="-2.21059">
        <ele>52.244053</ele>
        <time>2022-12-14T15:12:10.317Z</time>
      </trkpt>
      <trkpt lat="47.72457" lon="-2.21043">
        <ele>52.231182</ele>
        <time>2022-12-14T15:12:13.316Z</time>
      </trkpt>
      <trkpt lat="47.72454" lon="-2.21026">
        <ele>52.218185</ele>
        <time>2022-12-14T15:12:16.327Z</time>
      </trkpt>
      <trkpt lat="47.72453" lon="-2.21011">
        <ele>52.205977</ele>
        <time>2022-12-14T15:12:19.337Z</time>
      </trkpt>
      <trkpt lat="47.72452" lon="-2.20995">
        <ele>52.193505</ele>
        <time>2022-12-14T15:12:23.322Z</time>
      </trkpt>
      <trkpt lat="47.7245" lon="-2.20978">
        <ele>52.180801</ele>
        <time>2022-12-14T15:12:27.326Z</time>
      </trkpt>
      <trkpt lat="47.72448" lon="-2.20964">
        <ele>52.169408</ele>
        <time>2022-12-14T15:12:30.329Z</time>
      </trkpt>
      <trkpt lat="47.72448" lon="-2.20946">
        <ele>52.155678</ele>
        <time>2022-12-14T15:12:33.320Z</time>
      </trkpt>
      <trkpt lat="47.72449" lon="-2.20928">
        <ele>52.142021</ele>
        <time>2022-12-14T15:12:36.321Z</time>
      </trkpt>
      <trkpt lat="47.72451" lon="-2.2091">
        <ele>52.127509</ele>
        <time>2022-12-14T15:12:39.316Z</time>
      </trkpt>
      <trkpt lat="47.72455" lon="-2.20891">
        <ele>52.112551</ele>
        <time>2022-12-14T15:12:42.325Z</time>
      </trkpt>
      <trkpt lat="47.72457" lon="-2.20873">
        <ele>52.080437</ele>
        <time>2022-12-14T15:12:45.335Z</time>
      </trkpt>
      <trkpt lat="47.72459" lon="-2.20855">
        <ele>52.013418</ele>
        <time>2022-12-14T15:12:48.337Z</time>
      </trkpt>
      <trkpt lat="47.72459" lon="-2.20836">
        <ele>51.947164</ele>
        <time>2022-12-14T15:12:51.314Z</time>
      </trkpt>
      <trkpt lat="47.72457" lon="-2.20818">
        <ele>51.879877</ele>
        <time>2022-12-14T15:12:54.336Z</time>
      </trkpt>
      <trkpt lat="47.72456" lon="-2.20799">
        <ele>51.814811</ele>
        <time>2022-12-14T15:12:57.337Z</time>
      </trkpt>
      <trkpt lat="47.72453" lon="-2.20783">
        <ele>51.754052</ele>
        <time>2022-12-14T15:13:00.322Z</time>
      </trkpt>
      <trkpt lat="47.7245" lon="-2.20766">
        <ele>51.693147</ele>
        <time>2022-12-14T15:13:03.316Z</time>
      </trkpt>
      <trkpt lat="47.72447" lon="-2.20749">
        <ele>51.628799</ele>
        <time>2022-12-14T15:13:06.321Z</time>
      </trkpt>
      <trkpt lat="47.72444" lon="-2.20732">
        <ele>51.565503</ele>
        <time>2022-12-14T15:13:09.347Z</time>
      </trkpt>
      <trkpt lat="47.7244" lon="-2.20715">
        <ele>51.501933</ele>
        <time>2022-12-14T15:13:12.333Z</time>
      </trkpt>
      <trkpt lat="47.72437" lon="-2.20697">
        <ele>51.438843</ele>
        <time>2022-12-14T15:13:15.340Z</time>
      </trkpt>
      <trkpt lat="47.72435" lon="-2.2068">
        <ele>51.375995</ele>
        <time>2022-12-14T15:13:18.316Z</time>
      </trkpt>
      <trkpt lat="47.72433" lon="-2.20664">
        <ele>51.317486</ele>
        <time>2022-12-14T15:13:21.322Z</time>
      </trkpt>
      <trkpt lat="47.72433" lon="-2.20646">
        <ele>51.25201</ele>
        <time>2022-12-14T15:13:24.348Z</time>
      </trkpt>
      <trkpt lat="47.72432" lon="-2.20629">
        <ele>51.192151</ele>
        <time>2022-12-14T15:13:27.318Z</time>
      </trkpt>
      <trkpt lat="47.72431" lon="-2.20612">
        <ele>51.067899</ele>
        <time>2022-12-14T15:13:31.323Z</time>
      </trkpt>
      <trkpt lat="47.72428" lon="-2.20599">
        <ele>50.875581</ele>
        <time>2022-12-14T15:13:34.323Z</time>
      </trkpt>
      <trkpt lat="47.72426" lon="-2.20584">
        <ele>50.659805</ele>
        <time>2022-12-14T15:13:37.315Z</time>
      </trkpt>
      <trkpt lat="47.72424" lon="-2.20569">
        <ele>50.440645</ele>
        <time>2022-12-14T15:13:40.320Z</time>
      </trkpt>
      <trkpt lat="47.72423" lon="-2.20551">
        <ele>50.19151</ele>
        <time>2022-12-14T15:13:43.317Z</time>
      </trkpt>
      <trkpt lat="47.72422" lon="-2.20532">
        <ele>49.926928</ele>
        <time>2022-12-14T15:13:46.330Z</time>
      </trkpt>
      <trkpt lat="47.72421" lon="-2.20513">
        <ele>49.648404</ele>
        <time>2022-12-14T15:13:49.320Z</time>
      </trkpt>
      <trkpt lat="47.72422" lon="-2.20494">
        <ele>49.389013</ele>
        <time>2022-12-14T15:13:52.339Z</time>
      </trkpt>
      <trkpt lat="47.72424" lon="-2.20478">
        <ele>49.15721</ele>
        <time>2022-12-14T15:13:55.331Z</time>
      </trkpt>
      <trkpt lat="47.72424" lon="-2.20463">
        <ele>48.937448</ele>
        <time>2022-12-14T15:13:58.345Z</time>
      </trkpt>
      <trkpt lat="47.72424" lon="-2.20446">
        <ele>48.708425</ele>
        <time>2022-12-14T15:14:01.323Z</time>
      </trkpt>
      <trkpt lat="47.72425" lon="-2.20428">
        <ele>48.444804</ele>
        <time>2022-12-14T15:14:04.349Z</time>
      </trkpt>
      <trkpt lat="47.72427" lon="-2.20408">
        <ele>48.162887</ele>
        <time>2022-12-14T15:14:07.329Z</time>
      </trkpt>
      <trkpt lat="47.72428" lon="-2.20395">
        <ele>47.971887</ele>
        <time>2022-12-14T15:14:09.349Z</time>
      </trkpt>
      <trkpt lat="47.72431" lon="-2.20378">
        <ele>47.727532</ele>
        <time>2022-12-14T15:14:12.319Z</time>
      </trkpt>
      <trkpt lat="47.72434" lon="-2.20362">
        <ele>47.490707</ele>
        <time>2022-12-14T15:14:15.323Z</time>
      </trkpt>
      <trkpt lat="47.72436" lon="-2.20344">
        <ele>47.474438</ele>
        <time>2022-12-14T15:14:18.334Z</time>
      </trkpt>
      <trkpt lat="47.72437" lon="-2.20326">
        <ele>47.667281</ele>
        <time>2022-12-14T15:14:21.340Z</time>
      </trkpt>
      <trkpt lat="47.72438" lon="-2.20311">
        <ele>47.827504</ele>
        <time>2022-12-14T15:14:24.322Z</time>
      </trkpt>
      <trkpt lat="47.72439" lon="-2.20293">
        <ele>48.018518</ele>
        <time>2022-12-14T15:14:27.325Z</time>
      </trkpt>
      <trkpt lat="47.72441" lon="-2.20275">
        <ele>48.209695</ele>
        <time>2022-12-14T15:14:30.333Z</time>
      </trkpt>
      <trkpt lat="47.72443" lon="-2.20257">
        <ele>48.407377</ele>
        <time>2022-12-14T15:14:33.319Z</time>
      </trkpt>
      <trkpt lat="47.72444" lon="-2.20239">
        <ele>48.601722</ele>
        <time>2022-12-14T15:14:36.343Z</time>
      </trkpt>
      <trkpt lat="47.72445" lon="-2.20221">
        <ele>48.791265</ele>
        <time>2022-12-14T15:14:39.324Z</time>
      </trkpt>
      <trkpt lat="47.72445" lon="-2.20202">
        <ele>48.987715</ele>
        <time>2022-12-14T15:14:42.322Z</time>
      </trkpt>
      <trkpt lat="47.72444" lon="-2.20185">
        <ele>49.173795</ele>
        <time>2022-12-14T15:14:45.330Z</time>
      </trkpt>
      <trkpt lat="47.72441" lon="-2.20168">
        <ele>49.362739</ele>
        <time>2022-12-14T15:14:48.338Z</time>
      </trkpt>
      <trkpt lat="47.72438" lon="-2.20151">
        <ele>49.546151</ele>
        <time>2022-12-14T15:14:51.334Z</time>
      </trkpt>
      <trkpt lat="47.72435" lon="-2.20135">
        <ele>49.718623</ele>
        <time>2022-12-14T15:14:54.326Z</time>
      </trkpt>
      <trkpt lat="47.72432" lon="-2.20118">
        <ele>49.90593</ele>
        <time>2022-12-14T15:14:57.315Z</time>
      </trkpt>
      <trkpt lat="47.72428" lon="-2.20101">
        <ele>50.098173</ele>
        <time>2022-12-14T15:15:00.329Z</time>
      </trkpt>
      <trkpt lat="47.72424" lon="-2.20085">
        <ele>50.183719</ele>
        <time>2022-12-14T15:15:03.318Z</time>
      </trkpt>
      <trkpt lat="47.72419" lon="-2.20068">
        <ele>50.102043</ele>
        <time>2022-12-14T15:15:06.318Z</time>
      </trkpt>
      <trkpt lat="47.72415" lon="-2.20052">
        <ele>50.020602</ele>
        <time>2022-12-14T15:15:09.326Z</time>
      </trkpt>
      <trkpt lat="47.72412" lon="-2.20035">
        <ele>49.9409</ele>
        <time>2022-12-14T15:15:12.324Z</time>
      </trkpt>
      <trkpt lat="47.72408" lon="-2.20017">
        <ele>49.858745</ele>
        <time>2022-12-14T15:15:15.322Z</time>
      </trkpt>
      <trkpt lat="47.72406" lon="-2.2">
        <ele>49.778834</ele>
        <time>2022-12-14T15:15:18.323Z</time>
      </trkpt>
      <trkpt lat="47.72405" lon="-2.19982">
        <ele>49.699619</ele>
        <time>2022-12-14T15:15:21.321Z</time>
      </trkpt>
      <trkpt lat="47.72403" lon="-2.19967">
        <ele>49.629734</ele>
        <time>2022-12-14T15:15:24.326Z</time>
      </trkpt>
      <trkpt lat="47.72402" lon="-2.19951">
        <ele>49.556061</ele>
        <time>2022-12-14T15:15:27.326Z</time>
      </trkpt>
      <trkpt lat="47.72401" lon="-2.19934">
        <ele>49.477625</ele>
        <time>2022-12-14T15:15:30.320Z</time>
      </trkpt>
      <trkpt lat="47.724" lon="-2.19915">
        <ele>49.393479</ele>
        <time>2022-12-14T15:15:33.318Z</time>
      </trkpt>
      <trkpt lat="47.724" lon="-2.19897">
        <ele>49.309679</ele>
        <time>2022-12-14T15:15:36.327Z</time>
      </trkpt>
      <trkpt lat="47.72398" lon="-2.19878">
        <ele>49.223415</ele>
        <time>2022-12-14T15:15:39.326Z</time>
      </trkpt>
      <trkpt lat="47.72397" lon="-2.19859">
        <ele>49.137128</ele>
        <time>2022-12-14T15:15:42.321Z</time>
      </trkpt>
      <trkpt lat="47.72394" lon="-2.1984">
        <ele>49.048903</ele>
        <time>2022-12-14T15:15:45.352Z</time>
      </trkpt>
      <trkpt lat="47.72392" lon="-2.19826">
        <ele>49.038658</ele>
        <time>2022-12-14T15:15:47.316Z</time>
      </trkpt>
      <trkpt lat="47.72389" lon="-2.19809">
        <ele>49.190985</ele>
        <time>2022-12-14T15:15:50.347Z</time>
      </trkpt>
      <trkpt lat="47.72386" lon="-2.19794">
        <ele>49.320483</ele>
        <time>2022-12-14T15:15:53.319Z</time>
      </trkpt>
      <trkpt lat="47.72384" lon="-2.19778">
        <ele>49.466101</ele>
        <time>2022-12-14T15:15:57.327Z</time>
      </trkpt>
      <trkpt lat="47.72381" lon="-2.19761">
        <ele>49.622642</ele>
        <time>2022-12-14T15:16:01.325Z</time>
      </trkpt>
      <trkpt lat="47.72378" lon="-2.19745">
        <ele>49.764889</ele>
        <time>2022-12-14T15:16:04.327Z</time>
      </trkpt>
      <trkpt lat="47.72375" lon="-2.19727">
        <ele>49.921227</ele>
        <time>2022-12-14T15:16:07.323Z</time>
      </trkpt>
      <trkpt lat="47.72371" lon="-2.1971">
        <ele>50.076472</ele>
        <time>2022-12-14T15:16:10.319Z</time>
      </trkpt>
      <trkpt lat="47.72367" lon="-2.19694">
        <ele>50.230878</ele>
        <time>2022-12-14T15:16:13.323Z</time>
      </trkpt>
      <trkpt lat="47.72363" lon="-2.19677">
        <ele>50.385646</ele>
        <time>2022-12-14T15:16:16.334Z</time>
      </trkpt>
      <trkpt lat="47.7236" lon="-2.19659">
        <ele>50.545421</ele>
        <time>2022-12-14T15:16:19.331Z</time>
      </trkpt>
      <trkpt lat="47.72357" lon="-2.19642">
        <ele>50.699433</ele>
        <time>2022-12-14T15:16:22.329Z</time>
      </trkpt>
      <trkpt lat="47.72354" lon="-2.19624">
        <ele>50.859657</ele>
        <time>2022-12-14T15:16:25.326Z</time>
      </trkpt>
      <trkpt lat="47.7235" lon="-2.19607">
        <ele>51.018984</ele>
        <time>2022-12-14T15:16:28.328Z</time>
      </trkpt>
      <trkpt lat="47.72345" lon="-2.19591">
        <ele>51.166949</ele>
        <time>2022-12-14T15:16:31.346Z</time>
      </trkpt>
      <trkpt lat="47.72339" lon="-2.19577">
        <ele>51.311982</ele>
        <time>2022-12-14T15:16:34.321Z</time>
      </trkpt>
      <trkpt lat="47.72339" lon="-2.19559">
        <ele>51.486921</ele>
        <time>2022-12-14T15:16:37.348Z</time>
      </trkpt>
      <trkpt lat="47.72343" lon="-2.1954">
        <ele>51.686568</ele>
        <time>2022-12-14T15:16:40.336Z</time>
      </trkpt>
      <trkpt lat="47.72346" lon="-2.19528">
        <ele>51.823529</ele>
        <time>2022-12-14T15:16:42.330Z</time>
      </trkpt>
      <trkpt lat="47.72349" lon="-2.19509">
        <ele>52.017425</ele>
        <time>2022-12-14T15:16:45.324Z</time>
      </trkpt>
      <trkpt lat="47.7235" lon="-2.19489">
        <ele>52.212653</ele>
        <time>2022-12-14T15:16:48.324Z</time>
      </trkpt>
      <trkpt lat="47.72351" lon="-2.19476">
        <ele>52.349232</ele>
        <time>2022-12-14T15:16:50.340Z</time>
      </trkpt>
      <trkpt lat="47.72353" lon="-2.19456">
        <ele>52.551624</ele>
        <time>2022-12-14T15:16:53.318Z</time>
      </trkpt>
      <trkpt lat="47.72354" lon="-2.19436">
        <ele>52.746321</ele>
        <time>2022-12-14T15:16:56.330Z</time>
      </trkpt>
      <trkpt lat="47.72355" lon="-2.19417">
        <ele>52.93847</ele>
        <time>2022-12-14T15:16:59.327Z</time>
      </trkpt>
      <trkpt lat="47.72356" lon="-2.19398">
        <ele>53.132015</ele>
        <time>2022-12-14T15:17:02.321Z</time>
      </trkpt>
      <trkpt lat="47.72357" lon="-2.19379">
        <ele>53.328282</ele>
        <time>2022-12-14T15:17:05.323Z</time>
      </trkpt>
      <trkpt lat="47.72359" lon="-2.19361">
        <ele>53.508399</ele>
        <time>2022-12-14T15:17:08.325Z</time>
      </trkpt>
      <trkpt lat="47.72359" lon="-2.19343">
        <ele>53.683978</ele>
        <time>2022-12-14T15:17:11.322Z</time>
      </trkpt>
      <trkpt lat="47.72359" lon="-2.19324">
        <ele>53.882573</ele>
        <time>2022-12-14T15:17:14.346Z</time>
      </trkpt>
      <trkpt lat="47.72358" lon="-2.19304">
        <ele>53.926845</ele>
        <time>2022-12-14T15:17:17.340Z</time>
      </trkpt>
      <trkpt lat="47.72355" lon="-2.19291">
        <ele>53.777411</ele>
        <time>2022-12-14T15:17:19.331Z</time>
      </trkpt>
      <trkpt lat="47.72352" lon="-2.19272">
        <ele>53.566632</ele>
        <time>2022-12-14T15:17:22.340Z</time>
      </trkpt>
      <trkpt lat="47.72349" lon="-2.19256">
        <ele>53.385317</ele>
        <time>2022-12-14T15:17:25.325Z</time>
      </trkpt>
      <trkpt lat="47.72347" lon="-2.1924">
        <ele>53.206128</ele>
        <time>2022-12-14T15:17:28.340Z</time>
      </trkpt>
      <trkpt lat="47.72344" lon="-2.19223">
        <ele>53.014402</ele>
        <time>2022-12-14T15:17:31.347Z</time>
      </trkpt>
      <trkpt lat="47.72341" lon="-2.19205">
        <ele>52.810245</ele>
        <time>2022-12-14T15:17:34.338Z</time>
      </trkpt>
      <trkpt lat="47.72338" lon="-2.19187">
        <ele>52.606207</ele>
        <time>2022-12-14T15:17:37.357Z</time>
      </trkpt>
      <trkpt lat="47.72336" lon="-2.19168">
        <ele>52.397972</ele>
        <time>2022-12-14T15:17:40.331Z</time>
      </trkpt>
      <trkpt lat="47.72335" lon="-2.19149">
        <ele>52.190877</ele>
        <time>2022-12-14T15:17:43.328Z</time>
      </trkpt>
      <trkpt lat="47.72335" lon="-2.19131">
        <ele>51.999798</ele>
        <time>2022-12-14T15:17:46.330Z</time>
      </trkpt>
      <trkpt lat="47.72335" lon="-2.19115">
        <ele>51.821953</ele>
        <time>2022-12-14T15:17:49.335Z</time>
      </trkpt>
      <trkpt lat="47.72335" lon="-2.19098">
        <ele>51.63541</ele>
        <time>2022-12-14T15:17:52.323Z</time>
      </trkpt>
      <trkpt lat="47.72335" lon="-2.1908">
        <ele>51.442322</ele>
        <time>2022-12-14T15:17:55.341Z</time>
      </trkpt>
      <trkpt lat="47.72335" lon="-2.19062">
        <ele>51.242629</ele>
        <time>2022-12-14T15:17:58.344Z</time>
      </trkpt>
      <trkpt lat="47.72335" lon="-2.19043">
        <ele>51.10414</ele>
        <time>2022-12-14T15:18:01.322Z</time>
      </trkpt>
      <trkpt lat="47.72335" lon="-2.19024">
        <ele>51.157599</ele>
        <time>2022-12-14T15:18:04.328Z</time>
      </trkpt>
      <trkpt lat="47.72335" lon="-2.19005">
        <ele>51.210531</ele>
        <time>2022-12-14T15:18:07.324Z</time>
      </trkpt>
      <trkpt lat="47.72335" lon="-2.18988">
        <ele>51.258078</ele>
        <time>2022-12-14T15:18:10.317Z</time>
      </trkpt>
      <trkpt lat="47.72335" lon="-2.18971">
        <ele>51.30563</ele>
        <time>2022-12-14T15:18:13.324Z</time>
      </trkpt>
      <trkpt lat="47.72335" lon="-2.18954">
        <ele>51.355426</ele>
        <time>2022-12-14T15:18:16.320Z</time>
      </trkpt>
      <trkpt lat="47.72335" lon="-2.18936">
        <ele>51.405786</ele>
        <time>2022-12-14T15:18:19.346Z</time>
      </trkpt>
      <trkpt lat="47.72335" lon="-2.18917">
        <ele>51.459527</ele>
        <time>2022-12-14T15:18:22.326Z</time>
      </trkpt>
      <trkpt lat="47.72335" lon="-2.18898">
        <ele>51.512424</ele>
        <time>2022-12-14T15:18:25.327Z</time>
      </trkpt>
      <trkpt lat="47.72334" lon="-2.18879">
        <ele>51.565167</ele>
        <time>2022-12-14T15:18:28.331Z</time>
      </trkpt>
      <trkpt lat="47.72334" lon="-2.18863">
        <ele>51.610751</ele>
        <time>2022-12-14T15:18:31.337Z</time>
      </trkpt>
      <trkpt lat="47.72334" lon="-2.18849">
        <ele>51.650527</ele>
        <time>2022-12-14T15:18:34.326Z</time>
      </trkpt>
      <trkpt lat="47.72332" lon="-2.18834">
        <ele>51.692417</ele>
        <time>2022-12-14T15:18:37.319Z</time>
      </trkpt>
      <trkpt lat="47.72331" lon="-2.18819">
        <ele>51.734806</ele>
        <time>2022-12-14T15:18:40.334Z</time>
      </trkpt>
      <trkpt lat="47.72329" lon="-2.18806">
        <ele>51.773673</ele>
        <time>2022-12-14T15:18:43.321Z</time>
      </trkpt>
      <trkpt lat="47.72327" lon="-2.18789">
        <ele>51.822733</ele>
        <time>2022-12-14T15:18:46.329Z</time>
      </trkpt>
      <trkpt lat="47.72324" lon="-2.18771">
        <ele>51.818305</ele>
        <time>2022-12-14T15:18:49.320Z</time>
      </trkpt>
      <trkpt lat="47.72321" lon="-2.18752">
        <ele>51.778791</ele>
        <time>2022-12-14T15:18:52.333Z</time>
      </trkpt>
      <trkpt lat="47.72318" lon="-2.18734">
        <ele>51.739484</ele>
        <time>2022-12-14T15:18:55.332Z</time>
      </trkpt>
      <trkpt lat="47.72316" lon="-2.18717">
        <ele>51.702553</ele>
        <time>2022-12-14T15:18:58.321Z</time>
      </trkpt>
      <trkpt lat="47.72313" lon="-2.18701">
        <ele>51.666852</ele>
        <time>2022-12-14T15:19:01.342Z</time>
      </trkpt>
      <trkpt lat="47.7231" lon="-2.18684">
        <ele>51.629722</ele>
        <time>2022-12-14T15:19:04.328Z</time>
      </trkpt>
      <trkpt lat="47.72308" lon="-2.18666">
        <ele>51.591903</ele>
        <time>2022-12-14T15:19:07.330Z</time>
      </trkpt>
      <trkpt lat="47.72305" lon="-2.18648">
        <ele>51.552389</ele>
        <time>2022-12-14T15:19:10.326Z</time>
      </trkpt>
      <trkpt lat="47.72302" lon="-2.18629">
        <ele>51.511701</ele>
        <time>2022-12-14T15:19:13.327Z</time>
      </trkpt>
      <trkpt lat="47.723" lon="-2.1861">
        <ele>51.470859</ele>
        <time>2022-12-14T15:19:16.328Z</time>
      </trkpt>
      <trkpt lat="47.72298" lon="-2.18592">
        <ele>51.431585</ele>
        <time>2022-12-14T15:19:19.317Z</time>
      </trkpt>
      <trkpt lat="47.72296" lon="-2.18577">
        <ele>51.4011</ele>
        <time>2022-12-14T15:19:22.372Z</time>
      </trkpt>
      <trkpt lat="47.72294" lon="-2.18564">
        <ele>51.371277</ele>
        <time>2022-12-14T15:19:27.319Z</time>
      </trkpt>
      <trkpt lat="47.72292" lon="-2.18549">
        <ele>51.338961</ele>
        <time>2022-12-14T15:19:31.321Z</time>
      </trkpt>
      <trkpt lat="47.7229" lon="-2.18535">
        <ele>51.309471</ele>
        <time>2022-12-14T15:19:34.328Z</time>
      </trkpt>
      <trkpt lat="47.72287" lon="-2.1852">
        <ele>51.278248</ele>
        <time>2022-12-14T15:19:37.327Z</time>
      </trkpt>
      <trkpt lat="47.72284" lon="-2.18504">
        <ele>51.284644</ele>
        <time>2022-12-14T15:19:40.325Z</time>
      </trkpt>
      <trkpt lat="47.72281" lon="-2.1849">
        <ele>51.2903</ele>
        <time>2022-12-14T15:19:43.338Z</time>
      </trkpt>
      <trkpt lat="47.7228" lon="-2.18477">
        <ele>51.295657</ele>
        <time>2022-12-14T15:19:46.340Z</time>
      </trkpt>
      <trkpt lat="47.72278" lon="-2.18462">
        <ele>51.30155</ele>
        <time>2022-12-14T15:19:49.339Z</time>
      </trkpt>
      <trkpt lat="47.72276" lon="-2.18447">
        <ele>51.307619</ele>
        <time>2022-12-14T15:19:53.325Z</time>
      </trkpt>
      <trkpt lat="47.72273" lon="-2.18432">
        <ele>51.313986</ele>
        <time>2022-12-14T15:19:57.329Z</time>
      </trkpt>
      <trkpt lat="47.72271" lon="-2.18418">
        <ele>51.319754</ele>
        <time>2022-12-14T15:20:01.346Z</time>
      </trkpt>
      <trkpt lat="47.7227" lon="-2.18403">
        <ele>51.325696</ele>
        <time>2022-12-14T15:20:05.321Z</time>
      </trkpt>
      <trkpt lat="47.72267" lon="-2.18387">
        <ele>51.332041</ele>
        <time>2022-12-14T15:20:09.324Z</time>
      </trkpt>
      <trkpt lat="47.72264" lon="-2.18373">
        <ele>51.337835</ele>
        <time>2022-12-14T15:20:13.331Z</time>
      </trkpt>
      <trkpt lat="47.72263" lon="-2.18359">
        <ele>51.34346</ele>
        <time>2022-12-14T15:20:16.334Z</time>
      </trkpt>
      <trkpt lat="47.72261" lon="-2.18345">
        <ele>51.349136</ele>
        <time>2022-12-14T15:20:19.329Z</time>
      </trkpt>
      <trkpt lat="47.72258" lon="-2.18329">
        <ele>51.355679</ele>
        <time>2022-12-14T15:20:22.338Z</time>
      </trkpt>
      <trkpt lat="47.72256" lon="-2.18312">
        <ele>51.362501</ele>
        <time>2022-12-14T15:20:25.320Z</time>
      </trkpt>
      <trkpt lat="47.72253" lon="-2.18295">
        <ele>51.369529</ele>
        <time>2022-12-14T15:20:28.328Z</time>
      </trkpt>
      <trkpt lat="47.7225" lon="-2.18278">
        <ele>51.376576</ele>
        <time>2022-12-14T15:20:31.422Z</time>
      </trkpt>
      <trkpt lat="47.72247" lon="-2.18261">
        <ele>51.383524</ele>
        <time>2022-12-14T15:20:34.321Z</time>
      </trkpt>
      <trkpt lat="47.72244" lon="-2.18245">
        <ele>51.406803</ele>
        <time>2022-12-14T15:20:37.323Z</time>
      </trkpt>
      <trkpt lat="47.72243" lon="-2.1823">
        <ele>51.429009</ele>
        <time>2022-12-14T15:20:40.347Z</time>
      </trkpt>
      <trkpt lat="47.72241" lon="-2.18214">
        <ele>51.453562</ele>
        <time>2022-12-14T15:20:43.357Z</time>
      </trkpt>
      <trkpt lat="47.72238" lon="-2.18197">
        <ele>51.478013</ele>
        <time>2022-12-14T15:20:46.352Z</time>
      </trkpt>
      <trkpt lat="47.72236" lon="-2.1818">
        <ele>51.503125</ele>
        <time>2022-12-14T15:20:49.342Z</time>
      </trkpt>
      <trkpt lat="47.72233" lon="-2.18162">
        <ele>51.531045</ele>
        <time>2022-12-14T15:20:52.330Z</time>
      </trkpt>
      <trkpt lat="47.72231" lon="-2.18148">
        <ele>51.551114</ele>
        <time>2022-12-14T15:20:54.350Z</time>
      </trkpt>
      <trkpt lat="47.72229" lon="-2.18133">
        <ele>51.573287</ele>
        <time>2022-12-14T15:20:56.339Z</time>
      </trkpt>
      <trkpt lat="47.72227" lon="-2.18115">
        <ele>51.600252</ele>
        <time>2022-12-14T15:20:59.317Z</time>
      </trkpt>
      <trkpt lat="47.72224" lon="-2.18096">
        <ele>51.629264</ele>
        <time>2022-12-14T15:21:02.344Z</time>
      </trkpt>
      <trkpt lat="47.72221" lon="-2.18083">
        <ele>51.648805</ele>
        <time>2022-12-14T15:21:04.313Z</time>
      </trkpt>
      <trkpt lat="47.72219" lon="-2.18065">
        <ele>51.67613</ele>
        <time>2022-12-14T15:21:07.348Z</time>
      </trkpt>
      <trkpt lat="47.72217" lon="-2.18049">
        <ele>51.700252</ele>
        <time>2022-12-14T15:21:10.353Z</time>
      </trkpt>
      <trkpt lat="47.72214" lon="-2.18033">
        <ele>51.724088</ele>
        <time>2022-12-14T15:21:13.355Z</time>
      </trkpt>
      <trkpt lat="47.72211" lon="-2.18015">
        <ele>51.750958</ele>
        <time>2022-12-14T15:21:16.352Z</time>
      </trkpt>
      <trkpt lat="47.72208" lon="-2.17995">
        <ele>51.786417</ele>
        <time>2022-12-14T15:21:19.321Z</time>
      </trkpt>
      <trkpt lat="47.72206" lon="-2.17982">
        <ele>51.826151</ele>
        <time>2022-12-14T15:21:21.352Z</time>
      </trkpt>
      <trkpt lat="47.72203" lon="-2.17969">
        <ele>51.864874</ele>
        <time>2022-12-14T15:21:23.341Z</time>
      </trkpt>
      <trkpt lat="47.72201" lon="-2.17951">
        <ele>51.91776</ele>
        <time>2022-12-14T15:21:26.318Z</time>
      </trkpt>
      <trkpt lat="47.72198" lon="-2.17933">
        <ele>51.969911</ele>
        <time>2022-12-14T15:21:29.349Z</time>
      </trkpt>
      <trkpt lat="47.72195" lon="-2.17915">
        <ele>52.022163</ele>
        <time>2022-12-14T15:21:32.339Z</time>
      </trkpt>
      <trkpt lat="47.72193" lon="-2.17896">
        <ele>52.076903</ele>
        <time>2022-12-14T15:21:35.321Z</time>
      </trkpt>
      <trkpt lat="47.72189" lon="-2.17877">
        <ele>52.133989</ele>
        <time>2022-12-14T15:21:38.349Z</time>
      </trkpt>
      <trkpt lat="47.72187" lon="-2.17863">
        <ele>52.172341</ele>
        <time>2022-12-14T15:21:40.337Z</time>
      </trkpt>
      <trkpt lat="47.72185" lon="-2.17845">
        <ele>52.225235</ele>
        <time>2022-12-14T15:21:43.330Z</time>
      </trkpt>
      <trkpt lat="47.72183" lon="-2.1783">
        <ele>52.269694</ele>
        <time>2022-12-14T15:21:46.349Z</time>
      </trkpt>
      <trkpt lat="47.72181" lon="-2.17814">
        <ele>52.314483</ele>
        <time>2022-12-14T15:21:49.349Z</time>
      </trkpt>
      <trkpt lat="47.72178" lon="-2.17796">
        <ele>52.367647</ele>
        <time>2022-12-14T15:21:52.331Z</time>
      </trkpt>
      <trkpt lat="47.72175" lon="-2.17778">
        <ele>52.419704</ele>
        <time>2022-12-14T15:21:55.342Z</time>
      </trkpt>
      <trkpt lat="47.72174" lon="-2.17763">
        <ele>52.463168</ele>
        <time>2022-12-14T15:21:58.346Z</time>
      </trkpt>
      <trkpt lat="47.72171" lon="-2.17744">
        <ele>52.520534</ele>
        <time>2022-12-14T15:22:01.340Z</time>
      </trkpt>
      <trkpt lat="47.72169" lon="-2.17727">
        <ele>52.388267</ele>
        <time>2022-12-14T15:22:04.345Z</time>
      </trkpt>
      <trkpt lat="47.72167" lon="-2.17713">
        <ele>52.213789</ele>
        <time>2022-12-14T15:22:07.317Z</time>
      </trkpt>
      <trkpt lat="47.72164" lon="-2.17698">
        <ele>52.016738</ele>
        <time>2022-12-14T15:22:10.338Z</time>
      </trkpt>
      <trkpt lat="47.72162" lon="-2.17683">
        <ele>51.828594</ele>
        <time>2022-12-14T15:22:13.327Z</time>
      </trkpt>
      <trkpt lat="47.7216" lon="-2.17666">
        <ele>51.605657</ele>
        <time>2022-12-14T15:22:16.353Z</time>
      </trkpt>
      <trkpt lat="47.72159" lon="-2.17649">
        <ele>51.387013</ele>
        <time>2022-12-14T15:22:19.343Z</time>
      </trkpt>
      <trkpt lat="47.72156" lon="-2.17631">
        <ele>51.153946</ele>
        <time>2022-12-14T15:22:22.326Z</time>
      </trkpt>
      <trkpt lat="47.72153" lon="-2.17613">
        <ele>50.923579</ele>
        <time>2022-12-14T15:22:25.330Z</time>
      </trkpt>
      <trkpt lat="47.72151" lon="-2.17596">
        <ele>50.709986</ele>
        <time>2022-12-14T15:22:28.321Z</time>
      </trkpt>
      <trkpt lat="47.72149" lon="-2.17577">
        <ele>50.461935</ele>
        <time>2022-12-14T15:22:31.322Z</time>
      </trkpt>
      <trkpt lat="47.72147" lon="-2.17563">
        <ele>50.282095</ele>
        <time>2022-12-14T15:22:34.326Z</time>
      </trkpt>
      <trkpt lat="47.72145" lon="-2.17545">
        <ele>50.052622</ele>
        <time>2022-12-14T15:22:37.344Z</time>
      </trkpt>
      <trkpt lat="47.72142" lon="-2.1753">
        <ele>49.859528</ele>
        <time>2022-12-14T15:22:40.326Z</time>
      </trkpt>
      <trkpt lat="47.72139" lon="-2.17515">
        <ele>49.656943</ele>
        <time>2022-12-14T15:22:43.323Z</time>
      </trkpt>
      <trkpt lat="47.72137" lon="-2.175">
        <ele>49.466466</ele>
        <time>2022-12-14T15:22:46.344Z</time>
      </trkpt>
      <trkpt lat="47.72134" lon="-2.17484">
        <ele>49.255849</ele>
        <time>2022-12-14T15:22:49.374Z</time>
      </trkpt>
      <trkpt lat="47.72132" lon="-2.17469">
        <ele>49.109777</ele>
        <time>2022-12-14T15:22:52.348Z</time>
      </trkpt>
      <trkpt lat="47.7213" lon="-2.17452">
        <ele>48.977397</ele>
        <time>2022-12-14T15:22:55.324Z</time>
      </trkpt>
      <trkpt lat="47.72126" lon="-2.17432">
        <ele>48.82852</ele>
        <time>2022-12-14T15:22:58.317Z</time>
      </trkpt>
      <trkpt lat="47.72122" lon="-2.17415">
        <ele>48.696371</ele>
        <time>2022-12-14T15:23:02.324Z</time>
      </trkpt>
      <trkpt lat="47.72119" lon="-2.17399">
        <ele>48.573256</ele>
        <time>2022-12-14T15:23:05.336Z</time>
      </trkpt>
      <trkpt lat="47.72116" lon="-2.17383">
        <ele>48.446851</ele>
        <time>2022-12-14T15:23:08.329Z</time>
      </trkpt>
      <trkpt lat="47.72113" lon="-2.17367">
        <ele>48.327302</ele>
        <time>2022-12-14T15:23:11.351Z</time>
      </trkpt>
      <trkpt lat="47.72111" lon="-2.1735">
        <ele>48.191567</ele>
        <time>2022-12-14T15:23:14.342Z</time>
      </trkpt>
      <trkpt lat="47.72107" lon="-2.17331">
        <ele>48.047987</ele>
        <time>2022-12-14T15:23:17.330Z</time>
      </trkpt>
      <trkpt lat="47.72105" lon="-2.17318">
        <ele>47.947908</ele>
        <time>2022-12-14T15:23:19.339Z</time>
      </trkpt>
      <trkpt lat="47.72102" lon="-2.173">
        <ele>47.812773</ele>
        <time>2022-12-14T15:23:22.333Z</time>
      </trkpt>
      <trkpt lat="47.72099" lon="-2.17284">
        <ele>47.691743</ele>
        <time>2022-12-14T15:23:25.318Z</time>
      </trkpt>
      <trkpt lat="47.72097" lon="-2.17269">
        <ele>47.573304</ele>
        <time>2022-12-14T15:23:28.335Z</time>
      </trkpt>
      <trkpt lat="47.72095" lon="-2.17252">
        <ele>47.449857</ele>
        <time>2022-12-14T15:23:31.323Z</time>
      </trkpt>
      <trkpt lat="47.72095" lon="-2.17239">
        <ele>47.348214</ele>
        <time>2022-12-14T15:23:35.321Z</time>
      </trkpt>
      <trkpt lat="47.72094" lon="-2.17221">
        <ele>47.216162</ele>
        <time>2022-12-14T15:23:38.350Z</time>
      </trkpt>
      <trkpt lat="47.72093" lon="-2.17202">
        <ele>47.270141</ele>
        <time>2022-12-14T15:23:41.327Z</time>
      </trkpt>
      <trkpt lat="47.72092" lon="-2.17186">
        <ele>47.363064</ele>
        <time>2022-12-14T15:23:44.339Z</time>
      </trkpt>
      <trkpt lat="47.7209" lon="-2.1717">
        <ele>47.457243</ele>
        <time>2022-12-14T15:23:47.323Z</time>
      </trkpt>
      <trkpt lat="47.72087" lon="-2.17154">
        <ele>47.55007</ele>
        <time>2022-12-14T15:23:50.364Z</time>
      </trkpt>
      <trkpt lat="47.72085" lon="-2.17138">
        <ele>47.645205</ele>
        <time>2022-12-14T15:23:53.321Z</time>
      </trkpt>
      <trkpt lat="47.7208" lon="-2.17122">
        <ele>47.744081</ele>
        <time>2022-12-14T15:23:56.364Z</time>
      </trkpt>
      <trkpt lat="47.72077" lon="-2.17106">
        <ele>47.836523</ele>
        <time>2022-12-14T15:23:59.324Z</time>
      </trkpt>
      <trkpt lat="47.72074" lon="-2.17092">
        <ele>47.922226</ele>
        <time>2022-12-14T15:24:02.317Z</time>
      </trkpt>
      <trkpt lat="47.72071" lon="-2.17079">
        <ele>48.002482</ele>
        <time>2022-12-14T15:24:05.349Z</time>
      </trkpt>
      <trkpt lat="47.72069" lon="-2.17063">
        <ele>48.097087</ele>
        <time>2022-12-14T15:24:08.344Z</time>
      </trkpt>
      <trkpt lat="47.72066" lon="-2.17047">
        <ele>48.190185</ele>
        <time>2022-12-14T15:24:11.342Z</time>
      </trkpt>
      <trkpt lat="47.72064" lon="-2.17031">
        <ele>48.282179</ele>
        <time>2022-12-14T15:24:14.348Z</time>
      </trkpt>
      <trkpt lat="47.72061" lon="-2.17015">
        <ele>48.373976</ele>
        <time>2022-12-14T15:24:17.337Z</time>
      </trkpt>
      <trkpt lat="47.7206" lon="-2.16999">
        <ele>48.468858</ele>
        <time>2022-12-14T15:24:20.348Z</time>
      </trkpt>
      <trkpt lat="47.72059" lon="-2.16985">
        <ele>48.545728</ele>
        <time>2022-12-14T15:24:23.336Z</time>
      </trkpt>
      <trkpt lat="47.72055" lon="-2.16971">
        <ele>48.62977</ele>
        <time>2022-12-14T15:24:26.326Z</time>
      </trkpt>
      <trkpt lat="47.72052" lon="-2.16958">
        <ele>48.711911</ele>
        <time>2022-12-14T15:24:31.347Z</time>
      </trkpt>
      <trkpt lat="47.72048" lon="-2.16943">
        <ele>48.735646</ele>
        <time>2022-12-14T15:24:37.322Z</time>
      </trkpt>
      <trkpt lat="47.72045" lon="-2.16926">
        <ele>48.76171</ele>
        <time>2022-12-14T15:24:41.339Z</time>
      </trkpt>
      <trkpt lat="47.72044" lon="-2.1691">
        <ele>48.784289</ele>
        <time>2022-12-14T15:24:44.395Z</time>
      </trkpt>
      <trkpt lat="47.72042" lon="-2.16894">
        <ele>48.809158</ele>
        <time>2022-12-14T15:24:47.357Z</time>
      </trkpt>
      <trkpt lat="47.72039" lon="-2.16875">
        <ele>48.836748</ele>
        <time>2022-12-14T15:24:50.334Z</time>
      </trkpt>
      <trkpt lat="47.72036" lon="-2.16857">
        <ele>48.863817</ele>
        <time>2022-12-14T15:24:53.327Z</time>
      </trkpt>
      <trkpt lat="47.72033" lon="-2.16842">
        <ele>48.887566</ele>
        <time>2022-12-14T15:24:56.348Z</time>
      </trkpt>
      <trkpt lat="47.72031" lon="-2.16826">
        <ele>48.911669</ele>
        <time>2022-12-14T15:24:59.352Z</time>
      </trkpt>
      <trkpt lat="47.72028" lon="-2.16809">
        <ele>48.937494</ele>
        <time>2022-12-14T15:25:02.352Z</time>
      </trkpt>
      <trkpt lat="47.72025" lon="-2.1679">
        <ele>48.965494</ele>
        <time>2022-12-14T15:25:05.328Z</time>
      </trkpt>
      <trkpt lat="47.72022" lon="-2.16772">
        <ele>48.993276</ele>
        <time>2022-12-14T15:25:08.334Z</time>
      </trkpt>
      <trkpt lat="47.72019" lon="-2.16753">
        <ele>49.021822</ele>
        <time>2022-12-14T15:25:11.346Z</time>
      </trkpt>
      <trkpt lat="47.72016" lon="-2.16736">
        <ele>49.047886</ele>
        <time>2022-12-14T15:25:14.338Z</time>
      </trkpt>
      <trkpt lat="47.72014" lon="-2.16717">
        <ele>49.075719</ele>
        <time>2022-12-14T15:25:17.331Z</time>
      </trkpt>
      <trkpt lat="47.72011" lon="-2.16699">
        <ele>49.103126</ele>
        <time>2022-12-14T15:25:20.362Z</time>
      </trkpt>
      <trkpt lat="47.72008" lon="-2.16679">
        <ele>49.01847</ele>
        <time>2022-12-14T15:25:23.343Z</time>
      </trkpt>
      <trkpt lat="47.72004" lon="-2.16659">
        <ele>48.930217</ele>
        <time>2022-12-14T15:25:26.348Z</time>
      </trkpt>
      <trkpt lat="47.72002" lon="-2.16646">
        <ele>48.870441</ele>
        <time>2022-12-14T15:25:28.337Z</time>
      </trkpt>
      <trkpt lat="47.72" lon="-2.16633">
        <ele>48.811774</ele>
        <time>2022-12-14T15:25:30.356Z</time>
      </trkpt>
      <trkpt lat="47.71997" lon="-2.16615">
        <ele>48.729143</ele>
        <time>2022-12-14T15:25:33.323Z</time>
      </trkpt>
      <trkpt lat="47.71994" lon="-2.16597">
        <ele>48.649634</ele>
        <time>2022-12-14T15:25:36.351Z</time>
      </trkpt>
      <trkpt lat="47.71991" lon="-2.16578">
        <ele>48.565306</ele>
        <time>2022-12-14T15:25:39.330Z</time>
      </trkpt>
      <trkpt lat="47.71988" lon="-2.16561">
        <ele>48.489494</ele>
        <time>2022-12-14T15:25:42.356Z</time>
      </trkpt>
      <trkpt lat="47.71986" lon="-2.16547">
        <ele>48.42502</ele>
        <time>2022-12-14T15:25:45.350Z</time>
      </trkpt>
      <trkpt lat="47.71985" lon="-2.16531">
        <ele>48.35551</ele>
        <time>2022-12-14T15:25:48.333Z</time>
      </trkpt>
      <trkpt lat="47.71982" lon="-2.16514">
        <ele>48.281111</ele>
        <time>2022-12-14T15:25:51.336Z</time>
      </trkpt>
      <trkpt lat="47.7198" lon="-2.16498">
        <ele>48.205572</ele>
        <time>2022-12-14T15:25:54.334Z</time>
      </trkpt>
      <trkpt lat="47.71977" lon="-2.16481">
        <ele>48.130131</ele>
        <time>2022-12-14T15:25:57.327Z</time>
      </trkpt>
      <trkpt lat="47.71973" lon="-2.16463">
        <ele>48.05115</ele>
        <time>2022-12-14T15:26:00.323Z</time>
      </trkpt>
      <trkpt lat="47.71971" lon="-2.16446">
        <ele>47.972899</ele>
        <time>2022-12-14T15:26:03.338Z</time>
      </trkpt>
      <trkpt lat="47.71969" lon="-2.16428">
        <ele>47.980708</ele>
        <time>2022-12-14T15:26:06.350Z</time>
      </trkpt>
      <trkpt lat="47.71967" lon="-2.16412">
        <ele>48.050404</ele>
        <time>2022-12-14T15:26:09.393Z</time>
      </trkpt>
      <trkpt lat="47.71966" lon="-2.16398">
        <ele>48.109981</ele>
        <time>2022-12-14T15:26:12.348Z</time>
      </trkpt>
      <trkpt lat="47.71964" lon="-2.16382">
        <ele>48.177896</ele>
        <time>2022-12-14T15:26:15.322Z</time>
      </trkpt>
      <trkpt lat="47.71961" lon="-2.16365">
        <ele>48.255804</ele>
        <time>2022-12-14T15:26:18.346Z</time>
      </trkpt>
      <trkpt lat="47.71958" lon="-2.16348">
        <ele>48.328992</ele>
        <time>2022-12-14T15:26:21.344Z</time>
      </trkpt>
      <trkpt lat="47.71955" lon="-2.16331">
        <ele>48.403549</ele>
        <time>2022-12-14T15:26:24.349Z</time>
      </trkpt>
      <trkpt lat="47.71952" lon="-2.16314">
        <ele>48.481104</ele>
        <time>2022-12-14T15:26:27.350Z</time>
      </trkpt>
      <trkpt lat="47.71949" lon="-2.16295">
        <ele>48.560807</ele>
        <time>2022-12-14T15:26:30.393Z</time>
      </trkpt>
      <trkpt lat="47.71946" lon="-2.16278">
        <ele>48.637372</ele>
        <time>2022-12-14T15:26:33.337Z</time>
      </trkpt>
      <trkpt lat="47.71944" lon="-2.16263">
        <ele>48.702062</ele>
        <time>2022-12-14T15:26:36.319Z</time>
      </trkpt>
      <trkpt lat="47.71942" lon="-2.1625">
        <ele>48.759661</ele>
        <time>2022-12-14T15:26:39.335Z</time>
      </trkpt>
      <trkpt lat="47.7194" lon="-2.16237">
        <ele>48.816837</ele>
        <time>2022-12-14T15:26:42.349Z</time>
      </trkpt>
      <trkpt lat="47.71938" lon="-2.16222">
        <ele>48.880852</ele>
        <time>2022-12-14T15:26:45.347Z</time>
      </trkpt>
      <trkpt lat="47.71936" lon="-2.16207">
        <ele>48.950682</ele>
        <time>2022-12-14T15:26:48.348Z</time>
      </trkpt>
      <trkpt lat="47.71933" lon="-2.16191">
        <ele>49.020096</ele>
        <time>2022-12-14T15:26:51.348Z</time>
      </trkpt>
      <trkpt lat="47.71931" lon="-2.16174">
        <ele>49.082795</ele>
        <time>2022-12-14T15:26:54.341Z</time>
      </trkpt>
      <trkpt lat="47.71928" lon="-2.16157">
        <ele>49.096754</ele>
        <time>2022-12-14T15:26:57.343Z</time>
      </trkpt>
      <trkpt lat="47.71925" lon="-2.1614">
        <ele>49.110578</ele>
        <time>2022-12-14T15:27:00.350Z</time>
      </trkpt>
      <trkpt lat="47.71923" lon="-2.16125">
        <ele>49.123281</ele>
        <time>2022-12-14T15:27:03.321Z</time>
      </trkpt>
      <trkpt lat="47.71921" lon="-2.1611">
        <ele>49.135439</ele>
        <time>2022-12-14T15:27:06.350Z</time>
      </trkpt>
      <trkpt lat="47.71919" lon="-2.16094">
        <ele>49.148532</ele>
        <time>2022-12-14T15:27:09.332Z</time>
      </trkpt>
      <trkpt lat="47.71916" lon="-2.16078">
        <ele>49.161653</ele>
        <time>2022-12-14T15:27:12.348Z</time>
      </trkpt>
      <trkpt lat="47.71914" lon="-2.16062">
        <ele>49.174823</ele>
        <time>2022-12-14T15:27:15.348Z</time>
      </trkpt>
      <trkpt lat="47.71911" lon="-2.16045">
        <ele>49.188541</ele>
        <time>2022-12-14T15:27:18.347Z</time>
      </trkpt>
      <trkpt lat="47.71909" lon="-2.16028">
        <ele>49.202907</ele>
        <time>2022-12-14T15:27:21.344Z</time>
      </trkpt>
      <trkpt lat="47.71906" lon="-2.1601">
        <ele>49.217206</ele>
        <time>2022-12-14T15:27:24.364Z</time>
      </trkpt>
      <trkpt lat="47.71903" lon="-2.15992">
        <ele>49.232273</ele>
        <time>2022-12-14T15:27:27.343Z</time>
      </trkpt>
      <trkpt lat="47.719" lon="-2.15973">
        <ele>49.247367</ele>
        <time>2022-12-14T15:27:30.328Z</time>
      </trkpt>
      <trkpt lat="47.71897" lon="-2.15956">
        <ele>49.261578</ele>
        <time>2022-12-14T15:27:33.347Z</time>
      </trkpt>
      <trkpt lat="47.71895" lon="-2.15938">
        <ele>49.276206</ele>
        <time>2022-12-14T15:27:36.341Z</time>
      </trkpt>
      <trkpt lat="47.71892" lon="-2.15919">
        <ele>49.291691</ele>
        <time>2022-12-14T15:27:39.324Z</time>
      </trkpt>
      <trkpt lat="47.71889" lon="-2.159">
        <ele>49.267543</ele>
        <time>2022-12-14T15:27:42.346Z</time>
      </trkpt>
      <trkpt lat="47.71886" lon="-2.15881">
        <ele>49.236974</ele>
        <time>2022-12-14T15:27:45.352Z</time>
      </trkpt>
      <trkpt lat="47.71883" lon="-2.15863">
        <ele>49.2072</ele>
        <time>2022-12-14T15:27:48.348Z</time>
      </trkpt>
      <trkpt lat="47.7188" lon="-2.15847">
        <ele>49.179711</ele>
        <time>2022-12-14T15:27:51.409Z</time>
      </trkpt>
      <trkpt lat="47.71878" lon="-2.15832">
        <ele>49.155191</ele>
        <time>2022-12-14T15:27:54.326Z</time>
      </trkpt>
      <trkpt lat="47.71876" lon="-2.15815">
        <ele>49.128481</ele>
        <time>2022-12-14T15:27:57.337Z</time>
      </trkpt>
      <trkpt lat="47.71873" lon="-2.15798">
        <ele>49.100527</ele>
        <time>2022-12-14T15:28:00.351Z</time>
      </trkpt>
      <trkpt lat="47.7187" lon="-2.15781">
        <ele>49.072059</ele>
        <time>2022-12-14T15:28:03.356Z</time>
      </trkpt>
      <trkpt lat="47.71868" lon="-2.15764">
        <ele>49.043953</ele>
        <time>2022-12-14T15:28:06.350Z</time>
      </trkpt>
      <trkpt lat="47.71865" lon="-2.15746">
        <ele>49.014955</ele>
        <time>2022-12-14T15:28:09.326Z</time>
      </trkpt>
      <trkpt lat="47.71862" lon="-2.15727">
        <ele>48.983732</ele>
        <time>2022-12-14T15:28:12.351Z</time>
      </trkpt>
      <trkpt lat="47.71859" lon="-2.15707">
        <ele>48.951679</ele>
        <time>2022-12-14T15:28:15.361Z</time>
      </trkpt>
      <trkpt lat="47.71857" lon="-2.15688">
        <ele>48.920331</ele>
        <time>2022-12-14T15:28:18.320Z</time>
      </trkpt>
      <trkpt lat="47.71853" lon="-2.15669">
        <ele>48.889358</ele>
        <time>2022-12-14T15:28:21.345Z</time>
      </trkpt>
      <trkpt lat="47.71851" lon="-2.1565">
        <ele>48.880205</ele>
        <time>2022-12-14T15:28:24.324Z</time>
      </trkpt>
      <trkpt lat="47.71849" lon="-2.15632">
        <ele>48.92606</ele>
        <time>2022-12-14T15:28:27.352Z</time>
      </trkpt>
      <trkpt lat="47.71845" lon="-2.15614">
        <ele>48.971376</ele>
        <time>2022-12-14T15:28:30.336Z</time>
      </trkpt>
      <trkpt lat="47.71842" lon="-2.15595">
        <ele>49.017788</ele>
        <time>2022-12-14T15:28:33.354Z</time>
      </trkpt>
      <trkpt lat="47.7184" lon="-2.15576">
        <ele>49.066733</ele>
        <time>2022-12-14T15:28:36.347Z</time>
      </trkpt>
      <trkpt lat="47.71838" lon="-2.15558">
        <ele>49.109966</ele>
        <time>2022-12-14T15:28:39.331Z</time>
      </trkpt>
      <trkpt lat="47.71835" lon="-2.15543">
        <ele>49.147488</ele>
        <time>2022-12-14T15:28:42.343Z</time>
      </trkpt>
      <trkpt lat="47.71833" lon="-2.15527">
        <ele>49.187247</ele>
        <time>2022-12-14T15:28:45.342Z</time>
      </trkpt>
      <trkpt lat="47.71831" lon="-2.15511">
        <ele>49.228021</ele>
        <time>2022-12-14T15:28:48.345Z</time>
      </trkpt>
      <trkpt lat="47.71828" lon="-2.15493">
        <ele>49.271654</ele>
        <time>2022-12-14T15:28:51.322Z</time>
      </trkpt>
      <trkpt lat="47.71825" lon="-2.15475">
        <ele>49.31822</ele>
        <time>2022-12-14T15:28:54.365Z</time>
      </trkpt>
      <trkpt lat="47.71822" lon="-2.15455">
        <ele>49.367165</ele>
        <time>2022-12-14T15:28:57.328Z</time>
      </trkpt>
      <trkpt lat="47.7182" lon="-2.15437">
        <ele>49.413812</ele>
        <time>2022-12-14T15:29:00.352Z</time>
      </trkpt>
      <trkpt lat="47.71817" lon="-2.15419">
        <ele>49.456888</ele>
        <time>2022-12-14T15:29:03.330Z</time>
      </trkpt>
      <trkpt lat="47.71815" lon="-2.15405">
        <ele>49.491952</ele>
        <time>2022-12-14T15:29:06.341Z</time>
      </trkpt>
      <trkpt lat="47.71813" lon="-2.15391">
        <ele>49.52735</ele>
        <time>2022-12-14T15:29:09.350Z</time>
      </trkpt>
      <trkpt lat="47.71811" lon="-2.15376">
        <ele>49.571052</ele>
        <time>2022-12-14T15:29:12.352Z</time>
      </trkpt>
      <trkpt lat="47.71808" lon="-2.15359">
        <ele>49.619168</ele>
        <time>2022-12-14T15:29:15.359Z</time>
      </trkpt>
      <trkpt lat="47.71805" lon="-2.15342">
        <ele>49.668341</ele>
        <time>2022-12-14T15:29:18.321Z</time>
      </trkpt>
      <trkpt lat="47.71803" lon="-2.15324">
        <ele>49.718599</ele>
        <time>2022-12-14T15:29:21.328Z</time>
      </trkpt>
      <trkpt lat="47.718" lon="-2.15307">
        <ele>49.766875</ele>
        <time>2022-12-14T15:29:24.343Z</time>
      </trkpt>
      <trkpt lat="47.71797" lon="-2.15292">
        <ele>49.810143</ele>
        <time>2022-12-14T15:29:27.332Z</time>
      </trkpt>
      <trkpt lat="47.71795" lon="-2.15276">
        <ele>49.854115</ele>
        <time>2022-12-14T15:29:30.336Z</time>
      </trkpt>
      <trkpt lat="47.71793" lon="-2.1526">
        <ele>49.899969</ele>
        <time>2022-12-14T15:29:33.332Z</time>
      </trkpt>
      <trkpt lat="47.7179" lon="-2.15244">
        <ele>49.943488</ele>
        <time>2022-12-14T15:29:36.334Z</time>
      </trkpt>
      <trkpt lat="47.71788" lon="-2.15228">
        <ele>49.989365</ele>
        <time>2022-12-14T15:29:39.349Z</time>
      </trkpt>
      <trkpt lat="47.71786" lon="-2.15211">
        <ele>50.03732</ele>
        <time>2022-12-14T15:29:42.320Z</time>
      </trkpt>
      <trkpt lat="47.71783" lon="-2.15195">
        <ele>50.083535</ele>
        <time>2022-12-14T15:29:45.350Z</time>
      </trkpt>
      <trkpt lat="47.71781" lon="-2.15178">
        <ele>50.130482</ele>
        <time>2022-12-14T15:29:48.325Z</time>
      </trkpt>
      <trkpt lat="47.71778" lon="-2.1516">
        <ele>50.180733</ele>
        <time>2022-12-14T15:29:51.341Z</time>
      </trkpt>
      <trkpt lat="47.71776" lon="-2.15144">
        <ele>50.227216</ele>
        <time>2022-12-14T15:29:54.332Z</time>
      </trkpt>
      <trkpt lat="47.71773" lon="-2.1513">
        <ele>50.261128</ele>
        <time>2022-12-14T15:29:57.352Z</time>
      </trkpt>
      <trkpt lat="47.71771" lon="-2.15113">
        <ele>50.281171</ele>
        <time>2022-12-14T15:30:01.343Z</time>
      </trkpt>
      <trkpt lat="47.71769" lon="-2.15099">
        <ele>50.297473</ele>
        <time>2022-12-14T15:30:04.351Z</time>
      </trkpt>
      <trkpt lat="47.71767" lon="-2.15083">
        <ele>50.315479</ele>
        <time>2022-12-14T15:30:07.344Z</time>
      </trkpt>
      <trkpt lat="47.71764" lon="-2.15066">
        <ele>50.335301</ele>
        <time>2022-12-14T15:30:10.351Z</time>
      </trkpt>
      <trkpt lat="47.71761" lon="-2.15048">
        <ele>50.356488</ele>
        <time>2022-12-14T15:30:13.338Z</time>
      </trkpt>
      <trkpt lat="47.71758" lon="-2.1503">
        <ele>50.377929</ele>
        <time>2022-12-14T15:30:16.351Z</time>
      </trkpt>
      <trkpt lat="47.71755" lon="-2.15011">
        <ele>50.399444</ele>
        <time>2022-12-14T15:30:19.345Z</time>
      </trkpt>
      <trkpt lat="47.71752" lon="-2.14992">
        <ele>50.421662</ele>
        <time>2022-12-14T15:30:22.341Z</time>
      </trkpt>
      <trkpt lat="47.7175" lon="-2.14973">
        <ele>50.443844</ele>
        <time>2022-12-14T15:30:25.347Z</time>
      </trkpt>
      <trkpt lat="47.71747" lon="-2.14956">
        <ele>50.463548</ele>
        <time>2022-12-14T15:30:28.344Z</time>
      </trkpt>
      <trkpt lat="47.71745" lon="-2.14939">
        <ele>50.483437</ele>
        <time>2022-12-14T15:30:31.328Z</time>
      </trkpt>
      <trkpt lat="47.71742" lon="-2.14922">
        <ele>50.503113</ele>
        <time>2022-12-14T15:30:34.322Z</time>
      </trkpt>
      <trkpt lat="47.7174" lon="-2.14904">
        <ele>50.52411</ele>
        <time>2022-12-14T15:30:37.340Z</time>
      </trkpt>
      <trkpt lat="47.71737" lon="-2.14888">
        <ele>50.54252</ele>
        <time>2022-12-14T15:30:40.350Z</time>
      </trkpt>
      <trkpt lat="47.71736" lon="-2.14874">
        <ele>50.558494</ele>
        <time>2022-12-14T15:30:43.344Z</time>
      </trkpt>
      <trkpt lat="47.71734" lon="-2.14859">
        <ele>50.418747</ele>
        <time>2022-12-14T15:30:46.344Z</time>
      </trkpt>
      <trkpt lat="47.71732" lon="-2.14844">
        <ele>50.26132</ele>
        <time>2022-12-14T15:30:49.340Z</time>
      </trkpt>
      <trkpt lat="47.7173" lon="-2.14829">
        <ele>50.107596</ele>
        <time>2022-12-14T15:30:52.352Z</time>
      </trkpt>
      <trkpt lat="47.71726" lon="-2.14815">
        <ele>49.95534</ele>
        <time>2022-12-14T15:30:56.352Z</time>
      </trkpt>
      <trkpt lat="47.71725" lon="-2.14801">
        <ele>49.812342</ele>
        <time>2022-12-14T15:31:05.345Z</time>
      </trkpt>
      <trkpt lat="47.71725" lon="-2.14787">
        <ele>49.671144</ele>
        <time>2022-12-14T15:31:12.350Z</time>
      </trkpt>
      <trkpt lat="47.71723" lon="-2.14772">
        <ele>49.513769</ele>
        <time>2022-12-14T15:31:16.334Z</time>
      </trkpt>
      <trkpt lat="47.71721" lon="-2.14759">
        <ele>49.372269</ele>
        <time>2022-12-14T15:31:19.349Z</time>
      </trkpt>
      <trkpt lat="47.71719" lon="-2.14745">
        <ele>49.231183</ele>
        <time>2022-12-14T15:31:22.336Z</time>
      </trkpt>
      <trkpt lat="47.71717" lon="-2.14731">
        <ele>49.083081</ele>
        <time>2022-12-14T15:31:26.346Z</time>
      </trkpt>
      <trkpt lat="47.71715" lon="-2.14718">
        <ele>48.942979</ele>
        <time>2022-12-14T15:31:29.393Z</time>
      </trkpt>
      <trkpt lat="47.71712" lon="-2.14704">
        <ele>48.794111</ele>
        <time>2022-12-14T15:31:32.337Z</time>
      </trkpt>
      <trkpt lat="47.7171" lon="-2.14688">
        <ele>48.62474</ele>
        <time>2022-12-14T15:31:35.330Z</time>
      </trkpt>
      <trkpt lat="47.71707" lon="-2.14671">
        <ele>48.451388</ele>
        <time>2022-12-14T15:31:38.347Z</time>
      </trkpt>
      <trkpt lat="47.71705" lon="-2.14653">
        <ele>48.262674</ele>
        <time>2022-12-14T15:31:41.340Z</time>
      </trkpt>
      <trkpt lat="47.71703" lon="-2.14639">
        <ele>48.116871</ele>
        <time>2022-12-14T15:31:44.328Z</time>
      </trkpt>
      <trkpt lat="47.71701" lon="-2.14624">
        <ele>47.960001</ele>
        <time>2022-12-14T15:31:48.355Z</time>
      </trkpt>
      <trkpt lat="47.71699" lon="-2.14609">
        <ele>47.844639</ele>
        <time>2022-12-14T15:31:52.352Z</time>
      </trkpt>
      <trkpt lat="47.71697" lon="-2.14594">
        <ele>47.964993</ele>
        <time>2022-12-14T15:31:56.325Z</time>
      </trkpt>
      <trkpt lat="47.71694" lon="-2.14576">
        <ele>48.120566</ele>
        <time>2022-12-14T15:31:59.340Z</time>
      </trkpt>
      <trkpt lat="47.7169" lon="-2.14563">
        <ele>48.233354</ele>
        <time>2022-12-14T15:32:01.363Z</time>
      </trkpt>
      <trkpt lat="47.71687" lon="-2.14549">
        <ele>48.348831</ele>
        <time>2022-12-14T15:32:03.318Z</time>
      </trkpt>
      <trkpt lat="47.71683" lon="-2.14531">
        <ele>48.504993</ele>
        <time>2022-12-14T15:32:06.349Z</time>
      </trkpt>
      <trkpt lat="47.7168" lon="-2.14512">
        <ele>48.656434</ele>
        <time>2022-12-14T15:32:09.334Z</time>
      </trkpt>
      <trkpt lat="47.71678" lon="-2.14496">
        <ele>48.788693</ele>
        <time>2022-12-14T15:32:12.418Z</time>
      </trkpt>
      <trkpt lat="47.71676" lon="-2.14482">
        <ele>48.909477</ele>
        <time>2022-12-14T15:32:15.334Z</time>
      </trkpt>
      <trkpt lat="47.71674" lon="-2.14464">
        <ele>49.054251</ele>
        <time>2022-12-14T15:32:19.334Z</time>
      </trkpt>
      <trkpt lat="47.71672" lon="-2.14447">
        <ele>49.195854</ele>
        <time>2022-12-14T15:32:22.352Z</time>
      </trkpt>
      <trkpt lat="47.71669" lon="-2.1443">
        <ele>49.334202</ele>
        <time>2022-12-14T15:32:25.334Z</time>
      </trkpt>
      <trkpt lat="47.71667" lon="-2.14415">
        <ele>49.458735</ele>
        <time>2022-12-14T15:32:28.408Z</time>
      </trkpt>
      <trkpt lat="47.71664" lon="-2.14398">
        <ele>49.595633</ele>
        <time>2022-12-14T15:32:31.349Z</time>
      </trkpt>
      <trkpt lat="47.71663" lon="-2.14382">
        <ele>49.730548</ele>
        <time>2022-12-14T15:32:34.322Z</time>
      </trkpt>
      <trkpt lat="47.7166" lon="-2.14365">
        <ele>49.869963</ele>
        <time>2022-12-14T15:32:37.354Z</time>
      </trkpt>
      <trkpt lat="47.71657" lon="-2.1435">
        <ele>49.965829</ele>
        <time>2022-12-14T15:32:40.332Z</time>
      </trkpt>
      <trkpt lat="47.71654" lon="-2.14333">
        <ele>49.873898</ele>
        <time>2022-12-14T15:32:43.338Z</time>
      </trkpt>
      <trkpt lat="47.71651" lon="-2.14314">
        <ele>49.767324</ele>
        <time>2022-12-14T15:32:46.353Z</time>
      </trkpt>
      <trkpt lat="47.71649" lon="-2.14298">
        <ele>49.681331</ele>
        <time>2022-12-14T15:32:49.344Z</time>
      </trkpt>
      <trkpt lat="47.71648" lon="-2.14284">
        <ele>49.605316</ele>
        <time>2022-12-14T15:32:52.337Z</time>
      </trkpt>
      <trkpt lat="47.71647" lon="-2.14271">
        <ele>49.531224</ele>
        <time>2022-12-14T15:32:55.347Z</time>
      </trkpt>
      <trkpt lat="47.71645" lon="-2.14257">
        <ele>49.454819</ele>
        <time>2022-12-14T15:32:58.334Z</time>
      </trkpt>
      <trkpt lat="47.71642" lon="-2.14243">
        <ele>49.373822</ele>
        <time>2022-12-14T15:33:01.337Z</time>
      </trkpt>
      <trkpt lat="47.71639" lon="-2.14227">
        <ele>49.286337</ele>
        <time>2022-12-14T15:33:04.327Z</time>
      </trkpt>
      <trkpt lat="47.71636" lon="-2.14211">
        <ele>49.194359</ele>
        <time>2022-12-14T15:33:07.356Z</time>
      </trkpt>
      <trkpt lat="47.71634" lon="-2.14198">
        <ele>49.121541</ele>
        <time>2022-12-14T15:33:09.346Z</time>
      </trkpt>
      <trkpt lat="47.71632" lon="-2.14181">
        <ele>49.028321</ele>
        <time>2022-12-14T15:33:12.343Z</time>
      </trkpt>
      <trkpt lat="47.7163" lon="-2.14164">
        <ele>48.93692</ele>
        <time>2022-12-14T15:33:15.348Z</time>
      </trkpt>
      <trkpt lat="47.71627" lon="-2.14147">
        <ele>48.83943</ele>
        <time>2022-12-14T15:33:18.348Z</time>
      </trkpt>
      <trkpt lat="47.71625" lon="-2.14129">
        <ele>48.742022</ele>
        <time>2022-12-14T15:33:21.344Z</time>
      </trkpt>
      <trkpt lat="47.71622" lon="-2.1411">
        <ele>48.63669</ele>
        <time>2022-12-14T15:33:24.349Z</time>
      </trkpt>
      <trkpt lat="47.7162" lon="-2.14092">
        <ele>48.536463</ele>
        <time>2022-12-14T15:33:27.394Z</time>
      </trkpt>
      <trkpt lat="47.71617" lon="-2.14074">
        <ele>48.812992</ele>
        <time>2022-12-14T15:33:30.330Z</time>
      </trkpt>
      <trkpt lat="47.71614" lon="-2.14058">
        <ele>49.08526</ele>
        <time>2022-12-14T15:33:33.341Z</time>
      </trkpt>
      <trkpt lat="47.71611" lon="-2.14044">
        <ele>49.329648</ele>
        <time>2022-12-14T15:33:36.335Z</time>
      </trkpt>
      <trkpt lat="47.71608" lon="-2.1403">
        <ele>49.565501</ele>
        <time>2022-12-14T15:33:40.341Z</time>
      </trkpt>
      <trkpt lat="47.71606" lon="-2.14017">
        <ele>49.786738</ele>
        <time>2022-12-14T15:33:44.345Z</time>
      </trkpt>
      <trkpt lat="47.71603" lon="-2.14002">
        <ele>50.040071</ele>
        <time>2022-12-14T15:33:48.328Z</time>
      </trkpt>
      <trkpt lat="47.71601" lon="-2.13984">
        <ele>50.333321</ele>
        <time>2022-12-14T15:33:52.350Z</time>
      </trkpt>
      <trkpt lat="47.71599" lon="-2.13969">
        <ele>50.588355</ele>
        <time>2022-12-14T15:33:55.340Z</time>
      </trkpt>
      <trkpt lat="47.71597" lon="-2.13953">
        <ele>50.847766</ele>
        <time>2022-12-14T15:33:58.391Z</time>
      </trkpt>
      <trkpt lat="47.71594" lon="-2.13937">
        <ele>51.125592</ele>
        <time>2022-12-14T15:34:02.343Z</time>
      </trkpt>
      <trkpt lat="47.71592" lon="-2.1392">
        <ele>51.400746</ele>
        <time>2022-12-14T15:34:05.346Z</time>
      </trkpt>
      <trkpt lat="47.7159" lon="-2.13902">
        <ele>51.705952</ele>
        <time>2022-12-14T15:34:08.350Z</time>
      </trkpt>
      <trkpt lat="47.71587" lon="-2.13884">
        <ele>51.998698</ele>
        <time>2022-12-14T15:34:11.325Z</time>
      </trkpt>
      <trkpt lat="47.71585" lon="-2.13867">
        <ele>52.282927</ele>
        <time>2022-12-14T15:34:14.360Z</time>
      </trkpt>
      <trkpt lat="47.71583" lon="-2.13851">
        <ele>52.563458</ele>
        <time>2022-12-14T15:34:17.334Z</time>
      </trkpt>
      <trkpt lat="47.7158" lon="-2.13834">
        <ele>52.837568</ele>
        <time>2022-12-14T15:34:20.389Z</time>
      </trkpt>
      <trkpt lat="47.71577" lon="-2.13817">
        <ele>52.71709</ele>
        <time>2022-12-14T15:34:23.333Z</time>
      </trkpt>
      <trkpt lat="47.71575" lon="-2.13802">
        <ele>52.529782</ele>
        <time>2022-12-14T15:34:26.354Z</time>
      </trkpt>
      <trkpt lat="47.71573" lon="-2.13786">
        <ele>52.310236</ele>
        <time>2022-12-14T15:34:30.353Z</time>
      </trkpt>
      <trkpt lat="47.71572" lon="-2.1377">
        <ele>52.098963</ele>
        <time>2022-12-14T15:34:33.345Z</time>
      </trkpt>
      <trkpt lat="47.71569" lon="-2.13751">
        <ele>51.848621</ele>
        <time>2022-12-14T15:34:37.403Z</time>
      </trkpt>
      <trkpt lat="47.71566" lon="-2.13736">
        <ele>51.641264</ele>
        <time>2022-12-14T15:34:41.355Z</time>
      </trkpt>
      <trkpt lat="47.71563" lon="-2.13717">
        <ele>51.397317</ele>
        <time>2022-12-14T15:34:44.347Z</time>
      </trkpt>
      <trkpt lat="47.71561" lon="-2.13701">
        <ele>51.184647</ele>
        <time>2022-12-14T15:34:47.342Z</time>
      </trkpt>
      <trkpt lat="47.71557" lon="-2.13686">
        <ele>50.974193</ele>
        <time>2022-12-14T15:34:50.348Z</time>
      </trkpt>
      <trkpt lat="47.71553" lon="-2.1367">
        <ele>50.752427</ele>
        <time>2022-12-14T15:34:53.322Z</time>
      </trkpt>
      <trkpt lat="47.71551" lon="-2.13657">
        <ele>50.576444</ele>
        <time>2022-12-14T15:34:55.339Z</time>
      </trkpt>
      <trkpt lat="47.71547" lon="-2.13639">
        <ele>50.33494</ele>
        <time>2022-12-14T15:34:58.352Z</time>
      </trkpt>
      <trkpt lat="47.71544" lon="-2.13621">
        <ele>50.097758</ele>
        <time>2022-12-14T15:35:01.355Z</time>
      </trkpt>
      <trkpt lat="47.71542" lon="-2.13604">
        <ele>49.869025</ele>
        <time>2022-12-14T15:35:04.350Z</time>
      </trkpt>
      <trkpt lat="47.71539" lon="-2.13588">
        <ele>49.655513</ele>
        <time>2022-12-14T15:35:07.355Z</time>
      </trkpt>
      <trkpt lat="47.71537" lon="-2.13569">
        <ele>49.442392</ele>
        <time>2022-12-14T15:35:10.350Z</time>
      </trkpt>
      <trkpt lat="47.71535" lon="-2.13555">
        <ele>49.541798</ele>
        <time>2022-12-14T15:35:12.355Z</time>
      </trkpt>
      <trkpt lat="47.71533" lon="-2.13542">
        <ele>49.635757</ele>
        <time>2022-12-14T15:35:14.323Z</time>
      </trkpt>
      <trkpt lat="47.71531" lon="-2.13528">
        <ele>49.730377</ele>
        <time>2022-12-14T15:35:16.332Z</time>
      </trkpt>
      <trkpt lat="47.71529" lon="-2.13511">
        <ele>49.854748</ele>
        <time>2022-12-14T15:35:19.324Z</time>
      </trkpt>
      <trkpt lat="47.71526" lon="-2.13495">
        <ele>49.967929</ele>
        <time>2022-12-14T15:35:22.351Z</time>
      </trkpt>
      <trkpt lat="47.71523" lon="-2.13478">
        <ele>50.088694</ele>
        <time>2022-12-14T15:35:25.409Z</time>
      </trkpt>
      <trkpt lat="47.71521" lon="-2.1346">
        <ele>50.218334</ele>
        <time>2022-12-14T15:35:28.326Z</time>
      </trkpt>
      <trkpt lat="47.71518" lon="-2.13441">
        <ele>50.352853</ele>
        <time>2022-12-14T15:35:31.327Z</time>
      </trkpt>
      <trkpt lat="47.71516" lon="-2.13424">
        <ele>50.470482</ele>
        <time>2022-12-14T15:35:34.345Z</time>
      </trkpt>
      <trkpt lat="47.71514" lon="-2.13409">
        <ele>50.579794</ele>
        <time>2022-12-14T15:35:37.346Z</time>
      </trkpt>
      <trkpt lat="47.71512" lon="-2.13394">
        <ele>50.683977</ele>
        <time>2022-12-14T15:35:40.351Z</time>
      </trkpt>
      <trkpt lat="47.7151" lon="-2.13378">
        <ele>50.79807</ele>
        <time>2022-12-14T15:35:43.341Z</time>
      </trkpt>
      <trkpt lat="47.71508" lon="-2.13361">
        <ele>50.918835</ele>
        <time>2022-12-14T15:35:46.341Z</time>
      </trkpt>
      <trkpt lat="47.71505" lon="-2.13344">
        <ele>51.04125</ele>
        <time>2022-12-14T15:35:49.361Z</time>
      </trkpt>
      <trkpt lat="47.71501" lon="-2.13327">
        <ele>51.162416</ele>
        <time>2022-12-14T15:35:52.330Z</time>
      </trkpt>
      <trkpt lat="47.71498" lon="-2.1331">
        <ele>51.278473</ele>
        <time>2022-12-14T15:35:55.336Z</time>
      </trkpt>
      <trkpt lat="47.71495" lon="-2.13293">
        <ele>51.098915</ele>
        <time>2022-12-14T15:35:58.406Z</time>
      </trkpt>
      <trkpt lat="47.71492" lon="-2.13275">
        <ele>50.91485</ele>
        <time>2022-12-14T15:36:01.346Z</time>
      </trkpt>
      <trkpt lat="47.71489" lon="-2.13257">
        <ele>50.723552</ele>
        <time>2022-12-14T15:36:04.346Z</time>
      </trkpt>
      <trkpt lat="47.71487" lon="-2.13239">
        <ele>50.542448</ele>
        <time>2022-12-14T15:36:07.335Z</time>
      </trkpt>
      <trkpt lat="47.71485" lon="-2.13224">
        <ele>50.386738</ele>
        <time>2022-12-14T15:36:10.346Z</time>
      </trkpt>
      <trkpt lat="47.71483" lon="-2.13206">
        <ele>50.202616</ele>
        <time>2022-12-14T15:36:14.346Z</time>
      </trkpt>
      <trkpt lat="47.71482" lon="-2.13193">
        <ele>50.06653</ele>
        <time>2022-12-14T15:36:17.352Z</time>
      </trkpt>
      <trkpt lat="47.7148" lon="-2.13177">
        <ele>49.899845</ele>
        <time>2022-12-14T15:36:20.347Z</time>
      </trkpt>
      <trkpt lat="47.71479" lon="-2.1316">
        <ele>49.733383</ele>
        <time>2022-12-14T15:36:23.336Z</time>
      </trkpt>
      <trkpt lat="47.71476" lon="-2.13141">
        <ele>49.534767</ele>
        <time>2022-12-14T15:36:26.348Z</time>
      </trkpt>
      <trkpt lat="47.71474" lon="-2.13128">
        <ele>49.395615</ele>
        <time>2022-12-14T15:36:28.330Z</time>
      </trkpt>
      <trkpt lat="47.71471" lon="-2.13114">
        <ele>49.252857</ele>
        <time>2022-12-14T15:36:30.351Z</time>
      </trkpt>
      <trkpt lat="47.71468" lon="-2.13096">
        <ele>49.061536</ele>
        <time>2022-12-14T15:36:33.348Z</time>
      </trkpt>
      <trkpt lat="47.71466" lon="-2.13082">
        <ele>48.92215</ele>
        <time>2022-12-14T15:36:36.357Z</time>
      </trkpt>
      <trkpt lat="47.71463" lon="-2.13067">
        <ele>48.765816</ele>
        <time>2022-12-14T15:36:39.341Z</time>
      </trkpt>
      <trkpt lat="47.71461" lon="-2.13053">
        <ele>48.619548</ele>
        <time>2022-12-14T15:36:42.358Z</time>
      </trkpt>
      <trkpt lat="47.71458" lon="-2.13038">
        <ele>48.71247</ele>
        <time>2022-12-14T15:36:45.349Z</time>
      </trkpt>
      <trkpt lat="47.71455" lon="-2.13021">
        <ele>48.89239</ele>
        <time>2022-12-14T15:36:48.354Z</time>
      </trkpt>
      <trkpt lat="47.71453" lon="-2.13003">
        <ele>49.089136</ele>
        <time>2022-12-14T15:36:51.430Z</time>
      </trkpt>
      <trkpt lat="47.7145" lon="-2.1299">
        <ele>49.238368</ele>
        <time>2022-12-14T15:36:53.341Z</time>
      </trkpt>
      <trkpt lat="47.71448" lon="-2.12977">
        <ele>49.388907</ele>
        <time>2022-12-14T15:36:55.338Z</time>
      </trkpt>
      <trkpt lat="47.71446" lon="-2.12962">
        <ele>49.55242</ele>
        <time>2022-12-14T15:36:57.351Z</time>
      </trkpt>
      <trkpt lat="47.71443" lon="-2.12943">
        <ele>49.756849</ele>
        <time>2022-12-14T15:37:00.349Z</time>
      </trkpt>
      <trkpt lat="47.71441" lon="-2.12924">
        <ele>49.965593</ele>
        <time>2022-12-14T15:37:03.326Z</time>
      </trkpt>
      <trkpt lat="47.71439" lon="-2.12911">
        <ele>50.109215</ele>
        <time>2022-12-14T15:37:05.351Z</time>
      </trkpt>
      <trkpt lat="47.71437" lon="-2.12896">
        <ele>50.269563</ele>
        <time>2022-12-14T15:37:08.355Z</time>
      </trkpt>
      <trkpt lat="47.71436" lon="-2.12882">
        <ele>50.422951</ele>
        <time>2022-12-14T15:37:11.324Z</time>
      </trkpt>
      <trkpt lat="47.71434" lon="-2.12868">
        <ele>50.583969</ele>
        <time>2022-12-14T15:37:15.337Z</time>
      </trkpt>
      <trkpt lat="47.71431" lon="-2.12852">
        <ele>50.759695</ele>
        <time>2022-12-14T15:37:18.335Z</time>
      </trkpt>
      <trkpt lat="47.71429" lon="-2.12835">
        <ele>50.942245</ele>
        <time>2022-12-14T15:37:21.344Z</time>
      </trkpt>
      <trkpt lat="47.71427" lon="-2.12818">
        <ele>51.128768</ele>
        <time>2022-12-14T15:37:24.345Z</time>
      </trkpt>
      <trkpt lat="47.71424" lon="-2.12802">
        <ele>51.310859</ele>
        <time>2022-12-14T15:37:27.354Z</time>
      </trkpt>
      <trkpt lat="47.71422" lon="-2.12788">
        <ele>51.457461</ele>
        <time>2022-12-14T15:37:29.337Z</time>
      </trkpt>
      <trkpt lat="47.7142" lon="-2.12775">
        <ele>51.493736</ele>
        <time>2022-12-14T15:37:31.349Z</time>
      </trkpt>
      <trkpt lat="47.71418" lon="-2.12757">
        <ele>51.544241</ele>
        <time>2022-12-14T15:37:34.392Z</time>
      </trkpt>
      <trkpt lat="47.71415" lon="-2.1274">
        <ele>51.590237</ele>
        <time>2022-12-14T15:37:37.335Z</time>
      </trkpt>
      <trkpt lat="47.71414" lon="-2.12725">
        <ele>51.629803</ele>
        <time>2022-12-14T15:37:40.352Z</time>
      </trkpt>
      <trkpt lat="47.71412" lon="-2.12711">
        <ele>51.669779</ele>
        <time>2022-12-14T15:37:43.348Z</time>
      </trkpt>
      <trkpt lat="47.71408" lon="-2.12695">
        <ele>51.71391</ele>
        <time>2022-12-14T15:37:46.349Z</time>
      </trkpt>
      <trkpt lat="47.71405" lon="-2.12681">
        <ele>51.755987</ele>
        <time>2022-12-14T15:37:49.351Z</time>
      </trkpt>
      <trkpt lat="47.71403" lon="-2.12664">
        <ele>51.802336</ele>
        <time>2022-12-14T15:37:53.352Z</time>
      </trkpt>
      <trkpt lat="47.71401" lon="-2.12648">
        <ele>51.84686</ele>
        <time>2022-12-14T15:37:56.341Z</time>
      </trkpt>
      <trkpt lat="47.71398" lon="-2.12631">
        <ele>51.892334</ele>
        <time>2022-12-14T15:37:59.327Z</time>
      </trkpt>
      <trkpt lat="47.71395" lon="-2.12617">
        <ele>51.931981</ele>
        <time>2022-12-14T15:38:02.327Z</time>
      </trkpt>
      <trkpt lat="47.71391" lon="-2.12604">
        <ele>51.971195</ele>
        <time>2022-12-14T15:38:06.341Z</time>
      </trkpt>
      <trkpt lat="47.71388" lon="-2.12581">
        <ele>52.034008</ele>
        <time>2022-12-14T15:39:43.337Z</time>
      </trkpt>
      <trkpt lat="47.71386" lon="-2.12563">
        <ele>52.083243</ele>
        <time>2022-12-14T15:39:47.334Z</time>
      </trkpt>
      <trkpt lat="47.71384" lon="-2.12546">
        <ele>52.131553</ele>
        <time>2022-12-14T15:39:50.328Z</time>
      </trkpt>
      <trkpt lat="47.71382" lon="-2.12528">
        <ele>52.167822</ele>
        <time>2022-12-14T15:39:53.336Z</time>
      </trkpt>
      <trkpt lat="47.7138" lon="-2.12511">
        <ele>51.990343</ele>
        <time>2022-12-14T15:39:56.335Z</time>
      </trkpt>
      <trkpt lat="47.71377" lon="-2.12494">
        <ele>51.820302</ele>
        <time>2022-12-14T15:39:59.330Z</time>
      </trkpt>
      <trkpt lat="47.71374" lon="-2.12479">
        <ele>51.666007</ele>
        <time>2022-12-14T15:40:02.352Z</time>
      </trkpt>
      <trkpt lat="47.71369" lon="-2.12463">
        <ele>51.493538</ele>
        <time>2022-12-14T15:40:06.355Z</time>
      </trkpt>
      <trkpt lat="47.71364" lon="-2.1245">
        <ele>51.336567</ele>
        <time>2022-12-14T15:40:10.323Z</time>
      </trkpt>
      <trkpt lat="47.71357" lon="-2.12438">
        <ele>51.181475</ele>
        <time>2022-12-14T15:40:14.340Z</time>
      </trkpt>
      <trkpt lat="47.7135" lon="-2.12428">
        <ele>51.047268</ele>
        <time>2022-12-14T15:40:17.356Z</time>
      </trkpt>
      <trkpt lat="47.71342" lon="-2.1242">
        <ele>50.896888</ele>
        <time>2022-12-14T15:40:20.404Z</time>
      </trkpt>
      <trkpt lat="47.71333" lon="-2.12412">
        <ele>50.739922</ele>
        <time>2022-12-14T15:40:23.328Z</time>
      </trkpt>
      <trkpt lat="47.71324" lon="-2.12405">
        <ele>50.597074</ele>
        <time>2022-12-14T15:40:26.358Z</time>
      </trkpt>
      <trkpt lat="47.71315" lon="-2.12397">
        <ele>50.434764</ele>
        <time>2022-12-14T15:40:29.339Z</time>
      </trkpt>
      <trkpt lat="47.71305" lon="-2.12388">
        <ele>50.263294</ele>
        <time>2022-12-14T15:40:32.360Z</time>
      </trkpt>
      <trkpt lat="47.71295" lon="-2.1238">
        <ele>50.093088</ele>
        <time>2022-12-14T15:40:35.352Z</time>
      </trkpt>
      <trkpt lat="47.71286" lon="-2.12372">
        <ele>49.943752</ele>
        <time>2022-12-14T15:40:38.353Z</time>
      </trkpt>
      <trkpt lat="47.71278" lon="-2.12365">
        <ele>49.798964</ele>
        <time>2022-12-14T15:40:41.361Z</time>
      </trkpt>
      <trkpt lat="47.7127" lon="-2.12357">
        <ele>49.65806</ele>
        <time>2022-12-14T15:40:44.355Z</time>
      </trkpt>
      <trkpt lat="47.71263" lon="-2.12348">
        <ele>49.522519</ele>
        <time>2022-12-14T15:40:47.395Z</time>
      </trkpt>
      <trkpt lat="47.71255" lon="-2.12337">
        <ele>49.102205</ele>
        <time>2022-12-14T15:40:51.344Z</time>
      </trkpt>
      <trkpt lat="47.71248" lon="-2.12325">
        <ele>48.644652</ele>
        <time>2022-12-14T15:40:56.327Z</time>
      </trkpt>
      <trkpt lat="47.7124" lon="-2.12312">
        <ele>48.189007</ele>
        <time>2022-12-14T15:41:00.347Z</time>
      </trkpt>
      <trkpt lat="47.71234" lon="-2.12301">
        <ele>47.793035</ele>
        <time>2022-12-14T15:41:03.355Z</time>
      </trkpt>
      <trkpt lat="47.71227" lon="-2.1229">
        <ele>47.388952</ele>
        <time>2022-12-14T15:41:06.339Z</time>
      </trkpt>
      <trkpt lat="47.7122" lon="-2.12281">
        <ele>47.008712</ele>
        <time>2022-12-14T15:41:09.415Z</time>
      </trkpt>
      <trkpt lat="47.71213" lon="-2.1227">
        <ele>46.596551</ele>
        <time>2022-12-14T15:41:12.347Z</time>
      </trkpt>
      <trkpt lat="47.71204" lon="-2.1226">
        <ele>46.146248</ele>
        <time>2022-12-14T15:41:15.351Z</time>
      </trkpt>
      <trkpt lat="47.71197" lon="-2.12248">
        <ele>45.690222</ele>
        <time>2022-12-14T15:41:18.337Z</time>
      </trkpt>
      <trkpt lat="47.7119" lon="-2.12235">
        <ele>45.250314</ele>
        <time>2022-12-14T15:41:21.334Z</time>
      </trkpt>
      <trkpt lat="47.71182" lon="-2.12221">
        <ele>44.750758</ele>
        <time>2022-12-14T15:41:24.352Z</time>
      </trkpt>
      <trkpt lat="47.71173" lon="-2.12209">
        <ele>44.25572</ele>
        <time>2022-12-14T15:41:27.342Z</time>
      </trkpt>
      <trkpt lat="47.71164" lon="-2.12196">
        <ele>43.7584</ele>
        <time>2022-12-14T15:41:30.337Z</time>
      </trkpt>
      <trkpt lat="47.71155" lon="-2.12182">
        <ele>43.238914</ele>
        <time>2022-12-14T15:41:33.348Z</time>
      </trkpt>
      <trkpt lat="47.71146" lon="-2.1217">
        <ele>42.744327</ele>
        <time>2022-12-14T15:41:36.354Z</time>
      </trkpt>
      <trkpt lat="47.71138" lon="-2.12155">
        <ele>42.226014</ele>
        <time>2022-12-14T15:41:39.351Z</time>
      </trkpt>
      <trkpt lat="47.7113" lon="-2.12141">
        <ele>42.353007</ele>
        <time>2022-12-14T15:41:42.394Z</time>
      </trkpt>
      <trkpt lat="47.71122" lon="-2.12127">
        <ele>42.491156</ele>
        <time>2022-12-14T15:41:45.352Z</time>
      </trkpt>
      <trkpt lat="47.71114" lon="-2.12114">
        <ele>42.611296</ele>
        <time>2022-12-14T15:41:48.349Z</time>
      </trkpt>
      <trkpt lat="47.71107" lon="-2.12102">
        <ele>42.722738</ele>
        <time>2022-12-14T15:41:51.349Z</time>
      </trkpt>
      <trkpt lat="47.711" lon="-2.12089">
        <ele>42.843425</ele>
        <time>2022-12-14T15:41:54.351Z</time>
      </trkpt>
      <trkpt lat="47.71093" lon="-2.12075">
        <ele>42.969667</ele>
        <time>2022-12-14T15:41:57.358Z</time>
      </trkpt>
      <trkpt lat="47.71084" lon="-2.12063">
        <ele>43.092827</ele>
        <time>2022-12-14T15:42:00.349Z</time>
      </trkpt>
      <trkpt lat="47.71076" lon="-2.12051">
        <ele>43.219338</ele>
        <time>2022-12-14T15:42:03.343Z</time>
      </trkpt>
      <trkpt lat="47.71068" lon="-2.1204">
        <ele>43.336978</ele>
        <time>2022-12-14T15:42:06.351Z</time>
      </trkpt>
      <trkpt lat="47.71061" lon="-2.1203">
        <ele>43.43706</ele>
        <time>2022-12-14T15:42:09.413Z</time>
      </trkpt>
      <trkpt lat="47.71053" lon="-2.12019">
        <ele>43.553918</ele>
        <time>2022-12-14T15:42:12.352Z</time>
      </trkpt>
      <trkpt lat="47.71044" lon="-2.12009">
        <ele>43.66719</ele>
        <time>2022-12-14T15:42:15.358Z</time>
      </trkpt>
      <trkpt lat="47.71036" lon="-2.11998">
        <ele>43.784848</ele>
        <time>2022-12-14T15:42:18.332Z</time>
      </trkpt>
      <trkpt lat="47.71026" lon="-2.11987">
        <ele>43.913256</ele>
        <time>2022-12-14T15:42:21.358Z</time>
      </trkpt>
      <trkpt lat="47.71016" lon="-2.11977">
        <ele>44.042209</ele>
        <time>2022-12-14T15:42:24.348Z</time>
      </trkpt>
      <trkpt lat="47.71005" lon="-2.11969">
        <ele>44.238199</ele>
        <time>2022-12-14T15:42:27.364Z</time>
      </trkpt>
      <trkpt lat="47.70996" lon="-2.11961">
        <ele>44.531285</ele>
        <time>2022-12-14T15:42:30.427Z</time>
      </trkpt>
      <trkpt lat="47.70986" lon="-2.11954">
        <ele>44.819742</ele>
        <time>2022-12-14T15:42:33.350Z</time>
      </trkpt>
      <trkpt lat="47.70976" lon="-2.11948">
        <ele>45.115525</ele>
        <time>2022-12-14T15:42:36.347Z</time>
      </trkpt>
      <trkpt lat="47.70964" lon="-2.11942">
        <ele>45.456911</ele>
        <time>2022-12-14T15:42:39.357Z</time>
      </trkpt>
      <trkpt lat="47.70952" lon="-2.11938">
        <ele>45.782334</ele>
        <time>2022-12-14T15:42:42.355Z</time>
      </trkpt>
      <trkpt lat="47.7094" lon="-2.11935">
        <ele>46.094311</ele>
        <time>2022-12-14T15:42:45.347Z</time>
      </trkpt>
      <trkpt lat="47.7093" lon="-2.11931">
        <ele>46.388399</ele>
        <time>2022-12-14T15:42:48.344Z</time>
      </trkpt>
      <trkpt lat="47.70918" lon="-2.11929">
        <ele>46.710524</ele>
        <time>2022-12-14T15:42:51.353Z</time>
      </trkpt>
      <trkpt lat="47.70905" lon="-2.11926">
        <ele>47.056702</ele>
        <time>2022-12-14T15:42:54.346Z</time>
      </trkpt>
      <trkpt lat="47.70894" lon="-2.11923">
        <ele>47.358993</ele>
        <time>2022-12-14T15:42:57.351Z</time>
      </trkpt>
      <trkpt lat="47.70884" lon="-2.11923">
        <ele>47.610835</ele>
        <time>2022-12-14T15:43:00.349Z</time>
      </trkpt>
      <trkpt lat="47.70873" lon="-2.11921">
        <ele>47.90601</ele>
        <time>2022-12-14T15:43:03.393Z</time>
      </trkpt>
      <trkpt lat="47.70861" lon="-2.1192">
        <ele>48.224496</ele>
        <time>2022-12-14T15:43:06.352Z</time>
      </trkpt>
      <trkpt lat="47.7085" lon="-2.1192">
        <ele>48.539984</ele>
        <time>2022-12-14T15:43:09.350Z</time>
      </trkpt>
      <trkpt lat="47.70837" lon="-2.11921">
        <ele>48.866662</ele>
        <time>2022-12-14T15:43:12.350Z</time>
      </trkpt>
      <trkpt lat="47.70825" lon="-2.11922">
        <ele>49.038256</ele>
        <time>2022-12-14T15:43:15.359Z</time>
      </trkpt>
      <trkpt lat="47.70812" lon="-2.11922">
        <ele>49.169291</ele>
        <time>2022-12-14T15:43:18.341Z</time>
      </trkpt>
      <trkpt lat="47.708" lon="-2.11924">
        <ele>49.285132</ele>
        <time>2022-12-14T15:43:21.354Z</time>
      </trkpt>
      <trkpt lat="47.70788" lon="-2.11927">
        <ele>49.407565</ele>
        <time>2022-12-14T15:43:24.390Z</time>
      </trkpt>
      <trkpt lat="47.70776" lon="-2.11931">
        <ele>49.531645</ele>
        <time>2022-12-14T15:43:27.339Z</time>
      </trkpt>
      <trkpt lat="47.70764" lon="-2.11937">
        <ele>49.655848</ele>
        <time>2022-12-14T15:43:30.350Z</time>
      </trkpt>
      <trkpt lat="47.70753" lon="-2.11943">
        <ele>49.771603</ele>
        <time>2022-12-14T15:43:33.350Z</time>
      </trkpt>
      <trkpt lat="47.70743" lon="-2.11948">
        <ele>49.877526</ele>
        <time>2022-12-14T15:43:36.326Z</time>
      </trkpt>
      <trkpt lat="47.7073" lon="-2.11953">
        <ele>50.012125</ele>
        <time>2022-12-14T15:43:39.361Z</time>
      </trkpt>
      <trkpt lat="47.70719" lon="-2.11957">
        <ele>50.126836</ele>
        <time>2022-12-14T15:43:42.356Z</time>
      </trkpt>
      <trkpt lat="47.7071" lon="-2.1196">
        <ele>50.216673</ele>
        <time>2022-12-14T15:43:45.352Z</time>
      </trkpt>
      <trkpt lat="47.70701" lon="-2.11964">
        <ele>50.31616</ele>
        <time>2022-12-14T15:43:48.351Z</time>
      </trkpt>
      <trkpt lat="47.70689" lon="-2.11971">
        <ele>50.443151</ele>
        <time>2022-12-14T15:43:51.346Z</time>
      </trkpt>
      <trkpt lat="47.70678" lon="-2.11975">
        <ele>50.557963</ele>
        <time>2022-12-14T15:43:54.335Z</time>
      </trkpt>
      <trkpt lat="47.7067" lon="-2.11982">
        <ele>50.650566</ele>
        <time>2022-12-14T15:43:59.342Z</time>
      </trkpt>
      <trkpt lat="47.7066" lon="-2.11986">
        <ele>50.717062</ele>
        <time>2022-12-14T15:44:04.339Z</time>
      </trkpt>
      <trkpt lat="47.70649" lon="-2.11991">
        <ele>50.543893</ele>
        <time>2022-12-14T15:44:08.348Z</time>
      </trkpt>
      <trkpt lat="47.7064" lon="-2.11995">
        <ele>50.399718</ele>
        <time>2022-12-14T15:44:11.346Z</time>
      </trkpt>
      <trkpt lat="47.70631" lon="-2.11999">
        <ele>50.260816</ele>
        <time>2022-12-14T15:44:14.357Z</time>
      </trkpt>
      <trkpt lat="47.7062" lon="-2.12004">
        <ele>50.092085</ele>
        <time>2022-12-14T15:44:18.348Z</time>
      </trkpt>
      <trkpt lat="47.70611" lon="-2.12011">
        <ele>49.940785</ele>
        <time>2022-12-14T15:44:22.356Z</time>
      </trkpt>
      <trkpt lat="47.70601" lon="-2.12014">
        <ele>49.784324</ele>
        <time>2022-12-14T15:44:27.347Z</time>
      </trkpt>
      <trkpt lat="47.70592" lon="-2.12016">
        <ele>49.646909</ele>
        <time>2022-12-14T15:44:31.354Z</time>
      </trkpt>
      <trkpt lat="47.70583" lon="-2.1202">
        <ele>49.510344</ele>
        <time>2022-12-14T15:44:34.350Z</time>
      </trkpt>
      <trkpt lat="47.70573" lon="-2.12023">
        <ele>49.347068</ele>
        <time>2022-12-14T15:44:37.334Z</time>
      </trkpt>
      <trkpt lat="47.70561" lon="-2.12029">
        <ele>49.156</ele>
        <time>2022-12-14T15:44:40.393Z</time>
      </trkpt>
      <trkpt lat="47.70549" lon="-2.12036">
        <ele>48.964758</ele>
        <time>2022-12-14T15:44:43.333Z</time>
      </trkpt>
      <trkpt lat="47.70537" lon="-2.12041">
        <ele>48.77369</ele>
        <time>2022-12-14T15:44:46.334Z</time>
      </trkpt>
      <trkpt lat="47.70525" lon="-2.12047">
        <ele>48.589871</ele>
        <time>2022-12-14T15:44:49.332Z</time>
      </trkpt>
      <trkpt lat="47.70513" lon="-2.12052">
        <ele>48.395965</ele>
        <time>2022-12-14T15:44:52.343Z</time>
      </trkpt>
      <trkpt lat="47.70501" lon="-2.12058">
        <ele>48.207755</ele>
        <time>2022-12-14T15:44:55.344Z</time>
      </trkpt>
      <trkpt lat="47.7049" lon="-2.12063">
        <ele>48.041104</ele>
        <time>2022-12-14T15:44:58.351Z</time>
      </trkpt>
      <trkpt lat="47.7048" lon="-2.12067">
        <ele>47.908417</ele>
        <time>2022-12-14T15:45:01.353Z</time>
      </trkpt>
      <trkpt lat="47.7047" lon="-2.12071">
        <ele>47.77225</ele>
        <time>2022-12-14T15:45:04.335Z</time>
      </trkpt>
      <trkpt lat="47.7046" lon="-2.12075">
        <ele>47.636082</ele>
        <time>2022-12-14T15:45:07.355Z</time>
      </trkpt>
      <trkpt lat="47.7045" lon="-2.1208">
        <ele>47.496975</ele>
        <time>2022-12-14T15:45:10.351Z</time>
      </trkpt>
      <trkpt lat="47.70439" lon="-2.12086">
        <ele>47.345943</ele>
        <time>2022-12-14T15:45:13.390Z</time>
      </trkpt>
      <trkpt lat="47.7043" lon="-2.12091">
        <ele>47.22665</ele>
        <time>2022-12-14T15:45:16.333Z</time>
      </trkpt>
      <trkpt lat="47.70419" lon="-2.12096">
        <ele>47.074913</ele>
        <time>2022-12-14T15:45:19.331Z</time>
      </trkpt>
      <trkpt lat="47.70406" lon="-2.12102">
        <ele>46.907647</ele>
        <time>2022-12-14T15:45:22.354Z</time>
      </trkpt>
      <trkpt lat="47.70394" lon="-2.12108">
        <ele>46.74063</ele>
        <time>2022-12-14T15:45:25.349Z</time>
      </trkpt>
      <trkpt lat="47.70384" lon="-2.12114">
        <ele>46.60171</ele>
        <time>2022-12-14T15:45:28.343Z</time>
      </trkpt>
      <trkpt lat="47.70375" lon="-2.12119">
        <ele>46.4794</ele>
        <time>2022-12-14T15:45:31.351Z</time>
      </trkpt>
      <trkpt lat="47.70365" lon="-2.12125">
        <ele>46.333835</ele>
        <time>2022-12-14T15:45:34.355Z</time>
      </trkpt>
      <trkpt lat="47.70354" lon="-2.12132">
        <ele>46.185982</ele>
        <time>2022-12-14T15:45:37.357Z</time>
      </trkpt>
      <trkpt lat="47.70343" lon="-2.1214">
        <ele>46.02738</ele>
        <time>2022-12-14T15:45:40.346Z</time>
      </trkpt>
      <trkpt lat="47.70332" lon="-2.12149">
        <ele>45.865559</ele>
        <time>2022-12-14T15:45:43.350Z</time>
      </trkpt>
      <trkpt lat="47.70324" lon="-2.12155">
        <ele>45.746996</ele>
        <time>2022-12-14T15:45:45.347Z</time>
      </trkpt>
      <trkpt lat="47.70313" lon="-2.12164">
        <ele>45.748116</ele>
        <time>2022-12-14T15:45:48.334Z</time>
      </trkpt>
      <trkpt lat="47.70303" lon="-2.12173">
        <ele>45.787759</ele>
        <time>2022-12-14T15:45:51.349Z</time>
      </trkpt>
      <trkpt lat="47.70294" lon="-2.1218">
        <ele>45.822374</ele>
        <time>2022-12-14T15:45:54.348Z</time>
      </trkpt>
      <trkpt lat="47.70282" lon="-2.12189">
        <ele>45.864795</ele>
        <time>2022-12-14T15:45:57.353Z</time>
      </trkpt>
      <trkpt lat="47.70272" lon="-2.12197">
        <ele>45.904437</ele>
        <time>2022-12-14T15:46:00.352Z</time>
      </trkpt>
      <trkpt lat="47.70262" lon="-2.12205">
        <ele>45.941787</ele>
        <time>2022-12-14T15:46:04.339Z</time>
      </trkpt>
      <trkpt lat="47.70252" lon="-2.12213">
        <ele>45.97855</ele>
        <time>2022-12-14T15:46:08.354Z</time>
      </trkpt>
      <trkpt lat="47.70243" lon="-2.12219">
        <ele>46.012315</ele>
        <time>2022-12-14T15:46:11.352Z</time>
      </trkpt>
      <trkpt lat="47.70232" lon="-2.12225">
        <ele>46.051762</ele>
        <time>2022-12-14T15:46:14.406Z</time>
      </trkpt>
      <trkpt lat="47.7022" lon="-2.1223">
        <ele>46.092724</ele>
        <time>2022-12-14T15:46:17.349Z</time>
      </trkpt>
      <trkpt lat="47.70209" lon="-2.12235">
        <ele>46.131001</ele>
        <time>2022-12-14T15:46:20.333Z</time>
      </trkpt>
      <trkpt lat="47.70199" lon="-2.12239">
        <ele>46.164973</ele>
        <time>2022-12-14T15:46:23.341Z</time>
      </trkpt>
      <trkpt lat="47.70188" lon="-2.12242">
        <ele>46.204259</ele>
        <time>2022-12-14T15:46:26.347Z</time>
      </trkpt>
      <trkpt lat="47.70174" lon="-2.12245">
        <ele>46.249461</ele>
        <time>2022-12-14T15:46:29.357Z</time>
      </trkpt>
      <trkpt lat="47.70164" lon="-2.12246">
        <ele>46.284581</ele>
        <time>2022-12-14T15:46:31.352Z</time>
      </trkpt>
      <trkpt lat="47.70154" lon="-2.12248">
        <ele>46.326802</ele>
        <time>2022-12-14T15:46:33.344Z</time>
      </trkpt>
      <trkpt lat="47.70145" lon="-2.12249">
        <ele>46.49565</ele>
        <time>2022-12-14T15:46:35.357Z</time>
      </trkpt>
      <trkpt lat="47.70131" lon="-2.12249">
        <ele>46.728884</ele>
        <time>2022-12-14T15:46:38.354Z</time>
      </trkpt>
      <trkpt lat="47.70122" lon="-2.12249">
        <ele>46.895494</ele>
        <time>2022-12-14T15:46:40.353Z</time>
      </trkpt>
      <trkpt lat="47.70109" lon="-2.12249">
        <ele>47.112972</ele>
        <time>2022-12-14T15:46:43.345Z</time>
      </trkpt>
      <trkpt lat="47.70099" lon="-2.12248">
        <ele>47.29899</ele>
        <time>2022-12-14T15:46:46.353Z</time>
      </trkpt>
      <trkpt lat="47.70089" lon="-2.12248">
        <ele>47.47611</ele>
        <time>2022-12-14T15:46:49.350Z</time>
      </trkpt>
      <trkpt lat="47.70077" lon="-2.12249">
        <ele>47.678121</ele>
        <time>2022-12-14T15:46:52.392Z</time>
      </trkpt>
      <trkpt lat="47.70065" lon="-2.12249">
        <ele>47.897352</ele>
        <time>2022-12-14T15:46:55.351Z</time>
      </trkpt>
      <trkpt lat="47.70053" lon="-2.1225">
        <ele>48.095862</ele>
        <time>2022-12-14T15:46:58.344Z</time>
      </trkpt>
      <trkpt lat="47.70043" lon="-2.12252">
        <ele>48.281082</ele>
        <time>2022-12-14T15:47:01.347Z</time>
      </trkpt>
      <trkpt lat="47.70032" lon="-2.12251">
        <ele>48.477519</ele>
        <time>2022-12-14T15:47:04.340Z</time>
      </trkpt>
      <trkpt lat="47.7002" lon="-2.12252">
        <ele>48.686283</ele>
        <time>2022-12-14T15:47:07.352Z</time>
      </trkpt>
      <trkpt lat="47.70007" lon="-2.12252">
        <ele>48.901991</ele>
        <time>2022-12-14T15:47:10.351Z</time>
      </trkpt>
      <trkpt lat="47.69996" lon="-2.12252">
        <ele>49.098453</ele>
        <time>2022-12-14T15:47:13.393Z</time>
      </trkpt>
      <trkpt lat="47.69985" lon="-2.12252">
        <ele>49.293137</ele>
        <time>2022-12-14T15:47:16.350Z</time>
      </trkpt>
      <trkpt lat="47.69973" lon="-2.12254">
        <ele>49.419878</ele>
        <time>2022-12-14T15:47:19.393Z</time>
      </trkpt>
      <trkpt lat="47.6996" lon="-2.12258">
        <ele>49.161127</ele>
        <time>2022-12-14T15:47:22.336Z</time>
      </trkpt>
      <trkpt lat="47.69951" lon="-2.12264">
        <ele>48.953252</ele>
        <time>2022-12-14T15:47:24.350Z</time>
      </trkpt>
      <trkpt lat="47.69942" lon="-2.12269">
        <ele>48.761908</ele>
        <time>2022-12-14T15:47:26.360Z</time>
      </trkpt>
      <trkpt lat="47.69934" lon="-2.12276">
        <ele>48.575941</ele>
        <time>2022-12-14T15:47:28.345Z</time>
      </trkpt>
      <trkpt lat="47.69923" lon="-2.12286">
        <ele>48.331499</ele>
        <time>2022-12-14T15:47:31.354Z</time>
      </trkpt>
      <trkpt lat="47.69914" lon="-2.12288">
        <ele>48.131362</ele>
        <time>2022-12-14T15:47:34.357Z</time>
      </trkpt>
      <trkpt lat="47.69904" lon="-2.12288">
        <ele>47.940353</ele>
        <time>2022-12-14T15:47:37.357Z</time>
      </trkpt>
      <trkpt lat="47.69895" lon="-2.12291">
        <ele>47.751029</ele>
        <time>2022-12-14T15:47:41.357Z</time>
      </trkpt>
      <trkpt lat="47.69885" lon="-2.12293">
        <ele>47.559925</ele>
        <time>2022-12-14T15:47:44.349Z</time>
      </trkpt>
      <trkpt lat="47.69874" lon="-2.12294">
        <ele>47.337585</ele>
        <time>2022-12-14T15:47:47.359Z</time>
      </trkpt>
      <trkpt lat="47.69862" lon="-2.12298">
        <ele>47.090501</ele>
        <time>2022-12-14T15:47:50.355Z</time>
      </trkpt>
      <trkpt lat="47.69853" lon="-2.123">
        <ele>46.901177</ele>
        <time>2022-12-14T15:47:52.354Z</time>
      </trkpt>
      <trkpt lat="47.69844" lon="-2.12302">
        <ele>46.714617</ele>
        <time>2022-12-14T15:47:54.351Z</time>
      </trkpt>
      <trkpt lat="47.69835" lon="-2.12305">
        <ele>46.526084</ele>
        <time>2022-12-14T15:47:56.352Z</time>
      </trkpt>
      <trkpt lat="47.69825" lon="-2.12308">
        <ele>46.327165</ele>
        <time>2022-12-14T15:47:58.353Z</time>
      </trkpt>
      <trkpt lat="47.69812" lon="-2.12311">
        <ele>46.062248</ele>
        <time>2022-12-14T15:48:01.328Z</time>
      </trkpt>
      <trkpt lat="47.69799" lon="-2.12314">
        <ele>45.876901</ele>
        <time>2022-12-14T15:48:04.349Z</time>
      </trkpt>
      <trkpt lat="47.69787" lon="-2.12318">
        <ele>45.977517</ele>
        <time>2022-12-14T15:48:07.341Z</time>
      </trkpt>
      <trkpt lat="47.69776" lon="-2.12321">
        <ele>46.076766</ele>
        <time>2022-12-14T15:48:10.335Z</time>
      </trkpt>
      <trkpt lat="47.69765" lon="-2.12323">
        <ele>46.171955</ele>
        <time>2022-12-14T15:48:13.348Z</time>
      </trkpt>
      <trkpt lat="47.69752" lon="-2.12324">
        <ele>46.284445</ele>
        <time>2022-12-14T15:48:16.339Z</time>
      </trkpt>
      <trkpt lat="47.69743" lon="-2.12324">
        <ele>46.36095</ele>
        <time>2022-12-14T15:48:18.402Z</time>
      </trkpt>
      <trkpt lat="47.69729" lon="-2.12324">
        <ele>46.474855</ele>
        <time>2022-12-14T15:48:21.334Z</time>
      </trkpt>
      <trkpt lat="47.6972" lon="-2.12324">
        <ele>46.553058</ele>
        <time>2022-12-14T15:48:23.330Z</time>
      </trkpt>
      <trkpt lat="47.69707" lon="-2.12323">
        <ele>46.666287</ele>
        <time>2022-12-14T15:48:26.351Z</time>
      </trkpt>
      <trkpt lat="47.69695" lon="-2.12324">
        <ele>46.769219</ele>
        <time>2022-12-14T15:48:29.367Z</time>
      </trkpt>
      <trkpt lat="47.69682" lon="-2.12324">
        <ele>46.876324</ele>
        <time>2022-12-14T15:48:32.334Z</time>
      </trkpt>
      <trkpt lat="47.69673" lon="-2.12324">
        <ele>46.95551</ele>
        <time>2022-12-14T15:48:34.342Z</time>
      </trkpt>
      <trkpt lat="47.69663" lon="-2.12325">
        <ele>47.04053</ele>
        <time>2022-12-14T15:48:36.351Z</time>
      </trkpt>
      <trkpt lat="47.69652" lon="-2.12326">
        <ele>47.129052</ele>
        <time>2022-12-14T15:48:38.352Z</time>
      </trkpt>
      <trkpt lat="47.69639" lon="-2.12326">
        <ele>47.243807</ele>
        <time>2022-12-14T15:48:41.350Z</time>
      </trkpt>
      <trkpt lat="47.69626" lon="-2.12325">
        <ele>47.350935</ele>
        <time>2022-12-14T15:48:44.331Z</time>
      </trkpt>
      <trkpt lat="47.69614" lon="-2.12326">
        <ele>47.405174</ele>
        <time>2022-12-14T15:48:47.329Z</time>
      </trkpt>
      <trkpt lat="47.69605" lon="-2.12326">
        <ele>47.42975</ele>
        <time>2022-12-14T15:48:49.339Z</time>
      </trkpt>
      <trkpt lat="47.69592" lon="-2.12327">
        <ele>47.465488</ele>
        <time>2022-12-14T15:48:52.358Z</time>
      </trkpt>
      <trkpt lat="47.69582" lon="-2.12328">
        <ele>47.491177</ele>
        <time>2022-12-14T15:48:54.344Z</time>
      </trkpt>
      <trkpt lat="47.69572" lon="-2.12329">
        <ele>47.518457</ele>
        <time>2022-12-14T15:48:56.350Z</time>
      </trkpt>
      <trkpt lat="47.69563" lon="-2.12329">
        <ele>47.543807</ele>
        <time>2022-12-14T15:48:58.355Z</time>
      </trkpt>
      <trkpt lat="47.69549" lon="-2.12328">
        <ele>47.582247</ele>
        <time>2022-12-14T15:49:01.351Z</time>
      </trkpt>
      <trkpt lat="47.69539" lon="-2.12329">
        <ele>47.609295</ele>
        <time>2022-12-14T15:49:03.327Z</time>
      </trkpt>
      <trkpt lat="47.69526" lon="-2.12331">
        <ele>47.64621</ele>
        <time>2022-12-14T15:49:06.351Z</time>
      </trkpt>
      <trkpt lat="47.69514" lon="-2.12333">
        <ele>47.678063</ele>
        <time>2022-12-14T15:49:09.361Z</time>
      </trkpt>
      <trkpt lat="47.69503" lon="-2.12337">
        <ele>47.709604</ele>
        <time>2022-12-14T15:49:12.362Z</time>
      </trkpt>
      <trkpt lat="47.6949" lon="-2.12342">
        <ele>47.745349</ele>
        <time>2022-12-14T15:49:15.356Z</time>
      </trkpt>
      <trkpt lat="47.69477" lon="-2.12348">
        <ele>47.783605</ele>
        <time>2022-12-14T15:49:18.394Z</time>
      </trkpt>
      <trkpt lat="47.69467" lon="-2.12352">
        <ele>47.809734</ele>
        <time>2022-12-14T15:49:20.348Z</time>
      </trkpt>
      <trkpt lat="47.69458" lon="-2.12356">
        <ele>47.8355</ele>
        <time>2022-12-14T15:49:22.354Z</time>
      </trkpt>
      <trkpt lat="47.69449" lon="-2.12359">
        <ele>47.861255</ele>
        <time>2022-12-14T15:49:24.364Z</time>
      </trkpt>
      <trkpt lat="47.69437" lon="-2.12365">
        <ele>47.886067</ele>
        <time>2022-12-14T15:49:27.357Z</time>
      </trkpt>
      <trkpt lat="47.69426" lon="-2.12369">
        <ele>47.904295</ele>
        <time>2022-12-14T15:49:30.338Z</time>
      </trkpt>
      <trkpt lat="47.69414" lon="-2.12375">
        <ele>47.922429</ele>
        <time>2022-12-14T15:49:33.328Z</time>
      </trkpt>
      <trkpt lat="47.69402" lon="-2.1238">
        <ele>47.942264</ele>
        <time>2022-12-14T15:49:36.330Z</time>
      </trkpt>
      <trkpt lat="47.6939" lon="-2.12386">
        <ele>47.961926</ele>
        <time>2022-12-14T15:49:39.404Z</time>
      </trkpt>
      <trkpt lat="47.69381" lon="-2.1239">
        <ele>47.976476</ele>
        <time>2022-12-14T15:49:41.357Z</time>
      </trkpt>
      <trkpt lat="47.69372" lon="-2.12393">
        <ele>47.990769</ele>
        <time>2022-12-14T15:49:43.350Z</time>
      </trkpt>
      <trkpt lat="47.69363" lon="-2.12398">
        <ele>48.005796</ele>
        <time>2022-12-14T15:49:45.349Z</time>
      </trkpt>
      <trkpt lat="47.69354" lon="-2.12401">
        <ele>48.020647</ele>
        <time>2022-12-14T15:49:47.346Z</time>
      </trkpt>
      <trkpt lat="47.69345" lon="-2.12405">
        <ele>48.034955</ele>
        <time>2022-12-14T15:49:49.352Z</time>
      </trkpt>
      <trkpt lat="47.69333" lon="-2.12411">
        <ele>48.054535</ele>
        <time>2022-12-14T15:49:52.327Z</time>
      </trkpt>
      <trkpt lat="47.69322" lon="-2.12415">
        <ele>48.071984</ele>
        <time>2022-12-14T15:49:55.346Z</time>
      </trkpt>
      <trkpt lat="47.69311" lon="-2.12421">
        <ele>48.090571</ele>
        <time>2022-12-14T15:49:58.338Z</time>
      </trkpt>
      <trkpt lat="47.69299" lon="-2.12426">
        <ele>48.110768</ele>
        <time>2022-12-14T15:50:01.337Z</time>
      </trkpt>
      <trkpt lat="47.69286" lon="-2.12433">
        <ele>48.131585</ele>
        <time>2022-12-14T15:50:04.340Z</time>
      </trkpt>
      <trkpt lat="47.69274" lon="-2.1244">
        <ele>48.152323</ele>
        <time>2022-12-14T15:50:07.350Z</time>
      </trkpt>
      <trkpt lat="47.69265" lon="-2.12445">
        <ele>48.117622</ele>
        <time>2022-12-14T15:50:09.346Z</time>
      </trkpt>
      <trkpt lat="47.69257" lon="-2.12452">
        <ele>48.082147</ele>
        <time>2022-12-14T15:50:11.331Z</time>
      </trkpt>
      <trkpt lat="47.69249" lon="-2.12458">
        <ele>48.045878</ele>
        <time>2022-12-14T15:50:13.354Z</time>
      </trkpt>
      <trkpt lat="47.6924" lon="-2.12465">
        <ele>48.010504</ele>
        <time>2022-12-14T15:50:15.354Z</time>
      </trkpt>
      <trkpt lat="47.6923" lon="-2.12476">
        <ele>47.962077</ele>
        <time>2022-12-14T15:50:18.354Z</time>
      </trkpt>
      <trkpt lat="47.69221" lon="-2.12485">
        <ele>47.920248</ele>
        <time>2022-12-14T15:50:21.351Z</time>
      </trkpt>
      <trkpt lat="47.69211" lon="-2.12493">
        <ele>47.875683</ele>
        <time>2022-12-14T15:50:24.351Z</time>
      </trkpt>
      <trkpt lat="47.692" lon="-2.12503">
        <ele>47.82765</ele>
        <time>2022-12-14T15:50:27.345Z</time>
      </trkpt>
      <trkpt lat="47.69189" lon="-2.12513">
        <ele>47.77765</ele>
        <time>2022-12-14T15:50:30.338Z</time>
      </trkpt>
      <trkpt lat="47.69177" lon="-2.12523">
        <ele>47.726137</ele>
        <time>2022-12-14T15:50:33.326Z</time>
      </trkpt>
      <trkpt lat="47.69167" lon="-2.12527">
        <ele>47.68883</ele>
        <time>2022-12-14T15:50:35.356Z</time>
      </trkpt>
      <trkpt lat="47.69158" lon="-2.12532">
        <ele>47.651456</ele>
        <time>2022-12-14T15:50:37.349Z</time>
      </trkpt>
      <trkpt lat="47.69149" lon="-2.12536">
        <ele>47.614203</ele>
        <time>2022-12-14T15:50:39.349Z</time>
      </trkpt>
      <trkpt lat="47.6914" lon="-2.12538">
        <ele>47.579568</ele>
        <time>2022-12-14T15:50:41.359Z</time>
      </trkpt>
      <trkpt lat="47.6913" lon="-2.1254">
        <ele>47.542707</ele>
        <time>2022-12-14T15:50:43.326Z</time>
      </trkpt>
      <trkpt lat="47.69117" lon="-2.1254">
        <ele>47.494359</ele>
        <time>2022-12-14T15:50:46.338Z</time>
      </trkpt>
      <trkpt lat="47.69107" lon="-2.12541">
        <ele>47.479922</ele>
        <time>2022-12-14T15:50:49.350Z</time>
      </trkpt>
      <trkpt lat="47.69096" lon="-2.12541">
        <ele>47.519048</ele>
        <time>2022-12-14T15:50:52.351Z</time>
      </trkpt>
      <trkpt lat="47.69085" lon="-2.1254">
        <ele>47.560108</ele>
        <time>2022-12-14T15:50:55.351Z</time>
      </trkpt>
      <trkpt lat="47.69073" lon="-2.12538">
        <ele>47.606421</ele>
        <time>2022-12-14T15:50:58.362Z</time>
      </trkpt>
      <trkpt lat="47.6906" lon="-2.12534">
        <ele>47.653207</ele>
        <time>2022-12-14T15:51:01.334Z</time>
      </trkpt>
      <trkpt lat="47.6905" lon="-2.12528">
        <ele>47.694688</ele>
        <time>2022-12-14T15:51:04.363Z</time>
      </trkpt>
      <trkpt lat="47.69041" lon="-2.12523">
        <ele>47.729721</ele>
        <time>2022-12-14T15:51:06.348Z</time>
      </trkpt>
      <trkpt lat="47.6903" lon="-2.12515">
        <ele>47.773957</ele>
        <time>2022-12-14T15:51:09.352Z</time>
      </trkpt>
      <trkpt lat="47.69019" lon="-2.12504">
        <ele>47.820796</ele>
        <time>2022-12-14T15:51:12.337Z</time>
      </trkpt>
      <trkpt lat="47.69012" lon="-2.12496">
        <ele>47.855274</ele>
        <time>2022-12-14T15:51:14.352Z</time>
      </trkpt>
      <trkpt lat="47.69004" lon="-2.12488">
        <ele>47.889019</ele>
        <time>2022-12-14T15:51:16.334Z</time>
      </trkpt>
      <trkpt lat="47.68994" lon="-2.12476">
        <ele>47.93686</ele>
        <time>2022-12-14T15:51:19.354Z</time>
      </trkpt>
      <trkpt lat="47.68987" lon="-2.12465">
        <ele>47.974711</ele>
        <time>2022-12-14T15:51:22.348Z</time>
      </trkpt>
      <trkpt lat="47.68979" lon="-2.12451">
        <ele>48.019331</ele>
        <time>2022-12-14T15:51:25.331Z</time>
      </trkpt>
      <trkpt lat="47.68972" lon="-2.12437">
        <ele>48.063445</ele>
        <time>2022-12-14T15:51:28.331Z</time>
      </trkpt>
      <trkpt lat="47.68965" lon="-2.12423">
        <ele>48.104709</ele>
        <time>2022-12-14T15:51:31.334Z</time>
      </trkpt>
      <trkpt lat="47.68958" lon="-2.12409">
        <ele>48.150264</ele>
        <time>2022-12-14T15:51:34.341Z</time>
      </trkpt>
      <trkpt lat="47.68951" lon="-2.12393">
        <ele>48.203535</ele>
        <time>2022-12-14T15:51:37.336Z</time>
      </trkpt>
      <trkpt lat="47.68943" lon="-2.12378">
        <ele>48.254368</ele>
        <time>2022-12-14T15:51:40.335Z</time>
      </trkpt>
      <trkpt lat="47.68935" lon="-2.12365">
        <ele>48.304551</ele>
        <time>2022-12-14T15:51:43.350Z</time>
      </trkpt>
      <trkpt lat="47.68927" lon="-2.1235">
        <ele>48.358062</ele>
        <time>2022-12-14T15:51:46.330Z</time>
      </trkpt>
      <trkpt lat="47.68919" lon="-2.12335">
        <ele>48.408676</ele>
        <time>2022-12-14T15:51:49.331Z</time>
      </trkpt>
      <trkpt lat="47.68913" lon="-2.12321">
        <ele>48.455585</ele>
        <time>2022-12-14T15:51:52.385Z</time>
      </trkpt>
      <trkpt lat="47.68906" lon="-2.12306">
        <ele>48.507024</ele>
        <time>2022-12-14T15:51:55.344Z</time>
      </trkpt>
      <trkpt lat="47.68898" lon="-2.1229">
        <ele>48.559855</ele>
        <time>2022-12-14T15:51:58.324Z</time>
      </trkpt>
      <trkpt lat="47.6889" lon="-2.12274">
        <ele>48.614761</ele>
        <time>2022-12-14T15:52:01.364Z</time>
      </trkpt>
      <trkpt lat="47.68882" lon="-2.12259">
        <ele>48.667465</ele>
        <time>2022-12-14T15:52:04.328Z</time>
      </trkpt>
      <trkpt lat="47.68875" lon="-2.12244">
        <ele>48.717534</ele>
        <time>2022-12-14T15:52:07.360Z</time>
      </trkpt>
      <trkpt lat="47.68869" lon="-2.12233">
        <ele>48.756651</ele>
        <time>2022-12-14T15:52:10.348Z</time>
      </trkpt>
      <trkpt lat="47.68862" lon="-2.12219">
        <ele>48.804768</ele>
        <time>2022-12-14T15:52:14.348Z</time>
      </trkpt>
      <trkpt lat="47.68855" lon="-2.12209">
        <ele>48.845495</ele>
        <time>2022-12-14T15:52:17.348Z</time>
      </trkpt>
      <trkpt lat="47.68846" lon="-2.12199">
        <ele>48.832191</ele>
        <time>2022-12-14T15:52:20.358Z</time>
      </trkpt>
      <trkpt lat="47.68837" lon="-2.12191">
        <ele>48.785983</ele>
        <time>2022-12-14T15:52:23.356Z</time>
      </trkpt>
      <trkpt lat="47.68825" lon="-2.12184">
        <ele>48.732816</ele>
        <time>2022-12-14T15:52:26.361Z</time>
      </trkpt>
      <trkpt lat="47.68814" lon="-2.1218">
        <ele>48.684546</ele>
        <time>2022-12-14T15:52:29.374Z</time>
      </trkpt>
      <trkpt lat="47.68802" lon="-2.12176">
        <ele>48.633037</ele>
        <time>2022-12-14T15:52:32.348Z</time>
      </trkpt>
      <trkpt lat="47.68791" lon="-2.12174">
        <ele>48.584005</ele>
        <time>2022-12-14T15:52:35.335Z</time>
      </trkpt>
      <trkpt lat="47.68779" lon="-2.12172">
        <ele>48.532872</ele>
        <time>2022-12-14T15:52:38.340Z</time>
      </trkpt>
      <trkpt lat="47.68768" lon="-2.1217">
        <ele>48.484747</ele>
        <time>2022-12-14T15:52:41.347Z</time>
      </trkpt>
      <trkpt lat="47.68756" lon="-2.12169">
        <ele>48.43383</ele>
        <time>2022-12-14T15:52:44.340Z</time>
      </trkpt>
      <trkpt lat="47.68746" lon="-2.12168">
        <ele>48.393189</ele>
        <time>2022-12-14T15:52:47.361Z</time>
      </trkpt>
      <trkpt lat="47.68736" lon="-2.1217">
        <ele>48.349444</ele>
        <time>2022-12-14T15:52:50.339Z</time>
      </trkpt>
      <trkpt lat="47.68725" lon="-2.12174">
        <ele>48.301251</ele>
        <time>2022-12-14T15:52:53.331Z</time>
      </trkpt>
      <trkpt lat="47.68713" lon="-2.1218">
        <ele>48.250037</ele>
        <time>2022-12-14T15:52:56.408Z</time>
      </trkpt>
      <trkpt lat="47.68701" lon="-2.12187">
        <ele>48.196475</ele>
        <time>2022-12-14T15:52:59.352Z</time>
      </trkpt>
      <trkpt lat="47.6869" lon="-2.12194">
        <ele>48.1421</ele>
        <time>2022-12-14T15:53:02.357Z</time>
      </trkpt>
      <trkpt lat="47.68679" lon="-2.12201">
        <ele>48.102892</ele>
        <time>2022-12-14T15:53:05.356Z</time>
      </trkpt>
      <trkpt lat="47.68668" lon="-2.12209">
        <ele>48.119087</ele>
        <time>2022-12-14T15:53:08.335Z</time>
      </trkpt>
      <trkpt lat="47.68658" lon="-2.12215">
        <ele>48.135047</ele>
        <time>2022-12-14T15:53:11.332Z</time>
      </trkpt>
      <trkpt lat="47.68647" lon="-2.12222">
        <ele>48.151409</ele>
        <time>2022-12-14T15:53:14.347Z</time>
      </trkpt>
      <trkpt lat="47.68636" lon="-2.12229">
        <ele>48.168357</ele>
        <time>2022-12-14T15:53:17.357Z</time>
      </trkpt>
      <trkpt lat="47.68627" lon="-2.12234">
        <ele>48.180965</ele>
        <time>2022-12-14T15:53:19.360Z</time>
      </trkpt>
      <trkpt lat="47.68619" lon="-2.12239">
        <ele>48.193544</ele>
        <time>2022-12-14T15:53:21.355Z</time>
      </trkpt>
      <trkpt lat="47.6861" lon="-2.12244">
        <ele>48.20647</ele>
        <time>2022-12-14T15:53:23.345Z</time>
      </trkpt>
      <trkpt lat="47.68602" lon="-2.12249">
        <ele>48.219306</ele>
        <time>2022-12-14T15:53:25.351Z</time>
      </trkpt>
      <trkpt lat="47.68591" lon="-2.12257">
        <ele>48.23663</ele>
        <time>2022-12-14T15:53:28.356Z</time>
      </trkpt>
      <trkpt lat="47.6858" lon="-2.12264">
        <ele>48.252021</ele>
        <time>2022-12-14T15:53:31.351Z</time>
      </trkpt>
      <trkpt lat="47.68571" lon="-2.12271">
        <ele>48.266687</ele>
        <time>2022-12-14T15:53:34.336Z</time>
      </trkpt>
      <trkpt lat="47.68561" lon="-2.12277">
        <ele>48.281773</ele>
        <time>2022-12-14T15:53:37.343Z</time>
      </trkpt>
      <trkpt lat="47.68552" lon="-2.12284">
        <ele>48.296266</ele>
        <time>2022-12-14T15:53:40.413Z</time>
      </trkpt>
      <trkpt lat="47.68543" lon="-2.12291">
        <ele>48.309809</ele>
        <time>2022-12-14T15:53:43.335Z</time>
      </trkpt>
      <trkpt lat="47.68533" lon="-2.12298">
        <ele>48.325131</ele>
        <time>2022-12-14T15:53:46.359Z</time>
      </trkpt>
      <trkpt lat="47.68524" lon="-2.12304">
        <ele>48.338476</ele>
        <time>2022-12-14T15:53:49.351Z</time>
      </trkpt>
      <trkpt lat="47.68514" lon="-2.1231">
        <ele>48.336308</ele>
        <time>2022-12-14T15:53:53.333Z</time>
      </trkpt>
      <trkpt lat="47.68504" lon="-2.12312">
        <ele>48.2693</ele>
        <time>2022-12-14T15:53:57.342Z</time>
      </trkpt>
      <trkpt lat="47.68495" lon="-2.12318">
        <ele>48.202437</ele>
        <time>2022-12-14T15:54:01.363Z</time>
      </trkpt>
      <trkpt lat="47.68486" lon="-2.12324">
        <ele>48.13741</ele>
        <time>2022-12-14T15:54:05.360Z</time>
      </trkpt>
      <trkpt lat="47.68477" lon="-2.1232">
        <ele>48.074492</ele>
        <time>2022-12-14T15:54:09.361Z</time>
      </trkpt>
      <trkpt lat="47.68473" lon="-2.12304">
        <ele>48.005163</ele>
        <time>2022-12-14T15:54:14.352Z</time>
      </trkpt>
      <trkpt lat="47.68471" lon="-2.12289">
        <ele>47.933304</ele>
        <time>2022-12-14T15:54:19.336Z</time>
      </trkpt>
      <trkpt lat="47.68466" lon="-2.12274">
        <ele>47.863523</ele>
        <time>2022-12-14T15:54:23.354Z</time>
      </trkpt>
      <trkpt lat="47.68463" lon="-2.12261">
        <ele>47.803146</ele>
        <time>2022-12-14T15:54:26.355Z</time>
      </trkpt>
      <trkpt lat="47.6846" lon="-2.12248">
        <ele>47.739848</ele>
        <time>2022-12-14T15:54:29.332Z</time>
      </trkpt>
      <trkpt lat="47.68456" lon="-2.1223">
        <ele>47.659715</ele>
        <time>2022-12-14T15:54:33.336Z</time>
      </trkpt>
      <trkpt lat="47.68451" lon="-2.12212">
        <ele>47.57475</ele>
        <time>2022-12-14T15:54:36.344Z</time>
      </trkpt>
      <trkpt lat="47.6845" lon="-2.12198">
        <ele>47.509454</ele>
        <time>2022-12-14T15:54:38.416Z</time>
      </trkpt>
      <trkpt lat="47.68449" lon="-2.12184">
        <ele>47.450432</ele>
        <time>2022-12-14T15:54:40.355Z</time>
      </trkpt>
      <trkpt lat="47.68446" lon="-2.12167">
        <ele>47.371137</ele>
        <time>2022-12-14T15:54:43.351Z</time>
      </trkpt>
      <trkpt lat="47.68443" lon="-2.12152">
        <ele>47.304098</ele>
        <time>2022-12-14T15:54:46.336Z</time>
      </trkpt>
      <trkpt lat="47.68441" lon="-2.12138">
        <ele>47.239047</ele>
        <time>2022-12-14T15:54:49.338Z</time>
      </trkpt>
      <trkpt lat="47.68436" lon="-2.12125">
        <ele>47.171681</ele>
        <time>2022-12-14T15:54:52.335Z</time>
      </trkpt>
      <trkpt lat="47.68431" lon="-2.12109">
        <ele>47.049327</ele>
        <time>2022-12-14T15:54:55.353Z</time>
      </trkpt>
      <trkpt lat="47.68426" lon="-2.12093">
        <ele>46.924142</ele>
        <time>2022-12-14T15:54:58.351Z</time>
      </trkpt>
      <trkpt lat="47.68422" lon="-2.12077">
        <ele>46.798376</ele>
        <time>2022-12-14T15:55:01.332Z</time>
      </trkpt>
      <trkpt lat="47.68417" lon="-2.1206">
        <ele>46.664061</ele>
        <time>2022-12-14T15:55:04.340Z</time>
      </trkpt>
      <trkpt lat="47.68412" lon="-2.12043">
        <ele>46.533128</ele>
        <time>2022-12-14T15:55:07.330Z</time>
      </trkpt>
      <trkpt lat="47.68409" lon="-2.12031">
        <ele>46.434515</ele>
        <time>2022-12-14T15:55:09.357Z</time>
      </trkpt>
      <trkpt lat="47.68405" lon="-2.12018">
        <ele>46.335648</ele>
        <time>2022-12-14T15:55:11.351Z</time>
      </trkpt>
      <trkpt lat="47.68401" lon="-2.12">
        <ele>46.201119</ele>
        <time>2022-12-14T15:55:14.357Z</time>
      </trkpt>
      <trkpt lat="47.68396" lon="-2.11984">
        <ele>46.068558</ele>
        <time>2022-12-14T15:55:17.394Z</time>
      </trkpt>
      <trkpt lat="47.68392" lon="-2.11968">
        <ele>45.947236</ele>
        <time>2022-12-14T15:55:20.348Z</time>
      </trkpt>
      <trkpt lat="47.68387" lon="-2.11952">
        <ele>45.817531</ele>
        <time>2022-12-14T15:55:23.330Z</time>
      </trkpt>
      <trkpt lat="47.68383" lon="-2.11939">
        <ele>45.721069</ele>
        <time>2022-12-14T15:55:25.348Z</time>
      </trkpt>
      <trkpt lat="47.68379" lon="-2.11924">
        <ele>45.605101</ele>
        <time>2022-12-14T15:55:28.358Z</time>
      </trkpt>
      <trkpt lat="47.68376" lon="-2.11911">
        <ele>45.505567</ele>
        <time>2022-12-14T15:55:31.358Z</time>
      </trkpt>
      <trkpt lat="47.68372" lon="-2.11897">
        <ele>45.396306</ele>
        <time>2022-12-14T15:55:34.344Z</time>
      </trkpt>
      <trkpt lat="47.68369" lon="-2.11882">
        <ele>45.278814</ele>
        <time>2022-12-14T15:55:37.358Z</time>
      </trkpt>
      <trkpt lat="47.68365" lon="-2.11867">
        <ele>45.198707</ele>
        <time>2022-12-14T15:55:40.351Z</time>
      </trkpt>
      <trkpt lat="47.6836" lon="-2.11851">
        <ele>45.119043</ele>
        <time>2022-12-14T15:55:43.335Z</time>
      </trkpt>
      <trkpt lat="47.68355" lon="-2.11836">
        <ele>45.041904</ele>
        <time>2022-12-14T15:55:46.343Z</time>
      </trkpt>
      <trkpt lat="47.6835" lon="-2.11824">
        <ele>44.980773</ele>
        <time>2022-12-14T15:55:49.349Z</time>
      </trkpt>
      <trkpt lat="47.68345" lon="-2.1181">
        <ele>44.90607</ele>
        <time>2022-12-14T15:55:54.337Z</time>
      </trkpt>
      <trkpt lat="47.68342" lon="-2.11792">
        <ele>44.825989</ele>
        <time>2022-12-14T15:55:58.333Z</time>
      </trkpt>
      <trkpt lat="47.68338" lon="-2.11777">
        <ele>44.752204</ele>
        <time>2022-12-14T15:56:01.331Z</time>
      </trkpt>
      <trkpt lat="47.68332" lon="-2.1176">
        <ele>44.666873</ele>
        <time>2022-12-14T15:56:04.349Z</time>
      </trkpt>
      <trkpt lat="47.68328" lon="-2.11748">
        <ele>44.606874</ele>
        <time>2022-12-14T15:56:06.341Z</time>
      </trkpt>
      <trkpt lat="47.68323" lon="-2.1173">
        <ele>44.520782</ele>
        <time>2022-12-14T15:56:09.344Z</time>
      </trkpt>
      <trkpt lat="47.68319" lon="-2.11713">
        <ele>44.437729</ele>
        <time>2022-12-14T15:56:12.404Z</time>
      </trkpt>
      <trkpt lat="47.68315" lon="-2.11697">
        <ele>44.360233</ele>
        <time>2022-12-14T15:56:15.338Z</time>
      </trkpt>
      <trkpt lat="47.6831" lon="-2.11679">
        <ele>44.272162</ele>
        <time>2022-12-14T15:56:18.337Z</time>
      </trkpt>
      <trkpt lat="47.68306" lon="-2.11664">
        <ele>44.200089</ele>
        <time>2022-12-14T15:56:21.338Z</time>
      </trkpt>
      <trkpt lat="47.683" lon="-2.11647">
        <ele>44.115258</ele>
        <time>2022-12-14T15:56:24.350Z</time>
      </trkpt>
      <trkpt lat="47.68294" lon="-2.1163">
        <ele>44.056947</ele>
        <time>2022-12-14T15:56:27.353Z</time>
      </trkpt>
      <trkpt lat="47.68289" lon="-2.11614">
        <ele>44.077751</ele>
        <time>2022-12-14T15:56:30.350Z</time>
      </trkpt>
      <trkpt lat="47.68286" lon="-2.116">
        <ele>44.094602</ele>
        <time>2022-12-14T15:56:33.337Z</time>
      </trkpt>
      <trkpt lat="47.68281" lon="-2.11583">
        <ele>44.116215</ele>
        <time>2022-12-14T15:56:36.356Z</time>
      </trkpt>
      <trkpt lat="47.68277" lon="-2.11565">
        <ele>44.138044</ele>
        <time>2022-12-14T15:56:39.352Z</time>
      </trkpt>
      <trkpt lat="47.68273" lon="-2.1155">
        <ele>44.156262</ele>
        <time>2022-12-14T15:56:42.361Z</time>
      </trkpt>
      <trkpt lat="47.68269" lon="-2.11534">
        <ele>44.176125</ele>
        <time>2022-12-14T15:56:45.355Z</time>
      </trkpt>
      <trkpt lat="47.68264" lon="-2.11517">
        <ele>44.198037</ele>
        <time>2022-12-14T15:56:48.334Z</time>
      </trkpt>
      <trkpt lat="47.68259" lon="-2.115">
        <ele>44.219295</ele>
        <time>2022-12-14T15:56:51.351Z</time>
      </trkpt>
      <trkpt lat="47.68254" lon="-2.11483">
        <ele>44.240525</ele>
        <time>2022-12-14T15:56:54.417Z</time>
      </trkpt>
      <trkpt lat="47.68249" lon="-2.11466">
        <ele>44.262133</ele>
        <time>2022-12-14T15:56:57.340Z</time>
      </trkpt>
      <trkpt lat="47.68244" lon="-2.11448">
        <ele>44.28469</ele>
        <time>2022-12-14T15:57:00.343Z</time>
      </trkpt>
      <trkpt lat="47.68239" lon="-2.11432">
        <ele>44.304039</ele>
        <time>2022-12-14T15:57:03.332Z</time>
      </trkpt>
      <trkpt lat="47.68235" lon="-2.11417">
        <ele>44.323372</ele>
        <time>2022-12-14T15:57:06.340Z</time>
      </trkpt>
      <trkpt lat="47.68232" lon="-2.11404">
        <ele>44.33899</ele>
        <time>2022-12-14T15:57:09.362Z</time>
      </trkpt>
      <trkpt lat="47.68229" lon="-2.11389">
        <ele>44.356781</ele>
        <time>2022-12-14T15:57:13.338Z</time>
      </trkpt>
      <trkpt lat="47.68225" lon="-2.11375">
        <ele>44.237077</ele>
        <time>2022-12-14T15:57:16.339Z</time>
      </trkpt>
      <trkpt lat="47.68221" lon="-2.11358">
        <ele>44.065072</ele>
        <time>2022-12-14T15:57:19.356Z</time>
      </trkpt>
      <trkpt lat="47.68216" lon="-2.11342">
        <ele>43.895236</ele>
        <time>2022-12-14T15:57:22.346Z</time>
      </trkpt>
      <trkpt lat="47.68212" lon="-2.11326">
        <ele>43.726723</ele>
        <time>2022-12-14T15:57:25.355Z</time>
      </trkpt>
      <trkpt lat="47.68207" lon="-2.1131">
        <ele>43.555281</ele>
        <time>2022-12-14T15:57:28.353Z</time>
      </trkpt>
      <trkpt lat="47.68202" lon="-2.11293">
        <ele>43.37813</ele>
        <time>2022-12-14T15:57:31.341Z</time>
      </trkpt>
      <trkpt lat="47.68197" lon="-2.11277">
        <ele>43.208942</ele>
        <time>2022-12-14T15:57:34.352Z</time>
      </trkpt>
      <trkpt lat="47.68192" lon="-2.1126">
        <ele>43.029592</ele>
        <time>2022-12-14T15:57:37.331Z</time>
      </trkpt>
      <trkpt lat="47.68187" lon="-2.11247">
        <ele>42.88933</ele>
        <time>2022-12-14T15:57:40.340Z</time>
      </trkpt>
      <trkpt lat="47.68183" lon="-2.11232">
        <ele>42.735706</ele>
        <time>2022-12-14T15:57:44.346Z</time>
      </trkpt>
      <trkpt lat="47.68179" lon="-2.11218">
        <ele>42.582283</ele>
        <time>2022-12-14T15:57:48.364Z</time>
      </trkpt>
      <trkpt lat="47.68175" lon="-2.11205">
        <ele>42.448483</ele>
        <time>2022-12-14T15:57:51.362Z</time>
      </trkpt>
      <trkpt lat="47.68171" lon="-2.11191">
        <ele>42.308348</ele>
        <time>2022-12-14T15:57:54.354Z</time>
      </trkpt>
      <trkpt lat="47.68168" lon="-2.11178">
        <ele>42.165449</ele>
        <time>2022-12-14T15:57:57.343Z</time>
      </trkpt>
      <trkpt lat="47.68164" lon="-2.11164">
        <ele>42.025227</ele>
        <time>2022-12-14T15:58:00.353Z</time>
      </trkpt>
      <trkpt lat="47.6816" lon="-2.11149">
        <ele>41.867329</ele>
        <time>2022-12-14T15:58:03.357Z</time>
      </trkpt>
      <trkpt lat="47.68156" lon="-2.11133">
        <ele>41.801143</ele>
        <time>2022-12-14T15:58:06.340Z</time>
      </trkpt>
      <trkpt lat="47.68152" lon="-2.11121">
        <ele>41.819835</ele>
        <time>2022-12-14T15:58:09.352Z</time>
      </trkpt>
      <trkpt lat="47.68149" lon="-2.11107">
        <ele>41.841213</ele>
        <time>2022-12-14T15:58:12.338Z</time>
      </trkpt>
      <trkpt lat="47.68145" lon="-2.11093">
        <ele>41.862126</ele>
        <time>2022-12-14T15:58:15.363Z</time>
      </trkpt>
      <trkpt lat="47.68141" lon="-2.11078">
        <ele>41.883299</ele>
        <time>2022-12-14T15:58:18.357Z</time>
      </trkpt>
      <trkpt lat="47.68137" lon="-2.11064">
        <ele>41.904612</ele>
        <time>2022-12-14T15:58:21.355Z</time>
      </trkpt>
      <trkpt lat="47.68132" lon="-2.1105">
        <ele>41.927922</ele>
        <time>2022-12-14T15:58:24.336Z</time>
      </trkpt>
      <trkpt lat="47.68127" lon="-2.11033">
        <ele>41.952627</ele>
        <time>2022-12-14T15:58:27.415Z</time>
      </trkpt>
      <trkpt lat="47.68123" lon="-2.11019">
        <ele>41.974074</ele>
        <time>2022-12-14T15:58:30.359Z</time>
      </trkpt>
      <trkpt lat="47.68118" lon="-2.11005">
        <ele>41.996152</ele>
        <time>2022-12-14T15:58:33.343Z</time>
      </trkpt>
      <trkpt lat="47.68114" lon="-2.10989">
        <ele>42.019957</ele>
        <time>2022-12-14T15:58:36.341Z</time>
      </trkpt>
      <trkpt lat="47.6811" lon="-2.10972">
        <ele>42.043944</ele>
        <time>2022-12-14T15:58:39.339Z</time>
      </trkpt>
      <trkpt lat="47.68106" lon="-2.10956">
        <ele>42.068751</ele>
        <time>2022-12-14T15:58:42.362Z</time>
      </trkpt>
      <trkpt lat="47.68102" lon="-2.10939">
        <ele>42.093893</ele>
        <time>2022-12-14T15:58:45.339Z</time>
      </trkpt>
      <trkpt lat="47.68097" lon="-2.10927">
        <ele>42.112854</ele>
        <time>2022-12-14T15:58:48.358Z</time>
      </trkpt>
      <trkpt lat="47.68093" lon="-2.10914">
        <ele>42.132942</ele>
        <time>2022-12-14T15:58:51.368Z</time>
      </trkpt>
      <trkpt lat="47.6809" lon="-2.10901">
        <ele>42.152057</ele>
        <time>2022-12-14T15:58:54.359Z</time>
      </trkpt>
      <trkpt lat="47.68085" lon="-2.10887">
        <ele>42.261175</ele>
        <time>2022-12-14T15:58:57.360Z</time>
      </trkpt>
      <trkpt lat="47.68081" lon="-2.10871">
        <ele>42.443733</ele>
        <time>2022-12-14T15:59:00.361Z</time>
      </trkpt>
      <trkpt lat="47.68077" lon="-2.10855">
        <ele>42.630495</ele>
        <time>2022-12-14T15:59:03.344Z</time>
      </trkpt>
      <trkpt lat="47.68073" lon="-2.10839">
        <ele>42.818272</ele>
        <time>2022-12-14T15:59:06.352Z</time>
      </trkpt>
      <trkpt lat="47.68068" lon="-2.10823">
        <ele>43.010482</ele>
        <time>2022-12-14T15:59:09.336Z</time>
      </trkpt>
      <trkpt lat="47.68063" lon="-2.10806">
        <ele>43.213236</ele>
        <time>2022-12-14T15:59:12.354Z</time>
      </trkpt>
      <trkpt lat="47.68058" lon="-2.10789">
        <ele>43.415111</ele>
        <time>2022-12-14T15:59:15.356Z</time>
      </trkpt>
      <trkpt lat="47.68053" lon="-2.10771">
        <ele>43.628281</ele>
        <time>2022-12-14T15:59:18.350Z</time>
      </trkpt>
      <trkpt lat="47.68048" lon="-2.10753">
        <ele>43.83603</ele>
        <time>2022-12-14T15:59:21.335Z</time>
      </trkpt>
      <trkpt lat="47.68044" lon="-2.10736">
        <ele>44.035489</ele>
        <time>2022-12-14T15:59:24.327Z</time>
      </trkpt>
      <trkpt lat="47.68039" lon="-2.10719">
        <ele>44.238888</ele>
        <time>2022-12-14T15:59:27.335Z</time>
      </trkpt>
      <trkpt lat="47.68034" lon="-2.10703">
        <ele>44.428072</ele>
        <time>2022-12-14T15:59:30.337Z</time>
      </trkpt>
      <trkpt lat="47.6803" lon="-2.10687">
        <ele>44.615647</ele>
        <time>2022-12-14T15:59:33.347Z</time>
      </trkpt>
      <trkpt lat="47.68025" lon="-2.1067">
        <ele>44.812128</ele>
        <time>2022-12-14T15:59:36.353Z</time>
      </trkpt>
      <trkpt lat="47.68021" lon="-2.10652">
        <ele>45.021671</ele>
        <time>2022-12-14T15:59:39.345Z</time>
      </trkpt>
      <trkpt lat="47.68016" lon="-2.10635">
        <ele>45.095284</ele>
        <time>2022-12-14T15:59:42.412Z</time>
      </trkpt>
      <trkpt lat="47.68011" lon="-2.1062">
        <ele>45.128704</ele>
        <time>2022-12-14T15:59:45.354Z</time>
      </trkpt>
      <trkpt lat="47.68008" lon="-2.10606">
        <ele>45.160218</ele>
        <time>2022-12-14T15:59:48.347Z</time>
      </trkpt>
      <trkpt lat="47.68003" lon="-2.10591">
        <ele>45.193025</ele>
        <time>2022-12-14T15:59:51.341Z</time>
      </trkpt>
      <trkpt lat="47.67999" lon="-2.10575">
        <ele>45.228759</ele>
        <time>2022-12-14T15:59:54.341Z</time>
      </trkpt>
      <trkpt lat="47.67994" lon="-2.10559">
        <ele>45.265851</ele>
        <time>2022-12-14T15:59:57.335Z</time>
      </trkpt>
      <trkpt lat="47.67989" lon="-2.10542">
        <ele>45.302724</ele>
        <time>2022-12-14T16:00:00.336Z</time>
      </trkpt>
      <trkpt lat="47.67985" lon="-2.10525">
        <ele>45.341009</ele>
        <time>2022-12-14T16:00:03.337Z</time>
      </trkpt>
      <trkpt lat="47.6798" lon="-2.10509">
        <ele>45.375925</ele>
        <time>2022-12-14T16:00:06.341Z</time>
      </trkpt>
      <trkpt lat="47.67975" lon="-2.10495">
        <ele>45.408342</ele>
        <time>2022-12-14T16:00:09.342Z</time>
      </trkpt>
      <trkpt lat="47.67971" lon="-2.1048">
        <ele>45.441003</ele>
        <time>2022-12-14T16:00:13.347Z</time>
      </trkpt>
      <trkpt lat="47.67967" lon="-2.10465">
        <ele>45.476105</ele>
        <time>2022-12-14T16:00:17.354Z</time>
      </trkpt>
      <trkpt lat="47.67963" lon="-2.10451">
        <ele>45.507164</ele>
        <time>2022-12-14T16:00:20.357Z</time>
      </trkpt>
      <trkpt lat="47.67959" lon="-2.10436">
        <ele>45.540046</ele>
        <time>2022-12-14T16:00:23.348Z</time>
      </trkpt>
      <trkpt lat="47.67955" lon="-2.1042">
        <ele>45.574841</ele>
        <time>2022-12-14T16:00:26.339Z</time>
      </trkpt>
      <trkpt lat="47.6795" lon="-2.10403">
        <ele>45.612259</ele>
        <time>2022-12-14T16:00:29.358Z</time>
      </trkpt>
      <trkpt lat="47.67946" lon="-2.10387">
        <ele>45.498916</ele>
        <time>2022-12-14T16:00:32.337Z</time>
      </trkpt>
      <trkpt lat="47.67941" lon="-2.10372">
        <ele>45.380809</ele>
        <time>2022-12-14T16:00:35.359Z</time>
      </trkpt>
      <trkpt lat="47.67938" lon="-2.1036">
        <ele>45.280676</ele>
        <time>2022-12-14T16:00:38.361Z</time>
      </trkpt>
      <trkpt lat="47.67934" lon="-2.10347">
        <ele>45.1832</ele>
        <time>2022-12-14T16:00:41.342Z</time>
      </trkpt>
      <trkpt lat="47.67929" lon="-2.10331">
        <ele>45.055002</ele>
        <time>2022-12-14T16:00:45.362Z</time>
      </trkpt>
      <trkpt lat="47.67925" lon="-2.10318">
        <ele>44.950266</ele>
        <time>2022-12-14T16:00:48.340Z</time>
      </trkpt>
      <trkpt lat="47.67921" lon="-2.10303">
        <ele>44.829745</ele>
        <time>2022-12-14T16:00:52.351Z</time>
      </trkpt>
      <trkpt lat="47.67917" lon="-2.10289">
        <ele>44.720628</ele>
        <time>2022-12-14T16:00:55.351Z</time>
      </trkpt>
      <trkpt lat="47.67912" lon="-2.10275">
        <ele>44.610862</ele>
        <time>2022-12-14T16:00:58.364Z</time>
      </trkpt>
      <trkpt lat="47.67908" lon="-2.1026">
        <ele>44.492741</ele>
        <time>2022-12-14T16:01:01.339Z</time>
      </trkpt>
      <trkpt lat="47.67903" lon="-2.10245">
        <ele>44.370651</ele>
        <time>2022-12-14T16:01:04.355Z</time>
      </trkpt>
      <trkpt lat="47.67899" lon="-2.10229">
        <ele>44.247359</ele>
        <time>2022-12-14T16:01:07.357Z</time>
      </trkpt>
      <trkpt lat="47.67894" lon="-2.10212">
        <ele>44.114435</ele>
        <time>2022-12-14T16:01:10.425Z</time>
      </trkpt>
      <trkpt lat="47.6789" lon="-2.10194">
        <ele>43.98084</ele>
        <time>2022-12-14T16:01:13.335Z</time>
      </trkpt>
      <trkpt lat="47.67886" lon="-2.10179">
        <ele>43.860901</ele>
        <time>2022-12-14T16:01:16.353Z</time>
      </trkpt>
      <trkpt lat="47.67881" lon="-2.10164">
        <ele>43.742793</ele>
        <time>2022-12-14T16:01:19.362Z</time>
      </trkpt>
      <trkpt lat="47.67876" lon="-2.10149">
        <ele>43.727548</ele>
        <time>2022-12-14T16:01:22.346Z</time>
      </trkpt>
      <trkpt lat="47.67871" lon="-2.10134">
        <ele>43.80366</ele>
        <time>2022-12-14T16:01:25.357Z</time>
      </trkpt>
      <trkpt lat="47.67866" lon="-2.10116">
        <ele>43.89182</ele>
        <time>2022-12-14T16:01:28.329Z</time>
      </trkpt>
      <trkpt lat="47.67862" lon="-2.10098">
        <ele>43.97862</ele>
        <time>2022-12-14T16:01:31.351Z</time>
      </trkpt>
      <trkpt lat="47.67858" lon="-2.10083">
        <ele>44.050226</ele>
        <time>2022-12-14T16:01:34.331Z</time>
      </trkpt>
      <trkpt lat="47.67854" lon="-2.1007">
        <ele>44.118252</ele>
        <time>2022-12-14T16:01:37.408Z</time>
      </trkpt>
      <trkpt lat="47.6785" lon="-2.10054">
        <ele>44.195887</ele>
        <time>2022-12-14T16:01:40.352Z</time>
      </trkpt>
      <trkpt lat="47.67845" lon="-2.10037">
        <ele>44.279104</ele>
        <time>2022-12-14T16:01:43.345Z</time>
      </trkpt>
      <trkpt lat="47.6784" lon="-2.10019">
        <ele>44.369362</ele>
        <time>2022-12-14T16:01:46.367Z</time>
      </trkpt>
      <trkpt lat="47.67837" lon="-2.10006">
        <ele>44.433029</ele>
        <time>2022-12-14T16:01:48.377Z</time>
      </trkpt>
      <trkpt lat="47.67833" lon="-2.09991">
        <ele>44.505716</ele>
        <time>2022-12-14T16:01:50.349Z</time>
      </trkpt>
      <trkpt lat="47.67828" lon="-2.09971">
        <ele>44.59988</ele>
        <time>2022-12-14T16:01:53.357Z</time>
      </trkpt>
      <trkpt lat="47.67823" lon="-2.09953">
        <ele>44.690689</ele>
        <time>2022-12-14T16:01:56.357Z</time>
      </trkpt>
      <trkpt lat="47.67818" lon="-2.09937">
        <ele>44.770436</ele>
        <time>2022-12-14T16:01:59.331Z</time>
      </trkpt>
      <trkpt lat="47.67814" lon="-2.0992">
        <ele>44.854501</ele>
        <time>2022-12-14T16:02:02.358Z</time>
      </trkpt>
      <trkpt lat="47.67808" lon="-2.09903">
        <ele>44.925591</ele>
        <time>2022-12-14T16:02:05.356Z</time>
      </trkpt>
      <trkpt lat="47.67803" lon="-2.09886">
        <ele>44.974985</ele>
        <time>2022-12-14T16:02:08.362Z</time>
      </trkpt>
      <trkpt lat="47.67799" lon="-2.09869">
        <ele>45.023724</ele>
        <time>2022-12-14T16:02:11.332Z</time>
      </trkpt>
      <trkpt lat="47.67795" lon="-2.09852">
        <ele>45.070152</ele>
        <time>2022-12-14T16:02:14.372Z</time>
      </trkpt>
      <trkpt lat="47.67791" lon="-2.0984">
        <ele>45.10764</ele>
        <time>2022-12-14T16:02:17.341Z</time>
      </trkpt>
      <trkpt lat="47.67788" lon="-2.09826">
        <ele>45.146299</ele>
        <time>2022-12-14T16:02:20.331Z</time>
      </trkpt>
      <trkpt lat="47.67784" lon="-2.09811">
        <ele>45.188947</ele>
        <time>2022-12-14T16:02:23.364Z</time>
      </trkpt>
      <trkpt lat="47.6778" lon="-2.09796">
        <ele>45.232937</ele>
        <time>2022-12-14T16:02:26.361Z</time>
      </trkpt>
      <trkpt lat="47.67775" lon="-2.09779">
        <ele>45.281194</ele>
        <time>2022-12-14T16:02:29.349Z</time>
      </trkpt>
      <trkpt lat="47.6777" lon="-2.09764">
        <ele>45.324755</ele>
        <time>2022-12-14T16:02:32.362Z</time>
      </trkpt>
      <trkpt lat="47.67766" lon="-2.09747">
        <ele>45.373256</ele>
        <time>2022-12-14T16:02:35.339Z</time>
      </trkpt>
      <trkpt lat="47.6776" lon="-2.09731">
        <ele>45.422651</ele>
        <time>2022-12-14T16:02:38.361Z</time>
      </trkpt>
      <trkpt lat="47.67755" lon="-2.09714">
        <ele>45.47173</ele>
        <time>2022-12-14T16:02:41.404Z</time>
      </trkpt>
      <trkpt lat="47.67752" lon="-2.09699">
        <ele>45.511346</ele>
        <time>2022-12-14T16:02:44.359Z</time>
      </trkpt>
      <trkpt lat="47.67748" lon="-2.09686">
        <ele>45.550795</ele>
        <time>2022-12-14T16:02:48.354Z</time>
      </trkpt>
      <trkpt lat="47.67744" lon="-2.09671">
        <ele>45.593401</ele>
        <time>2022-12-14T16:02:52.365Z</time>
      </trkpt>
      <trkpt lat="47.6774" lon="-2.09659">
        <ele>45.634842</ele>
        <time>2022-12-14T16:02:55.340Z</time>
      </trkpt>
      <trkpt lat="47.67737" lon="-2.09646">
        <ele>45.683534</ele>
        <time>2022-12-14T16:02:58.337Z</time>
      </trkpt>
      <trkpt lat="47.67733" lon="-2.09634">
        <ele>45.733775</ele>
        <time>2022-12-14T16:03:01.333Z</time>
      </trkpt>
      <trkpt lat="47.67729" lon="-2.09619">
        <ele>45.787543</ele>
        <time>2022-12-14T16:03:04.344Z</time>
      </trkpt>
      <trkpt lat="47.67726" lon="-2.09605">
        <ele>45.842845</ele>
        <time>2022-12-14T16:03:07.347Z</time>
      </trkpt>
      <trkpt lat="47.67724" lon="-2.09591">
        <ele>45.894496</ele>
        <time>2022-12-14T16:03:10.355Z</time>
      </trkpt>
      <trkpt lat="47.6772" lon="-2.09577">
        <ele>45.948426</ele>
        <time>2022-12-14T16:03:13.427Z</time>
      </trkpt>
      <trkpt lat="47.67716" lon="-2.0956">
        <ele>46.01228</ele>
        <time>2022-12-14T16:03:16.362Z</time>
      </trkpt>
      <trkpt lat="47.67711" lon="-2.09543">
        <ele>46.078791</ele>
        <time>2022-12-14T16:03:19.350Z</time>
      </trkpt>
      <trkpt lat="47.67706" lon="-2.09526">
        <ele>46.144767</ele>
        <time>2022-12-14T16:03:22.362Z</time>
      </trkpt>
      <trkpt lat="47.67702" lon="-2.09511">
        <ele>46.202966</ele>
        <time>2022-12-14T16:03:25.333Z</time>
      </trkpt>
      <trkpt lat="47.67699" lon="-2.09498">
        <ele>46.252366</ele>
        <time>2022-12-14T16:03:28.335Z</time>
      </trkpt>
      <trkpt lat="47.67695" lon="-2.09485">
        <ele>46.301964</ele>
        <time>2022-12-14T16:03:31.356Z</time>
      </trkpt>
      <trkpt lat="47.67691" lon="-2.09471">
        <ele>46.359174</ele>
        <time>2022-12-14T16:03:34.335Z</time>
      </trkpt>
      <trkpt lat="47.67686" lon="-2.09457">
        <ele>46.417148</ele>
        <time>2022-12-14T16:03:37.351Z</time>
      </trkpt>
      <trkpt lat="47.67681" lon="-2.09444">
        <ele>46.469008</ele>
        <time>2022-12-14T16:03:40.394Z</time>
      </trkpt>
      <trkpt lat="47.67675" lon="-2.09433">
        <ele>46.519336</ele>
        <time>2022-12-14T16:03:43.361Z</time>
      </trkpt>
      <trkpt lat="47.67669" lon="-2.09419">
        <ele>46.573438</ele>
        <time>2022-12-14T16:03:46.335Z</time>
      </trkpt>
      <trkpt lat="47.67661" lon="-2.09405">
        <ele>46.515432</ele>
        <time>2022-12-14T16:03:49.358Z</time>
      </trkpt>
      <trkpt lat="47.67654" lon="-2.09391">
        <ele>46.460339</ele>
        <time>2022-12-14T16:03:52.367Z</time>
      </trkpt>
      <trkpt lat="47.67648" lon="-2.09377">
        <ele>46.409926</ele>
        <time>2022-12-14T16:03:55.342Z</time>
      </trkpt>
      <trkpt lat="47.67642" lon="-2.09366">
        <ele>46.36699</ele>
        <time>2022-12-14T16:03:58.350Z</time>
      </trkpt>
      <trkpt lat="47.67638" lon="-2.09354">
        <ele>46.324369</ele>
        <time>2022-12-14T16:04:01.364Z</time>
      </trkpt>
      <trkpt lat="47.67633" lon="-2.09339">
        <ele>46.272897</ele>
        <time>2022-12-14T16:04:04.353Z</time>
      </trkpt>
      <trkpt lat="47.67624" lon="-2.09329">
        <ele>46.221705</ele>
        <time>2022-12-14T16:04:07.350Z</time>
      </trkpt>
      <trkpt lat="47.67614" lon="-2.09322">
        <ele>46.169767</ele>
        <time>2022-12-14T16:04:10.356Z</time>
      </trkpt>
      <trkpt lat="47.67605" lon="-2.09315">
        <ele>46.124222</ele>
        <time>2022-12-14T16:04:14.352Z</time>
      </trkpt>
      <trkpt lat="47.67597" lon="-2.09308">
        <ele>46.080216</ele>
        <time>2022-12-14T16:04:18.399Z</time>
      </trkpt>
      <trkpt lat="47.6759" lon="-2.093">
        <ele>46.036609</ele>
        <time>2022-12-14T16:04:21.369Z</time>
      </trkpt>
      <trkpt lat="47.67582" lon="-2.09291">
        <ele>45.992075</ele>
        <time>2022-12-14T16:04:24.343Z</time>
      </trkpt>
      <trkpt lat="47.67573" lon="-2.09281">
        <ele>45.943287</ele>
        <time>2022-12-14T16:04:27.365Z</time>
      </trkpt>
      <trkpt lat="47.67564" lon="-2.09272">
        <ele>45.891506</ele>
        <time>2022-12-14T16:04:30.335Z</time>
      </trkpt>
      <trkpt lat="47.67554" lon="-2.09262">
        <ele>45.837679</ele>
        <time>2022-12-14T16:04:33.361Z</time>
      </trkpt>
      <trkpt lat="47.67546" lon="-2.09253">
        <ele>45.788344</ele>
        <time>2022-12-14T16:04:36.348Z</time>
      </trkpt>
      <trkpt lat="47.67536" lon="-2.09242">
        <ele>45.73844</ele>
        <time>2022-12-14T16:04:39.358Z</time>
      </trkpt>
      <trkpt lat="47.67525" lon="-2.09231">
        <ele>45.705943</ele>
        <time>2022-12-14T16:04:42.364Z</time>
      </trkpt>
      <trkpt lat="47.67515" lon="-2.09219">
        <ele>45.673737</ele>
        <time>2022-12-14T16:04:45.351Z</time>
      </trkpt>
      <trkpt lat="47.67506" lon="-2.09208">
        <ele>45.644069</ele>
        <time>2022-12-14T16:04:48.354Z</time>
      </trkpt>
      <trkpt lat="47.67496" lon="-2.09197">
        <ele>45.612573</ele>
        <time>2022-12-14T16:04:51.348Z</time>
      </trkpt>
      <trkpt lat="47.67486" lon="-2.09185">
        <ele>45.580083</ele>
        <time>2022-12-14T16:04:54.357Z</time>
      </trkpt>
      <trkpt lat="47.67479" lon="-2.09175">
        <ele>45.555402</ele>
        <time>2022-12-14T16:04:56.338Z</time>
      </trkpt>
      <trkpt lat="47.6747" lon="-2.09164">
        <ele>45.526509</ele>
        <time>2022-12-14T16:04:59.341Z</time>
      </trkpt>
      <trkpt lat="47.6746" lon="-2.09153">
        <ele>45.49676</ele>
        <time>2022-12-14T16:05:02.337Z</time>
      </trkpt>
      <trkpt lat="47.67451" lon="-2.09143">
        <ele>45.467801</ele>
        <time>2022-12-14T16:05:05.377Z</time>
      </trkpt>
      <trkpt lat="47.67441" lon="-2.09131">
        <ele>45.435021</ele>
        <time>2022-12-14T16:05:08.352Z</time>
      </trkpt>
      <trkpt lat="47.6743" lon="-2.09119">
        <ele>45.401847</ele>
        <time>2022-12-14T16:05:11.362Z</time>
      </trkpt>
      <trkpt lat="47.67421" lon="-2.09108">
        <ele>45.371292</ele>
        <time>2022-12-14T16:05:14.364Z</time>
      </trkpt>
      <trkpt lat="47.67411" lon="-2.09098">
        <ele>45.341947</ele>
        <time>2022-12-14T16:05:17.356Z</time>
      </trkpt>
      <trkpt lat="47.67404" lon="-2.0909">
        <ele>45.318535</ele>
        <time>2022-12-14T16:05:19.357Z</time>
      </trkpt>
      <trkpt lat="47.67394" lon="-2.09079">
        <ele>45.351037</ele>
        <time>2022-12-14T16:05:22.365Z</time>
      </trkpt>
      <trkpt lat="47.67384" lon="-2.09067">
        <ele>45.581487</ele>
        <time>2022-12-14T16:05:25.348Z</time>
      </trkpt>
      <trkpt lat="47.67375" lon="-2.09055">
        <ele>45.79493</ele>
        <time>2022-12-14T16:05:28.349Z</time>
      </trkpt>
      <trkpt lat="47.67366" lon="-2.09045">
        <ele>46.000061</ele>
        <time>2022-12-14T16:05:31.355Z</time>
      </trkpt>
      <trkpt lat="47.67357" lon="-2.09035">
        <ele>46.1952</ele>
        <time>2022-12-14T16:05:34.362Z</time>
      </trkpt>
      <trkpt lat="47.67348" lon="-2.09025">
        <ele>46.395054</ele>
        <time>2022-12-14T16:05:37.360Z</time>
      </trkpt>
      <trkpt lat="47.67338" lon="-2.09013">
        <ele>46.623839</ele>
        <time>2022-12-14T16:05:40.361Z</time>
      </trkpt>
      <trkpt lat="47.67328" lon="-2.09002">
        <ele>46.841884</ele>
        <time>2022-12-14T16:05:43.356Z</time>
      </trkpt>
      <trkpt lat="47.67321" lon="-2.08995">
        <ele>47.00478</ele>
        <time>2022-12-14T16:05:45.400Z</time>
      </trkpt>
      <trkpt lat="47.67311" lon="-2.08984">
        <ele>47.218584</ele>
        <time>2022-12-14T16:05:48.343Z</time>
      </trkpt>
      <trkpt lat="47.67302" lon="-2.08974">
        <ele>47.420832</ele>
        <time>2022-12-14T16:05:51.355Z</time>
      </trkpt>
      <trkpt lat="47.67294" lon="-2.08965">
        <ele>47.610274</ele>
        <time>2022-12-14T16:05:54.350Z</time>
      </trkpt>
      <trkpt lat="47.67284" lon="-2.08954">
        <ele>47.820419</ele>
        <time>2022-12-14T16:05:57.371Z</time>
      </trkpt>
      <trkpt lat="47.67274" lon="-2.08942">
        <ele>48.054404</ele>
        <time>2022-12-14T16:06:00.345Z</time>
      </trkpt>
      <trkpt lat="47.67264" lon="-2.0893">
        <ele>48.291113</ele>
        <time>2022-12-14T16:06:03.359Z</time>
      </trkpt>
      <trkpt lat="47.67253" lon="-2.0892">
        <ele>48.503118</ele>
        <time>2022-12-14T16:06:06.356Z</time>
      </trkpt>
      <trkpt lat="47.67245" lon="-2.08913">
        <ele>48.410712</ele>
        <time>2022-12-14T16:06:08.351Z</time>
      </trkpt>
      <trkpt lat="47.67238" lon="-2.08905">
        <ele>48.319614</ele>
        <time>2022-12-14T16:06:10.360Z</time>
      </trkpt>
      <trkpt lat="47.67228" lon="-2.08895">
        <ele>48.203392</ele>
        <time>2022-12-14T16:06:13.337Z</time>
      </trkpt>
      <trkpt lat="47.6722" lon="-2.08886">
        <ele>48.101366</ele>
        <time>2022-12-14T16:06:16.363Z</time>
      </trkpt>
      <trkpt lat="47.67211" lon="-2.08877">
        <ele>47.990721</ele>
        <time>2022-12-14T16:06:19.361Z</time>
      </trkpt>
      <trkpt lat="47.67201" lon="-2.08869">
        <ele>47.878635</ele>
        <time>2022-12-14T16:06:22.362Z</time>
      </trkpt>
      <trkpt lat="47.67192" lon="-2.08863">
        <ele>47.774364</ele>
        <time>2022-12-14T16:06:25.356Z</time>
      </trkpt>
      <trkpt lat="47.6718" lon="-2.08856">
        <ele>47.648496</ele>
        <time>2022-12-14T16:06:28.346Z</time>
      </trkpt>
      <trkpt lat="47.67169" lon="-2.0885">
        <ele>47.528643</ele>
        <time>2022-12-14T16:06:31.356Z</time>
      </trkpt>
      <trkpt lat="47.67156" lon="-2.08845">
        <ele>47.392231</ele>
        <time>2022-12-14T16:06:34.342Z</time>
      </trkpt>
      <trkpt lat="47.67147" lon="-2.08842">
        <ele>47.296103</ele>
        <time>2022-12-14T16:06:36.364Z</time>
      </trkpt>
      <trkpt lat="47.67137" lon="-2.0884">
        <ele>47.202643</ele>
        <time>2022-12-14T16:06:38.364Z</time>
      </trkpt>
      <trkpt lat="47.67125" lon="-2.08837">
        <ele>47.072255</ele>
        <time>2022-12-14T16:06:41.356Z</time>
      </trkpt>
      <trkpt lat="47.67114" lon="-2.08835">
        <ele>46.966108</ele>
        <time>2022-12-14T16:06:44.353Z</time>
      </trkpt>
      <trkpt lat="47.67103" lon="-2.08833">
        <ele>46.850413</ele>
        <time>2022-12-14T16:06:48.359Z</time>
      </trkpt>
      <trkpt lat="47.67093" lon="-2.08832">
        <ele>46.755414</ele>
        <time>2022-12-14T16:06:51.352Z</time>
      </trkpt>
      <trkpt lat="47.67082" lon="-2.08832">
        <ele>46.602621</ele>
        <time>2022-12-14T16:06:54.360Z</time>
      </trkpt>
      <trkpt lat="47.6707" lon="-2.08833">
        <ele>46.387306</ele>
        <time>2022-12-14T16:06:57.331Z</time>
      </trkpt>
      <trkpt lat="47.67057" lon="-2.08835">
        <ele>46.160429</ele>
        <time>2022-12-14T16:07:00.354Z</time>
      </trkpt>
      <trkpt lat="47.67044" lon="-2.08839">
        <ele>45.925928</ele>
        <time>2022-12-14T16:07:03.351Z</time>
      </trkpt>
      <trkpt lat="47.67033" lon="-2.08844">
        <ele>45.716442</ele>
        <time>2022-12-14T16:07:06.365Z</time>
      </trkpt>
      <trkpt lat="47.67022" lon="-2.08848">
        <ele>45.519875</ele>
        <time>2022-12-14T16:07:09.354Z</time>
      </trkpt>
      <trkpt lat="47.67011" lon="-2.08852">
        <ele>45.307569</ele>
        <time>2022-12-14T16:07:12.367Z</time>
      </trkpt>
      <trkpt lat="47.67001" lon="-2.08856">
        <ele>45.121088</ele>
        <time>2022-12-14T16:07:15.342Z</time>
      </trkpt>
      <trkpt lat="47.6699" lon="-2.08862">
        <ele>44.913692</ele>
        <time>2022-12-14T16:07:18.406Z</time>
      </trkpt>
      <trkpt lat="47.6698" lon="-2.08867">
        <ele>44.726197</ele>
        <time>2022-12-14T16:07:21.358Z</time>
      </trkpt>
      <trkpt lat="47.66971" lon="-2.08873">
        <ele>44.554555</ele>
        <time>2022-12-14T16:07:24.344Z</time>
      </trkpt>
      <trkpt lat="47.6696" lon="-2.0888">
        <ele>44.346999</ele>
        <time>2022-12-14T16:07:27.355Z</time>
      </trkpt>
      <trkpt lat="47.6695" lon="-2.0889">
        <ele>44.131102</ele>
        <time>2022-12-14T16:07:30.349Z</time>
      </trkpt>
      <trkpt lat="47.66939" lon="-2.089">
        <ele>43.908409</ele>
        <time>2022-12-14T16:07:33.359Z</time>
      </trkpt>
      <trkpt lat="47.66929" lon="-2.08911">
        <ele>43.683456</ele>
        <time>2022-12-14T16:07:36.354Z</time>
      </trkpt>
      <trkpt lat="47.66919" lon="-2.08922">
        <ele>43.570972</ele>
        <time>2022-12-14T16:07:39.348Z</time>
      </trkpt>
      <trkpt lat="47.6691" lon="-2.08935">
        <ele>43.867872</ele>
        <time>2022-12-14T16:07:42.356Z</time>
      </trkpt>
      <trkpt lat="47.66901" lon="-2.08948">
        <ele>44.165028</ele>
        <time>2022-12-14T16:07:45.420Z</time>
      </trkpt>
      <trkpt lat="47.66894" lon="-2.08957">
        <ele>44.382632</ele>
        <time>2022-12-14T16:07:48.368Z</time>
      </trkpt>
      <trkpt lat="47.66886" lon="-2.0897">
        <ele>44.669623</ele>
        <time>2022-12-14T16:07:51.341Z</time>
      </trkpt>
      <trkpt lat="47.66877" lon="-2.08984">
        <ele>44.975406</ele>
        <time>2022-12-14T16:07:54.339Z</time>
      </trkpt>
      <trkpt lat="47.66869" lon="-2.08998">
        <ele>45.281219</ele>
        <time>2022-12-14T16:07:57.336Z</time>
      </trkpt>
      <trkpt lat="47.66862" lon="-2.09011">
        <ele>45.548447</ele>
        <time>2022-12-14T16:08:00.354Z</time>
      </trkpt>
      <trkpt lat="47.66855" lon="-2.09025">
        <ele>45.827161</ele>
        <time>2022-12-14T16:08:03.354Z</time>
      </trkpt>
      <trkpt lat="47.66848" lon="-2.0904">
        <ele>46.135349</ele>
        <time>2022-12-14T16:08:06.357Z</time>
      </trkpt>
      <trkpt lat="47.6684" lon="-2.09056">
        <ele>46.446184</ele>
        <time>2022-12-14T16:08:09.356Z</time>
      </trkpt>
      <trkpt lat="47.66835" lon="-2.09067">
        <ele>46.668659</ele>
        <time>2022-12-14T16:08:11.364Z</time>
      </trkpt>
      <trkpt lat="47.66829" lon="-2.09078">
        <ele>46.888806</ele>
        <time>2022-12-14T16:08:13.362Z</time>
      </trkpt>
      <trkpt lat="47.66823" lon="-2.09091">
        <ele>47.140847</ele>
        <time>2022-12-14T16:08:15.363Z</time>
      </trkpt>
      <trkpt lat="47.66818" lon="-2.09102">
        <ele>47.364637</ele>
        <time>2022-12-14T16:08:17.350Z</time>
      </trkpt>
      <trkpt lat="47.66811" lon="-2.09117">
        <ele>47.651436</ele>
        <time>2022-12-14T16:08:20.368Z</time>
      </trkpt>
      <trkpt lat="47.66805" lon="-2.0913">
        <ele>47.837597</ele>
        <time>2022-12-14T16:08:23.340Z</time>
      </trkpt>
      <trkpt lat="47.668" lon="-2.09142">
        <ele>47.883651</ele>
        <time>2022-12-14T16:08:26.362Z</time>
      </trkpt>
      <trkpt lat="47.66795" lon="-2.09154">
        <ele>47.934735</ele>
        <time>2022-12-14T16:08:29.343Z</time>
      </trkpt>
      <trkpt lat="47.66789" lon="-2.09168">
        <ele>47.990548</ele>
        <time>2022-12-14T16:08:32.360Z</time>
      </trkpt>
      <trkpt lat="47.66783" lon="-2.09182">
        <ele>48.042543</ele>
        <time>2022-12-14T16:08:35.369Z</time>
      </trkpt>
      <trkpt lat="47.66778" lon="-2.09195">
        <ele>48.093607</ele>
        <time>2022-12-14T16:08:38.348Z</time>
      </trkpt>
      <trkpt lat="47.66772" lon="-2.0921">
        <ele>48.15612</ele>
        <time>2022-12-14T16:08:41.358Z</time>
      </trkpt>
      <trkpt lat="47.66765" lon="-2.09225">
        <ele>48.216399</ele>
        <time>2022-12-14T16:08:44.370Z</time>
      </trkpt>
      <trkpt lat="47.66757" lon="-2.0924">
        <ele>48.279554</ele>
        <time>2022-12-14T16:08:47.343Z</time>
      </trkpt>
      <trkpt lat="47.66749" lon="-2.09256">
        <ele>48.346135</ele>
        <time>2022-12-14T16:08:50.351Z</time>
      </trkpt>
      <trkpt lat="47.66743" lon="-2.09267">
        <ele>48.394463</ele>
        <time>2022-12-14T16:08:52.348Z</time>
      </trkpt>
      <trkpt lat="47.66737" lon="-2.09277">
        <ele>48.440794</ele>
        <time>2022-12-14T16:08:54.352Z</time>
      </trkpt>
      <trkpt lat="47.66729" lon="-2.09293">
        <ele>48.504431</ele>
        <time>2022-12-14T16:08:57.362Z</time>
      </trkpt>
      <trkpt lat="47.66722" lon="-2.09307">
        <ele>48.565611</ele>
        <time>2022-12-14T16:09:00.363Z</time>
      </trkpt>
      <trkpt lat="47.66715" lon="-2.09323">
        <ele>48.63036</ele>
        <time>2022-12-14T16:09:03.358Z</time>
      </trkpt>
      <trkpt lat="47.66709" lon="-2.09334">
        <ele>48.676691</ele>
        <time>2022-12-14T16:09:05.353Z</time>
      </trkpt>
      <trkpt lat="47.66702" lon="-2.09349">
        <ele>48.696619</ele>
        <time>2022-12-14T16:09:08.342Z</time>
      </trkpt>
      <trkpt lat="47.66696" lon="-2.09362">
        <ele>48.644158</ele>
        <time>2022-12-14T16:09:11.360Z</time>
      </trkpt>
      <trkpt lat="47.6669" lon="-2.09374">
        <ele>48.595955</ele>
        <time>2022-12-14T16:09:14.363Z</time>
      </trkpt>
      <trkpt lat="47.66684" lon="-2.09386">
        <ele>48.545692</ele>
        <time>2022-12-14T16:09:17.356Z</time>
      </trkpt>
      <trkpt lat="47.66678" lon="-2.09397">
        <ele>48.496479</ele>
        <time>2022-12-14T16:09:20.368Z</time>
      </trkpt>
      <trkpt lat="47.66672" lon="-2.09412">
        <ele>48.438467</ele>
        <time>2022-12-14T16:09:23.357Z</time>
      </trkpt>
      <trkpt lat="47.66666" lon="-2.09425">
        <ele>48.386003</ele>
        <time>2022-12-14T16:09:26.366Z</time>
      </trkpt>
      <trkpt lat="47.66658" lon="-2.09439">
        <ele>48.326709</ele>
        <time>2022-12-14T16:09:29.350Z</time>
      </trkpt>
      <trkpt lat="47.6665" lon="-2.09453">
        <ele>48.266352</ele>
        <time>2022-12-14T16:09:32.348Z</time>
      </trkpt>
      <trkpt lat="47.66644" lon="-2.09466">
        <ele>48.210283</ele>
        <time>2022-12-14T16:09:35.342Z</time>
      </trkpt>
      <trkpt lat="47.66639" lon="-2.09478">
        <ele>48.162534</ele>
        <time>2022-12-14T16:09:38.363Z</time>
      </trkpt>
      <trkpt lat="47.66632" lon="-2.09492">
        <ele>48.105016</ele>
        <time>2022-12-14T16:09:41.365Z</time>
      </trkpt>
      <trkpt lat="47.66626" lon="-2.09505">
        <ele>48.052786</ele>
        <time>2022-12-14T16:09:44.339Z</time>
      </trkpt>
      <trkpt lat="47.66619" lon="-2.09521">
        <ele>47.988931</ele>
        <time>2022-12-14T16:09:47.350Z</time>
      </trkpt>
      <trkpt lat="47.66612" lon="-2.09536">
        <ele>47.92781</ele>
        <time>2022-12-14T16:09:50.353Z</time>
      </trkpt>
      <trkpt lat="47.66605" lon="-2.09551">
        <ele>47.866743</ele>
        <time>2022-12-14T16:09:53.339Z</time>
      </trkpt>
      <trkpt lat="47.66599" lon="-2.09565">
        <ele>47.80336</ele>
        <time>2022-12-14T16:09:56.357Z</time>
      </trkpt>
      <trkpt lat="47.66593" lon="-2.09579">
        <ele>47.708837</ele>
        <time>2022-12-14T16:09:59.358Z</time>
      </trkpt>
      <trkpt lat="47.66586" lon="-2.09592">
        <ele>47.619147</ele>
        <time>2022-12-14T16:10:02.335Z</time>
      </trkpt>
      <trkpt lat="47.66578" lon="-2.09605">
        <ele>47.52295</ele>
        <time>2022-12-14T16:10:06.361Z</time>
      </trkpt>
      <trkpt lat="47.66572" lon="-2.09618">
        <ele>47.436656</ele>
        <time>2022-12-14T16:10:10.417Z</time>
      </trkpt>
      <trkpt lat="47.66565" lon="-2.09632">
        <ele>47.337989</ele>
        <time>2022-12-14T16:10:14.339Z</time>
      </trkpt>
      <trkpt lat="47.6656" lon="-2.09645">
        <ele>47.257114</ele>
        <time>2022-12-14T16:10:17.343Z</time>
      </trkpt>
      <trkpt lat="47.66552" lon="-2.09659">
        <ele>47.159984</ele>
        <time>2022-12-14T16:10:20.340Z</time>
      </trkpt>
      <trkpt lat="47.66544" lon="-2.09673">
        <ele>47.058318</ele>
        <time>2022-12-14T16:10:23.333Z</time>
      </trkpt>
      <trkpt lat="47.66537" lon="-2.09687">
        <ele>46.962641</ele>
        <time>2022-12-14T16:10:26.403Z</time>
      </trkpt>
      <trkpt lat="47.6653" lon="-2.09702">
        <ele>46.859903</ele>
        <time>2022-12-14T16:10:29.365Z</time>
      </trkpt>
      <trkpt lat="47.66524" lon="-2.09715">
        <ele>46.771365</ele>
        <time>2022-12-14T16:10:32.329Z</time>
      </trkpt>
      <trkpt lat="47.66517" lon="-2.09727">
        <ele>46.684139</ele>
        <time>2022-12-14T16:10:35.330Z</time>
      </trkpt>
      <trkpt lat="47.6651" lon="-2.09738">
        <ele>46.60343</ele>
        <time>2022-12-14T16:10:38.340Z</time>
      </trkpt>
      <trkpt lat="47.66502" lon="-2.09751">
        <ele>46.506801</ele>
        <time>2022-12-14T16:10:42.342Z</time>
      </trkpt>
      <trkpt lat="47.66494" lon="-2.09763">
        <ele>46.416064</ele>
        <time>2022-12-14T16:10:45.344Z</time>
      </trkpt>
      <trkpt lat="47.66486" lon="-2.09775">
        <ele>46.391423</ele>
        <time>2022-12-14T16:10:48.365Z</time>
      </trkpt>
      <trkpt lat="47.66477" lon="-2.09788">
        <ele>46.493322</ele>
        <time>2022-12-14T16:10:51.349Z</time>
      </trkpt>
      <trkpt lat="47.66466" lon="-2.09798">
        <ele>46.597303</ele>
        <time>2022-12-14T16:10:54.362Z</time>
      </trkpt>
      <trkpt lat="47.66455" lon="-2.09806">
        <ele>46.702242</ele>
        <time>2022-12-14T16:10:57.339Z</time>
      </trkpt>
      <trkpt lat="47.66443" lon="-2.09813">
        <ele>46.810352</ele>
        <time>2022-12-14T16:11:00.355Z</time>
      </trkpt>
      <trkpt lat="47.66431" lon="-2.0982">
        <ele>46.91739</ele>
        <time>2022-12-14T16:11:03.415Z</time>
      </trkpt>
      <trkpt lat="47.6642" lon="-2.09827">
        <ele>47.016328</ele>
        <time>2022-12-14T16:11:06.367Z</time>
      </trkpt>
      <trkpt lat="47.6641" lon="-2.09833">
        <ele>47.106439</ele>
        <time>2022-12-14T16:11:09.349Z</time>
      </trkpt>
      <trkpt lat="47.66399" lon="-2.0984">
        <ele>47.205932</ele>
        <time>2022-12-14T16:11:12.363Z</time>
      </trkpt>
      <trkpt lat="47.6639" lon="-2.09845">
        <ele>47.285922</ele>
        <time>2022-12-14T16:11:14.361Z</time>
      </trkpt>
      <trkpt lat="47.66381" lon="-2.0985">
        <ele>47.363385</ele>
        <time>2022-12-14T16:11:16.355Z</time>
      </trkpt>
      <trkpt lat="47.6637" lon="-2.09857">
        <ele>47.468126</ele>
        <time>2022-12-14T16:11:19.373Z</time>
      </trkpt>
      <trkpt lat="47.66359" lon="-2.09862">
        <ele>47.562401</ele>
        <time>2022-12-14T16:11:22.363Z</time>
      </trkpt>
      <trkpt lat="47.66349" lon="-2.09868">
        <ele>47.644723</ele>
        <time>2022-12-14T16:11:25.365Z</time>
      </trkpt>
      <trkpt lat="47.6634" lon="-2.09873">
        <ele>47.726266</ele>
        <time>2022-12-14T16:11:28.347Z</time>
      </trkpt>
      <trkpt lat="47.6633" lon="-2.0988">
        <ele>47.819807</ele>
        <time>2022-12-14T16:11:31.351Z</time>
      </trkpt>
      <trkpt lat="47.6632" lon="-2.09885">
        <ele>47.701342</ele>
        <time>2022-12-14T16:11:34.355Z</time>
      </trkpt>
      <trkpt lat="47.66311" lon="-2.09889">
        <ele>47.511241</ele>
        <time>2022-12-14T16:11:37.338Z</time>
      </trkpt>
      <trkpt lat="47.66301" lon="-2.09895">
        <ele>47.275009</ele>
        <time>2022-12-14T16:11:41.408Z</time>
      </trkpt>
      <trkpt lat="47.66291" lon="-2.099">
        <ele>47.059027</ele>
        <time>2022-12-14T16:11:45.350Z</time>
      </trkpt>
      <trkpt lat="47.66282" lon="-2.09906">
        <ele>46.851553</ele>
        <time>2022-12-14T16:11:48.339Z</time>
      </trkpt>
      <trkpt lat="47.66273" lon="-2.09913">
        <ele>46.654719</ele>
        <time>2022-12-14T16:11:51.367Z</time>
      </trkpt>
      <trkpt lat="47.66265" lon="-2.09921">
        <ele>46.442072</ele>
        <time>2022-12-14T16:11:55.362Z</time>
      </trkpt>
      <trkpt lat="47.66255" lon="-2.09927">
        <ele>46.226597</ele>
        <time>2022-12-14T16:11:59.346Z</time>
      </trkpt>
      <trkpt lat="47.66246" lon="-2.09933">
        <ele>46.018903</ele>
        <time>2022-12-14T16:12:02.377Z</time>
      </trkpt>
      <trkpt lat="47.66235" lon="-2.09939">
        <ele>45.779194</ele>
        <time>2022-12-14T16:12:05.359Z</time>
      </trkpt>
      <trkpt lat="47.66224" lon="-2.09946">
        <ele>45.533692</ele>
        <time>2022-12-14T16:12:08.338Z</time>
      </trkpt>
      <trkpt lat="47.66212" lon="-2.09953">
        <ele>45.253009</ele>
        <time>2022-12-14T16:12:11.365Z</time>
      </trkpt>
      <trkpt lat="47.662" lon="-2.09961">
        <ele>44.981913</ele>
        <time>2022-12-14T16:12:14.377Z</time>
      </trkpt>
      <trkpt lat="47.66192" lon="-2.09966">
        <ele>44.791703</ele>
        <time>2022-12-14T16:12:16.340Z</time>
      </trkpt>
      <trkpt lat="47.66183" lon="-2.09972">
        <ele>44.594368</ele>
        <time>2022-12-14T16:12:18.333Z</time>
      </trkpt>
      <trkpt lat="47.6617" lon="-2.09979">
        <ele>44.312802</ele>
        <time>2022-12-14T16:12:21.366Z</time>
      </trkpt>
      <trkpt lat="47.66159" lon="-2.09987">
        <ele>44.139707</ele>
        <time>2022-12-14T16:12:24.347Z</time>
      </trkpt>
      <trkpt lat="47.66149" lon="-2.09993">
        <ele>44.275433</ele>
        <time>2022-12-14T16:12:27.362Z</time>
      </trkpt>
      <trkpt lat="47.66138" lon="-2.09999">
        <ele>44.428077</ele>
        <time>2022-12-14T16:12:30.359Z</time>
      </trkpt>
      <trkpt lat="47.66127" lon="-2.10005">
        <ele>44.575562</ele>
        <time>2022-12-14T16:12:33.345Z</time>
      </trkpt>
      <trkpt lat="47.66115" lon="-2.10011">
        <ele>44.733359</ele>
        <time>2022-12-14T16:12:36.343Z</time>
      </trkpt>
      <trkpt lat="47.66102" lon="-2.10015">
        <ele>44.892642</ele>
        <time>2022-12-14T16:12:39.354Z</time>
      </trkpt>
      <trkpt lat="47.66093" lon="-2.10018">
        <ele>45.011491</ele>
        <time>2022-12-14T16:12:41.351Z</time>
      </trkpt>
      <trkpt lat="47.66084" lon="-2.10021">
        <ele>45.130174</ele>
        <time>2022-12-14T16:12:43.336Z</time>
      </trkpt>
      <trkpt lat="47.66075" lon="-2.10024">
        <ele>45.246742</ele>
        <time>2022-12-14T16:12:45.358Z</time>
      </trkpt>
      <trkpt lat="47.66066" lon="-2.10027">
        <ele>45.360017</ele>
        <time>2022-12-14T16:12:47.344Z</time>
      </trkpt>
      <trkpt lat="47.66057" lon="-2.1003">
        <ele>45.481393</ele>
        <time>2022-12-14T16:12:49.339Z</time>
      </trkpt>
      <trkpt lat="47.66044" lon="-2.10034">
        <ele>45.645485</ele>
        <time>2022-12-14T16:12:52.359Z</time>
      </trkpt>
      <trkpt lat="47.66035" lon="-2.10036">
        <ele>45.760699</ele>
        <time>2022-12-14T16:12:54.375Z</time>
      </trkpt>
      <trkpt lat="47.66025" lon="-2.10037">
        <ele>45.876233</ele>
        <time>2022-12-14T16:12:56.363Z</time>
      </trkpt>
      <trkpt lat="47.66013" lon="-2.10041">
        <ele>46.037128</ele>
        <time>2022-12-14T16:12:59.338Z</time>
      </trkpt>
      <trkpt lat="47.66001" lon="-2.10045">
        <ele>46.187312</ele>
        <time>2022-12-14T16:13:02.368Z</time>
      </trkpt>
      <trkpt lat="47.6599" lon="-2.10049">
        <ele>46.327166</ele>
        <time>2022-12-14T16:13:05.332Z</time>
      </trkpt>
      <trkpt lat="47.65978" lon="-2.10051">
        <ele>46.60876</ele>
        <time>2022-12-14T16:13:08.361Z</time>
      </trkpt>
      <trkpt lat="47.65966" lon="-2.10055">
        <ele>46.918293</ele>
        <time>2022-12-14T16:13:11.352Z</time>
      </trkpt>
      <trkpt lat="47.65953" lon="-2.10058">
        <ele>47.240291</ele>
        <time>2022-12-14T16:13:14.336Z</time>
      </trkpt>
      <trkpt lat="47.65941" lon="-2.10062">
        <ele>47.553138</ele>
        <time>2022-12-14T16:13:17.351Z</time>
      </trkpt>
      <trkpt lat="47.65932" lon="-2.10065">
        <ele>47.785608</ele>
        <time>2022-12-14T16:13:19.354Z</time>
      </trkpt>
      <trkpt lat="47.6592" lon="-2.10069">
        <ele>48.100771</ele>
        <time>2022-12-14T16:13:22.410Z</time>
      </trkpt>
      <trkpt lat="47.65909" lon="-2.10073">
        <ele>48.399294</ele>
        <time>2022-12-14T16:13:25.351Z</time>
      </trkpt>
      <trkpt lat="47.65898" lon="-2.10076">
        <ele>48.691513</ele>
        <time>2022-12-14T16:13:28.373Z</time>
      </trkpt>
      <trkpt lat="47.65886" lon="-2.10079">
        <ele>49.002837</ele>
        <time>2022-12-14T16:13:31.337Z</time>
      </trkpt>
      <trkpt lat="47.65873" lon="-2.10083">
        <ele>49.339769</ele>
        <time>2022-12-14T16:13:34.343Z</time>
      </trkpt>
      <trkpt lat="47.65864" lon="-2.10086">
        <ele>49.576451</ele>
        <time>2022-12-14T16:13:36.345Z</time>
      </trkpt>
      <trkpt lat="47.65855" lon="-2.10088">
        <ele>49.806178</ele>
        <time>2022-12-14T16:13:38.355Z</time>
      </trkpt>
      <trkpt lat="47.65845" lon="-2.10091">
        <ele>50.049649</ele>
        <time>2022-12-14T16:13:40.362Z</time>
      </trkpt>
      <trkpt lat="47.65833" lon="-2.10094">
        <ele>50.357186</ele>
        <time>2022-12-14T16:13:43.336Z</time>
      </trkpt>
      <trkpt lat="47.65822" lon="-2.10098">
        <ele>50.655469</ele>
        <time>2022-12-14T16:13:46.357Z</time>
      </trkpt>
      <trkpt lat="47.6581" lon="-2.10102">
        <ele>50.92571</ele>
        <time>2022-12-14T16:13:49.376Z</time>
      </trkpt>
      <trkpt lat="47.65797" lon="-2.10106">
        <ele>50.775748</ele>
        <time>2022-12-14T16:13:52.364Z</time>
      </trkpt>
      <trkpt lat="47.65784" lon="-2.1011">
        <ele>50.623727</ele>
        <time>2022-12-14T16:13:55.337Z</time>
      </trkpt>
      <trkpt lat="47.65771" lon="-2.10114">
        <ele>50.474538</ele>
        <time>2022-12-14T16:13:58.373Z</time>
      </trkpt>
      <trkpt lat="47.65761" lon="-2.10116">
        <ele>50.360634</ele>
        <time>2022-12-14T16:14:00.366Z</time>
      </trkpt>
      <trkpt lat="47.65751" lon="-2.10119">
        <ele>50.237518</ele>
        <time>2022-12-14T16:14:02.369Z</time>
      </trkpt>
      <trkpt lat="47.65738" lon="-2.10123">
        <ele>50.086918</ele>
        <time>2022-12-14T16:14:05.408Z</time>
      </trkpt>
      <trkpt lat="47.65725" lon="-2.10126">
        <ele>49.945253</ele>
        <time>2022-12-14T16:14:08.349Z</time>
      </trkpt>
      <trkpt lat="47.65714" lon="-2.1013">
        <ele>49.810365</ele>
        <time>2022-12-14T16:14:11.341Z</time>
      </trkpt>
      <trkpt lat="47.65703" lon="-2.10133">
        <ele>49.685785</ele>
        <time>2022-12-14T16:14:14.346Z</time>
      </trkpt>
      <trkpt lat="47.65693" lon="-2.10135">
        <ele>49.576832</ele>
        <time>2022-12-14T16:14:17.366Z</time>
      </trkpt>
      <trkpt lat="47.65682" lon="-2.10138">
        <ele>49.445747</ele>
        <time>2022-12-14T16:14:20.365Z</time>
      </trkpt>
      <trkpt lat="47.65671" lon="-2.10142">
        <ele>49.311628</ele>
        <time>2022-12-14T16:14:23.341Z</time>
      </trkpt>
      <trkpt lat="47.65659" lon="-2.10146">
        <ele>49.179719</ele>
        <time>2022-12-14T16:14:26.360Z</time>
      </trkpt>
      <trkpt lat="47.65647" lon="-2.1015">
        <ele>49.033248</ele>
        <time>2022-12-14T16:14:29.350Z</time>
      </trkpt>
      <trkpt lat="47.65634" lon="-2.10154">
        <ele>48.892317</ele>
        <time>2022-12-14T16:14:32.370Z</time>
      </trkpt>
      <trkpt lat="47.65624" lon="-2.10158">
        <ele>48.863039</ele>
        <time>2022-12-14T16:14:34.340Z</time>
      </trkpt>
      <trkpt lat="47.65613" lon="-2.10161">
        <ele>48.826806</ele>
        <time>2022-12-14T16:14:37.363Z</time>
      </trkpt>
      <trkpt lat="47.65602" lon="-2.10163">
        <ele>48.79509</ele>
        <time>2022-12-14T16:14:40.352Z</time>
      </trkpt>
      <trkpt lat="47.65593" lon="-2.10165">
        <ele>48.766514</ele>
        <time>2022-12-14T16:14:43.334Z</time>
      </trkpt>
      <trkpt lat="47.65584" lon="-2.10167">
        <ele>48.739279</ele>
        <time>2022-12-14T16:14:46.354Z</time>
      </trkpt>
      <trkpt lat="47.65574" lon="-2.10166">
        <ele>48.709166</ele>
        <time>2022-12-14T16:14:50.344Z</time>
      </trkpt>
      <trkpt lat="47.65565" lon="-2.10158">
        <ele>48.680311</ele>
        <time>2022-12-14T16:14:54.359Z</time>
      </trkpt>
      <trkpt lat="47.65557" lon="-2.10153">
        <ele>48.653121</ele>
        <time>2022-12-14T16:14:58.342Z</time>
      </trkpt>
      <trkpt lat="47.65548" lon="-2.10152">
        <ele>48.624572</ele>
        <time>2022-12-14T16:15:02.337Z</time>
      </trkpt>
      <trkpt lat="47.65538" lon="-2.10159">
        <ele>48.593678</ele>
        <time>2022-12-14T16:15:08.335Z</time>
      </trkpt>
      <trkpt lat="47.65531" lon="-2.10168">
        <ele>48.564449</ele>
        <time>2022-12-14T16:15:11.356Z</time>
      </trkpt>
      <trkpt lat="47.65521" lon="-2.1017">
        <ele>48.534218</ele>
        <time>2022-12-14T16:15:14.366Z</time>
      </trkpt>
      <trkpt lat="47.65511" lon="-2.1017">
        <ele>48.504551</ele>
        <time>2022-12-14T16:15:17.363Z</time>
      </trkpt>
      <trkpt lat="47.65501" lon="-2.10168">
        <ele>48.475608</ele>
        <time>2022-12-14T16:15:20.336Z</time>
      </trkpt>
      <trkpt lat="47.65489" lon="-2.10167">
        <ele>48.43923</ele>
        <time>2022-12-14T16:15:23.341Z</time>
      </trkpt>
      <trkpt lat="47.65477" lon="-2.10166">
        <ele>48.402078</ele>
        <time>2022-12-14T16:15:26.366Z</time>
      </trkpt>
      <trkpt lat="47.65466" lon="-2.10169">
        <ele>48.368527</ele>
        <time>2022-12-14T16:15:29.363Z</time>
      </trkpt>
      <trkpt lat="47.65456" lon="-2.10165">
        <ele>48.31345</ele>
        <time>2022-12-14T16:15:32.354Z</time>
      </trkpt>
      <trkpt lat="47.65447" lon="-2.10159">
        <ele>48.244726</ele>
        <time>2022-12-14T16:15:35.371Z</time>
      </trkpt>
      <trkpt lat="47.65438" lon="-2.10151">
        <ele>48.172159</ele>
        <time>2022-12-14T16:15:38.368Z</time>
      </trkpt>
      <trkpt lat="47.6543" lon="-2.10144">
        <ele>48.107563</ele>
        <time>2022-12-14T16:15:41.369Z</time>
      </trkpt>
      <trkpt lat="47.65421" lon="-2.10136">
        <ele>48.028313</ele>
        <time>2022-12-14T16:15:44.346Z</time>
      </trkpt>
      <trkpt lat="47.6541" lon="-2.10127">
        <ele>47.941301</ele>
        <time>2022-12-14T16:15:47.352Z</time>
      </trkpt>
      <trkpt lat="47.65399" lon="-2.10119">
        <ele>47.850729</ele>
        <time>2022-12-14T16:15:50.361Z</time>
      </trkpt>
      <trkpt lat="47.65388" lon="-2.10111">
        <ele>47.769915</ele>
        <time>2022-12-14T16:15:53.362Z</time>
      </trkpt>
      <trkpt lat="47.65379" lon="-2.10104">
        <ele>47.694313</ele>
        <time>2022-12-14T16:15:56.335Z</time>
      </trkpt>
      <trkpt lat="47.6537" lon="-2.10095">
        <ele>47.615919</ele>
        <time>2022-12-14T16:15:59.359Z</time>
      </trkpt>
      <trkpt lat="47.65361" lon="-2.10085">
        <ele>47.536936</ele>
        <time>2022-12-14T16:16:02.364Z</time>
      </trkpt>
      <trkpt lat="47.65352" lon="-2.10076">
        <ele>47.460794</ele>
        <time>2022-12-14T16:16:05.349Z</time>
      </trkpt>
      <trkpt lat="47.65344" lon="-2.10067">
        <ele>47.388007</ele>
        <time>2022-12-14T16:16:08.339Z</time>
      </trkpt>
      <trkpt lat="47.65336" lon="-2.10054">
        <ele>47.305742</ele>
        <time>2022-12-14T16:16:11.355Z</time>
      </trkpt>
      <trkpt lat="47.65327" lon="-2.10042">
        <ele>47.220445</ele>
        <time>2022-12-14T16:16:14.366Z</time>
      </trkpt>
      <trkpt lat="47.6532" lon="-2.10031">
        <ele>47.147104</ele>
        <time>2022-12-14T16:16:17.345Z</time>
      </trkpt>
      <trkpt lat="47.65312" lon="-2.10019">
        <ele>47.07569</ele>
        <time>2022-12-14T16:16:20.338Z</time>
      </trkpt>
      <trkpt lat="47.65305" lon="-2.10006">
        <ele>47.051354</ele>
        <time>2022-12-14T16:16:23.337Z</time>
      </trkpt>
      <trkpt lat="47.65297" lon="-2.09992">
        <ele>47.026699</ele>
        <time>2022-12-14T16:16:26.349Z</time>
      </trkpt>
      <trkpt lat="47.6529" lon="-2.09978">
        <ele>47.002421</ele>
        <time>2022-12-14T16:16:29.338Z</time>
      </trkpt>
      <trkpt lat="47.65282" lon="-2.09965">
        <ele>46.977622</ele>
        <time>2022-12-14T16:16:32.354Z</time>
      </trkpt>
      <trkpt lat="47.65276" lon="-2.0995">
        <ele>46.953125</ele>
        <time>2022-12-14T16:16:35.354Z</time>
      </trkpt>
      <trkpt lat="47.65269" lon="-2.09936">
        <ele>46.929314</ele>
        <time>2022-12-14T16:16:38.340Z</time>
      </trkpt>
      <trkpt lat="47.65263" lon="-2.09922">
        <ele>46.905045</ele>
        <time>2022-12-14T16:16:41.364Z</time>
      </trkpt>
      <trkpt lat="47.65256" lon="-2.09907">
        <ele>46.880545</ele>
        <time>2022-12-14T16:16:44.342Z</time>
      </trkpt>
      <trkpt lat="47.65251" lon="-2.09895">
        <ele>46.860436</ele>
        <time>2022-12-14T16:16:47.351Z</time>
      </trkpt>
      <trkpt lat="47.65246" lon="-2.09881">
        <ele>46.838079</ele>
        <time>2022-12-14T16:16:50.339Z</time>
      </trkpt>
      <trkpt lat="47.65241" lon="-2.09866">
        <ele>46.815278</ele>
        <time>2022-12-14T16:16:53.338Z</time>
      </trkpt>
      <trkpt lat="47.65236" lon="-2.09851">
        <ele>46.791399</ele>
        <time>2022-12-14T16:16:56.368Z</time>
      </trkpt>
      <trkpt lat="47.65231" lon="-2.09835">
        <ele>46.766256</ele>
        <time>2022-12-14T16:16:59.360Z</time>
      </trkpt>
      <trkpt lat="47.65226" lon="-2.09819">
        <ele>46.741313</ele>
        <time>2022-12-14T16:17:02.356Z</time>
      </trkpt>
      <trkpt lat="47.65222" lon="-2.09806">
        <ele>46.721942</ele>
        <time>2022-12-14T16:17:05.346Z</time>
      </trkpt>
      <trkpt lat="47.65217" lon="-2.09791">
        <ele>46.721454</ele>
        <time>2022-12-14T16:17:08.339Z</time>
      </trkpt>
      <trkpt lat="47.65212" lon="-2.09776">
        <ele>46.781197</ele>
        <time>2022-12-14T16:17:11.366Z</time>
      </trkpt>
      <trkpt lat="47.65207" lon="-2.09761">
        <ele>46.843687</ele>
        <time>2022-12-14T16:17:14.363Z</time>
      </trkpt>
      <trkpt lat="47.65203" lon="-2.09745">
        <ele>46.906934</ele>
        <time>2022-12-14T16:17:17.363Z</time>
      </trkpt>
      <trkpt lat="47.65198" lon="-2.0973">
        <ele>46.966234</ele>
        <time>2022-12-14T16:17:20.359Z</time>
      </trkpt>
      <trkpt lat="47.65194" lon="-2.09715">
        <ele>47.024537</ele>
        <time>2022-12-14T16:17:23.355Z</time>
      </trkpt>
      <trkpt lat="47.65189" lon="-2.09699">
        <ele>47.086255</ele>
        <time>2022-12-14T16:17:26.341Z</time>
      </trkpt>
      <trkpt lat="47.65185" lon="-2.09684">
        <ele>47.147764</ele>
        <time>2022-12-14T16:17:29.360Z</time>
      </trkpt>
      <trkpt lat="47.65179" lon="-2.09667">
        <ele>47.214839</ele>
        <time>2022-12-14T16:17:32.369Z</time>
      </trkpt>
      <trkpt lat="47.65173" lon="-2.0965">
        <ele>47.282966</ele>
        <time>2022-12-14T16:17:35.369Z</time>
      </trkpt>
      <trkpt lat="47.65168" lon="-2.09634">
        <ele>47.347649</ele>
        <time>2022-12-14T16:17:38.358Z</time>
      </trkpt>
      <trkpt lat="47.65163" lon="-2.09618">
        <ele>47.411737</ele>
        <time>2022-12-14T16:17:41.366Z</time>
      </trkpt>
      <trkpt lat="47.65158" lon="-2.09603">
        <ele>47.472013</ele>
        <time>2022-12-14T16:17:44.361Z</time>
      </trkpt>
      <trkpt lat="47.65153" lon="-2.09587">
        <ele>47.537483</ele>
        <time>2022-12-14T16:17:47.396Z</time>
      </trkpt>
      <trkpt lat="47.65148" lon="-2.0957">
        <ele>47.605349</ele>
        <time>2022-12-14T16:17:50.337Z</time>
      </trkpt>
      <trkpt lat="47.65142" lon="-2.09553">
        <ele>47.671719</ele>
        <time>2022-12-14T16:17:53.336Z</time>
      </trkpt>
      <trkpt lat="47.65137" lon="-2.09536">
        <ele>47.687773</ele>
        <time>2022-12-14T16:17:56.340Z</time>
      </trkpt>
      <trkpt lat="47.65132" lon="-2.09519">
        <ele>47.703685</ele>
        <time>2022-12-14T16:17:59.355Z</time>
      </trkpt>
      <trkpt lat="47.65127" lon="-2.09503">
        <ele>47.717839</ele>
        <time>2022-12-14T16:18:02.344Z</time>
      </trkpt>
      <trkpt lat="47.65123" lon="-2.0949">
        <ele>47.730578</ele>
        <time>2022-12-14T16:18:05.333Z</time>
      </trkpt>
      <trkpt lat="47.65117" lon="-2.09474">
        <ele>47.745343</ele>
        <time>2022-12-14T16:18:08.363Z</time>
      </trkpt>
      <trkpt lat="47.65112" lon="-2.09459">
        <ele>47.760478</ele>
        <time>2022-12-14T16:18:11.360Z</time>
      </trkpt>
      <trkpt lat="47.65106" lon="-2.09442">
        <ele>47.776153</ele>
        <time>2022-12-14T16:18:14.343Z</time>
      </trkpt>
      <trkpt lat="47.651" lon="-2.09426">
        <ele>47.792188</ele>
        <time>2022-12-14T16:18:17.356Z</time>
      </trkpt>
      <trkpt lat="47.65095" lon="-2.09411">
        <ele>47.806593</ele>
        <time>2022-12-14T16:18:20.367Z</time>
      </trkpt>
      <trkpt lat="47.65091" lon="-2.09394">
        <ele>47.821258</ele>
        <time>2022-12-14T16:18:23.350Z</time>
      </trkpt>
      <trkpt lat="47.65087" lon="-2.09379">
        <ele>47.835268</ele>
        <time>2022-12-14T16:18:26.347Z</time>
      </trkpt>
      <trkpt lat="47.65082" lon="-2.09364">
        <ele>47.849582</ele>
        <time>2022-12-14T16:18:29.359Z</time>
      </trkpt>
      <trkpt lat="47.65077" lon="-2.0935">
        <ele>47.862281</ele>
        <time>2022-12-14T16:18:32.373Z</time>
      </trkpt>
      <trkpt lat="47.65073" lon="-2.09337">
        <ele>47.874575</ele>
        <time>2022-12-14T16:18:35.348Z</time>
      </trkpt>
      <trkpt lat="47.65069" lon="-2.09322">
        <ele>47.888528</ele>
        <time>2022-12-14T16:18:38.338Z</time>
      </trkpt>
      <trkpt lat="47.65064" lon="-2.09308">
        <ele>47.910784</ele>
        <time>2022-12-14T16:18:41.343Z</time>
      </trkpt>
      <trkpt lat="47.65058" lon="-2.09291">
        <ele>47.953961</ele>
        <time>2022-12-14T16:18:44.365Z</time>
      </trkpt>
      <trkpt lat="47.65053" lon="-2.09276">
        <ele>47.995937</ele>
        <time>2022-12-14T16:18:47.363Z</time>
      </trkpt>
      <trkpt lat="47.65048" lon="-2.09258">
        <ele>48.040059</ele>
        <time>2022-12-14T16:18:50.348Z</time>
      </trkpt>
      <trkpt lat="47.65043" lon="-2.09241">
        <ele>48.084368</ele>
        <time>2022-12-14T16:18:53.356Z</time>
      </trkpt>
      <trkpt lat="47.65038" lon="-2.09223">
        <ele>48.129826</ele>
        <time>2022-12-14T16:18:56.365Z</time>
      </trkpt>
      <trkpt lat="47.65033" lon="-2.09207">
        <ele>48.172698</ele>
        <time>2022-12-14T16:18:59.343Z</time>
      </trkpt>
      <trkpt lat="47.65027" lon="-2.0919">
        <ele>48.217257</ele>
        <time>2022-12-14T16:19:02.341Z</time>
      </trkpt>
      <trkpt lat="47.65021" lon="-2.09173">
        <ele>48.262869</ele>
        <time>2022-12-14T16:19:05.342Z</time>
      </trkpt>
      <trkpt lat="47.65016" lon="-2.09157">
        <ele>48.303731</ele>
        <time>2022-12-14T16:19:08.364Z</time>
      </trkpt>
      <trkpt lat="47.65011" lon="-2.09143">
        <ele>48.342005</ele>
        <time>2022-12-14T16:19:11.374Z</time>
      </trkpt>
      <trkpt lat="47.65007" lon="-2.09128">
        <ele>48.38106</ele>
        <time>2022-12-14T16:19:14.370Z</time>
      </trkpt>
      <trkpt lat="47.65002" lon="-2.09113">
        <ele>48.420619</ele>
        <time>2022-12-14T16:19:17.334Z</time>
      </trkpt>
      <trkpt lat="47.64997" lon="-2.09096">
        <ele>48.464376</ele>
        <time>2022-12-14T16:19:20.338Z</time>
      </trkpt>
      <trkpt lat="47.64991" lon="-2.09078">
        <ele>48.509904</ele>
        <time>2022-12-14T16:19:23.339Z</time>
      </trkpt>
      <trkpt lat="47.64986" lon="-2.09062">
        <ele>48.529477</ele>
        <time>2022-12-14T16:19:26.368Z</time>
      </trkpt>
      <trkpt lat="47.64983" lon="-2.09048">
        <ele>48.529477</ele>
        <time>2022-12-14T16:19:29.369Z</time>
      </trkpt>
      <trkpt lat="47.64977" lon="-2.09032">
        <ele>48.529477</ele>
        <time>2022-12-14T16:19:33.369Z</time>
      </trkpt>
      <trkpt lat="47.64973" lon="-2.09019">
        <ele>48.529477</ele>
        <time>2022-12-14T16:19:36.362Z</time>
      </trkpt>
      <trkpt lat="47.64969" lon="-2.09006">
        <ele>48.529477</ele>
        <time>2022-12-14T16:19:39.362Z</time>
      </trkpt>
      <trkpt lat="47.64965" lon="-2.08991">
        <ele>48.529477</ele>
        <time>2022-12-14T16:19:42.375Z</time>
      </trkpt>
      <trkpt lat="47.6496" lon="-2.08978">
        <ele>48.529477</ele>
        <time>2022-12-14T16:19:45.342Z</time>
      </trkpt>
      <trkpt lat="47.64956" lon="-2.08965">
        <ele>48.529477</ele>
        <time>2022-12-14T16:19:48.386Z</time>
      </trkpt>
      <trkpt lat="47.64952" lon="-2.08951">
        <ele>48.529477</ele>
        <time>2022-12-14T16:19:52.361Z</time>
      </trkpt>
      <trkpt lat="47.64948" lon="-2.08938">
        <ele>48.529477</ele>
        <time>2022-12-14T16:19:55.352Z</time>
      </trkpt>
      <trkpt lat="47.64943" lon="-2.08924">
        <ele>48.529477</ele>
        <time>2022-12-14T16:19:58.342Z</time>
      </trkpt>
      <trkpt lat="47.64938" lon="-2.0891">
        <ele>48.529477</ele>
        <time>2022-12-14T16:20:01.364Z</time>
      </trkpt>
      <trkpt lat="47.64934" lon="-2.08897">
        <ele>48.529477</ele>
        <time>2022-12-14T16:20:04.359Z</time>
      </trkpt>
      <trkpt lat="47.64928" lon="-2.08881">
        <ele>48.529477</ele>
        <time>2022-12-14T16:20:08.342Z</time>
      </trkpt>
      <trkpt lat="47.64924" lon="-2.08865">
        <ele>48.529477</ele>
        <time>2022-12-14T16:20:12.362Z</time>
      </trkpt>
      <trkpt lat="47.64919" lon="-2.08851">
        <ele>48.529477</ele>
        <time>2022-12-14T16:20:16.410Z</time>
      </trkpt>
      <trkpt lat="47.64915" lon="-2.08838">
        <ele>48.529477</ele>
        <time>2022-12-14T16:20:19.357Z</time>
      </trkpt>
      <trkpt lat="47.64909" lon="-2.08824">
        <ele>48.529477</ele>
        <time>2022-12-14T16:20:23.368Z</time>
      </trkpt>
      <trkpt lat="47.64905" lon="-2.0881">
        <ele>48.529477</ele>
        <time>2022-12-14T16:20:27.375Z</time>
      </trkpt>
      <trkpt lat="47.64903" lon="-2.08803">
        <ele>48.529477</ele>
        <time>2022-12-14T16:21:23.947Z</time>
        <extensions>
          <visugpx:TrkExtension xmlns:visugpx="https://www.visugpx.com/editgpx/">
            <visugpx:node>1</visugpx:node>
            </visugpx:TrkExtension>
        </extensions>
      </trkpt>
    </trkseg>
  </trk>
</gpx>